<?xml version="1.0" encoding="UTF-8" standalone="no" ?>
<gpx xmlns="http://www.topografix.com/GPX/1/1" xmlns:xsi="http://www.w3.org/2001/XMLSchema-instance" xsi:schemaLocation="http://www.topografix.com/GPX/1/1 http://www.topografix.com/GPX/1/1/gpx.xsd" version="1.1" creator="VisuGPX - https://www.visugpx.com">
  <metadata>
    <name>Paradiski J5-2016 (JLo)</name>
    <desc><![CDATA[Cinquième jour : on se défonce ! Plus de 100 km !!!]]></desc>
  </metadata>
  <trk>
    <name><![CDATA[2016-03-24 08:55]]></name>
    <desc><![CDATA[<p>Temps de départ: 03/24/2016 08:56</p><p>Temps d'arrivée: 03/24/2016 17:05</p><p>Distance: 103 km (08:09)</p><p>Temps déplacement: 06:26</p><p>Vitesse moyenne: 12,6 km/h</p><p>Vitesse moyenne mouvement: 16 km/h</p><p>Vitess Max.: 63,6km/h</p><p>Altitude minimale: 1209 m</p><p>Altitude maximale: 2818 m</p><p>Vitesse d'élévation: 3038,5 m/h</p><p>Vitesse de descente: -2468,5 m/h</p><p>Gain Altitude: 10069 m</p><p>Perte Altitude: -9975 m</p><p>Temps d'élévation: 03:18</p><p>Temps de descente: 04:02</p><hr align="center" width="480" style="height: 2px; width: 517px"/>]]></desc>
    <trkseg>
      <trkpt lat="45.51229" lon="6.6672">
        <ele>2053.53</ele>
        <time>2016-03-24T07:56:16Z</time>
      </trkpt>
      <trkpt lat="45.51229" lon="6.66677">
        <ele>2058.33</ele>
        <time>2016-03-24T07:56:20Z</time>
      </trkpt>
      <trkpt lat="45.51247" lon="6.6669">
        <ele>2048.55</ele>
        <time>2016-03-24T07:57:19Z</time>
      </trkpt>
      <trkpt lat="45.51273" lon="6.66695">
        <ele>2046.58</ele>
        <time>2016-03-24T07:57:22Z</time>
      </trkpt>
      <trkpt lat="45.51291" lon="6.66692">
        <ele>2043.65</ele>
        <time>2016-03-24T07:57:24Z</time>
      </trkpt>
      <trkpt lat="45.51309" lon="6.66701">
        <ele>2040.02</ele>
        <time>2016-03-24T07:57:26Z</time>
      </trkpt>
      <trkpt lat="45.51335" lon="6.66704">
        <ele>2036.62</ele>
        <time>2016-03-24T07:57:29Z</time>
      </trkpt>
      <trkpt lat="45.51354" lon="6.66714">
        <ele>2035.57</ele>
        <time>2016-03-24T07:57:32Z</time>
      </trkpt>
      <trkpt lat="45.51375" lon="6.66729">
        <ele>2032.62</ele>
        <time>2016-03-24T07:57:35Z</time>
      </trkpt>
      <trkpt lat="45.51396" lon="6.66737">
        <ele>2028.66</ele>
        <time>2016-03-24T07:57:38Z</time>
      </trkpt>
      <trkpt lat="45.51417" lon="6.66745">
        <ele>2024.06</ele>
        <time>2016-03-24T07:57:40Z</time>
      </trkpt>
      <trkpt lat="45.51434" lon="6.66752">
        <ele>2022.59</ele>
        <time>2016-03-24T07:57:42Z</time>
      </trkpt>
      <trkpt lat="45.51456" lon="6.66774">
        <ele>2018.79</ele>
        <time>2016-03-24T07:57:45Z</time>
      </trkpt>
      <trkpt lat="45.51474" lon="6.66797">
        <ele>2014.98</ele>
        <time>2016-03-24T07:57:48Z</time>
      </trkpt>
      <trkpt lat="45.51483" lon="6.6682">
        <ele>2003.6</ele>
        <time>2016-03-24T07:57:57Z</time>
      </trkpt>
      <trkpt lat="45.51484" lon="6.66852">
        <ele>1996.99</ele>
        <time>2016-03-24T07:58:02Z</time>
      </trkpt>
      <trkpt lat="45.51483" lon="6.66883">
        <ele>1993.77</ele>
        <time>2016-03-24T07:58:06Z</time>
      </trkpt>
      <trkpt lat="45.51497" lon="6.66904">
        <ele>1989.01</ele>
        <time>2016-03-24T07:58:10Z</time>
      </trkpt>
      <trkpt lat="45.51522" lon="6.66917">
        <ele>1987.69</ele>
        <time>2016-03-24T07:58:14Z</time>
      </trkpt>
      <trkpt lat="45.51534" lon="6.66939">
        <ele>1981.23</ele>
        <time>2016-03-24T07:58:18Z</time>
      </trkpt>
      <trkpt lat="45.51544" lon="6.66967">
        <ele>1975.38</ele>
        <time>2016-03-24T07:58:21Z</time>
      </trkpt>
      <trkpt lat="45.51543" lon="6.66996">
        <ele>1970.83</ele>
        <time>2016-03-24T07:58:24Z</time>
      </trkpt>
      <trkpt lat="45.51544" lon="6.67028">
        <ele>1967.75</ele>
        <time>2016-03-24T07:58:28Z</time>
      </trkpt>
      <trkpt lat="45.51545" lon="6.67062">
        <ele>1964.17</ele>
        <time>2016-03-24T07:58:31Z</time>
      </trkpt>
      <trkpt lat="45.51552" lon="6.67093">
        <ele>1958.1</ele>
        <time>2016-03-24T07:58:34Z</time>
      </trkpt>
      <trkpt lat="45.51554" lon="6.67124">
        <ele>1954.03</ele>
        <time>2016-03-24T07:58:36Z</time>
      </trkpt>
      <trkpt lat="45.51567" lon="6.67146">
        <ele>1939.14</ele>
        <time>2016-03-24T07:58:39Z</time>
      </trkpt>
      <trkpt lat="45.51576" lon="6.67182">
        <ele>1917.29</ele>
        <time>2016-03-24T07:58:42Z</time>
      </trkpt>
      <trkpt lat="45.5159" lon="6.67208">
        <ele>1907.44</ele>
        <time>2016-03-24T07:58:44Z</time>
      </trkpt>
      <trkpt lat="45.51602" lon="6.6723">
        <ele>1898.25</ele>
        <time>2016-03-24T07:58:46Z</time>
      </trkpt>
      <trkpt lat="45.51621" lon="6.67211">
        <ele>1886.08</ele>
        <time>2016-03-24T07:58:49Z</time>
      </trkpt>
      <trkpt lat="45.51642" lon="6.67206">
        <ele>1880.19</ele>
        <time>2016-03-24T07:58:52Z</time>
      </trkpt>
      <trkpt lat="45.51664" lon="6.67208">
        <ele>1869.8</ele>
        <time>2016-03-24T07:58:54Z</time>
      </trkpt>
      <trkpt lat="45.51684" lon="6.67211">
        <ele>1857.22</ele>
        <time>2016-03-24T07:58:56Z</time>
      </trkpt>
      <trkpt lat="45.51706" lon="6.67203">
        <ele>1846.8</ele>
        <time>2016-03-24T07:58:58Z</time>
      </trkpt>
      <trkpt lat="45.51735" lon="6.67204">
        <ele>1841.58</ele>
        <time>2016-03-24T07:59:00Z</time>
      </trkpt>
      <trkpt lat="45.51752" lon="6.67183">
        <ele>1832.41</ele>
        <time>2016-03-24T07:59:02Z</time>
      </trkpt>
      <trkpt lat="45.51773" lon="6.67164">
        <ele>1829.01</ele>
        <time>2016-03-24T07:59:04Z</time>
      </trkpt>
      <trkpt lat="45.51794" lon="6.6715">
        <ele>1823.43</ele>
        <time>2016-03-24T07:59:06Z</time>
      </trkpt>
      <trkpt lat="45.51812" lon="6.67127">
        <ele>1820.65</ele>
        <time>2016-03-24T07:59:08Z</time>
      </trkpt>
      <trkpt lat="45.51829" lon="6.67108">
        <ele>1820.38</ele>
        <time>2016-03-24T07:59:10Z</time>
      </trkpt>
      <trkpt lat="45.51855" lon="6.67102">
        <ele>1818.76</ele>
        <time>2016-03-24T07:59:12Z</time>
      </trkpt>
      <trkpt lat="45.51884" lon="6.67102">
        <ele>1814.66</ele>
        <time>2016-03-24T07:59:15Z</time>
      </trkpt>
      <trkpt lat="45.51914" lon="6.67105">
        <ele>1813.1</ele>
        <time>2016-03-24T07:59:17Z</time>
      </trkpt>
      <trkpt lat="45.51932" lon="6.67112">
        <ele>1808.23</ele>
        <time>2016-03-24T07:59:19Z</time>
      </trkpt>
      <trkpt lat="45.51952" lon="6.67108">
        <ele>1794.12</ele>
        <time>2016-03-24T07:59:21Z</time>
      </trkpt>
      <trkpt lat="45.51978" lon="6.6711">
        <ele>1782.83</ele>
        <time>2016-03-24T07:59:23Z</time>
      </trkpt>
      <trkpt lat="45.52002" lon="6.67101">
        <ele>1777.1</ele>
        <time>2016-03-24T07:59:25Z</time>
      </trkpt>
      <trkpt lat="45.52028" lon="6.67099">
        <ele>1775.75</ele>
        <time>2016-03-24T07:59:27Z</time>
      </trkpt>
      <trkpt lat="45.52051" lon="6.67093">
        <ele>1772.75</ele>
        <time>2016-03-24T07:59:30Z</time>
      </trkpt>
      <trkpt lat="45.52074" lon="6.67107">
        <ele>1763.83</ele>
        <time>2016-03-24T07:59:34Z</time>
      </trkpt>
      <trkpt lat="45.52093" lon="6.67113">
        <ele>1759.22</ele>
        <time>2016-03-24T07:59:36Z</time>
      </trkpt>
      <trkpt lat="45.52115" lon="6.67111">
        <ele>1756</ele>
        <time>2016-03-24T07:59:38Z</time>
      </trkpt>
      <trkpt lat="45.52135" lon="6.67107">
        <ele>1744.3</ele>
        <time>2016-03-24T07:59:41Z</time>
      </trkpt>
      <trkpt lat="45.52154" lon="6.67107">
        <ele>1736.69</ele>
        <time>2016-03-24T07:59:44Z</time>
      </trkpt>
      <trkpt lat="45.52174" lon="6.67105">
        <ele>1731.42</ele>
        <time>2016-03-24T07:59:46Z</time>
      </trkpt>
      <trkpt lat="45.52198" lon="6.67102">
        <ele>1720.55</ele>
        <time>2016-03-24T07:59:49Z</time>
      </trkpt>
      <trkpt lat="45.52217" lon="6.6711">
        <ele>1717.01</ele>
        <time>2016-03-24T07:59:51Z</time>
      </trkpt>
      <trkpt lat="45.52237" lon="6.67113">
        <ele>1712.23</ele>
        <time>2016-03-24T07:59:53Z</time>
      </trkpt>
      <trkpt lat="45.52245" lon="6.67148">
        <ele>1701.83</ele>
        <time>2016-03-24T07:59:57Z</time>
      </trkpt>
      <trkpt lat="45.52253" lon="6.67177">
        <ele>1698.02</ele>
        <time>2016-03-24T07:59:59Z</time>
      </trkpt>
      <trkpt lat="45.52259" lon="6.6721">
        <ele>1696.59</ele>
        <time>2016-03-24T08:00:01Z</time>
      </trkpt>
      <trkpt lat="45.52267" lon="6.6724">
        <ele>1684.04</ele>
        <time>2016-03-24T08:00:06Z</time>
      </trkpt>
      <trkpt lat="45.52278" lon="6.67268">
        <ele>1680.03</ele>
        <time>2016-03-24T08:00:08Z</time>
      </trkpt>
      <trkpt lat="45.523" lon="6.67281">
        <ele>1673.07</ele>
        <time>2016-03-24T08:00:11Z</time>
      </trkpt>
      <trkpt lat="45.52324" lon="6.67276">
        <ele>1666.15</ele>
        <time>2016-03-24T08:00:13Z</time>
      </trkpt>
      <trkpt lat="45.52342" lon="6.67264">
        <ele>1657.24</ele>
        <time>2016-03-24T08:00:15Z</time>
      </trkpt>
      <trkpt lat="45.5236" lon="6.67276">
        <ele>1651.28</ele>
        <time>2016-03-24T08:00:17Z</time>
      </trkpt>
      <trkpt lat="45.52381" lon="6.67273">
        <ele>1644</ele>
        <time>2016-03-24T08:00:19Z</time>
      </trkpt>
      <trkpt lat="45.524" lon="6.67288">
        <ele>1635.87</ele>
        <time>2016-03-24T08:00:21Z</time>
      </trkpt>
      <trkpt lat="45.52426" lon="6.67289">
        <ele>1616.85</ele>
        <time>2016-03-24T08:00:24Z</time>
      </trkpt>
      <trkpt lat="45.52446" lon="6.67309">
        <ele>1609.85</ele>
        <time>2016-03-24T08:00:27Z</time>
      </trkpt>
      <trkpt lat="45.52465" lon="6.67317">
        <ele>1606.18</ele>
        <time>2016-03-24T08:00:29Z</time>
      </trkpt>
      <trkpt lat="45.52485" lon="6.67329">
        <ele>1604.76</ele>
        <time>2016-03-24T08:00:31Z</time>
      </trkpt>
      <trkpt lat="45.52511" lon="6.67329">
        <ele>1599.58</ele>
        <time>2016-03-24T08:00:33Z</time>
      </trkpt>
      <trkpt lat="45.52531" lon="6.67323">
        <ele>1593.29</ele>
        <time>2016-03-24T08:00:35Z</time>
      </trkpt>
      <trkpt lat="45.52564" lon="6.6732">
        <ele>1581.72</ele>
        <time>2016-03-24T08:00:38Z</time>
      </trkpt>
      <trkpt lat="45.52583" lon="6.67308">
        <ele>1572.03</ele>
        <time>2016-03-24T08:00:43Z</time>
      </trkpt>
      <trkpt lat="45.52569" lon="6.6729">
        <ele>1545.9</ele>
        <time>2016-03-24T08:01:07Z</time>
      </trkpt>
      <trkpt lat="45.5255" lon="6.67277">
        <ele>1527.41</ele>
        <time>2016-03-24T08:01:42Z</time>
      </trkpt>
      <trkpt lat="45.52531" lon="6.67269">
        <ele>1529.29</ele>
        <time>2016-03-24T08:01:46Z</time>
      </trkpt>
      <trkpt lat="45.52513" lon="6.6726">
        <ele>1528.49</ele>
        <time>2016-03-24T08:01:50Z</time>
      </trkpt>
      <trkpt lat="45.52494" lon="6.67248">
        <ele>1529.52</ele>
        <time>2016-03-24T08:01:54Z</time>
      </trkpt>
      <trkpt lat="45.52478" lon="6.67237">
        <ele>1531.13</ele>
        <time>2016-03-24T08:01:58Z</time>
      </trkpt>
      <trkpt lat="45.5246" lon="6.67229">
        <ele>1535.49</ele>
        <time>2016-03-24T08:02:02Z</time>
      </trkpt>
      <trkpt lat="45.52444" lon="6.67217">
        <ele>1540.31</ele>
        <time>2016-03-24T08:02:06Z</time>
      </trkpt>
      <trkpt lat="45.52426" lon="6.67209">
        <ele>1556.98</ele>
        <time>2016-03-24T08:02:12Z</time>
      </trkpt>
      <trkpt lat="45.52406" lon="6.67197">
        <ele>1562.36</ele>
        <time>2016-03-24T08:02:17Z</time>
      </trkpt>
      <trkpt lat="45.52387" lon="6.67188">
        <ele>1570.28</ele>
        <time>2016-03-24T08:02:22Z</time>
      </trkpt>
      <trkpt lat="45.5237" lon="6.67173">
        <ele>1577.88</ele>
        <time>2016-03-24T08:02:27Z</time>
      </trkpt>
      <trkpt lat="45.52353" lon="6.67163">
        <ele>1582.28</ele>
        <time>2016-03-24T08:02:31Z</time>
      </trkpt>
      <trkpt lat="45.52335" lon="6.67153">
        <ele>1592.92</ele>
        <time>2016-03-24T08:02:36Z</time>
      </trkpt>
      <trkpt lat="45.52317" lon="6.67142">
        <ele>1613.09</ele>
        <time>2016-03-24T08:02:41Z</time>
      </trkpt>
      <trkpt lat="45.523" lon="6.67132">
        <ele>1619.08</ele>
        <time>2016-03-24T08:02:45Z</time>
      </trkpt>
      <trkpt lat="45.5228" lon="6.67121">
        <ele>1635.15</ele>
        <time>2016-03-24T08:02:51Z</time>
      </trkpt>
      <trkpt lat="45.52261" lon="6.67109">
        <ele>1649</ele>
        <time>2016-03-24T08:02:56Z</time>
      </trkpt>
      <trkpt lat="45.52242" lon="6.67098">
        <ele>1662.37</ele>
        <time>2016-03-24T08:03:01Z</time>
      </trkpt>
      <trkpt lat="45.52222" lon="6.67088">
        <ele>1670.42</ele>
        <time>2016-03-24T08:03:06Z</time>
      </trkpt>
      <trkpt lat="45.52205" lon="6.67078">
        <ele>1674.28</ele>
        <time>2016-03-24T08:03:10Z</time>
      </trkpt>
      <trkpt lat="45.52189" lon="6.67066">
        <ele>1689.21</ele>
        <time>2016-03-24T08:03:15Z</time>
      </trkpt>
      <trkpt lat="45.52169" lon="6.67056">
        <ele>1695.11</ele>
        <time>2016-03-24T08:03:20Z</time>
      </trkpt>
      <trkpt lat="45.52153" lon="6.67046">
        <ele>1701.24</ele>
        <time>2016-03-24T08:03:24Z</time>
      </trkpt>
      <trkpt lat="45.52135" lon="6.67036">
        <ele>1705.27</ele>
        <time>2016-03-24T08:03:28Z</time>
      </trkpt>
      <trkpt lat="45.52115" lon="6.67024">
        <ele>1715.35</ele>
        <time>2016-03-24T08:03:33Z</time>
      </trkpt>
      <trkpt lat="45.52097" lon="6.6702">
        <ele>1716.52</ele>
        <time>2016-03-24T08:03:37Z</time>
      </trkpt>
      <trkpt lat="45.52079" lon="6.6701">
        <ele>1729.28</ele>
        <time>2016-03-24T08:03:42Z</time>
      </trkpt>
      <trkpt lat="45.5206" lon="6.66997">
        <ele>1740.4</ele>
        <time>2016-03-24T08:03:47Z</time>
      </trkpt>
      <trkpt lat="45.52043" lon="6.66984">
        <ele>1746.31</ele>
        <time>2016-03-24T08:03:52Z</time>
      </trkpt>
      <trkpt lat="45.52022" lon="6.66971">
        <ele>1755.23</ele>
        <time>2016-03-24T08:03:57Z</time>
      </trkpt>
      <trkpt lat="45.52002" lon="6.66961">
        <ele>1758.32</ele>
        <time>2016-03-24T08:04:02Z</time>
      </trkpt>
      <trkpt lat="45.51984" lon="6.6695">
        <ele>1759.49</ele>
        <time>2016-03-24T08:04:06Z</time>
      </trkpt>
      <trkpt lat="45.51967" lon="6.66937">
        <ele>1771.45</ele>
        <time>2016-03-24T08:04:11Z</time>
      </trkpt>
      <trkpt lat="45.51947" lon="6.66926">
        <ele>1779.45</ele>
        <time>2016-03-24T08:04:16Z</time>
      </trkpt>
      <trkpt lat="45.51929" lon="6.66913">
        <ele>1788.22</ele>
        <time>2016-03-24T08:04:21Z</time>
      </trkpt>
      <trkpt lat="45.5191" lon="6.66901">
        <ele>1792.48</ele>
        <time>2016-03-24T08:04:26Z</time>
      </trkpt>
      <trkpt lat="45.5189" lon="6.66894">
        <ele>1793.5</ele>
        <time>2016-03-24T08:04:30Z</time>
      </trkpt>
      <trkpt lat="45.51872" lon="6.66888">
        <ele>1794.85</ele>
        <time>2016-03-24T08:04:35Z</time>
      </trkpt>
      <trkpt lat="45.51854" lon="6.66876">
        <ele>1796.49</ele>
        <time>2016-03-24T08:04:39Z</time>
      </trkpt>
      <trkpt lat="45.51834" lon="6.66865">
        <ele>1803.69</ele>
        <time>2016-03-24T08:04:44Z</time>
      </trkpt>
      <trkpt lat="45.51819" lon="6.66849">
        <ele>1818.03</ele>
        <time>2016-03-24T08:04:49Z</time>
      </trkpt>
      <trkpt lat="45.518" lon="6.66836">
        <ele>1829.47</ele>
        <time>2016-03-24T08:04:54Z</time>
      </trkpt>
      <trkpt lat="45.51783" lon="6.66825">
        <ele>1834.51</ele>
        <time>2016-03-24T08:04:58Z</time>
      </trkpt>
      <trkpt lat="45.51764" lon="6.66814">
        <ele>1835.33</ele>
        <time>2016-03-24T08:05:02Z</time>
      </trkpt>
      <trkpt lat="45.51744" lon="6.66803">
        <ele>1840.48</ele>
        <time>2016-03-24T08:05:07Z</time>
      </trkpt>
      <trkpt lat="45.51725" lon="6.66794">
        <ele>1850.23</ele>
        <time>2016-03-24T08:05:12Z</time>
      </trkpt>
      <trkpt lat="45.51704" lon="6.66781">
        <ele>1866.07</ele>
        <time>2016-03-24T08:05:18Z</time>
      </trkpt>
      <trkpt lat="45.51684" lon="6.66771">
        <ele>1887.7</ele>
        <time>2016-03-24T08:05:24Z</time>
      </trkpt>
      <trkpt lat="45.51669" lon="6.66756">
        <ele>1905.14</ele>
        <time>2016-03-24T08:05:29Z</time>
      </trkpt>
      <trkpt lat="45.5165" lon="6.66749">
        <ele>1912.04</ele>
        <time>2016-03-24T08:05:34Z</time>
      </trkpt>
      <trkpt lat="45.5163" lon="6.66745">
        <ele>1918.47</ele>
        <time>2016-03-24T08:05:39Z</time>
      </trkpt>
      <trkpt lat="45.51613" lon="6.66733">
        <ele>1925.24</ele>
        <time>2016-03-24T08:05:43Z</time>
      </trkpt>
      <trkpt lat="45.51595" lon="6.66724">
        <ele>1927.49</ele>
        <time>2016-03-24T08:05:47Z</time>
      </trkpt>
      <trkpt lat="45.51575" lon="6.66709">
        <ele>1935.04</ele>
        <time>2016-03-24T08:05:52Z</time>
      </trkpt>
      <trkpt lat="45.51559" lon="6.66698">
        <ele>1939.27</ele>
        <time>2016-03-24T08:05:56Z</time>
      </trkpt>
      <trkpt lat="45.51542" lon="6.66685">
        <ele>1944.23</ele>
        <time>2016-03-24T08:06:00Z</time>
      </trkpt>
      <trkpt lat="45.51525" lon="6.66678">
        <ele>1951.05</ele>
        <time>2016-03-24T08:06:05Z</time>
      </trkpt>
      <trkpt lat="45.51509" lon="6.66663">
        <ele>1959.87</ele>
        <time>2016-03-24T08:06:09Z</time>
      </trkpt>
      <trkpt lat="45.51491" lon="6.66655">
        <ele>1969.99</ele>
        <time>2016-03-24T08:06:14Z</time>
      </trkpt>
      <trkpt lat="45.51472" lon="6.66646">
        <ele>1979.07</ele>
        <time>2016-03-24T08:06:19Z</time>
      </trkpt>
      <trkpt lat="45.51453" lon="6.66633">
        <ele>1988.08</ele>
        <time>2016-03-24T08:06:24Z</time>
      </trkpt>
      <trkpt lat="45.51437" lon="6.6662">
        <ele>2004.58</ele>
        <time>2016-03-24T08:06:29Z</time>
      </trkpt>
      <trkpt lat="45.51418" lon="6.66609">
        <ele>2014.22</ele>
        <time>2016-03-24T08:06:34Z</time>
      </trkpt>
      <trkpt lat="45.51401" lon="6.66598">
        <ele>2023.79</ele>
        <time>2016-03-24T08:06:39Z</time>
      </trkpt>
      <trkpt lat="45.51384" lon="6.66588">
        <ele>2028.41</ele>
        <time>2016-03-24T08:06:43Z</time>
      </trkpt>
      <trkpt lat="45.51367" lon="6.66578">
        <ele>2034.09</ele>
        <time>2016-03-24T08:06:47Z</time>
      </trkpt>
      <trkpt lat="45.51346" lon="6.66567">
        <ele>2037.29</ele>
        <time>2016-03-24T08:06:52Z</time>
      </trkpt>
      <trkpt lat="45.51327" lon="6.66557">
        <ele>2047.03</ele>
        <time>2016-03-24T08:06:57Z</time>
      </trkpt>
      <trkpt lat="45.51308" lon="6.66552">
        <ele>2052.48</ele>
        <time>2016-03-24T08:07:02Z</time>
      </trkpt>
      <trkpt lat="45.51288" lon="6.66546">
        <ele>2057.07</ele>
        <time>2016-03-24T08:07:07Z</time>
      </trkpt>
      <trkpt lat="45.5127" lon="6.66529">
        <ele>2065.03</ele>
        <time>2016-03-24T08:07:12Z</time>
      </trkpt>
      <trkpt lat="45.51249" lon="6.66518">
        <ele>2067.33</ele>
        <time>2016-03-24T08:07:17Z</time>
      </trkpt>
      <trkpt lat="45.5123" lon="6.66512">
        <ele>2072.28</ele>
        <time>2016-03-24T08:07:22Z</time>
      </trkpt>
      <trkpt lat="45.51213" lon="6.66501">
        <ele>2075.12</ele>
        <time>2016-03-24T08:07:26Z</time>
      </trkpt>
      <trkpt lat="45.51192" lon="6.66486">
        <ele>2079.1</ele>
        <time>2016-03-24T08:07:31Z</time>
      </trkpt>
      <trkpt lat="45.51173" lon="6.66479">
        <ele>2084.24</ele>
        <time>2016-03-24T08:07:36Z</time>
      </trkpt>
      <trkpt lat="45.51155" lon="6.66466">
        <ele>2087.16</ele>
        <time>2016-03-24T08:07:40Z</time>
      </trkpt>
      <trkpt lat="45.51135" lon="6.66447">
        <ele>2095.12</ele>
        <time>2016-03-24T08:07:45Z</time>
      </trkpt>
      <trkpt lat="45.51116" lon="6.6643">
        <ele>2100.69</ele>
        <time>2016-03-24T08:07:50Z</time>
      </trkpt>
      <trkpt lat="45.511" lon="6.66417">
        <ele>2100.57</ele>
        <time>2016-03-24T08:07:57Z</time>
      </trkpt>
      <trkpt lat="45.51084" lon="6.6643">
        <ele>2104.31</ele>
        <time>2016-03-24T08:08:04Z</time>
      </trkpt>
      <trkpt lat="45.51068" lon="6.66445">
        <ele>2108.56</ele>
        <time>2016-03-24T08:08:17Z</time>
      </trkpt>
      <trkpt lat="45.51054" lon="6.66462">
        <ele>2112.49</ele>
        <time>2016-03-24T08:08:42Z</time>
      </trkpt>
      <trkpt lat="45.5104" lon="6.66482">
        <ele>2111.53</ele>
        <time>2016-03-24T08:08:48Z</time>
      </trkpt>
      <trkpt lat="45.51027" lon="6.66502">
        <ele>2113.18</ele>
        <time>2016-03-24T08:08:54Z</time>
      </trkpt>
      <trkpt lat="45.51015" lon="6.66522">
        <ele>2113.53</ele>
        <time>2016-03-24T08:09:01Z</time>
      </trkpt>
      <trkpt lat="45.51004" lon="6.66546">
        <ele>2112.74</ele>
        <time>2016-03-24T08:09:10Z</time>
      </trkpt>
      <trkpt lat="45.50992" lon="6.66567">
        <ele>2110.73</ele>
        <time>2016-03-24T08:09:15Z</time>
      </trkpt>
      <trkpt lat="45.50977" lon="6.66591">
        <ele>2107.77</ele>
        <time>2016-03-24T08:09:19Z</time>
      </trkpt>
      <trkpt lat="45.50961" lon="6.66613">
        <ele>2105.61</ele>
        <time>2016-03-24T08:09:22Z</time>
      </trkpt>
      <trkpt lat="45.50942" lon="6.66635">
        <ele>2103.58</ele>
        <time>2016-03-24T08:09:25Z</time>
      </trkpt>
      <trkpt lat="45.50922" lon="6.66664">
        <ele>2101.74</ele>
        <time>2016-03-24T08:09:28Z</time>
      </trkpt>
      <trkpt lat="45.50904" lon="6.66693">
        <ele>2096.99</ele>
        <time>2016-03-24T08:09:31Z</time>
      </trkpt>
      <trkpt lat="45.5089" lon="6.66727">
        <ele>2092.85</ele>
        <time>2016-03-24T08:09:34Z</time>
      </trkpt>
      <trkpt lat="45.50883" lon="6.66752">
        <ele>2090.62</ele>
        <time>2016-03-24T08:09:36Z</time>
      </trkpt>
      <trkpt lat="45.50874" lon="6.66785">
        <ele>2087.78</ele>
        <time>2016-03-24T08:09:39Z</time>
      </trkpt>
      <trkpt lat="45.50859" lon="6.66809">
        <ele>2086.54</ele>
        <time>2016-03-24T08:09:42Z</time>
      </trkpt>
      <trkpt lat="45.50841" lon="6.66826">
        <ele>2084.58</ele>
        <time>2016-03-24T08:09:45Z</time>
      </trkpt>
      <trkpt lat="45.50819" lon="6.66848">
        <ele>2081.62</ele>
        <time>2016-03-24T08:09:48Z</time>
      </trkpt>
      <trkpt lat="45.50805" lon="6.66864">
        <ele>2079.77</ele>
        <time>2016-03-24T08:09:50Z</time>
      </trkpt>
      <trkpt lat="45.5079" lon="6.66879">
        <ele>2078.58</ele>
        <time>2016-03-24T08:09:52Z</time>
      </trkpt>
      <trkpt lat="45.50773" lon="6.66907">
        <ele>2077.73</ele>
        <time>2016-03-24T08:09:55Z</time>
      </trkpt>
      <trkpt lat="45.50759" lon="6.66929">
        <ele>2075.78</ele>
        <time>2016-03-24T08:09:57Z</time>
      </trkpt>
      <trkpt lat="45.50743" lon="6.6695">
        <ele>2072.98</ele>
        <time>2016-03-24T08:09:59Z</time>
      </trkpt>
      <trkpt lat="45.50722" lon="6.66965">
        <ele>2070.63</ele>
        <time>2016-03-24T08:10:01Z</time>
      </trkpt>
      <trkpt lat="45.50702" lon="6.66967">
        <ele>2069.73</ele>
        <time>2016-03-24T08:10:03Z</time>
      </trkpt>
      <trkpt lat="45.50679" lon="6.66966">
        <ele>2069.54</ele>
        <time>2016-03-24T08:10:05Z</time>
      </trkpt>
      <trkpt lat="45.50657" lon="6.66974">
        <ele>2065.21</ele>
        <time>2016-03-24T08:10:07Z</time>
      </trkpt>
      <trkpt lat="45.50639" lon="6.66986">
        <ele>2062.8</ele>
        <time>2016-03-24T08:10:09Z</time>
      </trkpt>
      <trkpt lat="45.5062" lon="6.66996">
        <ele>2060.78</ele>
        <time>2016-03-24T08:10:11Z</time>
      </trkpt>
      <trkpt lat="45.50596" lon="6.67002">
        <ele>2060.53</ele>
        <time>2016-03-24T08:10:14Z</time>
      </trkpt>
      <trkpt lat="45.5058" lon="6.67015">
        <ele>2058.13</ele>
        <time>2016-03-24T08:10:17Z</time>
      </trkpt>
      <trkpt lat="45.50573" lon="6.67053">
        <ele>2055.96</ele>
        <time>2016-03-24T08:10:19Z</time>
      </trkpt>
      <trkpt lat="45.50557" lon="6.67091">
        <ele>2048.51</ele>
        <time>2016-03-24T08:10:21Z</time>
      </trkpt>
      <trkpt lat="45.50542" lon="6.67132">
        <ele>2043.09</ele>
        <time>2016-03-24T08:10:23Z</time>
      </trkpt>
      <trkpt lat="45.50526" lon="6.67167">
        <ele>2038.23</ele>
        <time>2016-03-24T08:10:25Z</time>
      </trkpt>
      <trkpt lat="45.50512" lon="6.672">
        <ele>2031.32</ele>
        <time>2016-03-24T08:10:27Z</time>
      </trkpt>
      <trkpt lat="45.50502" lon="6.67237">
        <ele>2024.32</ele>
        <time>2016-03-24T08:10:29Z</time>
      </trkpt>
      <trkpt lat="45.50497" lon="6.6727">
        <ele>2017.32</ele>
        <time>2016-03-24T08:10:31Z</time>
      </trkpt>
      <trkpt lat="45.50491" lon="6.67309">
        <ele>2012.88</ele>
        <time>2016-03-24T08:10:33Z</time>
      </trkpt>
      <trkpt lat="45.50485" lon="6.67345">
        <ele>2007.27</ele>
        <time>2016-03-24T08:10:35Z</time>
      </trkpt>
      <trkpt lat="45.5048" lon="6.67377">
        <ele>2004</ele>
        <time>2016-03-24T08:10:37Z</time>
      </trkpt>
      <trkpt lat="45.50477" lon="6.67405">
        <ele>2002.75</ele>
        <time>2016-03-24T08:10:39Z</time>
      </trkpt>
      <trkpt lat="45.50476" lon="6.67431">
        <ele>2000.62</ele>
        <time>2016-03-24T08:10:41Z</time>
      </trkpt>
      <trkpt lat="45.50479" lon="6.67465">
        <ele>1995.83</ele>
        <time>2016-03-24T08:10:44Z</time>
      </trkpt>
      <trkpt lat="45.50484" lon="6.67494">
        <ele>1993.77</ele>
        <time>2016-03-24T08:10:47Z</time>
      </trkpt>
      <trkpt lat="45.5049" lon="6.67518">
        <ele>1992.73</ele>
        <time>2016-03-24T08:10:50Z</time>
      </trkpt>
      <trkpt lat="45.50496" lon="6.67549">
        <ele>1991.57</ele>
        <time>2016-03-24T08:10:54Z</time>
      </trkpt>
      <trkpt lat="45.50503" lon="6.67574">
        <ele>1989.93</ele>
        <time>2016-03-24T08:10:58Z</time>
      </trkpt>
      <trkpt lat="45.50508" lon="6.67603">
        <ele>1990.33</ele>
        <time>2016-03-24T08:11:03Z</time>
      </trkpt>
      <trkpt lat="45.50518" lon="6.67626">
        <ele>1988.51</ele>
        <time>2016-03-24T08:11:10Z</time>
      </trkpt>
      <trkpt lat="45.50528" lon="6.67652">
        <ele>1988.33</ele>
        <time>2016-03-24T08:11:17Z</time>
      </trkpt>
      <trkpt lat="45.5053" lon="6.67677">
        <ele>1990.5</ele>
        <time>2016-03-24T08:11:32Z</time>
      </trkpt>
      <trkpt lat="45.50539" lon="6.677">
        <ele>1989.49</ele>
        <time>2016-03-24T08:11:48Z</time>
      </trkpt>
      <trkpt lat="45.50542" lon="6.67726">
        <ele>1990.54</ele>
        <time>2016-03-24T08:11:57Z</time>
      </trkpt>
      <trkpt lat="45.50525" lon="6.67735">
        <ele>1988.53</ele>
        <time>2016-03-24T08:12:10Z</time>
      </trkpt>
      <trkpt lat="45.50506" lon="6.67737">
        <ele>1985.11</ele>
        <time>2016-03-24T08:14:21Z</time>
      </trkpt>
      <trkpt lat="45.5048" lon="6.67743">
        <ele>1987.45</ele>
        <time>2016-03-24T08:14:24Z</time>
      </trkpt>
      <trkpt lat="45.50457" lon="6.67754">
        <ele>1992.45</ele>
        <time>2016-03-24T08:14:28Z</time>
      </trkpt>
      <trkpt lat="45.50437" lon="6.67763">
        <ele>1998.99</ele>
        <time>2016-03-24T08:14:32Z</time>
      </trkpt>
      <trkpt lat="45.50417" lon="6.67773">
        <ele>2003.31</ele>
        <time>2016-03-24T08:14:36Z</time>
      </trkpt>
      <trkpt lat="45.50396" lon="6.67783">
        <ele>2008.07</ele>
        <time>2016-03-24T08:14:40Z</time>
      </trkpt>
      <trkpt lat="45.50376" lon="6.67793">
        <ele>2013.24</ele>
        <time>2016-03-24T08:14:44Z</time>
      </trkpt>
      <trkpt lat="45.50355" lon="6.67803">
        <ele>2015.33</ele>
        <time>2016-03-24T08:14:48Z</time>
      </trkpt>
      <trkpt lat="45.50336" lon="6.67813">
        <ele>2024.15</ele>
        <time>2016-03-24T08:14:52Z</time>
      </trkpt>
      <trkpt lat="45.50317" lon="6.67825">
        <ele>2032.2</ele>
        <time>2016-03-24T08:14:56Z</time>
      </trkpt>
      <trkpt lat="45.50298" lon="6.67835">
        <ele>2037.85</ele>
        <time>2016-03-24T08:15:00Z</time>
      </trkpt>
      <trkpt lat="45.50279" lon="6.67843">
        <ele>2043.08</ele>
        <time>2016-03-24T08:15:04Z</time>
      </trkpt>
      <trkpt lat="45.50258" lon="6.67853">
        <ele>2046.32</ele>
        <time>2016-03-24T08:15:08Z</time>
      </trkpt>
      <trkpt lat="45.50238" lon="6.67863">
        <ele>2050.47</ele>
        <time>2016-03-24T08:15:12Z</time>
      </trkpt>
      <trkpt lat="45.50218" lon="6.67872">
        <ele>2054.25</ele>
        <time>2016-03-24T08:15:16Z</time>
      </trkpt>
      <trkpt lat="45.50199" lon="6.67882">
        <ele>2061.23</ele>
        <time>2016-03-24T08:15:20Z</time>
      </trkpt>
      <trkpt lat="45.50179" lon="6.67893">
        <ele>2066.05</ele>
        <time>2016-03-24T08:15:24Z</time>
      </trkpt>
      <trkpt lat="45.50159" lon="6.67903">
        <ele>2071.3</ele>
        <time>2016-03-24T08:15:28Z</time>
      </trkpt>
      <trkpt lat="45.50138" lon="6.67913">
        <ele>2073.32</ele>
        <time>2016-03-24T08:15:32Z</time>
      </trkpt>
      <trkpt lat="45.50117" lon="6.67925">
        <ele>2085.02</ele>
        <time>2016-03-24T08:15:37Z</time>
      </trkpt>
      <trkpt lat="45.50098" lon="6.67935">
        <ele>2088.51</ele>
        <time>2016-03-24T08:15:41Z</time>
      </trkpt>
      <trkpt lat="45.50078" lon="6.67945">
        <ele>2091.51</ele>
        <time>2016-03-24T08:15:45Z</time>
      </trkpt>
      <trkpt lat="45.50057" lon="6.67955">
        <ele>2097.08</ele>
        <time>2016-03-24T08:15:49Z</time>
      </trkpt>
      <trkpt lat="45.50037" lon="6.67966">
        <ele>2102.08</ele>
        <time>2016-03-24T08:15:53Z</time>
      </trkpt>
      <trkpt lat="45.50017" lon="6.67976">
        <ele>2105.32</ele>
        <time>2016-03-24T08:15:57Z</time>
      </trkpt>
      <trkpt lat="45.49997" lon="6.67987">
        <ele>2109.27</ele>
        <time>2016-03-24T08:16:01Z</time>
      </trkpt>
      <trkpt lat="45.49976" lon="6.67996">
        <ele>2114.08</ele>
        <time>2016-03-24T08:16:05Z</time>
      </trkpt>
      <trkpt lat="45.49959" lon="6.68008">
        <ele>2124.58</ele>
        <time>2016-03-24T08:16:09Z</time>
      </trkpt>
      <trkpt lat="45.49939" lon="6.68018">
        <ele>2132.45</ele>
        <time>2016-03-24T08:16:13Z</time>
      </trkpt>
      <trkpt lat="45.49919" lon="6.68028">
        <ele>2137.27</ele>
        <time>2016-03-24T08:16:17Z</time>
      </trkpt>
      <trkpt lat="45.49899" lon="6.68037">
        <ele>2141.09</ele>
        <time>2016-03-24T08:16:21Z</time>
      </trkpt>
      <trkpt lat="45.49879" lon="6.68048">
        <ele>2147.04</ele>
        <time>2016-03-24T08:16:25Z</time>
      </trkpt>
      <trkpt lat="45.49859" lon="6.68056">
        <ele>2151.28</ele>
        <time>2016-03-24T08:16:29Z</time>
      </trkpt>
      <trkpt lat="45.4984" lon="6.68066">
        <ele>2157.03</ele>
        <time>2016-03-24T08:16:33Z</time>
      </trkpt>
      <trkpt lat="45.49821" lon="6.68076">
        <ele>2164.27</ele>
        <time>2016-03-24T08:16:37Z</time>
      </trkpt>
      <trkpt lat="45.49804" lon="6.68086">
        <ele>2174.2</ele>
        <time>2016-03-24T08:16:41Z</time>
      </trkpt>
      <trkpt lat="45.49785" lon="6.68097">
        <ele>2186.98</ele>
        <time>2016-03-24T08:16:45Z</time>
      </trkpt>
      <trkpt lat="45.49768" lon="6.68108">
        <ele>2195.91</ele>
        <time>2016-03-24T08:16:49Z</time>
      </trkpt>
      <trkpt lat="45.49747" lon="6.68118">
        <ele>2198.32</ele>
        <time>2016-03-24T08:16:53Z</time>
      </trkpt>
      <trkpt lat="45.49726" lon="6.68129">
        <ele>2197.61</ele>
        <time>2016-03-24T08:16:57Z</time>
      </trkpt>
      <trkpt lat="45.49706" lon="6.68136">
        <ele>2198.36</ele>
        <time>2016-03-24T08:17:01Z</time>
      </trkpt>
      <trkpt lat="45.49687" lon="6.68145">
        <ele>2204</ele>
        <time>2016-03-24T08:17:05Z</time>
      </trkpt>
      <trkpt lat="45.49666" lon="6.68158">
        <ele>2209.12</ele>
        <time>2016-03-24T08:17:09Z</time>
      </trkpt>
      <trkpt lat="45.49645" lon="6.68168">
        <ele>2212.47</ele>
        <time>2016-03-24T08:17:13Z</time>
      </trkpt>
      <trkpt lat="45.49627" lon="6.68181">
        <ele>2220.04</ele>
        <time>2016-03-24T08:17:17Z</time>
      </trkpt>
      <trkpt lat="45.49609" lon="6.68192">
        <ele>2232.25</ele>
        <time>2016-03-24T08:17:21Z</time>
      </trkpt>
      <trkpt lat="45.49589" lon="6.68198">
        <ele>2236.28</ele>
        <time>2016-03-24T08:17:25Z</time>
      </trkpt>
      <trkpt lat="45.49568" lon="6.68211">
        <ele>2245.99</ele>
        <time>2016-03-24T08:17:29Z</time>
      </trkpt>
      <trkpt lat="45.49548" lon="6.68221">
        <ele>2251.08</ele>
        <time>2016-03-24T08:17:33Z</time>
      </trkpt>
      <trkpt lat="45.49527" lon="6.68231">
        <ele>2268.91</ele>
        <time>2016-03-24T08:17:38Z</time>
      </trkpt>
      <trkpt lat="45.49506" lon="6.68243">
        <ele>2274.05</ele>
        <time>2016-03-24T08:17:42Z</time>
      </trkpt>
      <trkpt lat="45.49488" lon="6.68251">
        <ele>2282.49</ele>
        <time>2016-03-24T08:17:46Z</time>
      </trkpt>
      <trkpt lat="45.4947" lon="6.68259">
        <ele>2292.88</ele>
        <time>2016-03-24T08:17:50Z</time>
      </trkpt>
      <trkpt lat="45.4945" lon="6.6827">
        <ele>2303.01</ele>
        <time>2016-03-24T08:17:54Z</time>
      </trkpt>
      <trkpt lat="45.49431" lon="6.6828">
        <ele>2319.26</ele>
        <time>2016-03-24T08:17:59Z</time>
      </trkpt>
      <trkpt lat="45.49413" lon="6.68289">
        <ele>2337.37</ele>
        <time>2016-03-24T08:18:03Z</time>
      </trkpt>
      <trkpt lat="45.49396" lon="6.68298">
        <ele>2348.79</ele>
        <time>2016-03-24T08:18:07Z</time>
      </trkpt>
      <trkpt lat="45.49377" lon="6.68308">
        <ele>2357.76</ele>
        <time>2016-03-24T08:18:11Z</time>
      </trkpt>
      <trkpt lat="45.49357" lon="6.68317">
        <ele>2380.44</ele>
        <time>2016-03-24T08:18:16Z</time>
      </trkpt>
      <trkpt lat="45.4934" lon="6.68327">
        <ele>2396.53</ele>
        <time>2016-03-24T08:18:20Z</time>
      </trkpt>
      <trkpt lat="45.49321" lon="6.68342">
        <ele>2411.92</ele>
        <time>2016-03-24T08:18:24Z</time>
      </trkpt>
      <trkpt lat="45.49303" lon="6.68353">
        <ele>2423.85</ele>
        <time>2016-03-24T08:18:28Z</time>
      </trkpt>
      <trkpt lat="45.49282" lon="6.68367">
        <ele>2441.96</ele>
        <time>2016-03-24T08:18:33Z</time>
      </trkpt>
      <trkpt lat="45.49262" lon="6.68377">
        <ele>2448.08</ele>
        <time>2016-03-24T08:18:37Z</time>
      </trkpt>
      <trkpt lat="45.49244" lon="6.68385">
        <ele>2457.02</ele>
        <time>2016-03-24T08:18:41Z</time>
      </trkpt>
      <trkpt lat="45.49226" lon="6.68393">
        <ele>2465.83</ele>
        <time>2016-03-24T08:18:45Z</time>
      </trkpt>
      <trkpt lat="45.49209" lon="6.68402">
        <ele>2472.27</ele>
        <time>2016-03-24T08:18:49Z</time>
      </trkpt>
      <trkpt lat="45.49191" lon="6.68412">
        <ele>2479.03</ele>
        <time>2016-03-24T08:18:53Z</time>
      </trkpt>
      <trkpt lat="45.49174" lon="6.6842">
        <ele>2481.53</ele>
        <time>2016-03-24T08:19:06Z</time>
      </trkpt>
      <trkpt lat="45.49156" lon="6.68428">
        <ele>2488.49</ele>
        <time>2016-03-24T08:19:32Z</time>
      </trkpt>
      <trkpt lat="45.49146" lon="6.6845">
        <ele>2493.53</ele>
        <time>2016-03-24T08:20:00Z</time>
      </trkpt>
      <trkpt lat="45.49149" lon="6.68481">
        <ele>2497.54</ele>
        <time>2016-03-24T08:20:51Z</time>
      </trkpt>
      <trkpt lat="45.49157" lon="6.68512">
        <ele>2488.24</ele>
        <time>2016-03-24T08:20:55Z</time>
      </trkpt>
      <trkpt lat="45.49156" lon="6.68539">
        <ele>2482.44</ele>
        <time>2016-03-24T08:20:57Z</time>
      </trkpt>
      <trkpt lat="45.49162" lon="6.68569">
        <ele>2477.25</ele>
        <time>2016-03-24T08:20:59Z</time>
      </trkpt>
      <trkpt lat="45.49159" lon="6.68601">
        <ele>2469.84</ele>
        <time>2016-03-24T08:21:01Z</time>
      </trkpt>
      <trkpt lat="45.49163" lon="6.68631">
        <ele>2463.3</ele>
        <time>2016-03-24T08:21:03Z</time>
      </trkpt>
      <trkpt lat="45.4916" lon="6.68659">
        <ele>2457.6</ele>
        <time>2016-03-24T08:21:05Z</time>
      </trkpt>
      <trkpt lat="45.49161" lon="6.68689">
        <ele>2454.01</ele>
        <time>2016-03-24T08:21:07Z</time>
      </trkpt>
      <trkpt lat="45.49153" lon="6.68713">
        <ele>2450.03</ele>
        <time>2016-03-24T08:21:09Z</time>
      </trkpt>
      <trkpt lat="45.49152" lon="6.68748">
        <ele>2444</ele>
        <time>2016-03-24T08:21:12Z</time>
      </trkpt>
      <trkpt lat="45.49148" lon="6.68775">
        <ele>2440.03</ele>
        <time>2016-03-24T08:21:14Z</time>
      </trkpt>
      <trkpt lat="45.49149" lon="6.68803">
        <ele>2434.27</ele>
        <time>2016-03-24T08:21:16Z</time>
      </trkpt>
      <trkpt lat="45.49148" lon="6.68835">
        <ele>2426.52</ele>
        <time>2016-03-24T08:21:18Z</time>
      </trkpt>
      <trkpt lat="45.49153" lon="6.68871">
        <ele>2416.77</ele>
        <time>2016-03-24T08:21:20Z</time>
      </trkpt>
      <trkpt lat="45.49157" lon="6.68913">
        <ele>2407.74</ele>
        <time>2016-03-24T08:21:22Z</time>
      </trkpt>
      <trkpt lat="45.49164" lon="6.68956">
        <ele>2398.74</ele>
        <time>2016-03-24T08:21:24Z</time>
      </trkpt>
      <trkpt lat="45.49175" lon="6.68994">
        <ele>2395.82</ele>
        <time>2016-03-24T08:21:26Z</time>
      </trkpt>
      <trkpt lat="45.49186" lon="6.6903">
        <ele>2394.74</ele>
        <time>2016-03-24T08:21:28Z</time>
      </trkpt>
      <trkpt lat="45.49195" lon="6.69058">
        <ele>2393.58</ele>
        <time>2016-03-24T08:21:30Z</time>
      </trkpt>
      <trkpt lat="45.492" lon="6.69083">
        <ele>2393.53</ele>
        <time>2016-03-24T08:21:32Z</time>
      </trkpt>
      <trkpt lat="45.492" lon="6.69117">
        <ele>2391.74</ele>
        <time>2016-03-24T08:21:35Z</time>
      </trkpt>
      <trkpt lat="45.49202" lon="6.69146">
        <ele>2390.73</ele>
        <time>2016-03-24T08:21:38Z</time>
      </trkpt>
      <trkpt lat="45.49205" lon="6.69173">
        <ele>2388.74</ele>
        <time>2016-03-24T08:21:41Z</time>
      </trkpt>
      <trkpt lat="45.49211" lon="6.69198">
        <ele>2388.53</ele>
        <time>2016-03-24T08:21:44Z</time>
      </trkpt>
      <trkpt lat="45.49222" lon="6.69218">
        <ele>2389.5</ele>
        <time>2016-03-24T08:21:48Z</time>
      </trkpt>
      <trkpt lat="45.49236" lon="6.69241">
        <ele>2386.57</ele>
        <time>2016-03-24T08:21:53Z</time>
      </trkpt>
      <trkpt lat="45.49243" lon="6.69266">
        <ele>2383.57</ele>
        <time>2016-03-24T08:21:57Z</time>
      </trkpt>
      <trkpt lat="45.49241" lon="6.69292">
        <ele>2382.73</ele>
        <time>2016-03-24T08:22:00Z</time>
      </trkpt>
      <trkpt lat="45.49238" lon="6.69321">
        <ele>2380.77</ele>
        <time>2016-03-24T08:22:03Z</time>
      </trkpt>
      <trkpt lat="45.49249" lon="6.6935">
        <ele>2379.73</ele>
        <time>2016-03-24T08:22:07Z</time>
      </trkpt>
      <trkpt lat="45.49259" lon="6.69375">
        <ele>2378.73</ele>
        <time>2016-03-24T08:22:10Z</time>
      </trkpt>
      <trkpt lat="45.49266" lon="6.69407">
        <ele>2377.57</ele>
        <time>2016-03-24T08:22:13Z</time>
      </trkpt>
      <trkpt lat="45.49264" lon="6.69449">
        <ele>2375.1</ele>
        <time>2016-03-24T08:22:16Z</time>
      </trkpt>
      <trkpt lat="45.49269" lon="6.69474">
        <ele>2371.03</ele>
        <time>2016-03-24T08:22:18Z</time>
      </trkpt>
      <trkpt lat="45.49271" lon="6.6951">
        <ele>2368.58</ele>
        <time>2016-03-24T08:22:21Z</time>
      </trkpt>
      <trkpt lat="45.49252" lon="6.69499">
        <ele>2364.79</ele>
        <time>2016-03-24T08:22:24Z</time>
      </trkpt>
      <trkpt lat="45.49251" lon="6.6953">
        <ele>2356.84</ele>
        <time>2016-03-24T08:22:28Z</time>
      </trkpt>
      <trkpt lat="45.49274" lon="6.69552">
        <ele>2353.78</ele>
        <time>2016-03-24T08:22:31Z</time>
      </trkpt>
      <trkpt lat="45.49293" lon="6.69576">
        <ele>2347.45</ele>
        <time>2016-03-24T08:22:34Z</time>
      </trkpt>
      <trkpt lat="45.49306" lon="6.69609">
        <ele>2341.16</ele>
        <time>2016-03-24T08:22:37Z</time>
      </trkpt>
      <trkpt lat="45.49318" lon="6.69636">
        <ele>2338.96</ele>
        <time>2016-03-24T08:22:39Z</time>
      </trkpt>
      <trkpt lat="45.49329" lon="6.69663">
        <ele>2337.59</ele>
        <time>2016-03-24T08:22:41Z</time>
      </trkpt>
      <trkpt lat="45.49346" lon="6.69678">
        <ele>2334.65</ele>
        <time>2016-03-24T08:22:43Z</time>
      </trkpt>
      <trkpt lat="45.4936" lon="6.69697">
        <ele>2333.74</ele>
        <time>2016-03-24T08:22:45Z</time>
      </trkpt>
      <trkpt lat="45.49372" lon="6.69723">
        <ele>2330.97</ele>
        <time>2016-03-24T08:22:48Z</time>
      </trkpt>
      <trkpt lat="45.49382" lon="6.69754">
        <ele>2329.57</ele>
        <time>2016-03-24T08:22:51Z</time>
      </trkpt>
      <trkpt lat="45.49396" lon="6.69781">
        <ele>2324.6</ele>
        <time>2016-03-24T08:22:54Z</time>
      </trkpt>
      <trkpt lat="45.49414" lon="6.69809">
        <ele>2320.82</ele>
        <time>2016-03-24T08:22:57Z</time>
      </trkpt>
      <trkpt lat="45.49427" lon="6.69832">
        <ele>2321.34</ele>
        <time>2016-03-24T08:22:59Z</time>
      </trkpt>
      <trkpt lat="45.49443" lon="6.69851">
        <ele>2318.16</ele>
        <time>2016-03-24T08:23:01Z</time>
      </trkpt>
      <trkpt lat="45.49455" lon="6.69873">
        <ele>2310.68</ele>
        <time>2016-03-24T08:23:03Z</time>
      </trkpt>
      <trkpt lat="45.49458" lon="6.69899">
        <ele>2307.82</ele>
        <time>2016-03-24T08:23:05Z</time>
      </trkpt>
      <trkpt lat="45.49449" lon="6.69924">
        <ele>2306.73</ele>
        <time>2016-03-24T08:23:08Z</time>
      </trkpt>
      <trkpt lat="45.49426" lon="6.69905">
        <ele>2305.74</ele>
        <time>2016-03-24T08:23:10Z</time>
      </trkpt>
      <trkpt lat="45.49412" lon="6.69936">
        <ele>2301.03</ele>
        <time>2016-03-24T08:23:14Z</time>
      </trkpt>
      <trkpt lat="45.49433" lon="6.69964">
        <ele>2293.35</ele>
        <time>2016-03-24T08:23:16Z</time>
      </trkpt>
      <trkpt lat="45.49448" lon="6.69993">
        <ele>2290</ele>
        <time>2016-03-24T08:23:18Z</time>
      </trkpt>
      <trkpt lat="45.49461" lon="6.70016">
        <ele>2286.35</ele>
        <time>2016-03-24T08:23:20Z</time>
      </trkpt>
      <trkpt lat="45.49461" lon="6.70047">
        <ele>2282.84</ele>
        <time>2016-03-24T08:23:22Z</time>
      </trkpt>
      <trkpt lat="45.49478" lon="6.70034">
        <ele>2273.48</ele>
        <time>2016-03-24T08:23:26Z</time>
      </trkpt>
      <trkpt lat="45.49497" lon="6.70031">
        <ele>2270.54</ele>
        <time>2016-03-24T08:23:34Z</time>
      </trkpt>
      <trkpt lat="45.49518" lon="6.70047">
        <ele>2266.62</ele>
        <time>2016-03-24T08:23:39Z</time>
      </trkpt>
      <trkpt lat="45.49535" lon="6.70068">
        <ele>2263.78</ele>
        <time>2016-03-24T08:23:42Z</time>
      </trkpt>
      <trkpt lat="45.49559" lon="6.7008">
        <ele>2261.77</ele>
        <time>2016-03-24T08:23:45Z</time>
      </trkpt>
      <trkpt lat="45.49576" lon="6.70087">
        <ele>2260.58</ele>
        <time>2016-03-24T08:23:47Z</time>
      </trkpt>
      <trkpt lat="45.49595" lon="6.70094">
        <ele>2257.81</ele>
        <time>2016-03-24T08:23:49Z</time>
      </trkpt>
      <trkpt lat="45.49616" lon="6.701">
        <ele>2254.98</ele>
        <time>2016-03-24T08:23:51Z</time>
      </trkpt>
      <trkpt lat="45.49638" lon="6.70111">
        <ele>2252.79</ele>
        <time>2016-03-24T08:23:53Z</time>
      </trkpt>
      <trkpt lat="45.4966" lon="6.7012">
        <ele>2249.98</ele>
        <time>2016-03-24T08:23:55Z</time>
      </trkpt>
      <trkpt lat="45.49684" lon="6.70131">
        <ele>2249.71</ele>
        <time>2016-03-24T08:23:57Z</time>
      </trkpt>
      <trkpt lat="45.49707" lon="6.70142">
        <ele>2247.62</ele>
        <time>2016-03-24T08:23:59Z</time>
      </trkpt>
      <trkpt lat="45.49731" lon="6.70152">
        <ele>2245.77</ele>
        <time>2016-03-24T08:24:01Z</time>
      </trkpt>
      <trkpt lat="45.49751" lon="6.70163">
        <ele>2242.02</ele>
        <time>2016-03-24T08:24:03Z</time>
      </trkpt>
      <trkpt lat="45.49772" lon="6.70181">
        <ele>2237.87</ele>
        <time>2016-03-24T08:24:05Z</time>
      </trkpt>
      <trkpt lat="45.4979" lon="6.7018">
        <ele>2228.58</ele>
        <time>2016-03-24T08:24:07Z</time>
      </trkpt>
      <trkpt lat="45.49814" lon="6.70194">
        <ele>2224.85</ele>
        <time>2016-03-24T08:24:09Z</time>
      </trkpt>
      <trkpt lat="45.49839" lon="6.70202">
        <ele>2221.98</ele>
        <time>2016-03-24T08:24:11Z</time>
      </trkpt>
      <trkpt lat="45.49864" lon="6.70199">
        <ele>2220.75</ele>
        <time>2016-03-24T08:24:13Z</time>
      </trkpt>
      <trkpt lat="45.49881" lon="6.70176">
        <ele>2215.42</ele>
        <time>2016-03-24T08:24:15Z</time>
      </trkpt>
      <trkpt lat="45.49899" lon="6.70151">
        <ele>2214.57</ele>
        <time>2016-03-24T08:24:17Z</time>
      </trkpt>
      <trkpt lat="45.49904" lon="6.70122">
        <ele>2212.13</ele>
        <time>2016-03-24T08:24:19Z</time>
      </trkpt>
      <trkpt lat="45.49917" lon="6.70096">
        <ele>2209.8</ele>
        <time>2016-03-24T08:24:21Z</time>
      </trkpt>
      <trkpt lat="45.49934" lon="6.70076">
        <ele>2206.18</ele>
        <time>2016-03-24T08:24:23Z</time>
      </trkpt>
      <trkpt lat="45.49951" lon="6.70058">
        <ele>2202.04</ele>
        <time>2016-03-24T08:24:25Z</time>
      </trkpt>
      <trkpt lat="45.49971" lon="6.70047">
        <ele>2200.75</ele>
        <time>2016-03-24T08:24:27Z</time>
      </trkpt>
      <trkpt lat="45.4999" lon="6.70037">
        <ele>2195.42</ele>
        <time>2016-03-24T08:24:29Z</time>
      </trkpt>
      <trkpt lat="45.50013" lon="6.70029">
        <ele>2192.81</ele>
        <time>2016-03-24T08:24:31Z</time>
      </trkpt>
      <trkpt lat="45.50035" lon="6.70021">
        <ele>2189.98</ele>
        <time>2016-03-24T08:24:33Z</time>
      </trkpt>
      <trkpt lat="45.50057" lon="6.7002">
        <ele>2187.79</ele>
        <time>2016-03-24T08:24:35Z</time>
      </trkpt>
      <trkpt lat="45.50077" lon="6.70014">
        <ele>2184.82</ele>
        <time>2016-03-24T08:24:37Z</time>
      </trkpt>
      <trkpt lat="45.50091" lon="6.69998">
        <ele>2179.74</ele>
        <time>2016-03-24T08:24:39Z</time>
      </trkpt>
      <trkpt lat="45.50115" lon="6.69991">
        <ele>2177.55</ele>
        <time>2016-03-24T08:24:42Z</time>
      </trkpt>
      <trkpt lat="45.50137" lon="6.69987">
        <ele>2177.72</ele>
        <time>2016-03-24T08:24:46Z</time>
      </trkpt>
      <trkpt lat="45.50156" lon="6.69994">
        <ele>2168.97</ele>
        <time>2016-03-24T08:25:09Z</time>
      </trkpt>
      <trkpt lat="45.50172" lon="6.70007">
        <ele>2168.69</ele>
        <time>2016-03-24T08:25:13Z</time>
      </trkpt>
      <trkpt lat="45.50194" lon="6.70021">
        <ele>2164.82</ele>
        <time>2016-03-24T08:25:17Z</time>
      </trkpt>
      <trkpt lat="45.50213" lon="6.70026">
        <ele>2163.74</ele>
        <time>2016-03-24T08:25:19Z</time>
      </trkpt>
      <trkpt lat="45.50234" lon="6.70022">
        <ele>2161.78</ele>
        <time>2016-03-24T08:25:21Z</time>
      </trkpt>
      <trkpt lat="45.50252" lon="6.70012">
        <ele>2159.94</ele>
        <time>2016-03-24T08:25:23Z</time>
      </trkpt>
      <trkpt lat="45.50271" lon="6.70005">
        <ele>2156.83</ele>
        <time>2016-03-24T08:25:25Z</time>
      </trkpt>
      <trkpt lat="45.5029" lon="6.70009">
        <ele>2153.98</ele>
        <time>2016-03-24T08:25:27Z</time>
      </trkpt>
      <trkpt lat="45.50306" lon="6.70022">
        <ele>2152.75</ele>
        <time>2016-03-24T08:25:29Z</time>
      </trkpt>
      <trkpt lat="45.50322" lon="6.70039">
        <ele>2149.98</ele>
        <time>2016-03-24T08:25:31Z</time>
      </trkpt>
      <trkpt lat="45.50338" lon="6.70053">
        <ele>2145.87</ele>
        <time>2016-03-24T08:25:33Z</time>
      </trkpt>
      <trkpt lat="45.50353" lon="6.7008">
        <ele>2144.74</ele>
        <time>2016-03-24T08:25:35Z</time>
      </trkpt>
      <trkpt lat="45.50369" lon="6.70106">
        <ele>2141.82</ele>
        <time>2016-03-24T08:25:37Z</time>
      </trkpt>
      <trkpt lat="45.50387" lon="6.70122">
        <ele>2139.94</ele>
        <time>2016-03-24T08:25:39Z</time>
      </trkpt>
      <trkpt lat="45.5041" lon="6.70133">
        <ele>2137.79</ele>
        <time>2016-03-24T08:25:41Z</time>
      </trkpt>
      <trkpt lat="45.50435" lon="6.70136">
        <ele>2137.54</ele>
        <time>2016-03-24T08:25:43Z</time>
      </trkpt>
      <trkpt lat="45.50439" lon="6.70093">
        <ele>2128.73</ele>
        <time>2016-03-24T08:25:44Z</time>
      </trkpt>
      <trkpt lat="45.50464" lon="6.7008">
        <ele>2122.94</ele>
        <time>2016-03-24T08:25:46Z</time>
      </trkpt>
      <trkpt lat="45.50485" lon="6.70072">
        <ele>2120.79</ele>
        <time>2016-03-24T08:25:48Z</time>
      </trkpt>
      <trkpt lat="45.50504" lon="6.70062">
        <ele>2118.78</ele>
        <time>2016-03-24T08:25:50Z</time>
      </trkpt>
      <trkpt lat="45.50526" lon="6.70066">
        <ele>2114.02</ele>
        <time>2016-03-24T08:25:53Z</time>
      </trkpt>
      <trkpt lat="45.50541" lon="6.70094">
        <ele>2102.22</ele>
        <time>2016-03-24T08:25:59Z</time>
      </trkpt>
      <trkpt lat="45.50548" lon="6.70123">
        <ele>2090.84</ele>
        <time>2016-03-24T08:26:01Z</time>
      </trkpt>
      <trkpt lat="45.50559" lon="6.70145">
        <ele>2080.78</ele>
        <time>2016-03-24T08:26:03Z</time>
      </trkpt>
      <trkpt lat="45.50584" lon="6.70155">
        <ele>2077.18</ele>
        <time>2016-03-24T08:26:05Z</time>
      </trkpt>
      <trkpt lat="45.50602" lon="6.70164">
        <ele>2075.86</ele>
        <time>2016-03-24T08:26:06Z</time>
      </trkpt>
      <trkpt lat="45.50629" lon="6.70175">
        <ele>2072.82</ele>
        <time>2016-03-24T08:26:08Z</time>
      </trkpt>
      <trkpt lat="45.50652" lon="6.70185">
        <ele>2055.96</ele>
        <time>2016-03-24T08:26:13Z</time>
      </trkpt>
      <trkpt lat="45.50678" lon="6.70209">
        <ele>2052.83</ele>
        <time>2016-03-24T08:26:15Z</time>
      </trkpt>
      <trkpt lat="45.50715" lon="6.70221">
        <ele>2051.74</ele>
        <time>2016-03-24T08:26:17Z</time>
      </trkpt>
      <trkpt lat="45.5075" lon="6.70214">
        <ele>2049.78</ele>
        <time>2016-03-24T08:26:19Z</time>
      </trkpt>
      <trkpt lat="45.50775" lon="6.70209">
        <ele>2043.94</ele>
        <time>2016-03-24T08:26:21Z</time>
      </trkpt>
      <trkpt lat="45.50801" lon="6.70191">
        <ele>2038.43</ele>
        <time>2016-03-24T08:26:23Z</time>
      </trkpt>
      <trkpt lat="45.50824" lon="6.70168">
        <ele>2035.65</ele>
        <time>2016-03-24T08:26:25Z</time>
      </trkpt>
      <trkpt lat="45.50843" lon="6.70135">
        <ele>2035.7</ele>
        <time>2016-03-24T08:26:27Z</time>
      </trkpt>
      <trkpt lat="45.50864" lon="6.70105">
        <ele>2033.94</ele>
        <time>2016-03-24T08:26:29Z</time>
      </trkpt>
      <trkpt lat="45.50888" lon="6.70088">
        <ele>2029.55</ele>
        <time>2016-03-24T08:26:31Z</time>
      </trkpt>
      <trkpt lat="45.50913" lon="6.70079">
        <ele>2026.65</ele>
        <time>2016-03-24T08:26:33Z</time>
      </trkpt>
      <trkpt lat="45.5093" lon="6.70058">
        <ele>2016.46</ele>
        <time>2016-03-24T08:26:35Z</time>
      </trkpt>
      <trkpt lat="45.50953" lon="6.70043">
        <ele>2009.65</ele>
        <time>2016-03-24T08:26:37Z</time>
      </trkpt>
      <trkpt lat="45.50978" lon="6.70036">
        <ele>2004.26</ele>
        <time>2016-03-24T08:26:39Z</time>
      </trkpt>
      <trkpt lat="45.51003" lon="6.70023">
        <ele>1999.88</ele>
        <time>2016-03-24T08:26:41Z</time>
      </trkpt>
      <trkpt lat="45.51022" lon="6.70009">
        <ele>1993.3</ele>
        <time>2016-03-24T08:26:43Z</time>
      </trkpt>
      <trkpt lat="45.51044" lon="6.69999">
        <ele>1988.24</ele>
        <time>2016-03-24T08:26:45Z</time>
      </trkpt>
      <trkpt lat="45.51065" lon="6.69985">
        <ele>1982.28</ele>
        <time>2016-03-24T08:26:47Z</time>
      </trkpt>
      <trkpt lat="45.51091" lon="6.69972">
        <ele>1978.04</ele>
        <time>2016-03-24T08:26:49Z</time>
      </trkpt>
      <trkpt lat="45.51112" lon="6.69961">
        <ele>1974.03</ele>
        <time>2016-03-24T08:26:51Z</time>
      </trkpt>
      <trkpt lat="45.51135" lon="6.69948">
        <ele>1967.47</ele>
        <time>2016-03-24T08:26:53Z</time>
      </trkpt>
      <trkpt lat="45.51154" lon="6.69933">
        <ele>1962.89</ele>
        <time>2016-03-24T08:26:55Z</time>
      </trkpt>
      <trkpt lat="45.51173" lon="6.69922">
        <ele>1959.19</ele>
        <time>2016-03-24T08:26:57Z</time>
      </trkpt>
      <trkpt lat="45.51191" lon="6.69911">
        <ele>1956.8</ele>
        <time>2016-03-24T08:26:59Z</time>
      </trkpt>
      <trkpt lat="45.51207" lon="6.69893">
        <ele>1952.34</ele>
        <time>2016-03-24T08:27:02Z</time>
      </trkpt>
      <trkpt lat="45.51225" lon="6.69875">
        <ele>1947.78</ele>
        <time>2016-03-24T08:27:06Z</time>
      </trkpt>
      <trkpt lat="45.51238" lon="6.69855">
        <ele>1939.78</ele>
        <time>2016-03-24T08:27:15Z</time>
      </trkpt>
      <trkpt lat="45.51246" lon="6.69878">
        <ele>1934.29</ele>
        <time>2016-03-24T08:28:30Z</time>
      </trkpt>
      <trkpt lat="45.51256" lon="6.69901">
        <ele>1928.78</ele>
        <time>2016-03-24T08:30:15Z</time>
      </trkpt>
      <trkpt lat="45.51272" lon="6.69919">
        <ele>1929.14</ele>
        <time>2016-03-24T08:30:20Z</time>
      </trkpt>
      <trkpt lat="45.51285" lon="6.69942">
        <ele>1930.12</ele>
        <time>2016-03-24T08:30:26Z</time>
      </trkpt>
      <trkpt lat="45.51297" lon="6.69964">
        <ele>1937.27</ele>
        <time>2016-03-24T08:30:32Z</time>
      </trkpt>
      <trkpt lat="45.51309" lon="6.69988">
        <ele>1943.12</ele>
        <time>2016-03-24T08:30:38Z</time>
      </trkpt>
      <trkpt lat="45.51322" lon="6.70012">
        <ele>1946.46</ele>
        <time>2016-03-24T08:30:44Z</time>
      </trkpt>
      <trkpt lat="45.51333" lon="6.70033">
        <ele>1951.27</ele>
        <time>2016-03-24T08:30:49Z</time>
      </trkpt>
      <trkpt lat="45.51345" lon="6.70056">
        <ele>1957.48</ele>
        <time>2016-03-24T08:30:55Z</time>
      </trkpt>
      <trkpt lat="45.51356" lon="6.70077">
        <ele>1959.33</ele>
        <time>2016-03-24T08:31:01Z</time>
      </trkpt>
      <trkpt lat="45.51368" lon="6.701">
        <ele>1966.62</ele>
        <time>2016-03-24T08:31:07Z</time>
      </trkpt>
      <trkpt lat="45.51382" lon="6.70122">
        <ele>1976.83</ele>
        <time>2016-03-24T08:31:13Z</time>
      </trkpt>
      <trkpt lat="45.51395" lon="6.70145">
        <ele>1986.23</ele>
        <time>2016-03-24T08:31:19Z</time>
      </trkpt>
      <trkpt lat="45.51405" lon="6.70168">
        <ele>1993.23</ele>
        <time>2016-03-24T08:31:25Z</time>
      </trkpt>
      <trkpt lat="45.51416" lon="6.70189">
        <ele>2006.23</ele>
        <time>2016-03-24T08:31:31Z</time>
      </trkpt>
      <trkpt lat="45.51427" lon="6.7021">
        <ele>2016.83</ele>
        <time>2016-03-24T08:31:37Z</time>
      </trkpt>
      <trkpt lat="45.51438" lon="6.70232">
        <ele>2023.07</ele>
        <time>2016-03-24T08:31:43Z</time>
      </trkpt>
      <trkpt lat="45.5145" lon="6.70251">
        <ele>2037.83</ele>
        <time>2016-03-24T08:31:49Z</time>
      </trkpt>
      <trkpt lat="45.51464" lon="6.70271">
        <ele>2058.7</ele>
        <time>2016-03-24T08:31:56Z</time>
      </trkpt>
      <trkpt lat="45.51479" lon="6.70292">
        <ele>2073.84</ele>
        <time>2016-03-24T08:32:03Z</time>
      </trkpt>
      <trkpt lat="45.51492" lon="6.70313">
        <ele>2089.02</ele>
        <time>2016-03-24T08:32:09Z</time>
      </trkpt>
      <trkpt lat="45.51505" lon="6.70334">
        <ele>2098.08</ele>
        <time>2016-03-24T08:32:15Z</time>
      </trkpt>
      <trkpt lat="45.51516" lon="6.70355">
        <ele>2106.04</ele>
        <time>2016-03-24T08:32:20Z</time>
      </trkpt>
      <trkpt lat="45.51529" lon="6.70377">
        <ele>2112.48</ele>
        <time>2016-03-24T08:32:26Z</time>
      </trkpt>
      <trkpt lat="45.51542" lon="6.70399">
        <ele>2121.27</ele>
        <time>2016-03-24T08:32:32Z</time>
      </trkpt>
      <trkpt lat="45.51554" lon="6.70422">
        <ele>2132.03</ele>
        <time>2016-03-24T08:32:38Z</time>
      </trkpt>
      <trkpt lat="45.51567" lon="6.70444">
        <ele>2142.04</ele>
        <time>2016-03-24T08:32:44Z</time>
      </trkpt>
      <trkpt lat="45.51579" lon="6.70465">
        <ele>2147.49</ele>
        <time>2016-03-24T08:32:50Z</time>
      </trkpt>
      <trkpt lat="45.51592" lon="6.70488">
        <ele>2154.24</ele>
        <time>2016-03-24T08:32:56Z</time>
      </trkpt>
      <trkpt lat="45.51605" lon="6.70507">
        <ele>2160.32</ele>
        <time>2016-03-24T08:33:08Z</time>
      </trkpt>
      <trkpt lat="45.51616" lon="6.70531">
        <ele>2166.29</ele>
        <time>2016-03-24T08:33:17Z</time>
      </trkpt>
      <trkpt lat="45.51628" lon="6.70553">
        <ele>2172.12</ele>
        <time>2016-03-24T08:33:23Z</time>
      </trkpt>
      <trkpt lat="45.51641" lon="6.70572">
        <ele>2175.32</ele>
        <time>2016-03-24T08:33:28Z</time>
      </trkpt>
      <trkpt lat="45.51654" lon="6.70595">
        <ele>2176.32</ele>
        <time>2016-03-24T08:33:34Z</time>
      </trkpt>
      <trkpt lat="45.51666" lon="6.70619">
        <ele>2177.53</ele>
        <time>2016-03-24T08:33:40Z</time>
      </trkpt>
      <trkpt lat="45.51679" lon="6.70643">
        <ele>2179.53</ele>
        <time>2016-03-24T08:33:46Z</time>
      </trkpt>
      <trkpt lat="45.51692" lon="6.70666">
        <ele>2178.53</ele>
        <time>2016-03-24T08:33:52Z</time>
      </trkpt>
      <trkpt lat="45.51706" lon="6.7069">
        <ele>2179.33</ele>
        <time>2016-03-24T08:33:58Z</time>
      </trkpt>
      <trkpt lat="45.51719" lon="6.70714">
        <ele>2180.49</ele>
        <time>2016-03-24T08:34:04Z</time>
      </trkpt>
      <trkpt lat="45.51732" lon="6.70737">
        <ele>2181.53</ele>
        <time>2016-03-24T08:34:10Z</time>
      </trkpt>
      <trkpt lat="45.51746" lon="6.7076">
        <ele>2183.33</ele>
        <time>2016-03-24T08:34:16Z</time>
      </trkpt>
      <trkpt lat="45.51757" lon="6.7078">
        <ele>2185.29</ele>
        <time>2016-03-24T08:34:21Z</time>
      </trkpt>
      <trkpt lat="45.5177" lon="6.70803">
        <ele>2187.32</ele>
        <time>2016-03-24T08:34:27Z</time>
      </trkpt>
      <trkpt lat="45.51781" lon="6.70825">
        <ele>2189.52</ele>
        <time>2016-03-24T08:34:32Z</time>
      </trkpt>
      <trkpt lat="45.51795" lon="6.70847">
        <ele>2193.09</ele>
        <time>2016-03-24T08:34:38Z</time>
      </trkpt>
      <trkpt lat="45.51808" lon="6.70866">
        <ele>2194.33</ele>
        <time>2016-03-24T08:34:43Z</time>
      </trkpt>
      <trkpt lat="45.51823" lon="6.70889">
        <ele>2197.49</ele>
        <time>2016-03-24T08:34:49Z</time>
      </trkpt>
      <trkpt lat="45.51835" lon="6.70908">
        <ele>2201.49</ele>
        <time>2016-03-24T08:34:54Z</time>
      </trkpt>
      <trkpt lat="45.51847" lon="6.70932">
        <ele>2207.28</ele>
        <time>2016-03-24T08:35:00Z</time>
      </trkpt>
      <trkpt lat="45.5186" lon="6.70956">
        <ele>2211.48</ele>
        <time>2016-03-24T08:35:06Z</time>
      </trkpt>
      <trkpt lat="45.51872" lon="6.70979">
        <ele>2216.44</ele>
        <time>2016-03-24T08:35:12Z</time>
      </trkpt>
      <trkpt lat="45.51886" lon="6.71001">
        <ele>2223.27</ele>
        <time>2016-03-24T08:35:18Z</time>
      </trkpt>
      <trkpt lat="45.51899" lon="6.71023">
        <ele>2228.29</ele>
        <time>2016-03-24T08:35:24Z</time>
      </trkpt>
      <trkpt lat="45.51912" lon="6.71042">
        <ele>2232.49</ele>
        <time>2016-03-24T08:35:29Z</time>
      </trkpt>
      <trkpt lat="45.51926" lon="6.71063">
        <ele>2238.44</ele>
        <time>2016-03-24T08:35:35Z</time>
      </trkpt>
      <trkpt lat="45.51939" lon="6.71085">
        <ele>2247.04</ele>
        <time>2016-03-24T08:35:41Z</time>
      </trkpt>
      <trkpt lat="45.51951" lon="6.71107">
        <ele>2256.07</ele>
        <time>2016-03-24T08:35:47Z</time>
      </trkpt>
      <trkpt lat="45.51962" lon="6.71132">
        <ele>2262.25</ele>
        <time>2016-03-24T08:35:53Z</time>
      </trkpt>
      <trkpt lat="45.51975" lon="6.71154">
        <ele>2270.24</ele>
        <time>2016-03-24T08:35:59Z</time>
      </trkpt>
      <trkpt lat="45.51987" lon="6.71176">
        <ele>2277.05</ele>
        <time>2016-03-24T08:36:05Z</time>
      </trkpt>
      <trkpt lat="45.51997" lon="6.71198">
        <ele>2281.92</ele>
        <time>2016-03-24T08:36:11Z</time>
      </trkpt>
      <trkpt lat="45.52009" lon="6.71218">
        <ele>2285.48</ele>
        <time>2016-03-24T08:36:16Z</time>
      </trkpt>
      <trkpt lat="45.5202" lon="6.71238">
        <ele>2288.32</ele>
        <time>2016-03-24T08:36:21Z</time>
      </trkpt>
      <trkpt lat="45.52032" lon="6.71261">
        <ele>2291.48</ele>
        <time>2016-03-24T08:36:27Z</time>
      </trkpt>
      <trkpt lat="45.52044" lon="6.71281">
        <ele>2297.24</ele>
        <time>2016-03-24T08:36:32Z</time>
      </trkpt>
      <trkpt lat="45.52057" lon="6.713">
        <ele>2301.12</ele>
        <time>2016-03-24T08:36:37Z</time>
      </trkpt>
      <trkpt lat="45.5207" lon="6.71322">
        <ele>2308.08</ele>
        <time>2016-03-24T08:36:43Z</time>
      </trkpt>
      <trkpt lat="45.52081" lon="6.71347">
        <ele>2311.53</ele>
        <time>2016-03-24T08:36:49Z</time>
      </trkpt>
      <trkpt lat="45.52094" lon="6.7137">
        <ele>2312.49</ele>
        <time>2016-03-24T08:36:55Z</time>
      </trkpt>
      <trkpt lat="45.52107" lon="6.7139">
        <ele>2314.33</ele>
        <time>2016-03-24T08:37:00Z</time>
      </trkpt>
      <trkpt lat="45.52119" lon="6.71414">
        <ele>2316.33</ele>
        <time>2016-03-24T08:37:06Z</time>
      </trkpt>
      <trkpt lat="45.52132" lon="6.71432">
        <ele>2319.33</ele>
        <time>2016-03-24T08:37:11Z</time>
      </trkpt>
      <trkpt lat="45.52145" lon="6.71457">
        <ele>2321.29</ele>
        <time>2016-03-24T08:37:17Z</time>
      </trkpt>
      <trkpt lat="45.52157" lon="6.71478">
        <ele>2323.48</ele>
        <time>2016-03-24T08:37:22Z</time>
      </trkpt>
      <trkpt lat="45.5217" lon="6.71502">
        <ele>2326.48</ele>
        <time>2016-03-24T08:37:28Z</time>
      </trkpt>
      <trkpt lat="45.52184" lon="6.71524">
        <ele>2327.5</ele>
        <time>2016-03-24T08:37:34Z</time>
      </trkpt>
      <trkpt lat="45.52198" lon="6.71547">
        <ele>2331.33</ele>
        <time>2016-03-24T08:37:40Z</time>
      </trkpt>
      <trkpt lat="45.52209" lon="6.71567">
        <ele>2331.69</ele>
        <time>2016-03-24T08:37:45Z</time>
      </trkpt>
      <trkpt lat="45.52223" lon="6.7159">
        <ele>2334.32</ele>
        <time>2016-03-24T08:37:51Z</time>
      </trkpt>
      <trkpt lat="45.52235" lon="6.71613">
        <ele>2339.11</ele>
        <time>2016-03-24T08:37:56Z</time>
      </trkpt>
      <trkpt lat="45.52247" lon="6.71633">
        <ele>2343.29</ele>
        <time>2016-03-24T08:38:01Z</time>
      </trkpt>
      <trkpt lat="45.5226" lon="6.71653">
        <ele>2346.53</ele>
        <time>2016-03-24T08:38:06Z</time>
      </trkpt>
      <trkpt lat="45.52271" lon="6.71675">
        <ele>2344.69</ele>
        <time>2016-03-24T08:38:20Z</time>
      </trkpt>
      <trkpt lat="45.52285" lon="6.71696">
        <ele>2348.49</ele>
        <time>2016-03-24T08:38:36Z</time>
      </trkpt>
      <trkpt lat="45.52306" lon="6.71698">
        <ele>2344.78</ele>
        <time>2016-03-24T08:38:41Z</time>
      </trkpt>
      <trkpt lat="45.52323" lon="6.71713">
        <ele>2340.98</ele>
        <time>2016-03-24T08:38:44Z</time>
      </trkpt>
      <trkpt lat="45.52333" lon="6.71734">
        <ele>2337.83</ele>
        <time>2016-03-24T08:38:46Z</time>
      </trkpt>
      <trkpt lat="45.52348" lon="6.71775">
        <ele>2335.78</ele>
        <time>2016-03-24T08:38:48Z</time>
      </trkpt>
      <trkpt lat="45.52365" lon="6.71809">
        <ele>2331.86</ele>
        <time>2016-03-24T08:38:50Z</time>
      </trkpt>
      <trkpt lat="45.52378" lon="6.71847">
        <ele>2328.02</ele>
        <time>2016-03-24T08:38:52Z</time>
      </trkpt>
      <trkpt lat="45.5239" lon="6.71881">
        <ele>2322.11</ele>
        <time>2016-03-24T08:38:54Z</time>
      </trkpt>
      <trkpt lat="45.52404" lon="6.71914">
        <ele>2319.79</ele>
        <time>2016-03-24T08:38:56Z</time>
      </trkpt>
      <trkpt lat="45.52427" lon="6.71933">
        <ele>2316.02</ele>
        <time>2016-03-24T08:38:58Z</time>
      </trkpt>
      <trkpt lat="45.52442" lon="6.7195">
        <ele>2312.83</ele>
        <time>2016-03-24T08:39:00Z</time>
      </trkpt>
      <trkpt lat="45.52467" lon="6.7196">
        <ele>2305.94</ele>
        <time>2016-03-24T08:39:03Z</time>
      </trkpt>
      <trkpt lat="45.52489" lon="6.71976">
        <ele>2304.73</ele>
        <time>2016-03-24T08:39:06Z</time>
      </trkpt>
      <trkpt lat="45.52507" lon="6.71985">
        <ele>2302.39</ele>
        <time>2016-03-24T08:39:09Z</time>
      </trkpt>
      <trkpt lat="45.52525" lon="6.71994">
        <ele>2299.55</ele>
        <time>2016-03-24T08:39:13Z</time>
      </trkpt>
      <trkpt lat="45.52544" lon="6.72008">
        <ele>2297.53</ele>
        <time>2016-03-24T08:39:18Z</time>
      </trkpt>
      <trkpt lat="45.52559" lon="6.72023">
        <ele>2295.69</ele>
        <time>2016-03-24T08:39:23Z</time>
      </trkpt>
      <trkpt lat="45.52577" lon="6.72038">
        <ele>2296.68</ele>
        <time>2016-03-24T08:39:27Z</time>
      </trkpt>
      <trkpt lat="45.52592" lon="6.72052">
        <ele>2295.67</ele>
        <time>2016-03-24T08:39:33Z</time>
      </trkpt>
      <trkpt lat="45.52605" lon="6.72074">
        <ele>2295.53</ele>
        <time>2016-03-24T08:39:39Z</time>
      </trkpt>
      <trkpt lat="45.52619" lon="6.72097">
        <ele>2293.34</ele>
        <time>2016-03-24T08:39:47Z</time>
      </trkpt>
      <trkpt lat="45.52633" lon="6.72123">
        <ele>2294.94</ele>
        <time>2016-03-24T08:39:55Z</time>
      </trkpt>
      <trkpt lat="45.52649" lon="6.72143">
        <ele>2293.57</ele>
        <time>2016-03-24T08:40:01Z</time>
      </trkpt>
      <trkpt lat="45.52663" lon="6.72165">
        <ele>2292.7</ele>
        <time>2016-03-24T08:40:06Z</time>
      </trkpt>
      <trkpt lat="45.52677" lon="6.72186">
        <ele>2292.73</ele>
        <time>2016-03-24T08:40:11Z</time>
      </trkpt>
      <trkpt lat="45.52689" lon="6.72208">
        <ele>2292.57</ele>
        <time>2016-03-24T08:40:17Z</time>
      </trkpt>
      <trkpt lat="45.52703" lon="6.72226">
        <ele>2291.73</ele>
        <time>2016-03-24T08:40:25Z</time>
      </trkpt>
      <trkpt lat="45.52716" lon="6.72245">
        <ele>2292.54</ele>
        <time>2016-03-24T08:40:34Z</time>
      </trkpt>
      <trkpt lat="45.5273" lon="6.72261">
        <ele>2291.52</ele>
        <time>2016-03-24T08:40:41Z</time>
      </trkpt>
      <trkpt lat="45.52747" lon="6.72275">
        <ele>2290.73</ele>
        <time>2016-03-24T08:40:47Z</time>
      </trkpt>
      <trkpt lat="45.52762" lon="6.72288">
        <ele>2288.74</ele>
        <time>2016-03-24T08:40:52Z</time>
      </trkpt>
      <trkpt lat="45.52778" lon="6.72301">
        <ele>2288.5</ele>
        <time>2016-03-24T08:40:57Z</time>
      </trkpt>
      <trkpt lat="45.52795" lon="6.7231">
        <ele>2291.53</ele>
        <time>2016-03-24T08:41:07Z</time>
      </trkpt>
      <trkpt lat="45.52813" lon="6.72318">
        <ele>2290.74</ele>
        <time>2016-03-24T08:41:42Z</time>
      </trkpt>
      <trkpt lat="45.52832" lon="6.72328">
        <ele>2291.69</ele>
        <time>2016-03-24T08:41:47Z</time>
      </trkpt>
      <trkpt lat="45.52848" lon="6.7235">
        <ele>2286.85</ele>
        <time>2016-03-24T08:41:51Z</time>
      </trkpt>
      <trkpt lat="45.52855" lon="6.72378">
        <ele>2284.77</ele>
        <time>2016-03-24T08:41:54Z</time>
      </trkpt>
      <trkpt lat="45.52871" lon="6.72408">
        <ele>2283.54</ele>
        <time>2016-03-24T08:41:57Z</time>
      </trkpt>
      <trkpt lat="45.52889" lon="6.72431">
        <ele>2278.03</ele>
        <time>2016-03-24T08:42:00Z</time>
      </trkpt>
      <trkpt lat="45.52899" lon="6.72454">
        <ele>2274.83</ele>
        <time>2016-03-24T08:42:02Z</time>
      </trkpt>
      <trkpt lat="45.52904" lon="6.72483">
        <ele>2269.42</ele>
        <time>2016-03-24T08:42:04Z</time>
      </trkpt>
      <trkpt lat="45.52913" lon="6.72515">
        <ele>2265.85</ele>
        <time>2016-03-24T08:42:06Z</time>
      </trkpt>
      <trkpt lat="45.52927" lon="6.72546">
        <ele>2264.42</ele>
        <time>2016-03-24T08:42:08Z</time>
      </trkpt>
      <trkpt lat="45.52944" lon="6.72581">
        <ele>2261.17</ele>
        <time>2016-03-24T08:42:10Z</time>
      </trkpt>
      <trkpt lat="45.52956" lon="6.72611">
        <ele>2255.12</ele>
        <time>2016-03-24T08:42:12Z</time>
      </trkpt>
      <trkpt lat="45.52974" lon="6.72645">
        <ele>2251.19</ele>
        <time>2016-03-24T08:42:14Z</time>
      </trkpt>
      <trkpt lat="45.52989" lon="6.72688">
        <ele>2248</ele>
        <time>2016-03-24T08:42:16Z</time>
      </trkpt>
      <trkpt lat="45.53009" lon="6.72681">
        <ele>2236.42</ele>
        <time>2016-03-24T08:42:17Z</time>
      </trkpt>
      <trkpt lat="45.53025" lon="6.72714">
        <ele>2231.09</ele>
        <time>2016-03-24T08:42:19Z</time>
      </trkpt>
      <trkpt lat="45.53042" lon="6.72739">
        <ele>2225.11</ele>
        <time>2016-03-24T08:42:21Z</time>
      </trkpt>
      <trkpt lat="45.53063" lon="6.72766">
        <ele>2221.03</ele>
        <time>2016-03-24T08:42:23Z</time>
      </trkpt>
      <trkpt lat="45.53078" lon="6.72799">
        <ele>2217.99</ele>
        <time>2016-03-24T08:42:25Z</time>
      </trkpt>
      <trkpt lat="45.53094" lon="6.72825">
        <ele>2214.83</ele>
        <time>2016-03-24T08:42:27Z</time>
      </trkpt>
      <trkpt lat="45.53109" lon="6.72857">
        <ele>2211.82</ele>
        <time>2016-03-24T08:42:29Z</time>
      </trkpt>
      <trkpt lat="45.53128" lon="6.72887">
        <ele>2208.98</ele>
        <time>2016-03-24T08:42:31Z</time>
      </trkpt>
      <trkpt lat="45.5315" lon="6.72904">
        <ele>2201.19</ele>
        <time>2016-03-24T08:42:33Z</time>
      </trkpt>
      <trkpt lat="45.53165" lon="6.72932">
        <ele>2198.8</ele>
        <time>2016-03-24T08:42:35Z</time>
      </trkpt>
      <trkpt lat="45.53188" lon="6.7295">
        <ele>2194.22</ele>
        <time>2016-03-24T08:42:37Z</time>
      </trkpt>
      <trkpt lat="45.5321" lon="6.72961">
        <ele>2187.42</ele>
        <time>2016-03-24T08:42:40Z</time>
      </trkpt>
      <trkpt lat="45.53224" lon="6.72981">
        <ele>2176.73</ele>
        <time>2016-03-24T08:43:05Z</time>
      </trkpt>
      <trkpt lat="45.53244" lon="6.72991">
        <ele>2168.24</ele>
        <time>2016-03-24T08:43:08Z</time>
      </trkpt>
      <trkpt lat="45.53264" lon="6.72993">
        <ele>2163.88</ele>
        <time>2016-03-24T08:43:10Z</time>
      </trkpt>
      <trkpt lat="45.53287" lon="6.72991">
        <ele>2156.5</ele>
        <time>2016-03-24T08:43:12Z</time>
      </trkpt>
      <trkpt lat="45.53314" lon="6.72989">
        <ele>2148.53</ele>
        <time>2016-03-24T08:43:14Z</time>
      </trkpt>
      <trkpt lat="45.53343" lon="6.72986">
        <ele>2141.49</ele>
        <time>2016-03-24T08:43:16Z</time>
      </trkpt>
      <trkpt lat="45.53372" lon="6.72992">
        <ele>2136.09</ele>
        <time>2016-03-24T08:43:18Z</time>
      </trkpt>
      <trkpt lat="45.53403" lon="6.73">
        <ele>2133.79</ele>
        <time>2016-03-24T08:43:20Z</time>
      </trkpt>
      <trkpt lat="45.53427" lon="6.73">
        <ele>2130.18</ele>
        <time>2016-03-24T08:43:22Z</time>
      </trkpt>
      <trkpt lat="45.53445" lon="6.73006">
        <ele>2127</ele>
        <time>2016-03-24T08:43:24Z</time>
      </trkpt>
      <trkpt lat="45.53463" lon="6.7302">
        <ele>2124.95</ele>
        <time>2016-03-24T08:43:26Z</time>
      </trkpt>
      <trkpt lat="45.53479" lon="6.73036">
        <ele>2121.83</ele>
        <time>2016-03-24T08:43:28Z</time>
      </trkpt>
      <trkpt lat="45.53501" lon="6.73057">
        <ele>2119.39</ele>
        <time>2016-03-24T08:43:31Z</time>
      </trkpt>
      <trkpt lat="45.53517" lon="6.73072">
        <ele>2116.97</ele>
        <time>2016-03-24T08:43:33Z</time>
      </trkpt>
      <trkpt lat="45.53537" lon="6.73085">
        <ele>2114.79</ele>
        <time>2016-03-24T08:43:35Z</time>
      </trkpt>
      <trkpt lat="45.53562" lon="6.73088">
        <ele>2111.98</ele>
        <time>2016-03-24T08:43:37Z</time>
      </trkpt>
      <trkpt lat="45.53581" lon="6.73065">
        <ele>2104.83</ele>
        <time>2016-03-24T08:43:39Z</time>
      </trkpt>
      <trkpt lat="45.53594" lon="6.73031">
        <ele>2095.42</ele>
        <time>2016-03-24T08:43:41Z</time>
      </trkpt>
      <trkpt lat="45.53605" lon="6.72998">
        <ele>2090.89</ele>
        <time>2016-03-24T08:43:43Z</time>
      </trkpt>
      <trkpt lat="45.5361" lon="6.72955">
        <ele>2087.35</ele>
        <time>2016-03-24T08:43:45Z</time>
      </trkpt>
      <trkpt lat="45.5362" lon="6.72922">
        <ele>2084.8</ele>
        <time>2016-03-24T08:43:47Z</time>
      </trkpt>
      <trkpt lat="45.53624" lon="6.7289">
        <ele>2078.3</ele>
        <time>2016-03-24T08:43:49Z</time>
      </trkpt>
      <trkpt lat="45.53629" lon="6.72862">
        <ele>2072.6</ele>
        <time>2016-03-24T08:43:51Z</time>
      </trkpt>
      <trkpt lat="45.5364" lon="6.72839">
        <ele>2068.05</ele>
        <time>2016-03-24T08:43:53Z</time>
      </trkpt>
      <trkpt lat="45.53653" lon="6.72819">
        <ele>2064.99</ele>
        <time>2016-03-24T08:43:55Z</time>
      </trkpt>
      <trkpt lat="45.53656" lon="6.72787">
        <ele>2061.99</ele>
        <time>2016-03-24T08:43:57Z</time>
      </trkpt>
      <trkpt lat="45.53663" lon="6.72758">
        <ele>2054.03</ele>
        <time>2016-03-24T08:43:59Z</time>
      </trkpt>
      <trkpt lat="45.53668" lon="6.72729">
        <ele>2048.91</ele>
        <time>2016-03-24T08:44:01Z</time>
      </trkpt>
      <trkpt lat="45.53686" lon="6.72708">
        <ele>2044.07</ele>
        <time>2016-03-24T08:44:03Z</time>
      </trkpt>
      <trkpt lat="45.5371" lon="6.72699">
        <ele>2043.39</ele>
        <time>2016-03-24T08:44:05Z</time>
      </trkpt>
      <trkpt lat="45.53728" lon="6.72701">
        <ele>2043.5</ele>
        <time>2016-03-24T08:44:06Z</time>
      </trkpt>
      <trkpt lat="45.53755" lon="6.72691">
        <ele>2038.89</ele>
        <time>2016-03-24T08:44:08Z</time>
      </trkpt>
      <trkpt lat="45.53772" lon="6.72671">
        <ele>2032.79</ele>
        <time>2016-03-24T08:44:10Z</time>
      </trkpt>
      <trkpt lat="45.53788" lon="6.72649">
        <ele>2027.1</ele>
        <time>2016-03-24T08:44:12Z</time>
      </trkpt>
      <trkpt lat="45.53795" lon="6.72625">
        <ele>2023.67</ele>
        <time>2016-03-24T08:44:14Z</time>
      </trkpt>
      <trkpt lat="45.53787" lon="6.72593">
        <ele>2017.96</ele>
        <time>2016-03-24T08:44:15Z</time>
      </trkpt>
      <trkpt lat="45.53781" lon="6.72564">
        <ele>2015.22</ele>
        <time>2016-03-24T08:44:16Z</time>
      </trkpt>
      <trkpt lat="45.53778" lon="6.72528">
        <ele>2001.44</ele>
        <time>2016-03-24T08:44:18Z</time>
      </trkpt>
      <trkpt lat="45.53774" lon="6.72488">
        <ele>1994.97</ele>
        <time>2016-03-24T08:44:20Z</time>
      </trkpt>
      <trkpt lat="45.53771" lon="6.72444">
        <ele>1988.47</ele>
        <time>2016-03-24T08:44:22Z</time>
      </trkpt>
      <trkpt lat="45.5377" lon="6.72418">
        <ele>1977.97</ele>
        <time>2016-03-24T08:44:24Z</time>
      </trkpt>
      <trkpt lat="45.53773" lon="6.72381">
        <ele>1970.03</ele>
        <time>2016-03-24T08:44:26Z</time>
      </trkpt>
      <trkpt lat="45.53773" lon="6.72341">
        <ele>1966.03</ele>
        <time>2016-03-24T08:44:28Z</time>
      </trkpt>
      <trkpt lat="45.53776" lon="6.72312">
        <ele>1959.23</ele>
        <time>2016-03-24T08:44:29Z</time>
      </trkpt>
      <trkpt lat="45.53773" lon="6.72276">
        <ele>1943.37</ele>
        <time>2016-03-24T08:44:32Z</time>
      </trkpt>
      <trkpt lat="45.53786" lon="6.72254">
        <ele>1933.04</ele>
        <time>2016-03-24T08:44:36Z</time>
      </trkpt>
      <trkpt lat="45.5381" lon="6.72269">
        <ele>1930.79</ele>
        <time>2016-03-24T08:44:38Z</time>
      </trkpt>
      <trkpt lat="45.53836" lon="6.72276">
        <ele>1925.26</ele>
        <time>2016-03-24T08:44:40Z</time>
      </trkpt>
      <trkpt lat="45.53859" lon="6.72278">
        <ele>1921.2</ele>
        <time>2016-03-24T08:44:42Z</time>
      </trkpt>
      <trkpt lat="45.53884" lon="6.72268">
        <ele>1915.28</ele>
        <time>2016-03-24T08:44:44Z</time>
      </trkpt>
      <trkpt lat="45.53903" lon="6.72274">
        <ele>1908.32</ele>
        <time>2016-03-24T08:44:46Z</time>
      </trkpt>
      <trkpt lat="45.53925" lon="6.72288">
        <ele>1904.04</ele>
        <time>2016-03-24T08:44:48Z</time>
      </trkpt>
      <trkpt lat="45.53937" lon="6.72307">
        <ele>1900.83</ele>
        <time>2016-03-24T08:44:50Z</time>
      </trkpt>
      <trkpt lat="45.53943" lon="6.72341">
        <ele>1895.64</ele>
        <time>2016-03-24T08:44:53Z</time>
      </trkpt>
      <trkpt lat="45.53944" lon="6.72367">
        <ele>1891.58</ele>
        <time>2016-03-24T08:45:02Z</time>
      </trkpt>
      <trkpt lat="45.53945" lon="6.72397">
        <ele>1888.54</ele>
        <time>2016-03-24T08:45:10Z</time>
      </trkpt>
      <trkpt lat="45.53948" lon="6.7243">
        <ele>1884.05</ele>
        <time>2016-03-24T08:45:13Z</time>
      </trkpt>
      <trkpt lat="45.5396" lon="6.72449">
        <ele>1880.83</ele>
        <time>2016-03-24T08:45:15Z</time>
      </trkpt>
      <trkpt lat="45.53971" lon="6.72476">
        <ele>1876.86</ele>
        <time>2016-03-24T08:45:17Z</time>
      </trkpt>
      <trkpt lat="45.53975" lon="6.72507">
        <ele>1875.58</ele>
        <time>2016-03-24T08:45:19Z</time>
      </trkpt>
      <trkpt lat="45.53993" lon="6.72523">
        <ele>1871.21</ele>
        <time>2016-03-24T08:45:21Z</time>
      </trkpt>
      <trkpt lat="45.54015" lon="6.72537">
        <ele>1868.8</ele>
        <time>2016-03-24T08:45:23Z</time>
      </trkpt>
      <trkpt lat="45.54033" lon="6.72549">
        <ele>1867.58</ele>
        <time>2016-03-24T08:45:25Z</time>
      </trkpt>
      <trkpt lat="45.54056" lon="6.72549">
        <ele>1865.77</ele>
        <time>2016-03-24T08:45:27Z</time>
      </trkpt>
      <trkpt lat="45.5408" lon="6.72545">
        <ele>1861.63</ele>
        <time>2016-03-24T08:45:30Z</time>
      </trkpt>
      <trkpt lat="45.54106" lon="6.72541">
        <ele>1859.58</ele>
        <time>2016-03-24T08:45:33Z</time>
      </trkpt>
      <trkpt lat="45.54129" lon="6.72536">
        <ele>1857.77</ele>
        <time>2016-03-24T08:45:35Z</time>
      </trkpt>
      <trkpt lat="45.54148" lon="6.72547">
        <ele>1854.82</ele>
        <time>2016-03-24T08:45:37Z</time>
      </trkpt>
      <trkpt lat="45.54158" lon="6.72579">
        <ele>1849.8</ele>
        <time>2016-03-24T08:45:40Z</time>
      </trkpt>
      <trkpt lat="45.54178" lon="6.7259">
        <ele>1845.76</ele>
        <time>2016-03-24T08:45:43Z</time>
      </trkpt>
      <trkpt lat="45.54198" lon="6.726">
        <ele>1839.87</ele>
        <time>2016-03-24T08:45:46Z</time>
      </trkpt>
      <trkpt lat="45.54218" lon="6.72592">
        <ele>1823.12</ele>
        <time>2016-03-24T08:45:49Z</time>
      </trkpt>
      <trkpt lat="45.54241" lon="6.72597">
        <ele>1815.34</ele>
        <time>2016-03-24T08:45:52Z</time>
      </trkpt>
      <trkpt lat="45.54261" lon="6.7261">
        <ele>1811.36</ele>
        <time>2016-03-24T08:45:54Z</time>
      </trkpt>
      <trkpt lat="45.54282" lon="6.72628">
        <ele>1806.88</ele>
        <time>2016-03-24T08:45:56Z</time>
      </trkpt>
      <trkpt lat="45.54301" lon="6.7266">
        <ele>1803.03</ele>
        <time>2016-03-24T08:45:58Z</time>
      </trkpt>
      <trkpt lat="45.54304" lon="6.72699">
        <ele>1800.15</ele>
        <time>2016-03-24T08:46:00Z</time>
      </trkpt>
      <trkpt lat="45.54316" lon="6.72725">
        <ele>1796.84</ele>
        <time>2016-03-24T08:46:02Z</time>
      </trkpt>
      <trkpt lat="45.54329" lon="6.72747">
        <ele>1795.58</ele>
        <time>2016-03-24T08:46:04Z</time>
      </trkpt>
      <trkpt lat="45.54349" lon="6.72743">
        <ele>1787.69</ele>
        <time>2016-03-24T08:46:06Z</time>
      </trkpt>
      <trkpt lat="45.54366" lon="6.72767">
        <ele>1781.84</ele>
        <time>2016-03-24T08:46:09Z</time>
      </trkpt>
      <trkpt lat="45.54378" lon="6.72798">
        <ele>1777.98</ele>
        <time>2016-03-24T08:46:12Z</time>
      </trkpt>
      <trkpt lat="45.544" lon="6.72812">
        <ele>1773.82</ele>
        <time>2016-03-24T08:46:15Z</time>
      </trkpt>
      <trkpt lat="45.54418" lon="6.72821">
        <ele>1770.66</ele>
        <time>2016-03-24T08:46:17Z</time>
      </trkpt>
      <trkpt lat="45.54431" lon="6.72802">
        <ele>1766.54</ele>
        <time>2016-03-24T08:46:19Z</time>
      </trkpt>
      <trkpt lat="45.54455" lon="6.72778">
        <ele>1762.79</ele>
        <time>2016-03-24T08:46:22Z</time>
      </trkpt>
      <trkpt lat="45.54475" lon="6.72771">
        <ele>1754.38</ele>
        <time>2016-03-24T08:46:24Z</time>
      </trkpt>
      <trkpt lat="45.54495" lon="6.72776">
        <ele>1749.08</ele>
        <time>2016-03-24T08:46:26Z</time>
      </trkpt>
      <trkpt lat="45.54519" lon="6.728">
        <ele>1743.03</ele>
        <time>2016-03-24T08:46:29Z</time>
      </trkpt>
      <trkpt lat="45.54537" lon="6.7283">
        <ele>1738.07</ele>
        <time>2016-03-24T08:46:31Z</time>
      </trkpt>
      <trkpt lat="45.54553" lon="6.72851">
        <ele>1733.07</ele>
        <time>2016-03-24T08:46:33Z</time>
      </trkpt>
      <trkpt lat="45.5456" lon="6.72884">
        <ele>1727.19</ele>
        <time>2016-03-24T08:46:36Z</time>
      </trkpt>
      <trkpt lat="45.54558" lon="6.72921">
        <ele>1721</ele>
        <time>2016-03-24T08:46:39Z</time>
      </trkpt>
      <trkpt lat="45.54563" lon="6.72952">
        <ele>1716.07</ele>
        <time>2016-03-24T08:46:41Z</time>
      </trkpt>
      <trkpt lat="45.54565" lon="6.72982">
        <ele>1712.03</ele>
        <time>2016-03-24T08:46:43Z</time>
      </trkpt>
      <trkpt lat="45.54568" lon="6.73018">
        <ele>1707.87</ele>
        <time>2016-03-24T08:46:45Z</time>
      </trkpt>
      <trkpt lat="45.54579" lon="6.73049">
        <ele>1704.02</ele>
        <time>2016-03-24T08:46:47Z</time>
      </trkpt>
      <trkpt lat="45.54603" lon="6.73067">
        <ele>1696.51</ele>
        <time>2016-03-24T08:46:49Z</time>
      </trkpt>
      <trkpt lat="45.54618" lon="6.73097">
        <ele>1693.01</ele>
        <time>2016-03-24T08:46:51Z</time>
      </trkpt>
      <trkpt lat="45.54635" lon="6.73122">
        <ele>1682.1</ele>
        <time>2016-03-24T08:46:54Z</time>
      </trkpt>
      <trkpt lat="45.5465" lon="6.73146">
        <ele>1676.06</ele>
        <time>2016-03-24T08:46:57Z</time>
      </trkpt>
      <trkpt lat="45.54673" lon="6.73159">
        <ele>1674.74</ele>
        <time>2016-03-24T08:47:00Z</time>
      </trkpt>
      <trkpt lat="45.54675" lon="6.73194">
        <ele>1665.32</ele>
        <time>2016-03-24T08:47:03Z</time>
      </trkpt>
      <trkpt lat="45.54682" lon="6.73218">
        <ele>1660.24</ele>
        <time>2016-03-24T08:47:05Z</time>
      </trkpt>
      <trkpt lat="45.54691" lon="6.73243">
        <ele>1655.56</ele>
        <time>2016-03-24T08:47:07Z</time>
      </trkpt>
      <trkpt lat="45.54703" lon="6.73274">
        <ele>1645.16</ele>
        <time>2016-03-24T08:47:10Z</time>
      </trkpt>
      <trkpt lat="45.54718" lon="6.733">
        <ele>1637.43</ele>
        <time>2016-03-24T08:47:13Z</time>
      </trkpt>
      <trkpt lat="45.54719" lon="6.73328">
        <ele>1631.79</ele>
        <time>2016-03-24T08:47:17Z</time>
      </trkpt>
      <trkpt lat="45.54712" lon="6.73366">
        <ele>1628.97</ele>
        <time>2016-03-24T08:47:20Z</time>
      </trkpt>
      <trkpt lat="45.54704" lon="6.73402">
        <ele>1627.59</ele>
        <time>2016-03-24T08:47:22Z</time>
      </trkpt>
      <trkpt lat="45.547" lon="6.73436">
        <ele>1624.97</ele>
        <time>2016-03-24T08:47:24Z</time>
      </trkpt>
      <trkpt lat="45.54702" lon="6.73469">
        <ele>1622.79</ele>
        <time>2016-03-24T08:47:26Z</time>
      </trkpt>
      <trkpt lat="45.54717" lon="6.73498">
        <ele>1620.77</ele>
        <time>2016-03-24T08:47:29Z</time>
      </trkpt>
      <trkpt lat="45.54727" lon="6.73531">
        <ele>1621.33</ele>
        <time>2016-03-24T08:47:32Z</time>
      </trkpt>
      <trkpt lat="45.54741" lon="6.73557">
        <ele>1618.94</ele>
        <time>2016-03-24T08:47:35Z</time>
      </trkpt>
      <trkpt lat="45.54754" lon="6.73584">
        <ele>1616.77</ele>
        <time>2016-03-24T08:47:38Z</time>
      </trkpt>
      <trkpt lat="45.54765" lon="6.73616">
        <ele>1617.33</ele>
        <time>2016-03-24T08:47:41Z</time>
      </trkpt>
      <trkpt lat="45.54771" lon="6.73645">
        <ele>1619.48</ele>
        <time>2016-03-24T08:47:44Z</time>
      </trkpt>
      <trkpt lat="45.54775" lon="6.73672">
        <ele>1619.53</ele>
        <time>2016-03-24T08:47:46Z</time>
      </trkpt>
      <trkpt lat="45.54785" lon="6.73707">
        <ele>1619.72</ele>
        <time>2016-03-24T08:47:49Z</time>
      </trkpt>
      <trkpt lat="45.54795" lon="6.73729">
        <ele>1618.58</ele>
        <time>2016-03-24T08:47:51Z</time>
      </trkpt>
      <trkpt lat="45.54811" lon="6.73757">
        <ele>1613.67</ele>
        <time>2016-03-24T08:47:54Z</time>
      </trkpt>
      <trkpt lat="45.54832" lon="6.7378">
        <ele>1609.63</ele>
        <time>2016-03-24T08:47:57Z</time>
      </trkpt>
      <trkpt lat="45.54851" lon="6.738">
        <ele>1605.21</ele>
        <time>2016-03-24T08:48:00Z</time>
      </trkpt>
      <trkpt lat="45.54862" lon="6.73825">
        <ele>1598.2</ele>
        <time>2016-03-24T08:48:03Z</time>
      </trkpt>
      <trkpt lat="45.54864" lon="6.73851">
        <ele>1593.22</ele>
        <time>2016-03-24T08:48:06Z</time>
      </trkpt>
      <trkpt lat="45.54867" lon="6.73877">
        <ele>1588.56</ele>
        <time>2016-03-24T08:48:18Z</time>
      </trkpt>
      <trkpt lat="45.54861" lon="6.73904">
        <ele>1584.44</ele>
        <time>2016-03-24T08:48:21Z</time>
      </trkpt>
      <trkpt lat="45.54854" lon="6.73943">
        <ele>1583.54</ele>
        <time>2016-03-24T08:48:24Z</time>
      </trkpt>
      <trkpt lat="45.54878" lon="6.73956">
        <ele>1571.63</ele>
        <time>2016-03-24T08:48:27Z</time>
      </trkpt>
      <trkpt lat="45.54901" lon="6.73953">
        <ele>1566.73</ele>
        <time>2016-03-24T08:48:29Z</time>
      </trkpt>
      <trkpt lat="45.54915" lon="6.73931">
        <ele>1563.82</ele>
        <time>2016-03-24T08:48:31Z</time>
      </trkpt>
      <trkpt lat="45.54924" lon="6.73901">
        <ele>1560.01</ele>
        <time>2016-03-24T08:48:34Z</time>
      </trkpt>
      <trkpt lat="45.5493" lon="6.73927">
        <ele>1549.85</ele>
        <time>2016-03-24T08:51:24Z</time>
      </trkpt>
      <trkpt lat="45.54931" lon="6.73953">
        <ele>1551.53</ele>
        <time>2016-03-24T08:55:51Z</time>
      </trkpt>
      <trkpt lat="45.54938" lon="6.73982">
        <ele>1547.9</ele>
        <time>2016-03-24T08:59:41Z</time>
      </trkpt>
      <trkpt lat="45.54942" lon="6.7401">
        <ele>1545.77</ele>
        <time>2016-03-24T08:59:44Z</time>
      </trkpt>
      <trkpt lat="45.54948" lon="6.74045">
        <ele>1542.59</ele>
        <time>2016-03-24T08:59:47Z</time>
      </trkpt>
      <trkpt lat="45.54949" lon="6.74079">
        <ele>1538.79</ele>
        <time>2016-03-24T08:59:50Z</time>
      </trkpt>
      <trkpt lat="45.54955" lon="6.74104">
        <ele>1536.78</ele>
        <time>2016-03-24T08:59:52Z</time>
      </trkpt>
      <trkpt lat="45.54957" lon="6.74136">
        <ele>1534.78</ele>
        <time>2016-03-24T08:59:54Z</time>
      </trkpt>
      <trkpt lat="45.54961" lon="6.74166">
        <ele>1532.94</ele>
        <time>2016-03-24T08:59:56Z</time>
      </trkpt>
      <trkpt lat="45.54965" lon="6.74195">
        <ele>1531.75</ele>
        <time>2016-03-24T08:59:58Z</time>
      </trkpt>
      <trkpt lat="45.54967" lon="6.74227">
        <ele>1529.94</ele>
        <time>2016-03-24T09:00:00Z</time>
      </trkpt>
      <trkpt lat="45.54968" lon="6.74259">
        <ele>1526.99</ele>
        <time>2016-03-24T09:00:02Z</time>
      </trkpt>
      <trkpt lat="45.54976" lon="6.74288">
        <ele>1526.71</ele>
        <time>2016-03-24T09:00:04Z</time>
      </trkpt>
      <trkpt lat="45.54977" lon="6.74319">
        <ele>1523.02</ele>
        <time>2016-03-24T09:00:06Z</time>
      </trkpt>
      <trkpt lat="45.5498" lon="6.74352">
        <ele>1521.75</ele>
        <time>2016-03-24T09:00:08Z</time>
      </trkpt>
      <trkpt lat="45.54981" lon="6.74385">
        <ele>1520.74</ele>
        <time>2016-03-24T09:00:10Z</time>
      </trkpt>
      <trkpt lat="45.54987" lon="6.74416">
        <ele>1524.54</ele>
        <time>2016-03-24T09:00:12Z</time>
      </trkpt>
      <trkpt lat="45.54989" lon="6.74448">
        <ele>1521.97</ele>
        <time>2016-03-24T09:00:14Z</time>
      </trkpt>
      <trkpt lat="45.54994" lon="6.74487">
        <ele>1516.86</ele>
        <time>2016-03-24T09:00:17Z</time>
      </trkpt>
      <trkpt lat="45.54996" lon="6.7452">
        <ele>1513.98</ele>
        <time>2016-03-24T09:00:19Z</time>
      </trkpt>
      <trkpt lat="45.54998" lon="6.74554">
        <ele>1510.67</ele>
        <time>2016-03-24T09:00:21Z</time>
      </trkpt>
      <trkpt lat="45.54997" lon="6.74588">
        <ele>1507.5</ele>
        <time>2016-03-24T09:00:23Z</time>
      </trkpt>
      <trkpt lat="45.54999" lon="6.74619">
        <ele>1506.73</ele>
        <time>2016-03-24T09:00:25Z</time>
      </trkpt>
      <trkpt lat="45.55002" lon="6.7465">
        <ele>1505.58</ele>
        <time>2016-03-24T09:00:27Z</time>
      </trkpt>
      <trkpt lat="45.55006" lon="6.7468">
        <ele>1502.81</ele>
        <time>2016-03-24T09:00:29Z</time>
      </trkpt>
      <trkpt lat="45.55009" lon="6.7471">
        <ele>1501.74</ele>
        <time>2016-03-24T09:00:31Z</time>
      </trkpt>
      <trkpt lat="45.55011" lon="6.74743">
        <ele>1501.54</ele>
        <time>2016-03-24T09:00:33Z</time>
      </trkpt>
      <trkpt lat="45.55013" lon="6.74776">
        <ele>1501.53</ele>
        <time>2016-03-24T09:00:35Z</time>
      </trkpt>
      <trkpt lat="45.55013" lon="6.74803">
        <ele>1492.57</ele>
        <time>2016-03-24T09:00:37Z</time>
      </trkpt>
      <trkpt lat="45.55015" lon="6.74835">
        <ele>1489.01</ele>
        <time>2016-03-24T09:00:39Z</time>
      </trkpt>
      <trkpt lat="45.55016" lon="6.74867">
        <ele>1485.19</ele>
        <time>2016-03-24T09:00:41Z</time>
      </trkpt>
      <trkpt lat="45.55019" lon="6.749">
        <ele>1483.76</ele>
        <time>2016-03-24T09:00:43Z</time>
      </trkpt>
      <trkpt lat="45.55019" lon="6.74935">
        <ele>1481.78</ele>
        <time>2016-03-24T09:00:45Z</time>
      </trkpt>
      <trkpt lat="45.5502" lon="6.74966">
        <ele>1478.98</ele>
        <time>2016-03-24T09:00:47Z</time>
      </trkpt>
      <trkpt lat="45.55022" lon="6.75001">
        <ele>1479.35</ele>
        <time>2016-03-24T09:00:49Z</time>
      </trkpt>
      <trkpt lat="45.55025" lon="6.75034">
        <ele>1478.56</ele>
        <time>2016-03-24T09:00:51Z</time>
      </trkpt>
      <trkpt lat="45.55027" lon="6.75064">
        <ele>1477.73</ele>
        <time>2016-03-24T09:00:53Z</time>
      </trkpt>
      <trkpt lat="45.55028" lon="6.75094">
        <ele>1475.78</ele>
        <time>2016-03-24T09:00:55Z</time>
      </trkpt>
      <trkpt lat="45.5503" lon="6.75124">
        <ele>1474.58</ele>
        <time>2016-03-24T09:00:57Z</time>
      </trkpt>
      <trkpt lat="45.55032" lon="6.75154">
        <ele>1475.33</ele>
        <time>2016-03-24T09:00:59Z</time>
      </trkpt>
      <trkpt lat="45.55033" lon="6.75188">
        <ele>1477.12</ele>
        <time>2016-03-24T09:01:01Z</time>
      </trkpt>
      <trkpt lat="45.55034" lon="6.75219">
        <ele>1478.47</ele>
        <time>2016-03-24T09:01:03Z</time>
      </trkpt>
      <trkpt lat="45.55041" lon="6.75244">
        <ele>1480.45</ele>
        <time>2016-03-24T09:01:05Z</time>
      </trkpt>
      <trkpt lat="45.55045" lon="6.75278">
        <ele>1481.49</ele>
        <time>2016-03-24T09:01:07Z</time>
      </trkpt>
      <trkpt lat="45.55046" lon="6.75313">
        <ele>1484.09</ele>
        <time>2016-03-24T09:01:09Z</time>
      </trkpt>
      <trkpt lat="45.5505" lon="6.75341">
        <ele>1485.31</ele>
        <time>2016-03-24T09:01:11Z</time>
      </trkpt>
      <trkpt lat="45.55053" lon="6.75372">
        <ele>1486.48</ele>
        <time>2016-03-24T09:01:13Z</time>
      </trkpt>
      <trkpt lat="45.55055" lon="6.75407">
        <ele>1487.33</ele>
        <time>2016-03-24T09:01:15Z</time>
      </trkpt>
      <trkpt lat="45.55055" lon="6.75438">
        <ele>1487.52</ele>
        <time>2016-03-24T09:01:17Z</time>
      </trkpt>
      <trkpt lat="45.55058" lon="6.75481">
        <ele>1488.71</ele>
        <time>2016-03-24T09:01:20Z</time>
      </trkpt>
      <trkpt lat="45.55061" lon="6.75512">
        <ele>1489.5</ele>
        <time>2016-03-24T09:01:22Z</time>
      </trkpt>
      <trkpt lat="45.5506" lon="6.75548">
        <ele>1489.69</ele>
        <time>2016-03-24T09:01:24Z</time>
      </trkpt>
      <trkpt lat="45.55061" lon="6.75581">
        <ele>1491.3</ele>
        <time>2016-03-24T09:01:26Z</time>
      </trkpt>
      <trkpt lat="45.55063" lon="6.75616">
        <ele>1493.28</ele>
        <time>2016-03-24T09:01:28Z</time>
      </trkpt>
      <trkpt lat="45.55063" lon="6.75653">
        <ele>1494.32</ele>
        <time>2016-03-24T09:01:30Z</time>
      </trkpt>
      <trkpt lat="45.55062" lon="6.7569">
        <ele>1495.48</ele>
        <time>2016-03-24T09:01:32Z</time>
      </trkpt>
      <trkpt lat="45.55065" lon="6.75724">
        <ele>1497.29</ele>
        <time>2016-03-24T09:01:34Z</time>
      </trkpt>
      <trkpt lat="45.55062" lon="6.75764">
        <ele>1499.44</ele>
        <time>2016-03-24T09:01:36Z</time>
      </trkpt>
      <trkpt lat="45.55063" lon="6.75793">
        <ele>1502.09</ele>
        <time>2016-03-24T09:01:38Z</time>
      </trkpt>
      <trkpt lat="45.55065" lon="6.75827">
        <ele>1504.43</ele>
        <time>2016-03-24T09:01:40Z</time>
      </trkpt>
      <trkpt lat="45.55066" lon="6.75858">
        <ele>1505.33</ele>
        <time>2016-03-24T09:01:42Z</time>
      </trkpt>
      <trkpt lat="45.55071" lon="6.75887">
        <ele>1510.64</ele>
        <time>2016-03-24T09:01:44Z</time>
      </trkpt>
      <trkpt lat="45.55073" lon="6.75918">
        <ele>1514.22</ele>
        <time>2016-03-24T09:01:46Z</time>
      </trkpt>
      <trkpt lat="45.55076" lon="6.7595">
        <ele>1515.32</ele>
        <time>2016-03-24T09:01:48Z</time>
      </trkpt>
      <trkpt lat="45.5508" lon="6.7598">
        <ele>1518.72</ele>
        <time>2016-03-24T09:01:50Z</time>
      </trkpt>
      <trkpt lat="45.55082" lon="6.76008">
        <ele>1521.26</ele>
        <time>2016-03-24T09:01:52Z</time>
      </trkpt>
      <trkpt lat="45.55087" lon="6.76038">
        <ele>1526.64</ele>
        <time>2016-03-24T09:01:54Z</time>
      </trkpt>
      <trkpt lat="45.55091" lon="6.7607">
        <ele>1534.06</ele>
        <time>2016-03-24T09:01:56Z</time>
      </trkpt>
      <trkpt lat="45.55092" lon="6.76103">
        <ele>1541.55</ele>
        <time>2016-03-24T09:01:58Z</time>
      </trkpt>
      <trkpt lat="45.55095" lon="6.76131">
        <ele>1549.53</ele>
        <time>2016-03-24T09:02:00Z</time>
      </trkpt>
      <trkpt lat="45.55102" lon="6.76165">
        <ele>1558.84</ele>
        <time>2016-03-24T09:02:03Z</time>
      </trkpt>
      <trkpt lat="45.55104" lon="6.76198">
        <ele>1565.86</ele>
        <time>2016-03-24T09:02:06Z</time>
      </trkpt>
      <trkpt lat="45.55112" lon="6.76227">
        <ele>1571.51</ele>
        <time>2016-03-24T09:02:10Z</time>
      </trkpt>
      <trkpt lat="45.5511" lon="6.76255">
        <ele>1576.08</ele>
        <time>2016-03-24T09:02:14Z</time>
      </trkpt>
      <trkpt lat="45.55108" lon="6.76281">
        <ele>1585.28</ele>
        <time>2016-03-24T09:02:26Z</time>
      </trkpt>
      <trkpt lat="45.55114" lon="6.76306">
        <ele>1601.53</ele>
        <time>2016-03-24T09:02:54Z</time>
      </trkpt>
      <trkpt lat="45.55124" lon="6.76328">
        <ele>1612.53</ele>
        <time>2016-03-24T09:04:54Z</time>
      </trkpt>
      <trkpt lat="45.55124" lon="6.76354">
        <ele>1613.7</ele>
        <time>2016-03-24T09:05:18Z</time>
      </trkpt>
      <trkpt lat="45.55108" lon="6.76367">
        <ele>1609.56</ele>
        <time>2016-03-24T09:05:47Z</time>
      </trkpt>
      <trkpt lat="45.55091" lon="6.76358">
        <ele>1620.73</ele>
        <time>2016-03-24T09:07:12Z</time>
      </trkpt>
      <trkpt lat="45.55076" lon="6.76342">
        <ele>1619.13</ele>
        <time>2016-03-24T09:08:35Z</time>
      </trkpt>
      <trkpt lat="45.55077" lon="6.76375">
        <ele>1615.12</ele>
        <time>2016-03-24T09:09:01Z</time>
      </trkpt>
      <trkpt lat="45.55066" lon="6.76402">
        <ele>1618.32</ele>
        <time>2016-03-24T09:09:05Z</time>
      </trkpt>
      <trkpt lat="45.55062" lon="6.76429">
        <ele>1629.07</ele>
        <time>2016-03-24T09:09:10Z</time>
      </trkpt>
      <trkpt lat="45.55053" lon="6.76451">
        <ele>1634.28</ele>
        <time>2016-03-24T09:09:14Z</time>
      </trkpt>
      <trkpt lat="45.55047" lon="6.76479">
        <ele>1637.48</ele>
        <time>2016-03-24T09:09:20Z</time>
      </trkpt>
      <trkpt lat="45.55042" lon="6.76505">
        <ele>1641.48</ele>
        <time>2016-03-24T09:09:25Z</time>
      </trkpt>
      <trkpt lat="45.55039" lon="6.76534">
        <ele>1645.52</ele>
        <time>2016-03-24T09:09:31Z</time>
      </trkpt>
      <trkpt lat="45.5504" lon="6.76562">
        <ele>1650.67</ele>
        <time>2016-03-24T09:09:37Z</time>
      </trkpt>
      <trkpt lat="45.55043" lon="6.7659">
        <ele>1657.95</ele>
        <time>2016-03-24T09:09:44Z</time>
      </trkpt>
      <trkpt lat="45.55036" lon="6.76617">
        <ele>1660.67</ele>
        <time>2016-03-24T09:09:49Z</time>
      </trkpt>
      <trkpt lat="45.55033" lon="6.76647">
        <ele>1669.2</ele>
        <time>2016-03-24T09:09:55Z</time>
      </trkpt>
      <trkpt lat="45.55023" lon="6.76674">
        <ele>1672.49</ele>
        <time>2016-03-24T09:10:00Z</time>
      </trkpt>
      <trkpt lat="45.55019" lon="6.767">
        <ele>1674.36</ele>
        <time>2016-03-24T09:10:05Z</time>
      </trkpt>
      <trkpt lat="45.55013" lon="6.76725">
        <ele>1678.89</ele>
        <time>2016-03-24T09:10:10Z</time>
      </trkpt>
      <trkpt lat="45.55007" lon="6.76751">
        <ele>1681.32</ele>
        <time>2016-03-24T09:10:15Z</time>
      </trkpt>
      <trkpt lat="45.54994" lon="6.76772">
        <ele>1688.95</ele>
        <time>2016-03-24T09:10:19Z</time>
      </trkpt>
      <trkpt lat="45.55001" lon="6.76797">
        <ele>1694.47</ele>
        <time>2016-03-24T09:10:25Z</time>
      </trkpt>
      <trkpt lat="45.54996" lon="6.76826">
        <ele>1701.08</ele>
        <time>2016-03-24T09:10:31Z</time>
      </trkpt>
      <trkpt lat="45.54997" lon="6.76856">
        <ele>1714.16</ele>
        <time>2016-03-24T09:10:38Z</time>
      </trkpt>
      <trkpt lat="45.54988" lon="6.76881">
        <ele>1720.44</ele>
        <time>2016-03-24T09:10:43Z</time>
      </trkpt>
      <trkpt lat="45.54983" lon="6.76911">
        <ele>1726.28</ele>
        <time>2016-03-24T09:10:49Z</time>
      </trkpt>
      <trkpt lat="45.5498" lon="6.7694">
        <ele>1734.23</ele>
        <time>2016-03-24T09:10:55Z</time>
      </trkpt>
      <trkpt lat="45.54976" lon="6.76968">
        <ele>1746.04</ele>
        <time>2016-03-24T09:11:01Z</time>
      </trkpt>
      <trkpt lat="45.54974" lon="6.76994">
        <ele>1758.2</ele>
        <time>2016-03-24T09:11:07Z</time>
      </trkpt>
      <trkpt lat="45.54971" lon="6.77024">
        <ele>1775.06</ele>
        <time>2016-03-24T09:11:15Z</time>
      </trkpt>
      <trkpt lat="45.54965" lon="6.7705">
        <ele>1782.23</ele>
        <time>2016-03-24T09:11:20Z</time>
      </trkpt>
      <trkpt lat="45.54959" lon="6.77076">
        <ele>1791.29</ele>
        <time>2016-03-24T09:11:26Z</time>
      </trkpt>
      <trkpt lat="45.54957" lon="6.77105">
        <ele>1801.26</ele>
        <time>2016-03-24T09:11:32Z</time>
      </trkpt>
      <trkpt lat="45.54953" lon="6.77132">
        <ele>1810.11</ele>
        <time>2016-03-24T09:11:38Z</time>
      </trkpt>
      <trkpt lat="45.54949" lon="6.7716">
        <ele>1819.28</ele>
        <time>2016-03-24T09:11:44Z</time>
      </trkpt>
      <trkpt lat="45.54942" lon="6.77188">
        <ele>1827.1</ele>
        <time>2016-03-24T09:11:49Z</time>
      </trkpt>
      <trkpt lat="45.54939" lon="6.77213">
        <ele>1835.43</ele>
        <time>2016-03-24T09:11:56Z</time>
      </trkpt>
      <trkpt lat="45.5493" lon="6.77243">
        <ele>1842.27</ele>
        <time>2016-03-24T09:12:02Z</time>
      </trkpt>
      <trkpt lat="45.54927" lon="6.7727">
        <ele>1852.27</ele>
        <time>2016-03-24T09:12:08Z</time>
      </trkpt>
      <trkpt lat="45.5492" lon="6.77296">
        <ele>1858.41</ele>
        <time>2016-03-24T09:12:13Z</time>
      </trkpt>
      <trkpt lat="45.54915" lon="6.77326">
        <ele>1864.28</ele>
        <time>2016-03-24T09:12:19Z</time>
      </trkpt>
      <trkpt lat="45.54912" lon="6.77354">
        <ele>1873.01</ele>
        <time>2016-03-24T09:12:25Z</time>
      </trkpt>
      <trkpt lat="45.54912" lon="6.77384">
        <ele>1889.36</ele>
        <time>2016-03-24T09:12:32Z</time>
      </trkpt>
      <trkpt lat="45.54905" lon="6.77409">
        <ele>1893.52</ele>
        <time>2016-03-24T09:12:37Z</time>
      </trkpt>
      <trkpt lat="45.54899" lon="6.77434">
        <ele>1899.28</ele>
        <time>2016-03-24T09:12:42Z</time>
      </trkpt>
      <trkpt lat="45.54894" lon="6.77459">
        <ele>1896.58</ele>
        <time>2016-03-24T09:12:50Z</time>
      </trkpt>
      <trkpt lat="45.54899" lon="6.77486">
        <ele>1895.55</ele>
        <time>2016-03-24T09:12:59Z</time>
      </trkpt>
      <trkpt lat="45.54896" lon="6.77512">
        <ele>1898.49</ele>
        <time>2016-03-24T09:13:05Z</time>
      </trkpt>
      <trkpt lat="45.54891" lon="6.77538">
        <ele>1904.48</ele>
        <time>2016-03-24T09:13:11Z</time>
      </trkpt>
      <trkpt lat="45.54885" lon="6.77568">
        <ele>1908.85</ele>
        <time>2016-03-24T09:13:17Z</time>
      </trkpt>
      <trkpt lat="45.54883" lon="6.77597">
        <ele>1916.29</ele>
        <time>2016-03-24T09:13:24Z</time>
      </trkpt>
      <trkpt lat="45.54878" lon="6.77622">
        <ele>1921.49</ele>
        <time>2016-03-24T09:13:30Z</time>
      </trkpt>
      <trkpt lat="45.54876" lon="6.77648">
        <ele>1927.32</ele>
        <time>2016-03-24T09:13:37Z</time>
      </trkpt>
      <trkpt lat="45.54871" lon="6.77675">
        <ele>1931.48</ele>
        <time>2016-03-24T09:13:43Z</time>
      </trkpt>
      <trkpt lat="45.54864" lon="6.77699">
        <ele>1938.08</ele>
        <time>2016-03-24T09:13:48Z</time>
      </trkpt>
      <trkpt lat="45.54859" lon="6.77726">
        <ele>1947.46</ele>
        <time>2016-03-24T09:13:54Z</time>
      </trkpt>
      <trkpt lat="45.54853" lon="6.77753">
        <ele>1957.96</ele>
        <time>2016-03-24T09:13:58Z</time>
      </trkpt>
      <trkpt lat="45.54848" lon="6.7778">
        <ele>1964.27</ele>
        <time>2016-03-24T09:14:03Z</time>
      </trkpt>
      <trkpt lat="45.54846" lon="6.77809">
        <ele>1971.4</ele>
        <time>2016-03-24T09:14:09Z</time>
      </trkpt>
      <trkpt lat="45.5484" lon="6.77837">
        <ele>1981.04</ele>
        <time>2016-03-24T09:14:14Z</time>
      </trkpt>
      <trkpt lat="45.54836" lon="6.77863">
        <ele>1986.32</ele>
        <time>2016-03-24T09:14:19Z</time>
      </trkpt>
      <trkpt lat="45.54834" lon="6.77889">
        <ele>1992.28</ele>
        <time>2016-03-24T09:14:25Z</time>
      </trkpt>
      <trkpt lat="45.54827" lon="6.77917">
        <ele>2000.07</ele>
        <time>2016-03-24T09:14:30Z</time>
      </trkpt>
      <trkpt lat="45.54824" lon="6.77943">
        <ele>2008.35</ele>
        <time>2016-03-24T09:14:34Z</time>
      </trkpt>
      <trkpt lat="45.54819" lon="6.77968">
        <ele>2014.12</ele>
        <time>2016-03-24T09:14:39Z</time>
      </trkpt>
      <trkpt lat="45.54817" lon="6.77994">
        <ele>2024.06</ele>
        <time>2016-03-24T09:14:44Z</time>
      </trkpt>
      <trkpt lat="45.54812" lon="6.78026">
        <ele>2032.09</ele>
        <time>2016-03-24T09:14:50Z</time>
      </trkpt>
      <trkpt lat="45.54808" lon="6.78052">
        <ele>2036.28</ele>
        <time>2016-03-24T09:14:55Z</time>
      </trkpt>
      <trkpt lat="45.54802" lon="6.78082">
        <ele>2043.12</ele>
        <time>2016-03-24T09:15:01Z</time>
      </trkpt>
      <trkpt lat="45.54799" lon="6.78109">
        <ele>2050.32</ele>
        <time>2016-03-24T09:15:07Z</time>
      </trkpt>
      <trkpt lat="45.54795" lon="6.78136">
        <ele>2059.84</ele>
        <time>2016-03-24T09:15:12Z</time>
      </trkpt>
      <trkpt lat="45.54793" lon="6.78163">
        <ele>2063.48</ele>
        <time>2016-03-24T09:15:18Z</time>
      </trkpt>
      <trkpt lat="45.54786" lon="6.78193">
        <ele>2067.29</ele>
        <time>2016-03-24T09:15:24Z</time>
      </trkpt>
      <trkpt lat="45.54782" lon="6.78219">
        <ele>2068.52</ele>
        <time>2016-03-24T09:15:29Z</time>
      </trkpt>
      <trkpt lat="45.54777" lon="6.78247">
        <ele>2071.49</ele>
        <time>2016-03-24T09:15:34Z</time>
      </trkpt>
      <trkpt lat="45.54772" lon="6.78277">
        <ele>2077.29</ele>
        <time>2016-03-24T09:15:40Z</time>
      </trkpt>
      <trkpt lat="45.54768" lon="6.78304">
        <ele>2080.32</ele>
        <time>2016-03-24T09:15:45Z</time>
      </trkpt>
      <trkpt lat="45.54762" lon="6.78329">
        <ele>2082.55</ele>
        <time>2016-03-24T09:16:53Z</time>
      </trkpt>
      <trkpt lat="45.54774" lon="6.7835">
        <ele>2080.73</ele>
        <time>2016-03-24T09:17:16Z</time>
      </trkpt>
      <trkpt lat="45.54793" lon="6.78349">
        <ele>2082.73</ele>
        <time>2016-03-24T09:18:00Z</time>
      </trkpt>
      <trkpt lat="45.54811" lon="6.78341">
        <ele>2082.52</ele>
        <time>2016-03-24T09:18:05Z</time>
      </trkpt>
      <trkpt lat="45.54833" lon="6.78333">
        <ele>2080.54</ele>
        <time>2016-03-24T09:18:10Z</time>
      </trkpt>
      <trkpt lat="45.54853" lon="6.78322">
        <ele>2076.81</ele>
        <time>2016-03-24T09:18:14Z</time>
      </trkpt>
      <trkpt lat="45.54872" lon="6.78313">
        <ele>2072.34</ele>
        <time>2016-03-24T09:18:17Z</time>
      </trkpt>
      <trkpt lat="45.54889" lon="6.78301">
        <ele>2068.04</ele>
        <time>2016-03-24T09:18:19Z</time>
      </trkpt>
      <trkpt lat="45.54907" lon="6.78283">
        <ele>2061.47</ele>
        <time>2016-03-24T09:18:21Z</time>
      </trkpt>
      <trkpt lat="45.54925" lon="6.7826">
        <ele>2056.09</ele>
        <time>2016-03-24T09:18:23Z</time>
      </trkpt>
      <trkpt lat="45.54934" lon="6.78233">
        <ele>2053.79</ele>
        <time>2016-03-24T09:18:25Z</time>
      </trkpt>
      <trkpt lat="45.54951" lon="6.78213">
        <ele>2052.58</ele>
        <time>2016-03-24T09:18:27Z</time>
      </trkpt>
      <trkpt lat="45.54968" lon="6.78186">
        <ele>2047.19</ele>
        <time>2016-03-24T09:18:30Z</time>
      </trkpt>
      <trkpt lat="45.54983" lon="6.7817">
        <ele>2043.84</ele>
        <time>2016-03-24T09:18:32Z</time>
      </trkpt>
      <trkpt lat="45.54996" lon="6.78145">
        <ele>2039.22</ele>
        <time>2016-03-24T09:18:34Z</time>
      </trkpt>
      <trkpt lat="45.55011" lon="6.78118">
        <ele>2032.32</ele>
        <time>2016-03-24T09:18:36Z</time>
      </trkpt>
      <trkpt lat="45.55025" lon="6.78093">
        <ele>2030.6</ele>
        <time>2016-03-24T09:18:38Z</time>
      </trkpt>
      <trkpt lat="45.5504" lon="6.78076">
        <ele>2030.5</ele>
        <time>2016-03-24T09:18:41Z</time>
      </trkpt>
      <trkpt lat="45.55035" lon="6.78102">
        <ele>2020.81</ele>
        <time>2016-03-24T09:19:46Z</time>
      </trkpt>
      <trkpt lat="45.5503" lon="6.78128">
        <ele>2024.55</ele>
        <time>2016-03-24T09:19:57Z</time>
      </trkpt>
      <trkpt lat="45.55023" lon="6.78154">
        <ele>2026.25</ele>
        <time>2016-03-24T09:20:07Z</time>
      </trkpt>
      <trkpt lat="45.5502" lon="6.78179">
        <ele>2029.72</ele>
        <time>2016-03-24T09:20:20Z</time>
      </trkpt>
      <trkpt lat="45.55015" lon="6.78204">
        <ele>2034.28</ele>
        <time>2016-03-24T09:20:32Z</time>
      </trkpt>
      <trkpt lat="45.55007" lon="6.78229">
        <ele>2043.28</ele>
        <time>2016-03-24T09:20:42Z</time>
      </trkpt>
      <trkpt lat="45.55" lon="6.78253">
        <ele>2050.52</ele>
        <time>2016-03-24T09:20:54Z</time>
      </trkpt>
      <trkpt lat="45.54991" lon="6.78277">
        <ele>2057.29</ele>
        <time>2016-03-24T09:21:05Z</time>
      </trkpt>
      <trkpt lat="45.54989" lon="6.78304">
        <ele>2058.49</ele>
        <time>2016-03-24T09:21:16Z</time>
      </trkpt>
      <trkpt lat="45.54985" lon="6.7833">
        <ele>2059.52</ele>
        <time>2016-03-24T09:21:29Z</time>
      </trkpt>
      <trkpt lat="45.54978" lon="6.78355">
        <ele>2066.49</ele>
        <time>2016-03-24T09:21:41Z</time>
      </trkpt>
      <trkpt lat="45.54971" lon="6.7838">
        <ele>2072.45</ele>
        <time>2016-03-24T09:21:52Z</time>
      </trkpt>
      <trkpt lat="45.54965" lon="6.78404">
        <ele>2081.32</ele>
        <time>2016-03-24T09:22:04Z</time>
      </trkpt>
      <trkpt lat="45.54956" lon="6.78429">
        <ele>2089.48</ele>
        <time>2016-03-24T09:22:17Z</time>
      </trkpt>
      <trkpt lat="45.5495" lon="6.78455">
        <ele>2094.52</ele>
        <time>2016-03-24T09:22:29Z</time>
      </trkpt>
      <trkpt lat="45.54943" lon="6.7848">
        <ele>2101.33</ele>
        <time>2016-03-24T09:22:40Z</time>
      </trkpt>
      <trkpt lat="45.54937" lon="6.78505">
        <ele>2107.34</ele>
        <time>2016-03-24T09:22:52Z</time>
      </trkpt>
      <trkpt lat="45.54932" lon="6.78532">
        <ele>2111.32</ele>
        <time>2016-03-24T09:23:06Z</time>
      </trkpt>
      <trkpt lat="45.54926" lon="6.78559">
        <ele>2114.33</ele>
        <time>2016-03-24T09:23:20Z</time>
      </trkpt>
      <trkpt lat="45.54921" lon="6.78584">
        <ele>2119.29</ele>
        <time>2016-03-24T09:23:30Z</time>
      </trkpt>
      <trkpt lat="45.54912" lon="6.78607">
        <ele>2129.27</ele>
        <time>2016-03-24T09:23:40Z</time>
      </trkpt>
      <trkpt lat="45.54909" lon="6.78633">
        <ele>2134.55</ele>
        <time>2016-03-24T09:23:53Z</time>
      </trkpt>
      <trkpt lat="45.549" lon="6.78655">
        <ele>2144.32</ele>
        <time>2016-03-24T09:24:04Z</time>
      </trkpt>
      <trkpt lat="45.54893" lon="6.78679">
        <ele>2150.48</ele>
        <time>2016-03-24T09:24:16Z</time>
      </trkpt>
      <trkpt lat="45.54888" lon="6.78705">
        <ele>2152.52</ele>
        <time>2016-03-24T09:24:27Z</time>
      </trkpt>
      <trkpt lat="45.54885" lon="6.78731">
        <ele>2159.25</ele>
        <time>2016-03-24T09:24:39Z</time>
      </trkpt>
      <trkpt lat="45.54878" lon="6.78756">
        <ele>2165.49</ele>
        <time>2016-03-24T09:24:53Z</time>
      </trkpt>
      <trkpt lat="45.5487" lon="6.78781">
        <ele>2168.49</ele>
        <time>2016-03-24T09:25:04Z</time>
      </trkpt>
      <trkpt lat="45.54864" lon="6.78806">
        <ele>2172.33</ele>
        <time>2016-03-24T09:25:15Z</time>
      </trkpt>
      <trkpt lat="45.54858" lon="6.78832">
        <ele>2178.32</ele>
        <time>2016-03-24T09:25:27Z</time>
      </trkpt>
      <trkpt lat="45.54852" lon="6.78857">
        <ele>2183.24</ele>
        <time>2016-03-24T09:25:38Z</time>
      </trkpt>
      <trkpt lat="45.54846" lon="6.78882">
        <ele>2187.76</ele>
        <time>2016-03-24T09:25:54Z</time>
      </trkpt>
      <trkpt lat="45.54842" lon="6.7891">
        <ele>2185.57</ele>
        <time>2016-03-24T09:26:05Z</time>
      </trkpt>
      <trkpt lat="45.54859" lon="6.78923">
        <ele>2187.57</ele>
        <time>2016-03-24T09:27:17Z</time>
      </trkpt>
      <trkpt lat="45.54873" lon="6.78908">
        <ele>2186.53</ele>
        <time>2016-03-24T09:27:21Z</time>
      </trkpt>
      <trkpt lat="45.54888" lon="6.78882">
        <ele>2181.78</ele>
        <time>2016-03-24T09:27:25Z</time>
      </trkpt>
      <trkpt lat="45.54902" lon="6.78865">
        <ele>2179.58</ele>
        <time>2016-03-24T09:27:28Z</time>
      </trkpt>
      <trkpt lat="45.54922" lon="6.78842">
        <ele>2172.08</ele>
        <time>2016-03-24T09:27:31Z</time>
      </trkpt>
      <trkpt lat="45.54936" lon="6.78822">
        <ele>2168.03</ele>
        <time>2016-03-24T09:27:33Z</time>
      </trkpt>
      <trkpt lat="45.54955" lon="6.78804">
        <ele>2162.43</ele>
        <time>2016-03-24T09:27:35Z</time>
      </trkpt>
      <trkpt lat="45.54974" lon="6.78788">
        <ele>2157.25</ele>
        <time>2016-03-24T09:27:37Z</time>
      </trkpt>
      <trkpt lat="45.54989" lon="6.78762">
        <ele>2149.52</ele>
        <time>2016-03-24T09:27:39Z</time>
      </trkpt>
      <trkpt lat="45.55008" lon="6.78747">
        <ele>2142.97</ele>
        <time>2016-03-24T09:27:41Z</time>
      </trkpt>
      <trkpt lat="45.55025" lon="6.78734">
        <ele>2140.15</ele>
        <time>2016-03-24T09:27:43Z</time>
      </trkpt>
      <trkpt lat="45.55037" lon="6.78712">
        <ele>2137</ele>
        <time>2016-03-24T09:27:45Z</time>
      </trkpt>
      <trkpt lat="45.55059" lon="6.787">
        <ele>2133.59</ele>
        <time>2016-03-24T09:27:48Z</time>
      </trkpt>
      <trkpt lat="45.55078" lon="6.78687">
        <ele>2132.57</ele>
        <time>2016-03-24T09:27:51Z</time>
      </trkpt>
      <trkpt lat="45.55094" lon="6.78663">
        <ele>2131.57</ele>
        <time>2016-03-24T09:27:55Z</time>
      </trkpt>
      <trkpt lat="45.55113" lon="6.78658">
        <ele>2127.79</ele>
        <time>2016-03-24T09:27:58Z</time>
      </trkpt>
      <trkpt lat="45.55135" lon="6.78659">
        <ele>2124.78</ele>
        <time>2016-03-24T09:28:01Z</time>
      </trkpt>
      <trkpt lat="45.55157" lon="6.78663">
        <ele>2122.58</ele>
        <time>2016-03-24T09:28:04Z</time>
      </trkpt>
      <trkpt lat="45.5518" lon="6.78678">
        <ele>2120.74</ele>
        <time>2016-03-24T09:28:07Z</time>
      </trkpt>
      <trkpt lat="45.55202" lon="6.78684">
        <ele>2115.8</ele>
        <time>2016-03-24T09:28:11Z</time>
      </trkpt>
      <trkpt lat="45.55219" lon="6.78672">
        <ele>2109.84</ele>
        <time>2016-03-24T09:28:14Z</time>
      </trkpt>
      <trkpt lat="45.55237" lon="6.78656">
        <ele>2103.82</ele>
        <time>2016-03-24T09:28:18Z</time>
      </trkpt>
      <trkpt lat="45.55259" lon="6.78643">
        <ele>2097.98</ele>
        <time>2016-03-24T09:28:38Z</time>
      </trkpt>
      <trkpt lat="45.55272" lon="6.78622">
        <ele>2092.83</ele>
        <time>2016-03-24T09:28:41Z</time>
      </trkpt>
      <trkpt lat="45.55283" lon="6.78589">
        <ele>2090.39</ele>
        <time>2016-03-24T09:28:44Z</time>
      </trkpt>
      <trkpt lat="45.55293" lon="6.78561">
        <ele>2086.95</ele>
        <time>2016-03-24T09:28:47Z</time>
      </trkpt>
      <trkpt lat="45.55304" lon="6.78527">
        <ele>2086.69</ele>
        <time>2016-03-24T09:28:50Z</time>
      </trkpt>
      <trkpt lat="45.5531" lon="6.78502">
        <ele>2085.58</ele>
        <time>2016-03-24T09:28:52Z</time>
      </trkpt>
      <trkpt lat="45.55315" lon="6.78465">
        <ele>2080.83</ele>
        <time>2016-03-24T09:28:55Z</time>
      </trkpt>
      <trkpt lat="45.5532" lon="6.78438">
        <ele>2077.82</ele>
        <time>2016-03-24T09:28:57Z</time>
      </trkpt>
      <trkpt lat="45.55324" lon="6.78407">
        <ele>2076.58</ele>
        <time>2016-03-24T09:28:59Z</time>
      </trkpt>
      <trkpt lat="45.5532" lon="6.78379">
        <ele>2073.97</ele>
        <time>2016-03-24T09:29:01Z</time>
      </trkpt>
      <trkpt lat="45.55328" lon="6.78351">
        <ele>2069.18</ele>
        <time>2016-03-24T09:29:04Z</time>
      </trkpt>
      <trkpt lat="45.55345" lon="6.7833">
        <ele>2064.88</ele>
        <time>2016-03-24T09:29:06Z</time>
      </trkpt>
      <trkpt lat="45.55374" lon="6.78317">
        <ele>2061.98</ele>
        <time>2016-03-24T09:29:08Z</time>
      </trkpt>
      <trkpt lat="45.55402" lon="6.783">
        <ele>2056.43</ele>
        <time>2016-03-24T09:29:10Z</time>
      </trkpt>
      <trkpt lat="45.55424" lon="6.78299">
        <ele>2049.49</ele>
        <time>2016-03-24T09:29:12Z</time>
      </trkpt>
      <trkpt lat="45.55447" lon="6.7829">
        <ele>2045.05</ele>
        <time>2016-03-24T09:29:14Z</time>
      </trkpt>
      <trkpt lat="45.55467" lon="6.78285">
        <ele>2041.19</ele>
        <time>2016-03-24T09:29:16Z</time>
      </trkpt>
      <trkpt lat="45.55492" lon="6.78292">
        <ele>2038.8</ele>
        <time>2016-03-24T09:29:18Z</time>
      </trkpt>
      <trkpt lat="45.55515" lon="6.78291">
        <ele>2036.78</ele>
        <time>2016-03-24T09:29:20Z</time>
      </trkpt>
      <trkpt lat="45.55533" lon="6.78274">
        <ele>2031.26</ele>
        <time>2016-03-24T09:29:22Z</time>
      </trkpt>
      <trkpt lat="45.55556" lon="6.78263">
        <ele>2024.23</ele>
        <time>2016-03-24T09:29:25Z</time>
      </trkpt>
      <trkpt lat="45.55573" lon="6.78252">
        <ele>2016.88</ele>
        <time>2016-03-24T09:29:28Z</time>
      </trkpt>
      <trkpt lat="45.55584" lon="6.78232">
        <ele>2007.07</ele>
        <time>2016-03-24T09:29:32Z</time>
      </trkpt>
      <trkpt lat="45.55598" lon="6.78201">
        <ele>2000.07</ele>
        <time>2016-03-24T09:29:35Z</time>
      </trkpt>
      <trkpt lat="45.55612" lon="6.78172">
        <ele>1997.79</ele>
        <time>2016-03-24T09:29:37Z</time>
      </trkpt>
      <trkpt lat="45.55627" lon="6.78138">
        <ele>1995.78</ele>
        <time>2016-03-24T09:29:39Z</time>
      </trkpt>
      <trkpt lat="45.55644" lon="6.78098">
        <ele>1992.18</ele>
        <time>2016-03-24T09:29:41Z</time>
      </trkpt>
      <trkpt lat="45.55664" lon="6.78062">
        <ele>1989.96</ele>
        <time>2016-03-24T09:29:43Z</time>
      </trkpt>
      <trkpt lat="45.55679" lon="6.78026">
        <ele>1977.07</ele>
        <time>2016-03-24T09:29:45Z</time>
      </trkpt>
      <trkpt lat="45.55694" lon="6.7799">
        <ele>1972.71</ele>
        <time>2016-03-24T09:29:47Z</time>
      </trkpt>
      <trkpt lat="45.55705" lon="6.7797">
        <ele>1960.56</ele>
        <time>2016-03-24T09:29:50Z</time>
      </trkpt>
      <trkpt lat="45.55722" lon="6.77953">
        <ele>1955.8</ele>
        <time>2016-03-24T09:29:53Z</time>
      </trkpt>
      <trkpt lat="45.55739" lon="6.77943">
        <ele>1945.58</ele>
        <time>2016-03-24T09:30:03Z</time>
      </trkpt>
      <trkpt lat="45.55743" lon="6.77912">
        <ele>1944.5</ele>
        <time>2016-03-24T09:30:10Z</time>
      </trkpt>
      <trkpt lat="45.5575" lon="6.77886">
        <ele>1936.24</ele>
        <time>2016-03-24T09:30:13Z</time>
      </trkpt>
      <trkpt lat="45.55758" lon="6.77855">
        <ele>1932.18</ele>
        <time>2016-03-24T09:30:16Z</time>
      </trkpt>
      <trkpt lat="45.55768" lon="6.7783">
        <ele>1925.04</ele>
        <time>2016-03-24T09:30:19Z</time>
      </trkpt>
      <trkpt lat="45.55781" lon="6.77807">
        <ele>1920.07</ele>
        <time>2016-03-24T09:30:21Z</time>
      </trkpt>
      <trkpt lat="45.55799" lon="6.77782">
        <ele>1917.79</ele>
        <time>2016-03-24T09:30:23Z</time>
      </trkpt>
      <trkpt lat="45.55816" lon="6.77766">
        <ele>1913.22</ele>
        <time>2016-03-24T09:30:25Z</time>
      </trkpt>
      <trkpt lat="45.55836" lon="6.77752">
        <ele>1910</ele>
        <time>2016-03-24T09:30:27Z</time>
      </trkpt>
      <trkpt lat="45.55855" lon="6.77744">
        <ele>1905.87</ele>
        <time>2016-03-24T09:30:29Z</time>
      </trkpt>
      <trkpt lat="45.55877" lon="6.77732">
        <ele>1902.82</ele>
        <time>2016-03-24T09:30:31Z</time>
      </trkpt>
      <trkpt lat="45.55906" lon="6.7773">
        <ele>1898.22</ele>
        <time>2016-03-24T09:30:33Z</time>
      </trkpt>
      <trkpt lat="45.55921" lon="6.77704">
        <ele>1891.16</ele>
        <time>2016-03-24T09:30:35Z</time>
      </trkpt>
      <trkpt lat="45.55938" lon="6.77677">
        <ele>1886.88</ele>
        <time>2016-03-24T09:30:37Z</time>
      </trkpt>
      <trkpt lat="45.55951" lon="6.77639">
        <ele>1883.82</ele>
        <time>2016-03-24T09:30:39Z</time>
      </trkpt>
      <trkpt lat="45.55941" lon="6.77602">
        <ele>1876.98</ele>
        <time>2016-03-24T09:30:41Z</time>
      </trkpt>
      <trkpt lat="45.5594" lon="6.77558">
        <ele>1872.07</ele>
        <time>2016-03-24T09:30:43Z</time>
      </trkpt>
      <trkpt lat="45.55941" lon="6.77529">
        <ele>1850.89</ele>
        <time>2016-03-24T09:30:47Z</time>
      </trkpt>
      <trkpt lat="45.55954" lon="6.77506">
        <ele>1847.03</ele>
        <time>2016-03-24T09:30:49Z</time>
      </trkpt>
      <trkpt lat="45.55967" lon="6.77486">
        <ele>1834.89</ele>
        <time>2016-03-24T09:30:52Z</time>
      </trkpt>
      <trkpt lat="45.5598" lon="6.77462">
        <ele>1829.91</ele>
        <time>2016-03-24T09:30:54Z</time>
      </trkpt>
      <trkpt lat="45.55988" lon="6.77428">
        <ele>1823.47</ele>
        <time>2016-03-24T09:30:56Z</time>
      </trkpt>
      <trkpt lat="45.55998" lon="6.77377">
        <ele>1813.35</ele>
        <time>2016-03-24T09:30:59Z</time>
      </trkpt>
      <trkpt lat="45.56004" lon="6.77344">
        <ele>1812.88</ele>
        <time>2016-03-24T09:31:01Z</time>
      </trkpt>
      <trkpt lat="45.56011" lon="6.77306">
        <ele>1806.31</ele>
        <time>2016-03-24T09:31:03Z</time>
      </trkpt>
      <trkpt lat="45.56018" lon="6.77267">
        <ele>1803</ele>
        <time>2016-03-24T09:31:05Z</time>
      </trkpt>
      <trkpt lat="45.56024" lon="6.77235">
        <ele>1795.51</ele>
        <time>2016-03-24T09:31:07Z</time>
      </trkpt>
      <trkpt lat="45.56034" lon="6.77207">
        <ele>1792.97</ele>
        <time>2016-03-24T09:31:09Z</time>
      </trkpt>
      <trkpt lat="45.56039" lon="6.77177">
        <ele>1787.27</ele>
        <time>2016-03-24T09:31:11Z</time>
      </trkpt>
      <trkpt lat="45.56045" lon="6.7715">
        <ele>1781.12</ele>
        <time>2016-03-24T09:31:13Z</time>
      </trkpt>
      <trkpt lat="45.56055" lon="6.77116">
        <ele>1776.23</ele>
        <time>2016-03-24T09:31:15Z</time>
      </trkpt>
      <trkpt lat="45.56069" lon="6.77093">
        <ele>1770.44</ele>
        <time>2016-03-24T09:31:17Z</time>
      </trkpt>
      <trkpt lat="45.56092" lon="6.7708">
        <ele>1759.36</ele>
        <time>2016-03-24T09:31:20Z</time>
      </trkpt>
      <trkpt lat="45.5611" lon="6.77077">
        <ele>1756.3</ele>
        <time>2016-03-24T09:31:21Z</time>
      </trkpt>
      <trkpt lat="45.56127" lon="6.77056">
        <ele>1752.04</ele>
        <time>2016-03-24T09:31:23Z</time>
      </trkpt>
      <trkpt lat="45.56156" lon="6.77044">
        <ele>1743.25</ele>
        <time>2016-03-24T09:31:26Z</time>
      </trkpt>
      <trkpt lat="45.56168" lon="6.77017">
        <ele>1735.85</ele>
        <time>2016-03-24T09:31:29Z</time>
      </trkpt>
      <trkpt lat="45.56157" lon="6.76993">
        <ele>1731.22</ele>
        <time>2016-03-24T09:31:31Z</time>
      </trkpt>
      <trkpt lat="45.56157" lon="6.76961">
        <ele>1727.78</ele>
        <time>2016-03-24T09:31:34Z</time>
      </trkpt>
      <trkpt lat="45.56147" lon="6.76937">
        <ele>1718.7</ele>
        <time>2016-03-24T09:31:37Z</time>
      </trkpt>
      <trkpt lat="45.56143" lon="6.76911">
        <ele>1715.18</ele>
        <time>2016-03-24T09:31:39Z</time>
      </trkpt>
      <trkpt lat="45.5614" lon="6.7688">
        <ele>1714.56</ele>
        <time>2016-03-24T09:31:41Z</time>
      </trkpt>
      <trkpt lat="45.56132" lon="6.76854">
        <ele>1710.85</ele>
        <time>2016-03-24T09:31:43Z</time>
      </trkpt>
      <trkpt lat="45.56122" lon="6.76818">
        <ele>1700.52</ele>
        <time>2016-03-24T09:31:46Z</time>
      </trkpt>
      <trkpt lat="45.56113" lon="6.76789">
        <ele>1696.85</ele>
        <time>2016-03-24T09:31:48Z</time>
      </trkpt>
      <trkpt lat="45.56102" lon="6.76758">
        <ele>1693.82</ele>
        <time>2016-03-24T09:31:50Z</time>
      </trkpt>
      <trkpt lat="45.56087" lon="6.76726">
        <ele>1690.82</ele>
        <time>2016-03-24T09:31:52Z</time>
      </trkpt>
      <trkpt lat="45.56072" lon="6.76702">
        <ele>1685.26</ele>
        <time>2016-03-24T09:31:54Z</time>
      </trkpt>
      <trkpt lat="45.56066" lon="6.76666">
        <ele>1681.04</ele>
        <time>2016-03-24T09:31:56Z</time>
      </trkpt>
      <trkpt lat="45.56065" lon="6.76627">
        <ele>1678.79</ele>
        <time>2016-03-24T09:31:58Z</time>
      </trkpt>
      <trkpt lat="45.5606" lon="6.76594">
        <ele>1675.82</ele>
        <time>2016-03-24T09:32:00Z</time>
      </trkpt>
      <trkpt lat="45.56039" lon="6.76576">
        <ele>1668.18</ele>
        <time>2016-03-24T09:32:02Z</time>
      </trkpt>
      <trkpt lat="45.56024" lon="6.76553">
        <ele>1663.08</ele>
        <time>2016-03-24T09:32:04Z</time>
      </trkpt>
      <trkpt lat="45.56007" lon="6.76586">
        <ele>1656.24</ele>
        <time>2016-03-24T09:32:05Z</time>
      </trkpt>
      <trkpt lat="45.55985" lon="6.76574">
        <ele>1652.84</ele>
        <time>2016-03-24T09:32:07Z</time>
      </trkpt>
      <trkpt lat="45.55965" lon="6.76564">
        <ele>1649.82</ele>
        <time>2016-03-24T09:32:09Z</time>
      </trkpt>
      <trkpt lat="45.55949" lon="6.7655">
        <ele>1645.06</ele>
        <time>2016-03-24T09:32:11Z</time>
      </trkpt>
      <trkpt lat="45.55933" lon="6.76533">
        <ele>1642.95</ele>
        <time>2016-03-24T09:32:13Z</time>
      </trkpt>
      <trkpt lat="45.55919" lon="6.76516">
        <ele>1639.19</ele>
        <time>2016-03-24T09:32:15Z</time>
      </trkpt>
      <trkpt lat="45.55896" lon="6.76506">
        <ele>1635.59</ele>
        <time>2016-03-24T09:32:18Z</time>
      </trkpt>
      <trkpt lat="45.55877" lon="6.76512">
        <ele>1624.17</ele>
        <time>2016-03-24T09:32:20Z</time>
      </trkpt>
      <trkpt lat="45.5586" lon="6.76503">
        <ele>1621.96</ele>
        <time>2016-03-24T09:32:22Z</time>
      </trkpt>
      <trkpt lat="45.55839" lon="6.76496">
        <ele>1617.34</ele>
        <time>2016-03-24T09:32:25Z</time>
      </trkpt>
      <trkpt lat="45.55817" lon="6.76484">
        <ele>1613.63</ele>
        <time>2016-03-24T09:32:28Z</time>
      </trkpt>
      <trkpt lat="45.558" lon="6.76473">
        <ele>1608.83</ele>
        <time>2016-03-24T09:32:31Z</time>
      </trkpt>
      <trkpt lat="45.55782" lon="6.76462">
        <ele>1606.61</ele>
        <time>2016-03-24T09:32:34Z</time>
      </trkpt>
      <trkpt lat="45.55764" lon="6.76456">
        <ele>1603.65</ele>
        <time>2016-03-24T09:32:37Z</time>
      </trkpt>
      <trkpt lat="45.55745" lon="6.76445">
        <ele>1602.7</ele>
        <time>2016-03-24T09:32:40Z</time>
      </trkpt>
      <trkpt lat="45.55724" lon="6.76438">
        <ele>1602.18</ele>
        <time>2016-03-24T09:32:43Z</time>
      </trkpt>
      <trkpt lat="45.55703" lon="6.76435">
        <ele>1598.94</ele>
        <time>2016-03-24T09:32:46Z</time>
      </trkpt>
      <trkpt lat="45.55679" lon="6.76425">
        <ele>1598.57</ele>
        <time>2016-03-24T09:32:49Z</time>
      </trkpt>
      <trkpt lat="45.55661" lon="6.76416">
        <ele>1597.73</ele>
        <time>2016-03-24T09:32:51Z</time>
      </trkpt>
      <trkpt lat="45.55638" lon="6.76398">
        <ele>1594.97</ele>
        <time>2016-03-24T09:32:54Z</time>
      </trkpt>
      <trkpt lat="45.5562" lon="6.76374">
        <ele>1590.82</ele>
        <time>2016-03-24T09:32:57Z</time>
      </trkpt>
      <trkpt lat="45.55612" lon="6.76351">
        <ele>1589.58</ele>
        <time>2016-03-24T09:32:59Z</time>
      </trkpt>
      <trkpt lat="45.55602" lon="6.76325">
        <ele>1585.34</ele>
        <time>2016-03-24T09:33:02Z</time>
      </trkpt>
      <trkpt lat="45.55601" lon="6.76298">
        <ele>1584.56</ele>
        <time>2016-03-24T09:33:04Z</time>
      </trkpt>
      <trkpt lat="45.55617" lon="6.76268">
        <ele>1581.97</ele>
        <time>2016-03-24T09:33:07Z</time>
      </trkpt>
      <trkpt lat="45.55638" lon="6.76258">
        <ele>1578.75</ele>
        <time>2016-03-24T09:33:10Z</time>
      </trkpt>
      <trkpt lat="45.55655" lon="6.76268">
        <ele>1573.49</ele>
        <time>2016-03-24T09:33:33Z</time>
      </trkpt>
      <trkpt lat="45.5565" lon="6.76297">
        <ele>1559.93</ele>
        <time>2016-03-24T09:34:52Z</time>
      </trkpt>
      <trkpt lat="45.55645" lon="6.76326">
        <ele>1568.99</ele>
        <time>2016-03-24T09:34:57Z</time>
      </trkpt>
      <trkpt lat="45.55638" lon="6.76353">
        <ele>1578.22</ele>
        <time>2016-03-24T09:35:02Z</time>
      </trkpt>
      <trkpt lat="45.55631" lon="6.76378">
        <ele>1586.04</ele>
        <time>2016-03-24T09:35:07Z</time>
      </trkpt>
      <trkpt lat="45.55627" lon="6.76403">
        <ele>1587.53</ele>
        <time>2016-03-24T09:35:12Z</time>
      </trkpt>
      <trkpt lat="45.5562" lon="6.76433">
        <ele>1594.72</ele>
        <time>2016-03-24T09:35:18Z</time>
      </trkpt>
      <trkpt lat="45.55612" lon="6.76456">
        <ele>1599.29</ele>
        <time>2016-03-24T09:35:23Z</time>
      </trkpt>
      <trkpt lat="45.55605" lon="6.76484">
        <ele>1608.07</ele>
        <time>2016-03-24T09:35:29Z</time>
      </trkpt>
      <trkpt lat="45.55597" lon="6.76511">
        <ele>1615.31</ele>
        <time>2016-03-24T09:35:35Z</time>
      </trkpt>
      <trkpt lat="45.55591" lon="6.7654">
        <ele>1617.52</ele>
        <time>2016-03-24T09:35:41Z</time>
      </trkpt>
      <trkpt lat="45.55584" lon="6.76567">
        <ele>1623.28</ele>
        <time>2016-03-24T09:35:47Z</time>
      </trkpt>
      <trkpt lat="45.55579" lon="6.76592">
        <ele>1626.36</ele>
        <time>2016-03-24T09:35:52Z</time>
      </trkpt>
      <trkpt lat="45.55572" lon="6.76619">
        <ele>1631.51</ele>
        <time>2016-03-24T09:35:58Z</time>
      </trkpt>
      <trkpt lat="45.55564" lon="6.76643">
        <ele>1633.32</ele>
        <time>2016-03-24T09:36:04Z</time>
      </trkpt>
      <trkpt lat="45.55554" lon="6.76669">
        <ele>1636.33</ele>
        <time>2016-03-24T09:36:09Z</time>
      </trkpt>
      <trkpt lat="45.5555" lon="6.76695">
        <ele>1642.4</ele>
        <time>2016-03-24T09:36:15Z</time>
      </trkpt>
      <trkpt lat="45.55548" lon="6.76722">
        <ele>1649.28</ele>
        <time>2016-03-24T09:36:22Z</time>
      </trkpt>
      <trkpt lat="45.5554" lon="6.76745">
        <ele>1655.04</ele>
        <time>2016-03-24T09:36:26Z</time>
      </trkpt>
      <trkpt lat="45.55533" lon="6.76771">
        <ele>1661.2</ele>
        <time>2016-03-24T09:36:31Z</time>
      </trkpt>
      <trkpt lat="45.55524" lon="6.76797">
        <ele>1671.85</ele>
        <time>2016-03-24T09:36:37Z</time>
      </trkpt>
      <trkpt lat="45.55518" lon="6.76824">
        <ele>1675.68</ele>
        <time>2016-03-24T09:36:43Z</time>
      </trkpt>
      <trkpt lat="45.55514" lon="6.76852">
        <ele>1682.48</ele>
        <time>2016-03-24T09:36:49Z</time>
      </trkpt>
      <trkpt lat="45.55512" lon="6.76879">
        <ele>1689.15</ele>
        <time>2016-03-24T09:36:55Z</time>
      </trkpt>
      <trkpt lat="45.55507" lon="6.76907">
        <ele>1696.09</ele>
        <time>2016-03-24T09:37:01Z</time>
      </trkpt>
      <trkpt lat="45.555" lon="6.76933">
        <ele>1703.24</ele>
        <time>2016-03-24T09:37:07Z</time>
      </trkpt>
      <trkpt lat="45.55496" lon="6.7696">
        <ele>1713.23</ele>
        <time>2016-03-24T09:37:13Z</time>
      </trkpt>
      <trkpt lat="45.5549" lon="6.76987">
        <ele>1725.03</ele>
        <time>2016-03-24T09:37:19Z</time>
      </trkpt>
      <trkpt lat="45.55482" lon="6.77012">
        <ele>1737.03</ele>
        <time>2016-03-24T09:37:25Z</time>
      </trkpt>
      <trkpt lat="45.55479" lon="6.77038">
        <ele>1742.88</ele>
        <time>2016-03-24T09:37:31Z</time>
      </trkpt>
      <trkpt lat="45.55475" lon="6.77065">
        <ele>1753.23</ele>
        <time>2016-03-24T09:37:38Z</time>
      </trkpt>
      <trkpt lat="45.55468" lon="6.77089">
        <ele>1761.08</ele>
        <time>2016-03-24T09:37:43Z</time>
      </trkpt>
      <trkpt lat="45.5546" lon="6.77115">
        <ele>1773.82</ele>
        <time>2016-03-24T09:37:49Z</time>
      </trkpt>
      <trkpt lat="45.55455" lon="6.77141">
        <ele>1784.42</ele>
        <time>2016-03-24T09:37:56Z</time>
      </trkpt>
      <trkpt lat="45.5545" lon="6.77166">
        <ele>1787.49</ele>
        <time>2016-03-24T09:38:01Z</time>
      </trkpt>
      <trkpt lat="45.55445" lon="6.77191">
        <ele>1799.27</ele>
        <time>2016-03-24T09:38:07Z</time>
      </trkpt>
      <trkpt lat="45.5544" lon="6.77216">
        <ele>1803.53</ele>
        <time>2016-03-24T09:38:13Z</time>
      </trkpt>
      <trkpt lat="45.55434" lon="6.77243">
        <ele>1809.11</ele>
        <time>2016-03-24T09:38:18Z</time>
      </trkpt>
      <trkpt lat="45.55428" lon="6.7727">
        <ele>1814.53</ele>
        <time>2016-03-24T09:38:24Z</time>
      </trkpt>
      <trkpt lat="45.55422" lon="6.77298">
        <ele>1818.52</ele>
        <time>2016-03-24T09:38:30Z</time>
      </trkpt>
      <trkpt lat="45.55418" lon="6.77323">
        <ele>1821.48</ele>
        <time>2016-03-24T09:38:36Z</time>
      </trkpt>
      <trkpt lat="45.5541" lon="6.77351">
        <ele>1829.27</ele>
        <time>2016-03-24T09:38:42Z</time>
      </trkpt>
      <trkpt lat="45.55403" lon="6.77379">
        <ele>1838.31</ele>
        <time>2016-03-24T09:38:48Z</time>
      </trkpt>
      <trkpt lat="45.55398" lon="6.77408">
        <ele>1842.32</ele>
        <time>2016-03-24T09:38:54Z</time>
      </trkpt>
      <trkpt lat="45.55393" lon="6.77436">
        <ele>1848.29</ele>
        <time>2016-03-24T09:39:00Z</time>
      </trkpt>
      <trkpt lat="45.55388" lon="6.77463">
        <ele>1853.29</ele>
        <time>2016-03-24T09:39:06Z</time>
      </trkpt>
      <trkpt lat="45.55382" lon="6.7749">
        <ele>1857.49</ele>
        <time>2016-03-24T09:39:12Z</time>
      </trkpt>
      <trkpt lat="45.55374" lon="6.77516">
        <ele>1865.87</ele>
        <time>2016-03-24T09:39:18Z</time>
      </trkpt>
      <trkpt lat="45.55365" lon="6.77541">
        <ele>1876.85</ele>
        <time>2016-03-24T09:39:24Z</time>
      </trkpt>
      <trkpt lat="45.55358" lon="6.7757">
        <ele>1884.04</ele>
        <time>2016-03-24T09:39:30Z</time>
      </trkpt>
      <trkpt lat="45.55351" lon="6.77597">
        <ele>1891.08</ele>
        <time>2016-03-24T09:39:36Z</time>
      </trkpt>
      <trkpt lat="45.55345" lon="6.77624">
        <ele>1901.24</ele>
        <time>2016-03-24T09:39:42Z</time>
      </trkpt>
      <trkpt lat="45.55339" lon="6.77649">
        <ele>1902.53</ele>
        <time>2016-03-24T09:39:48Z</time>
      </trkpt>
      <trkpt lat="45.55332" lon="6.77677">
        <ele>1907.89</ele>
        <time>2016-03-24T09:39:54Z</time>
      </trkpt>
      <trkpt lat="45.55326" lon="6.77706">
        <ele>1914.52</ele>
        <time>2016-03-24T09:40:00Z</time>
      </trkpt>
      <trkpt lat="45.5532" lon="6.77735">
        <ele>1918.49</ele>
        <time>2016-03-24T09:40:06Z</time>
      </trkpt>
      <trkpt lat="45.55316" lon="6.7776">
        <ele>1919.33</ele>
        <time>2016-03-24T09:40:11Z</time>
      </trkpt>
      <trkpt lat="45.55311" lon="6.77789">
        <ele>1924.12</ele>
        <time>2016-03-24T09:40:17Z</time>
      </trkpt>
      <trkpt lat="45.55305" lon="6.77816">
        <ele>1934.85</ele>
        <time>2016-03-24T09:40:23Z</time>
      </trkpt>
      <trkpt lat="45.55298" lon="6.77844">
        <ele>1944.23</ele>
        <time>2016-03-24T09:40:30Z</time>
      </trkpt>
      <trkpt lat="45.55289" lon="6.77872">
        <ele>1955.96</ele>
        <time>2016-03-24T09:40:36Z</time>
      </trkpt>
      <trkpt lat="45.55282" lon="6.77896">
        <ele>1962.53</ele>
        <time>2016-03-24T09:40:47Z</time>
      </trkpt>
      <trkpt lat="45.55276" lon="6.77921">
        <ele>1966.28</ele>
        <time>2016-03-24T09:40:56Z</time>
      </trkpt>
      <trkpt lat="45.55268" lon="6.77946">
        <ele>1972.18</ele>
        <time>2016-03-24T09:41:02Z</time>
      </trkpt>
      <trkpt lat="45.55264" lon="6.77972">
        <ele>1978.09</ele>
        <time>2016-03-24T09:41:07Z</time>
      </trkpt>
      <trkpt lat="45.55256" lon="6.77999">
        <ele>1988.28</ele>
        <time>2016-03-24T09:41:13Z</time>
      </trkpt>
      <trkpt lat="45.55252" lon="6.78027">
        <ele>1991.28</ele>
        <time>2016-03-24T09:41:19Z</time>
      </trkpt>
      <trkpt lat="45.55244" lon="6.78054">
        <ele>1997.05</ele>
        <time>2016-03-24T09:41:25Z</time>
      </trkpt>
      <trkpt lat="45.55238" lon="6.78081">
        <ele>2003.12</ele>
        <time>2016-03-24T09:41:31Z</time>
      </trkpt>
      <trkpt lat="45.55231" lon="6.78109">
        <ele>2010.27</ele>
        <time>2016-03-24T09:41:37Z</time>
      </trkpt>
      <trkpt lat="45.55226" lon="6.78134">
        <ele>2014.49</ele>
        <time>2016-03-24T09:41:43Z</time>
      </trkpt>
      <trkpt lat="45.5522" lon="6.78158">
        <ele>2018.52</ele>
        <time>2016-03-24T09:41:48Z</time>
      </trkpt>
      <trkpt lat="45.55215" lon="6.78187">
        <ele>2022.68</ele>
        <time>2016-03-24T09:41:54Z</time>
      </trkpt>
      <trkpt lat="45.55209" lon="6.78216">
        <ele>2026.36</ele>
        <time>2016-03-24T09:42:01Z</time>
      </trkpt>
      <trkpt lat="45.55202" lon="6.78241">
        <ele>2032.92</ele>
        <time>2016-03-24T09:42:06Z</time>
      </trkpt>
      <trkpt lat="45.55196" lon="6.7827">
        <ele>2040.48</ele>
        <time>2016-03-24T09:42:12Z</time>
      </trkpt>
      <trkpt lat="45.55191" lon="6.78296">
        <ele>2044.29</ele>
        <time>2016-03-24T09:42:18Z</time>
      </trkpt>
      <trkpt lat="45.55185" lon="6.78324">
        <ele>2048.13</ele>
        <time>2016-03-24T09:42:24Z</time>
      </trkpt>
      <trkpt lat="45.55178" lon="6.78351">
        <ele>2054.89</ele>
        <time>2016-03-24T09:42:30Z</time>
      </trkpt>
      <trkpt lat="45.55174" lon="6.78379">
        <ele>2058.33</ele>
        <time>2016-03-24T09:42:36Z</time>
      </trkpt>
      <trkpt lat="45.55167" lon="6.78406">
        <ele>2061.53</ele>
        <time>2016-03-24T09:42:42Z</time>
      </trkpt>
      <trkpt lat="45.55161" lon="6.78434">
        <ele>2065.29</ele>
        <time>2016-03-24T09:42:48Z</time>
      </trkpt>
      <trkpt lat="45.55156" lon="6.78462">
        <ele>2070.12</ele>
        <time>2016-03-24T09:42:54Z</time>
      </trkpt>
      <trkpt lat="45.55151" lon="6.7849">
        <ele>2076.47</ele>
        <time>2016-03-24T09:43:00Z</time>
      </trkpt>
      <trkpt lat="45.55145" lon="6.78517">
        <ele>2083.24</ele>
        <time>2016-03-24T09:43:06Z</time>
      </trkpt>
      <trkpt lat="45.55138" lon="6.78545">
        <ele>2089.48</ele>
        <time>2016-03-24T09:43:12Z</time>
      </trkpt>
      <trkpt lat="45.55132" lon="6.78573">
        <ele>2093.52</ele>
        <time>2016-03-24T09:43:18Z</time>
      </trkpt>
      <trkpt lat="45.55127" lon="6.786">
        <ele>2096.28</ele>
        <time>2016-03-24T09:43:24Z</time>
      </trkpt>
      <trkpt lat="45.55122" lon="6.78627">
        <ele>2099.51</ele>
        <time>2016-03-24T09:43:30Z</time>
      </trkpt>
      <trkpt lat="45.55115" lon="6.78655">
        <ele>2107.07</ele>
        <time>2016-03-24T09:43:36Z</time>
      </trkpt>
      <trkpt lat="45.55107" lon="6.78678">
        <ele>2118.06</ele>
        <time>2016-03-24T09:43:41Z</time>
      </trkpt>
      <trkpt lat="45.55101" lon="6.78706">
        <ele>2123.31</ele>
        <time>2016-03-24T09:43:47Z</time>
      </trkpt>
      <trkpt lat="45.55094" lon="6.78733">
        <ele>2126.37</ele>
        <time>2016-03-24T09:43:53Z</time>
      </trkpt>
      <trkpt lat="45.55087" lon="6.78757">
        <ele>2135.12</ele>
        <time>2016-03-24T09:43:58Z</time>
      </trkpt>
      <trkpt lat="45.55079" lon="6.78781">
        <ele>2139.53</ele>
        <time>2016-03-24T09:44:07Z</time>
      </trkpt>
      <trkpt lat="45.55093" lon="6.78799">
        <ele>2143.52</ele>
        <time>2016-03-24T09:44:23Z</time>
      </trkpt>
      <trkpt lat="45.55111" lon="6.78792">
        <ele>2140.7</ele>
        <time>2016-03-24T09:44:50Z</time>
      </trkpt>
      <trkpt lat="45.55133" lon="6.78782">
        <ele>2137.59</ele>
        <time>2016-03-24T09:44:55Z</time>
      </trkpt>
      <trkpt lat="45.55153" lon="6.78767">
        <ele>2130.99</ele>
        <time>2016-03-24T09:44:59Z</time>
      </trkpt>
      <trkpt lat="45.55172" lon="6.78759">
        <ele>2125.99</ele>
        <time>2016-03-24T09:45:02Z</time>
      </trkpt>
      <trkpt lat="45.55197" lon="6.78748">
        <ele>2120.99</ele>
        <time>2016-03-24T09:45:05Z</time>
      </trkpt>
      <trkpt lat="45.55217" lon="6.78738">
        <ele>2114.31</ele>
        <time>2016-03-24T09:45:07Z</time>
      </trkpt>
      <trkpt lat="45.55233" lon="6.78716">
        <ele>2108.28</ele>
        <time>2016-03-24T09:45:09Z</time>
      </trkpt>
      <trkpt lat="45.55251" lon="6.78696">
        <ele>2104.84</ele>
        <time>2016-03-24T09:45:11Z</time>
      </trkpt>
      <trkpt lat="45.55265" lon="6.7867">
        <ele>2098.46</ele>
        <time>2016-03-24T09:45:13Z</time>
      </trkpt>
      <trkpt lat="45.5528" lon="6.78646">
        <ele>2095.81</ele>
        <time>2016-03-24T09:45:15Z</time>
      </trkpt>
      <trkpt lat="45.55296" lon="6.78626">
        <ele>2092.82</ele>
        <time>2016-03-24T09:45:17Z</time>
      </trkpt>
      <trkpt lat="45.55319" lon="6.78609">
        <ele>2089.78</ele>
        <time>2016-03-24T09:45:20Z</time>
      </trkpt>
      <trkpt lat="45.55342" lon="6.78599">
        <ele>2088.57</ele>
        <time>2016-03-24T09:45:23Z</time>
      </trkpt>
      <trkpt lat="45.5536" lon="6.78591">
        <ele>2088.7</ele>
        <time>2016-03-24T09:45:27Z</time>
      </trkpt>
      <trkpt lat="45.55379" lon="6.78595">
        <ele>2088.54</ele>
        <time>2016-03-24T09:45:29Z</time>
      </trkpt>
      <trkpt lat="45.55398" lon="6.78599">
        <ele>2086.77</ele>
        <time>2016-03-24T09:45:31Z</time>
      </trkpt>
      <trkpt lat="45.55422" lon="6.78605">
        <ele>2083.78</ele>
        <time>2016-03-24T09:45:34Z</time>
      </trkpt>
      <trkpt lat="45.55436" lon="6.78622">
        <ele>2081.55</ele>
        <time>2016-03-24T09:45:39Z</time>
      </trkpt>
      <trkpt lat="45.55449" lon="6.78642">
        <ele>2077.54</ele>
        <time>2016-03-24T09:45:59Z</time>
      </trkpt>
      <trkpt lat="45.55468" lon="6.78649">
        <ele>2072.94</ele>
        <time>2016-03-24T09:46:03Z</time>
      </trkpt>
      <trkpt lat="45.55491" lon="6.78644">
        <ele>2070.58</ele>
        <time>2016-03-24T09:46:06Z</time>
      </trkpt>
      <trkpt lat="45.55514" lon="6.78635">
        <ele>2065.25</ele>
        <time>2016-03-24T09:46:09Z</time>
      </trkpt>
      <trkpt lat="45.55532" lon="6.78619">
        <ele>2062.58</ele>
        <time>2016-03-24T09:46:12Z</time>
      </trkpt>
      <trkpt lat="45.55547" lon="6.78603">
        <ele>2056.42</ele>
        <time>2016-03-24T09:46:15Z</time>
      </trkpt>
      <trkpt lat="45.55558" lon="6.78576">
        <ele>2052.98</ele>
        <time>2016-03-24T09:46:18Z</time>
      </trkpt>
      <trkpt lat="45.55573" lon="6.78555">
        <ele>2049.35</ele>
        <time>2016-03-24T09:46:20Z</time>
      </trkpt>
      <trkpt lat="45.55586" lon="6.78528">
        <ele>2044.24</ele>
        <time>2016-03-24T09:46:22Z</time>
      </trkpt>
      <trkpt lat="45.55596" lon="6.78502">
        <ele>2033.48</ele>
        <time>2016-03-24T09:46:24Z</time>
      </trkpt>
      <trkpt lat="45.55605" lon="6.7847">
        <ele>2029.85</ele>
        <time>2016-03-24T09:46:26Z</time>
      </trkpt>
      <trkpt lat="45.5561" lon="6.78439">
        <ele>2026.82</ele>
        <time>2016-03-24T09:46:28Z</time>
      </trkpt>
      <trkpt lat="45.55616" lon="6.78411">
        <ele>2022.06</ele>
        <time>2016-03-24T09:46:30Z</time>
      </trkpt>
      <trkpt lat="45.55625" lon="6.78384">
        <ele>2019.79</ele>
        <time>2016-03-24T09:46:32Z</time>
      </trkpt>
      <trkpt lat="45.55632" lon="6.78359">
        <ele>2016.98</ele>
        <time>2016-03-24T09:46:34Z</time>
      </trkpt>
      <trkpt lat="45.55634" lon="6.7833">
        <ele>2014.47</ele>
        <time>2016-03-24T09:46:36Z</time>
      </trkpt>
      <trkpt lat="45.55654" lon="6.78311">
        <ele>2010.63</ele>
        <time>2016-03-24T09:46:39Z</time>
      </trkpt>
      <trkpt lat="45.55672" lon="6.78296">
        <ele>2004.45</ele>
        <time>2016-03-24T09:46:41Z</time>
      </trkpt>
      <trkpt lat="45.5569" lon="6.78281">
        <ele>1998.61</ele>
        <time>2016-03-24T09:46:43Z</time>
      </trkpt>
      <trkpt lat="45.55712" lon="6.7827">
        <ele>1990.69</ele>
        <time>2016-03-24T09:46:45Z</time>
      </trkpt>
      <trkpt lat="45.55727" lon="6.78249">
        <ele>1986.06</ele>
        <time>2016-03-24T09:46:47Z</time>
      </trkpt>
      <trkpt lat="45.55739" lon="6.78224">
        <ele>1981.07</ele>
        <time>2016-03-24T09:46:49Z</time>
      </trkpt>
      <trkpt lat="45.55749" lon="6.78197">
        <ele>1975.27</ele>
        <time>2016-03-24T09:46:51Z</time>
      </trkpt>
      <trkpt lat="45.5576" lon="6.78172">
        <ele>1970.24</ele>
        <time>2016-03-24T09:46:53Z</time>
      </trkpt>
      <trkpt lat="45.55763" lon="6.78142">
        <ele>1966.04</ele>
        <time>2016-03-24T09:46:55Z</time>
      </trkpt>
      <trkpt lat="45.55771" lon="6.78115">
        <ele>1962.99</ele>
        <time>2016-03-24T09:46:57Z</time>
      </trkpt>
      <trkpt lat="45.55775" lon="6.78086">
        <ele>1957.27</ele>
        <time>2016-03-24T09:46:59Z</time>
      </trkpt>
      <trkpt lat="45.55772" lon="6.78058">
        <ele>1953.2</ele>
        <time>2016-03-24T09:47:01Z</time>
      </trkpt>
      <trkpt lat="45.55768" lon="6.78031">
        <ele>1948.08</ele>
        <time>2016-03-24T09:47:03Z</time>
      </trkpt>
      <trkpt lat="45.5579" lon="6.78031">
        <ele>1937.58</ele>
        <time>2016-03-24T09:47:21Z</time>
      </trkpt>
      <trkpt lat="45.55811" lon="6.78042">
        <ele>1934.78</ele>
        <time>2016-03-24T09:47:24Z</time>
      </trkpt>
      <trkpt lat="45.55827" lon="6.78054">
        <ele>1934.53</ele>
        <time>2016-03-24T09:47:27Z</time>
      </trkpt>
      <trkpt lat="45.55847" lon="6.78063">
        <ele>1933.51</ele>
        <time>2016-03-24T09:47:31Z</time>
      </trkpt>
      <trkpt lat="45.55867" lon="6.78068">
        <ele>1932.7</ele>
        <time>2016-03-24T09:47:34Z</time>
      </trkpt>
      <trkpt lat="45.55889" lon="6.78076">
        <ele>1930.61</ele>
        <time>2016-03-24T09:47:37Z</time>
      </trkpt>
      <trkpt lat="45.55908" lon="6.78085">
        <ele>1930.57</ele>
        <time>2016-03-24T09:47:41Z</time>
      </trkpt>
      <trkpt lat="45.55926" lon="6.78097">
        <ele>1929.6</ele>
        <time>2016-03-24T09:47:44Z</time>
      </trkpt>
      <trkpt lat="45.55946" lon="6.78113">
        <ele>1930.2</ele>
        <time>2016-03-24T09:47:48Z</time>
      </trkpt>
      <trkpt lat="45.55964" lon="6.78128">
        <ele>1928.93</ele>
        <time>2016-03-24T09:47:51Z</time>
      </trkpt>
      <trkpt lat="45.55985" lon="6.7814">
        <ele>1925.43</ele>
        <time>2016-03-24T09:47:54Z</time>
      </trkpt>
      <trkpt lat="45.56009" lon="6.78146">
        <ele>1923.58</ele>
        <time>2016-03-24T09:47:57Z</time>
      </trkpt>
      <trkpt lat="45.56031" lon="6.78151">
        <ele>1918.89</ele>
        <time>2016-03-24T09:48:00Z</time>
      </trkpt>
      <trkpt lat="45.56048" lon="6.7816">
        <ele>1917.59</ele>
        <time>2016-03-24T09:48:02Z</time>
      </trkpt>
      <trkpt lat="45.56065" lon="6.78169">
        <ele>1912.89</ele>
        <time>2016-03-24T09:48:04Z</time>
      </trkpt>
      <trkpt lat="45.56085" lon="6.78183">
        <ele>1906.23</ele>
        <time>2016-03-24T09:48:07Z</time>
      </trkpt>
      <trkpt lat="45.56107" lon="6.78199">
        <ele>1903.39</ele>
        <time>2016-03-24T09:48:10Z</time>
      </trkpt>
      <trkpt lat="45.56131" lon="6.78215">
        <ele>1901.74</ele>
        <time>2016-03-24T09:48:13Z</time>
      </trkpt>
      <trkpt lat="45.56148" lon="6.7823">
        <ele>1899.78</ele>
        <time>2016-03-24T09:48:15Z</time>
      </trkpt>
      <trkpt lat="45.56174" lon="6.78246">
        <ele>1894.86</ele>
        <time>2016-03-24T09:48:18Z</time>
      </trkpt>
      <trkpt lat="45.56191" lon="6.78261">
        <ele>1892.78</ele>
        <time>2016-03-24T09:48:20Z</time>
      </trkpt>
      <trkpt lat="45.56208" lon="6.78274">
        <ele>1891.58</ele>
        <time>2016-03-24T09:48:22Z</time>
      </trkpt>
      <trkpt lat="45.56231" lon="6.78292">
        <ele>1888.75</ele>
        <time>2016-03-24T09:48:25Z</time>
      </trkpt>
      <trkpt lat="45.56251" lon="6.78295">
        <ele>1882.07</ele>
        <time>2016-03-24T09:48:28Z</time>
      </trkpt>
      <trkpt lat="45.5627" lon="6.78298">
        <ele>1879.63</ele>
        <time>2016-03-24T09:48:30Z</time>
      </trkpt>
      <trkpt lat="45.56288" lon="6.78297">
        <ele>1877.78</ele>
        <time>2016-03-24T09:48:32Z</time>
      </trkpt>
      <trkpt lat="45.56311" lon="6.78303">
        <ele>1872.8</ele>
        <time>2016-03-24T09:48:35Z</time>
      </trkpt>
      <trkpt lat="45.56336" lon="6.78309">
        <ele>1870.55</ele>
        <time>2016-03-24T09:48:38Z</time>
      </trkpt>
      <trkpt lat="45.56358" lon="6.78316">
        <ele>1867.94</ele>
        <time>2016-03-24T09:48:41Z</time>
      </trkpt>
      <trkpt lat="45.5638" lon="6.78323">
        <ele>1864.59</ele>
        <time>2016-03-24T09:48:44Z</time>
      </trkpt>
      <trkpt lat="45.56399" lon="6.78333">
        <ele>1860.98</ele>
        <time>2016-03-24T09:48:47Z</time>
      </trkpt>
      <trkpt lat="45.56419" lon="6.78336">
        <ele>1858.58</ele>
        <time>2016-03-24T09:48:50Z</time>
      </trkpt>
      <trkpt lat="45.56436" lon="6.78323">
        <ele>1853.89</ele>
        <time>2016-03-24T09:48:52Z</time>
      </trkpt>
      <trkpt lat="45.56454" lon="6.78313">
        <ele>1850.83</ele>
        <time>2016-03-24T09:48:54Z</time>
      </trkpt>
      <trkpt lat="45.56474" lon="6.78298">
        <ele>1846.86</ele>
        <time>2016-03-24T09:48:56Z</time>
      </trkpt>
      <trkpt lat="45.56494" lon="6.78285">
        <ele>1843.02</ele>
        <time>2016-03-24T09:48:58Z</time>
      </trkpt>
      <trkpt lat="45.5651" lon="6.7827">
        <ele>1839.03</ele>
        <time>2016-03-24T09:49:00Z</time>
      </trkpt>
      <trkpt lat="45.56526" lon="6.78257">
        <ele>1835.99</ele>
        <time>2016-03-24T09:49:02Z</time>
      </trkpt>
      <trkpt lat="45.56544" lon="6.78243">
        <ele>1833.63</ele>
        <time>2016-03-24T09:49:04Z</time>
      </trkpt>
      <trkpt lat="45.5656" lon="6.78229">
        <ele>1830.97</ele>
        <time>2016-03-24T09:49:06Z</time>
      </trkpt>
      <trkpt lat="45.56577" lon="6.78215">
        <ele>1828.79</ele>
        <time>2016-03-24T09:49:08Z</time>
      </trkpt>
      <trkpt lat="45.56595" lon="6.78204">
        <ele>1825.18</ele>
        <time>2016-03-24T09:49:10Z</time>
      </trkpt>
      <trkpt lat="45.5661" lon="6.78184">
        <ele>1821.2</ele>
        <time>2016-03-24T09:49:12Z</time>
      </trkpt>
      <trkpt lat="45.5663" lon="6.7817">
        <ele>1818.64</ele>
        <time>2016-03-24T09:49:14Z</time>
      </trkpt>
      <trkpt lat="45.56647" lon="6.78163">
        <ele>1817.58</ele>
        <time>2016-03-24T09:49:16Z</time>
      </trkpt>
      <trkpt lat="45.5667" lon="6.78152">
        <ele>1816.7</ele>
        <time>2016-03-24T09:49:19Z</time>
      </trkpt>
      <trkpt lat="45.56691" lon="6.78136">
        <ele>1812.79</ele>
        <time>2016-03-24T09:49:22Z</time>
      </trkpt>
      <trkpt lat="45.56717" lon="6.78125">
        <ele>1810.77</ele>
        <time>2016-03-24T09:49:25Z</time>
      </trkpt>
      <trkpt lat="45.56735" lon="6.78119">
        <ele>1810.5</ele>
        <time>2016-03-24T09:49:30Z</time>
      </trkpt>
      <trkpt lat="45.56754" lon="6.78112">
        <ele>1805.57</ele>
        <time>2016-03-24T09:49:38Z</time>
      </trkpt>
      <trkpt lat="45.56772" lon="6.78104">
        <ele>1799.99</ele>
        <time>2016-03-24T09:49:43Z</time>
      </trkpt>
      <trkpt lat="45.5679" lon="6.78096">
        <ele>1800.49</ele>
        <time>2016-03-24T09:49:46Z</time>
      </trkpt>
      <trkpt lat="45.56812" lon="6.78083">
        <ele>1795.63</ele>
        <time>2016-03-24T09:49:50Z</time>
      </trkpt>
      <trkpt lat="45.56836" lon="6.78079">
        <ele>1792.78</ele>
        <time>2016-03-24T09:49:53Z</time>
      </trkpt>
      <trkpt lat="45.56855" lon="6.78076">
        <ele>1792.7</ele>
        <time>2016-03-24T09:49:55Z</time>
      </trkpt>
      <trkpt lat="45.56874" lon="6.78078">
        <ele>1790.78</ele>
        <time>2016-03-24T09:49:57Z</time>
      </trkpt>
      <trkpt lat="45.56893" lon="6.78078">
        <ele>1786.86</ele>
        <time>2016-03-24T09:49:59Z</time>
      </trkpt>
      <trkpt lat="45.56914" lon="6.78082">
        <ele>1785.58</ele>
        <time>2016-03-24T09:50:01Z</time>
      </trkpt>
      <trkpt lat="45.56933" lon="6.78086">
        <ele>1782.81</ele>
        <time>2016-03-24T09:50:03Z</time>
      </trkpt>
      <trkpt lat="45.56959" lon="6.78085">
        <ele>1778.21</ele>
        <time>2016-03-24T09:50:06Z</time>
      </trkpt>
      <trkpt lat="45.56984" lon="6.78092">
        <ele>1774.78</ele>
        <time>2016-03-24T09:50:09Z</time>
      </trkpt>
      <trkpt lat="45.57004" lon="6.78106">
        <ele>1772.55</ele>
        <time>2016-03-24T09:50:13Z</time>
      </trkpt>
      <trkpt lat="45.57029" lon="6.78113">
        <ele>1766.94</ele>
        <time>2016-03-24T09:50:28Z</time>
      </trkpt>
      <trkpt lat="45.57047" lon="6.78102">
        <ele>1762.18</ele>
        <time>2016-03-24T09:50:31Z</time>
      </trkpt>
      <trkpt lat="45.57065" lon="6.78096">
        <ele>1758.04</ele>
        <time>2016-03-24T09:50:33Z</time>
      </trkpt>
      <trkpt lat="45.57089" lon="6.78076">
        <ele>1752.83</ele>
        <time>2016-03-24T09:50:36Z</time>
      </trkpt>
      <trkpt lat="45.57106" lon="6.7805">
        <ele>1745.69</ele>
        <time>2016-03-24T09:50:39Z</time>
      </trkpt>
      <trkpt lat="45.5712" lon="6.78028">
        <ele>1742.18</ele>
        <time>2016-03-24T09:50:41Z</time>
      </trkpt>
      <trkpt lat="45.57135" lon="6.78011">
        <ele>1736.28</ele>
        <time>2016-03-24T09:50:43Z</time>
      </trkpt>
      <trkpt lat="45.57148" lon="6.77991">
        <ele>1731.88</ele>
        <time>2016-03-24T09:50:45Z</time>
      </trkpt>
      <trkpt lat="45.57161" lon="6.77972">
        <ele>1729.62</ele>
        <time>2016-03-24T09:50:47Z</time>
      </trkpt>
      <trkpt lat="45.57175" lon="6.77954">
        <ele>1726.81</ele>
        <time>2016-03-24T09:50:49Z</time>
      </trkpt>
      <trkpt lat="45.57183" lon="6.77923">
        <ele>1723.97</ele>
        <time>2016-03-24T09:50:52Z</time>
      </trkpt>
      <trkpt lat="45.57178" lon="6.77891">
        <ele>1718.06</ele>
        <time>2016-03-24T09:50:55Z</time>
      </trkpt>
      <trkpt lat="45.5716" lon="6.77888">
        <ele>1712.53</ele>
        <time>2016-03-24T09:51:11Z</time>
      </trkpt>
      <trkpt lat="45.57179" lon="6.7789">
        <ele>1714.49</ele>
        <time>2016-03-24T09:51:38Z</time>
      </trkpt>
      <trkpt lat="45.57198" lon="6.77887">
        <ele>1716.69</ele>
        <time>2016-03-24T09:51:48Z</time>
      </trkpt>
      <trkpt lat="45.57216" lon="6.77895">
        <ele>1714.57</ele>
        <time>2016-03-24T09:51:54Z</time>
      </trkpt>
      <trkpt lat="45.57199" lon="6.7791">
        <ele>1699.82</ele>
        <time>2016-03-24T09:54:22Z</time>
      </trkpt>
      <trkpt lat="45.57192" lon="6.77938">
        <ele>1695.74</ele>
        <time>2016-03-24T09:54:30Z</time>
      </trkpt>
      <trkpt lat="45.57189" lon="6.77964">
        <ele>1703.03</ele>
        <time>2016-03-24T09:54:35Z</time>
      </trkpt>
      <trkpt lat="45.57186" lon="6.77994">
        <ele>1714.12</ele>
        <time>2016-03-24T09:54:41Z</time>
      </trkpt>
      <trkpt lat="45.57182" lon="6.78023">
        <ele>1724.24</ele>
        <time>2016-03-24T09:54:47Z</time>
      </trkpt>
      <trkpt lat="45.57179" lon="6.78052">
        <ele>1733.07</ele>
        <time>2016-03-24T09:54:53Z</time>
      </trkpt>
      <trkpt lat="45.57174" lon="6.78081">
        <ele>1739.28</ele>
        <time>2016-03-24T09:54:59Z</time>
      </trkpt>
      <trkpt lat="45.57168" lon="6.78109">
        <ele>1746.47</ele>
        <time>2016-03-24T09:55:05Z</time>
      </trkpt>
      <trkpt lat="45.57166" lon="6.78139">
        <ele>1750.32</ele>
        <time>2016-03-24T09:55:11Z</time>
      </trkpt>
      <trkpt lat="45.57162" lon="6.78165">
        <ele>1754.45</ele>
        <time>2016-03-24T09:55:16Z</time>
      </trkpt>
      <trkpt lat="45.5716" lon="6.78193">
        <ele>1752.65</ele>
        <time>2016-03-24T09:55:22Z</time>
      </trkpt>
      <trkpt lat="45.57155" lon="6.7822">
        <ele>1757.44</ele>
        <time>2016-03-24T09:55:28Z</time>
      </trkpt>
      <trkpt lat="45.5715" lon="6.78248">
        <ele>1762.93</ele>
        <time>2016-03-24T09:55:34Z</time>
      </trkpt>
      <trkpt lat="45.57146" lon="6.78277">
        <ele>1772.24</ele>
        <time>2016-03-24T09:55:40Z</time>
      </trkpt>
      <trkpt lat="45.57142" lon="6.78306">
        <ele>1778.49</ele>
        <time>2016-03-24T09:55:46Z</time>
      </trkpt>
      <trkpt lat="45.57138" lon="6.78331">
        <ele>1784.08</ele>
        <time>2016-03-24T09:55:51Z</time>
      </trkpt>
      <trkpt lat="45.57134" lon="6.78358">
        <ele>1792.24</ele>
        <time>2016-03-24T09:55:56Z</time>
      </trkpt>
      <trkpt lat="45.5713" lon="6.78389">
        <ele>1797.11</ele>
        <time>2016-03-24T09:56:02Z</time>
      </trkpt>
      <trkpt lat="45.57126" lon="6.78415">
        <ele>1800.48</ele>
        <time>2016-03-24T09:56:07Z</time>
      </trkpt>
      <trkpt lat="45.57121" lon="6.78441">
        <ele>1804.49</ele>
        <time>2016-03-24T09:56:12Z</time>
      </trkpt>
      <trkpt lat="45.57117" lon="6.7847">
        <ele>1803.53</ele>
        <time>2016-03-24T09:56:18Z</time>
      </trkpt>
      <trkpt lat="45.57112" lon="6.78499">
        <ele>1806.13</ele>
        <time>2016-03-24T09:56:24Z</time>
      </trkpt>
      <trkpt lat="45.57109" lon="6.78526">
        <ele>1811.49</ele>
        <time>2016-03-24T09:56:30Z</time>
      </trkpt>
      <trkpt lat="45.57104" lon="6.78555">
        <ele>1811.56</ele>
        <time>2016-03-24T09:56:36Z</time>
      </trkpt>
      <trkpt lat="45.57098" lon="6.78582">
        <ele>1809.73</ele>
        <time>2016-03-24T09:56:41Z</time>
      </trkpt>
      <trkpt lat="45.57091" lon="6.78608">
        <ele>1815.17</ele>
        <time>2016-03-24T09:56:46Z</time>
      </trkpt>
      <trkpt lat="45.57091" lon="6.78635">
        <ele>1817.53</ele>
        <time>2016-03-24T09:57:03Z</time>
      </trkpt>
      <trkpt lat="45.5711" lon="6.78639">
        <ele>1825.37</ele>
        <time>2016-03-24T09:57:58Z</time>
      </trkpt>
      <trkpt lat="45.57129" lon="6.78656">
        <ele>1823.73</ele>
        <time>2016-03-24T09:58:06Z</time>
      </trkpt>
      <trkpt lat="45.57149" lon="6.78648">
        <ele>1822.54</ele>
        <time>2016-03-24T09:58:10Z</time>
      </trkpt>
      <trkpt lat="45.5717" lon="6.78633">
        <ele>1821.73</ele>
        <time>2016-03-24T09:58:14Z</time>
      </trkpt>
      <trkpt lat="45.57191" lon="6.78616">
        <ele>1820.93</ele>
        <time>2016-03-24T09:58:18Z</time>
      </trkpt>
      <trkpt lat="45.57207" lon="6.78595">
        <ele>1818.73</ele>
        <time>2016-03-24T09:58:22Z</time>
      </trkpt>
      <trkpt lat="45.57226" lon="6.78577">
        <ele>1813.18</ele>
        <time>2016-03-24T09:58:26Z</time>
      </trkpt>
      <trkpt lat="45.57241" lon="6.78547">
        <ele>1808.95</ele>
        <time>2016-03-24T09:58:30Z</time>
      </trkpt>
      <trkpt lat="45.57253" lon="6.78515">
        <ele>1805.62</ele>
        <time>2016-03-24T09:58:33Z</time>
      </trkpt>
      <trkpt lat="45.57263" lon="6.78486">
        <ele>1803.77</ele>
        <time>2016-03-24T09:58:36Z</time>
      </trkpt>
      <trkpt lat="45.57275" lon="6.78453">
        <ele>1800.78</ele>
        <time>2016-03-24T09:58:39Z</time>
      </trkpt>
      <trkpt lat="45.5728" lon="6.78424">
        <ele>1801.33</ele>
        <time>2016-03-24T09:58:42Z</time>
      </trkpt>
      <trkpt lat="45.5727" lon="6.78399">
        <ele>1800.54</ele>
        <time>2016-03-24T09:58:49Z</time>
      </trkpt>
      <trkpt lat="45.57252" lon="6.78401">
        <ele>1795.57</ele>
        <time>2016-03-24T09:59:17Z</time>
      </trkpt>
      <trkpt lat="45.5725" lon="6.78428">
        <ele>1789.29</ele>
        <time>2016-03-24T09:59:58Z</time>
      </trkpt>
      <trkpt lat="45.57249" lon="6.78456">
        <ele>1790.2</ele>
        <time>2016-03-24T10:00:03Z</time>
      </trkpt>
      <trkpt lat="45.57245" lon="6.78485">
        <ele>1797.16</ele>
        <time>2016-03-24T10:00:08Z</time>
      </trkpt>
      <trkpt lat="45.57243" lon="6.78511">
        <ele>1801.08</ele>
        <time>2016-03-24T10:00:12Z</time>
      </trkpt>
      <trkpt lat="45.5724" lon="6.78537">
        <ele>1808.07</ele>
        <time>2016-03-24T10:00:16Z</time>
      </trkpt>
      <trkpt lat="45.57237" lon="6.78567">
        <ele>1812.31</ele>
        <time>2016-03-24T10:00:21Z</time>
      </trkpt>
      <trkpt lat="45.57233" lon="6.78597">
        <ele>1819.87</ele>
        <time>2016-03-24T10:00:26Z</time>
      </trkpt>
      <trkpt lat="45.5723" lon="6.78626">
        <ele>1824.28</ele>
        <time>2016-03-24T10:00:31Z</time>
      </trkpt>
      <trkpt lat="45.57228" lon="6.78654">
        <ele>1826.29</ele>
        <time>2016-03-24T10:00:36Z</time>
      </trkpt>
      <trkpt lat="45.57225" lon="6.78682">
        <ele>1828.29</ele>
        <time>2016-03-24T10:00:41Z</time>
      </trkpt>
      <trkpt lat="45.57222" lon="6.78711">
        <ele>1831.48</ele>
        <time>2016-03-24T10:00:46Z</time>
      </trkpt>
      <trkpt lat="45.5722" lon="6.78739">
        <ele>1832.29</ele>
        <time>2016-03-24T10:00:51Z</time>
      </trkpt>
      <trkpt lat="45.57216" lon="6.78769">
        <ele>1840.04</ele>
        <time>2016-03-24T10:00:57Z</time>
      </trkpt>
      <trkpt lat="45.57212" lon="6.78801">
        <ele>1845.13</ele>
        <time>2016-03-24T10:01:03Z</time>
      </trkpt>
      <trkpt lat="45.57209" lon="6.78826">
        <ele>1853.22</ele>
        <time>2016-03-24T10:01:08Z</time>
      </trkpt>
      <trkpt lat="45.57205" lon="6.78857">
        <ele>1861.42</ele>
        <time>2016-03-24T10:01:13Z</time>
      </trkpt>
      <trkpt lat="45.57206" lon="6.78887">
        <ele>1862.52</ele>
        <time>2016-03-24T10:01:18Z</time>
      </trkpt>
      <trkpt lat="45.57203" lon="6.78916">
        <ele>1862.53</ele>
        <time>2016-03-24T10:01:23Z</time>
      </trkpt>
      <trkpt lat="45.57198" lon="6.78944">
        <ele>1864.33</ele>
        <time>2016-03-24T10:01:28Z</time>
      </trkpt>
      <trkpt lat="45.57193" lon="6.78974">
        <ele>1864.54</ele>
        <time>2016-03-24T10:01:33Z</time>
      </trkpt>
      <trkpt lat="45.57192" lon="6.79002">
        <ele>1866.53</ele>
        <time>2016-03-24T10:01:38Z</time>
      </trkpt>
      <trkpt lat="45.57188" lon="6.7903">
        <ele>1868.52</ele>
        <time>2016-03-24T10:01:43Z</time>
      </trkpt>
      <trkpt lat="45.57185" lon="6.79059">
        <ele>1870.45</ele>
        <time>2016-03-24T10:01:48Z</time>
      </trkpt>
      <trkpt lat="45.57183" lon="6.79087">
        <ele>1872.36</ele>
        <time>2016-03-24T10:01:53Z</time>
      </trkpt>
      <trkpt lat="45.57179" lon="6.79117">
        <ele>1874.33</ele>
        <time>2016-03-24T10:01:58Z</time>
      </trkpt>
      <trkpt lat="45.57179" lon="6.79146">
        <ele>1876.49</ele>
        <time>2016-03-24T10:02:03Z</time>
      </trkpt>
      <trkpt lat="45.57175" lon="6.79173">
        <ele>1883.32</ele>
        <time>2016-03-24T10:02:08Z</time>
      </trkpt>
      <trkpt lat="45.57172" lon="6.79201">
        <ele>1887.48</ele>
        <time>2016-03-24T10:02:13Z</time>
      </trkpt>
      <trkpt lat="45.57169" lon="6.79227">
        <ele>1891.31</ele>
        <time>2016-03-24T10:02:18Z</time>
      </trkpt>
      <trkpt lat="45.57168" lon="6.79256">
        <ele>1893.32</ele>
        <time>2016-03-24T10:02:23Z</time>
      </trkpt>
      <trkpt lat="45.57165" lon="6.79282">
        <ele>1897.27</ele>
        <time>2016-03-24T10:02:28Z</time>
      </trkpt>
      <trkpt lat="45.57163" lon="6.79311">
        <ele>1903.29</ele>
        <time>2016-03-24T10:02:33Z</time>
      </trkpt>
      <trkpt lat="45.57161" lon="6.7934">
        <ele>1915.1</ele>
        <time>2016-03-24T10:02:39Z</time>
      </trkpt>
      <trkpt lat="45.57156" lon="6.7937">
        <ele>1916.53</ele>
        <time>2016-03-24T10:02:44Z</time>
      </trkpt>
      <trkpt lat="45.57158" lon="6.79399">
        <ele>1928.23</ele>
        <time>2016-03-24T10:02:50Z</time>
      </trkpt>
      <trkpt lat="45.57156" lon="6.79429">
        <ele>1937.26</ele>
        <time>2016-03-24T10:02:56Z</time>
      </trkpt>
      <trkpt lat="45.57148" lon="6.79457">
        <ele>1942.28</ele>
        <time>2016-03-24T10:03:01Z</time>
      </trkpt>
      <trkpt lat="45.57147" lon="6.79485">
        <ele>1945.48</ele>
        <time>2016-03-24T10:03:06Z</time>
      </trkpt>
      <trkpt lat="45.57145" lon="6.79513">
        <ele>1965.24</ele>
        <time>2016-03-24T10:03:12Z</time>
      </trkpt>
      <trkpt lat="45.57142" lon="6.79542">
        <ele>1993.66</ele>
        <time>2016-03-24T10:03:19Z</time>
      </trkpt>
      <trkpt lat="45.57139" lon="6.79572">
        <ele>2010.71</ele>
        <time>2016-03-24T10:03:25Z</time>
      </trkpt>
      <trkpt lat="45.57136" lon="6.796">
        <ele>2025.05</ele>
        <time>2016-03-24T10:03:31Z</time>
      </trkpt>
      <trkpt lat="45.57137" lon="6.79628">
        <ele>2032.08</ele>
        <time>2016-03-24T10:03:36Z</time>
      </trkpt>
      <trkpt lat="45.5713" lon="6.79655">
        <ele>2039.87</ele>
        <time>2016-03-24T10:03:42Z</time>
      </trkpt>
      <trkpt lat="45.57124" lon="6.79685">
        <ele>2049.28</ele>
        <time>2016-03-24T10:03:47Z</time>
      </trkpt>
      <trkpt lat="45.5712" lon="6.79713">
        <ele>2056.31</ele>
        <time>2016-03-24T10:03:52Z</time>
      </trkpt>
      <trkpt lat="45.57118" lon="6.79741">
        <ele>2060.25</ele>
        <time>2016-03-24T10:03:57Z</time>
      </trkpt>
      <trkpt lat="45.57115" lon="6.7977">
        <ele>2066.24</ele>
        <time>2016-03-24T10:04:02Z</time>
      </trkpt>
      <trkpt lat="45.57107" lon="6.79798">
        <ele>2076.06</ele>
        <time>2016-03-24T10:04:07Z</time>
      </trkpt>
      <trkpt lat="45.57103" lon="6.79824">
        <ele>2085.03</ele>
        <time>2016-03-24T10:04:12Z</time>
      </trkpt>
      <trkpt lat="45.57099" lon="6.7985">
        <ele>2094.87</ele>
        <time>2016-03-24T10:04:17Z</time>
      </trkpt>
      <trkpt lat="45.57094" lon="6.79879">
        <ele>2109.02</ele>
        <time>2016-03-24T10:04:23Z</time>
      </trkpt>
      <trkpt lat="45.57089" lon="6.79905">
        <ele>2118.24</ele>
        <time>2016-03-24T10:04:29Z</time>
      </trkpt>
      <trkpt lat="45.57085" lon="6.79936">
        <ele>2128.03</ele>
        <time>2016-03-24T10:04:34Z</time>
      </trkpt>
      <trkpt lat="45.57083" lon="6.79963">
        <ele>2138.19</ele>
        <time>2016-03-24T10:04:39Z</time>
      </trkpt>
      <trkpt lat="45.57083" lon="6.7999">
        <ele>2148.06</ele>
        <time>2016-03-24T10:04:44Z</time>
      </trkpt>
      <trkpt lat="45.57078" lon="6.80019">
        <ele>2157.43</ele>
        <time>2016-03-24T10:04:50Z</time>
      </trkpt>
      <trkpt lat="45.57079" lon="6.80046">
        <ele>2162.28</ele>
        <time>2016-03-24T10:04:55Z</time>
      </trkpt>
      <trkpt lat="45.57077" lon="6.80074">
        <ele>2170.04</ele>
        <time>2016-03-24T10:05:01Z</time>
      </trkpt>
      <trkpt lat="45.57068" lon="6.80099">
        <ele>2188.58</ele>
        <time>2016-03-24T10:05:07Z</time>
      </trkpt>
      <trkpt lat="45.57065" lon="6.80127">
        <ele>2195.44</ele>
        <time>2016-03-24T10:05:12Z</time>
      </trkpt>
      <trkpt lat="45.57062" lon="6.80156">
        <ele>2204</ele>
        <time>2016-03-24T10:05:17Z</time>
      </trkpt>
      <trkpt lat="45.57061" lon="6.80183">
        <ele>2211.28</ele>
        <time>2016-03-24T10:05:22Z</time>
      </trkpt>
      <trkpt lat="45.5706" lon="6.80213">
        <ele>2216.28</ele>
        <time>2016-03-24T10:05:27Z</time>
      </trkpt>
      <trkpt lat="45.57056" lon="6.80242">
        <ele>2222.88</ele>
        <time>2016-03-24T10:05:32Z</time>
      </trkpt>
      <trkpt lat="45.57051" lon="6.80268">
        <ele>2231.07</ele>
        <time>2016-03-24T10:05:37Z</time>
      </trkpt>
      <trkpt lat="45.57046" lon="6.80298">
        <ele>2235.32</ele>
        <time>2016-03-24T10:05:42Z</time>
      </trkpt>
      <trkpt lat="45.57042" lon="6.80326">
        <ele>2236.52</ele>
        <time>2016-03-24T10:05:47Z</time>
      </trkpt>
      <trkpt lat="45.57037" lon="6.80354">
        <ele>2241.52</ele>
        <time>2016-03-24T10:05:52Z</time>
      </trkpt>
      <trkpt lat="45.57034" lon="6.80382">
        <ele>2242.68</ele>
        <time>2016-03-24T10:05:57Z</time>
      </trkpt>
      <trkpt lat="45.57031" lon="6.8041">
        <ele>2242.52</ele>
        <time>2016-03-24T10:06:02Z</time>
      </trkpt>
      <trkpt lat="45.57026" lon="6.80436">
        <ele>2248.09</ele>
        <time>2016-03-24T10:06:10Z</time>
      </trkpt>
      <trkpt lat="45.5702" lon="6.80461">
        <ele>2253.5</ele>
        <time>2016-03-24T10:06:29Z</time>
      </trkpt>
      <trkpt lat="45.57017" lon="6.80487">
        <ele>2255.76</ele>
        <time>2016-03-24T10:06:47Z</time>
      </trkpt>
      <trkpt lat="45.57015" lon="6.80514">
        <ele>2258.08</ele>
        <time>2016-03-24T10:07:00Z</time>
      </trkpt>
      <trkpt lat="45.57011" lon="6.80541">
        <ele>2265.28</ele>
        <time>2016-03-24T10:07:08Z</time>
      </trkpt>
      <trkpt lat="45.57008" lon="6.80568">
        <ele>2269.29</ele>
        <time>2016-03-24T10:07:14Z</time>
      </trkpt>
      <trkpt lat="45.57005" lon="6.80595">
        <ele>2276.24</ele>
        <time>2016-03-24T10:07:20Z</time>
      </trkpt>
      <trkpt lat="45.57004" lon="6.80624">
        <ele>2285.02</ele>
        <time>2016-03-24T10:07:24Z</time>
      </trkpt>
      <trkpt lat="45.57004" lon="6.80653">
        <ele>2290.24</ele>
        <time>2016-03-24T10:07:28Z</time>
      </trkpt>
      <trkpt lat="45.57007" lon="6.80682">
        <ele>2296.28</ele>
        <time>2016-03-24T10:07:33Z</time>
      </trkpt>
      <trkpt lat="45.57009" lon="6.80709">
        <ele>2301.24</ele>
        <time>2016-03-24T10:07:38Z</time>
      </trkpt>
      <trkpt lat="45.57013" lon="6.80734">
        <ele>2307.28</ele>
        <time>2016-03-24T10:07:43Z</time>
      </trkpt>
      <trkpt lat="45.57016" lon="6.8076">
        <ele>2312.28</ele>
        <time>2016-03-24T10:07:48Z</time>
      </trkpt>
      <trkpt lat="45.57013" lon="6.80789">
        <ele>2324.59</ele>
        <time>2016-03-24T10:07:54Z</time>
      </trkpt>
      <trkpt lat="45.57001" lon="6.8081">
        <ele>2349.3</ele>
        <time>2016-03-24T10:08:08Z</time>
      </trkpt>
      <trkpt lat="45.5702" lon="6.80805">
        <ele>2381.53</ele>
        <time>2016-03-24T10:08:55Z</time>
      </trkpt>
      <trkpt lat="45.57039" lon="6.80813">
        <ele>2379.49</ele>
        <time>2016-03-24T10:09:00Z</time>
      </trkpt>
      <trkpt lat="45.57053" lon="6.8083">
        <ele>2378.73</ele>
        <time>2016-03-24T10:09:03Z</time>
      </trkpt>
      <trkpt lat="45.57068" lon="6.8085">
        <ele>2376.74</ele>
        <time>2016-03-24T10:09:06Z</time>
      </trkpt>
      <trkpt lat="45.57085" lon="6.80874">
        <ele>2376.53</ele>
        <time>2016-03-24T10:09:09Z</time>
      </trkpt>
      <trkpt lat="45.57107" lon="6.80893">
        <ele>2374.74</ele>
        <time>2016-03-24T10:09:12Z</time>
      </trkpt>
      <trkpt lat="45.57126" lon="6.80878">
        <ele>2370.21</ele>
        <time>2016-03-24T10:09:15Z</time>
      </trkpt>
      <trkpt lat="45.57124" lon="6.80845">
        <ele>2368.41</ele>
        <time>2016-03-24T10:09:19Z</time>
      </trkpt>
      <trkpt lat="45.5711" lon="6.80818">
        <ele>2362.26</ele>
        <time>2016-03-24T10:09:22Z</time>
      </trkpt>
      <trkpt lat="45.57104" lon="6.8079">
        <ele>2356.03</ele>
        <time>2016-03-24T10:09:25Z</time>
      </trkpt>
      <trkpt lat="45.57122" lon="6.80793">
        <ele>2349.82</ele>
        <time>2016-03-24T10:09:35Z</time>
      </trkpt>
      <trkpt lat="45.5714" lon="6.80805">
        <ele>2346.01</ele>
        <time>2016-03-24T10:09:38Z</time>
      </trkpt>
      <trkpt lat="45.5716" lon="6.80822">
        <ele>2343.79</ele>
        <time>2016-03-24T10:09:40Z</time>
      </trkpt>
      <trkpt lat="45.57183" lon="6.80844">
        <ele>2341.94</ele>
        <time>2016-03-24T10:09:42Z</time>
      </trkpt>
      <trkpt lat="45.57214" lon="6.80846">
        <ele>2339.79</ele>
        <time>2016-03-24T10:09:44Z</time>
      </trkpt>
      <trkpt lat="45.57242" lon="6.80844">
        <ele>2334.8</ele>
        <time>2016-03-24T10:09:47Z</time>
      </trkpt>
      <trkpt lat="45.57229" lon="6.80825">
        <ele>2319.79</ele>
        <time>2016-03-24T10:10:03Z</time>
      </trkpt>
      <trkpt lat="45.57227" lon="6.80798">
        <ele>2308.15</ele>
        <time>2016-03-24T10:10:10Z</time>
      </trkpt>
      <trkpt lat="45.57227" lon="6.8077">
        <ele>2297.49</ele>
        <time>2016-03-24T10:10:13Z</time>
      </trkpt>
      <trkpt lat="45.57219" lon="6.80742">
        <ele>2291.64</ele>
        <time>2016-03-24T10:10:16Z</time>
      </trkpt>
      <trkpt lat="45.57225" lon="6.80717">
        <ele>2289.62</ele>
        <time>2016-03-24T10:10:18Z</time>
      </trkpt>
      <trkpt lat="45.57228" lon="6.80685">
        <ele>2286.17</ele>
        <time>2016-03-24T10:10:20Z</time>
      </trkpt>
      <trkpt lat="45.57242" lon="6.80656">
        <ele>2282.78</ele>
        <time>2016-03-24T10:10:23Z</time>
      </trkpt>
      <trkpt lat="45.57263" lon="6.80658">
        <ele>2280.18</ele>
        <time>2016-03-24T10:10:24Z</time>
      </trkpt>
      <trkpt lat="45.57272" lon="6.80628">
        <ele>2263.27</ele>
        <time>2016-03-24T10:10:29Z</time>
      </trkpt>
      <trkpt lat="45.57291" lon="6.80609">
        <ele>2257.21</ele>
        <time>2016-03-24T10:10:33Z</time>
      </trkpt>
      <trkpt lat="45.57314" lon="6.80595">
        <ele>2250.87</ele>
        <time>2016-03-24T10:10:36Z</time>
      </trkpt>
      <trkpt lat="45.57333" lon="6.80581">
        <ele>2247.66</ele>
        <time>2016-03-24T10:10:38Z</time>
      </trkpt>
      <trkpt lat="45.57352" lon="6.80573">
        <ele>2243.77</ele>
        <time>2016-03-24T10:10:42Z</time>
      </trkpt>
      <trkpt lat="45.5737" lon="6.80564">
        <ele>2240.81</ele>
        <time>2016-03-24T10:10:47Z</time>
      </trkpt>
      <trkpt lat="45.57389" lon="6.80559">
        <ele>2228.56</ele>
        <time>2016-03-24T10:11:08Z</time>
      </trkpt>
      <trkpt lat="45.57406" lon="6.80545">
        <ele>2220.89</ele>
        <time>2016-03-24T10:11:14Z</time>
      </trkpt>
      <trkpt lat="45.57412" lon="6.8051">
        <ele>2213.82</ele>
        <time>2016-03-24T10:11:18Z</time>
      </trkpt>
      <trkpt lat="45.57408" lon="6.80483">
        <ele>2208.03</ele>
        <time>2016-03-24T10:11:21Z</time>
      </trkpt>
      <trkpt lat="45.57405" lon="6.80455">
        <ele>2204.03</ele>
        <time>2016-03-24T10:11:23Z</time>
      </trkpt>
      <trkpt lat="45.57402" lon="6.8042">
        <ele>2201.79</ele>
        <time>2016-03-24T10:11:25Z</time>
      </trkpt>
      <trkpt lat="45.57407" lon="6.80393">
        <ele>2197.06</ele>
        <time>2016-03-24T10:11:27Z</time>
      </trkpt>
      <trkpt lat="45.57415" lon="6.80369">
        <ele>2187.59</ele>
        <time>2016-03-24T10:11:29Z</time>
      </trkpt>
      <trkpt lat="45.5742" lon="6.80334">
        <ele>2176.33</ele>
        <time>2016-03-24T10:11:32Z</time>
      </trkpt>
      <trkpt lat="45.57431" lon="6.80307">
        <ele>2171.24</ele>
        <time>2016-03-24T10:11:34Z</time>
      </trkpt>
      <trkpt lat="45.5744" lon="6.80281">
        <ele>2167.04</ele>
        <time>2016-03-24T10:11:36Z</time>
      </trkpt>
      <trkpt lat="45.57451" lon="6.80258">
        <ele>2165.59</ele>
        <time>2016-03-24T10:11:38Z</time>
      </trkpt>
      <trkpt lat="45.57471" lon="6.80235">
        <ele>2160.41</ele>
        <time>2016-03-24T10:11:40Z</time>
      </trkpt>
      <trkpt lat="45.57487" lon="6.80208">
        <ele>2156.05</ele>
        <time>2016-03-24T10:11:42Z</time>
      </trkpt>
      <trkpt lat="45.57506" lon="6.80179">
        <ele>2151.87</ele>
        <time>2016-03-24T10:11:44Z</time>
      </trkpt>
      <trkpt lat="45.57517" lon="6.80151">
        <ele>2142.35</ele>
        <time>2016-03-24T10:11:47Z</time>
      </trkpt>
      <trkpt lat="45.57535" lon="6.80132">
        <ele>2139.75</ele>
        <time>2016-03-24T10:11:50Z</time>
      </trkpt>
      <trkpt lat="45.57545" lon="6.80107">
        <ele>2126.82</ele>
        <time>2016-03-24T10:12:01Z</time>
      </trkpt>
      <trkpt lat="45.57549" lon="6.80075">
        <ele>2124.55</ele>
        <time>2016-03-24T10:12:04Z</time>
      </trkpt>
      <trkpt lat="45.57555" lon="6.80047">
        <ele>2120.05</ele>
        <time>2016-03-24T10:12:06Z</time>
      </trkpt>
      <trkpt lat="45.57559" lon="6.80019">
        <ele>2116.03</ele>
        <time>2016-03-24T10:12:08Z</time>
      </trkpt>
      <trkpt lat="45.57564" lon="6.7999">
        <ele>2114.59</ele>
        <time>2016-03-24T10:12:10Z</time>
      </trkpt>
      <trkpt lat="45.57568" lon="6.79963">
        <ele>2112.93</ele>
        <time>2016-03-24T10:12:12Z</time>
      </trkpt>
      <trkpt lat="45.57576" lon="6.79938">
        <ele>2109.99</ele>
        <time>2016-03-24T10:12:14Z</time>
      </trkpt>
      <trkpt lat="45.57582" lon="6.7991">
        <ele>2107.22</ele>
        <time>2016-03-24T10:12:15Z</time>
      </trkpt>
      <trkpt lat="45.57587" lon="6.79872">
        <ele>2097.26</ele>
        <time>2016-03-24T10:12:18Z</time>
      </trkpt>
      <trkpt lat="45.5759" lon="6.79827">
        <ele>2093.04</ele>
        <time>2016-03-24T10:12:20Z</time>
      </trkpt>
      <trkpt lat="45.57598" lon="6.79794">
        <ele>2087.43</ele>
        <time>2016-03-24T10:12:22Z</time>
      </trkpt>
      <trkpt lat="45.57596" lon="6.79762">
        <ele>2081.29</ele>
        <time>2016-03-24T10:12:24Z</time>
      </trkpt>
      <trkpt lat="45.57596" lon="6.79734">
        <ele>2077.84</ele>
        <time>2016-03-24T10:12:26Z</time>
      </trkpt>
      <trkpt lat="45.57584" lon="6.79708">
        <ele>2074.18</ele>
        <time>2016-03-24T10:12:28Z</time>
      </trkpt>
      <trkpt lat="45.5757" lon="6.79686">
        <ele>2066.36</ele>
        <time>2016-03-24T10:12:30Z</time>
      </trkpt>
      <trkpt lat="45.57554" lon="6.79668">
        <ele>2056.76</ele>
        <time>2016-03-24T10:12:32Z</time>
      </trkpt>
      <trkpt lat="45.57542" lon="6.79645">
        <ele>2051.1</ele>
        <time>2016-03-24T10:12:34Z</time>
      </trkpt>
      <trkpt lat="45.57523" lon="6.79619">
        <ele>2047.94</ele>
        <time>2016-03-24T10:12:37Z</time>
      </trkpt>
      <trkpt lat="45.57509" lon="6.796">
        <ele>2043.74</ele>
        <time>2016-03-24T10:12:42Z</time>
      </trkpt>
      <trkpt lat="45.57491" lon="6.79594">
        <ele>2034.74</ele>
        <time>2016-03-24T10:12:59Z</time>
      </trkpt>
      <trkpt lat="45.57473" lon="6.79592">
        <ele>2036.7</ele>
        <time>2016-03-24T10:13:22Z</time>
      </trkpt>
      <trkpt lat="45.5747" lon="6.7962">
        <ele>2030.94</ele>
        <time>2016-03-24T10:14:01Z</time>
      </trkpt>
      <trkpt lat="45.57465" lon="6.79646">
        <ele>2031.54</ele>
        <time>2016-03-24T10:14:06Z</time>
      </trkpt>
      <trkpt lat="45.57466" lon="6.79675">
        <ele>2033.48</ele>
        <time>2016-03-24T10:14:11Z</time>
      </trkpt>
      <trkpt lat="45.57468" lon="6.79705">
        <ele>2036.33</ele>
        <time>2016-03-24T10:14:16Z</time>
      </trkpt>
      <trkpt lat="45.57471" lon="6.79737">
        <ele>2042.25</ele>
        <time>2016-03-24T10:14:21Z</time>
      </trkpt>
      <trkpt lat="45.57461" lon="6.79761">
        <ele>2051.28</ele>
        <time>2016-03-24T10:14:28Z</time>
      </trkpt>
      <trkpt lat="45.57453" lon="6.79784">
        <ele>2056.09</ele>
        <time>2016-03-24T10:14:35Z</time>
      </trkpt>
      <trkpt lat="45.57447" lon="6.79812">
        <ele>2064.28</ele>
        <time>2016-03-24T10:14:40Z</time>
      </trkpt>
      <trkpt lat="45.57441" lon="6.79839">
        <ele>2074.22</ele>
        <time>2016-03-24T10:14:44Z</time>
      </trkpt>
      <trkpt lat="45.57439" lon="6.79868">
        <ele>2078.13</ele>
        <time>2016-03-24T10:14:50Z</time>
      </trkpt>
      <trkpt lat="45.57439" lon="6.79899">
        <ele>2079.52</ele>
        <time>2016-03-24T10:14:55Z</time>
      </trkpt>
      <trkpt lat="45.57434" lon="6.79928">
        <ele>2082.09</ele>
        <time>2016-03-24T10:15:00Z</time>
      </trkpt>
      <trkpt lat="45.57429" lon="6.79962">
        <ele>2087.73</ele>
        <time>2016-03-24T10:15:06Z</time>
      </trkpt>
      <trkpt lat="45.57425" lon="6.79988">
        <ele>2092.52</ele>
        <time>2016-03-24T10:15:11Z</time>
      </trkpt>
      <trkpt lat="45.57419" lon="6.80012">
        <ele>2098.47</ele>
        <time>2016-03-24T10:15:16Z</time>
      </trkpt>
      <trkpt lat="45.57411" lon="6.80042">
        <ele>2102.49</ele>
        <time>2016-03-24T10:15:24Z</time>
      </trkpt>
      <trkpt lat="45.57404" lon="6.80072">
        <ele>2108.48</ele>
        <time>2016-03-24T10:15:31Z</time>
      </trkpt>
      <trkpt lat="45.57401" lon="6.80101">
        <ele>2118.13</ele>
        <time>2016-03-24T10:15:34Z</time>
      </trkpt>
      <trkpt lat="45.57397" lon="6.80128">
        <ele>2117.69</ele>
        <time>2016-03-24T10:15:39Z</time>
      </trkpt>
      <trkpt lat="45.57391" lon="6.80154">
        <ele>2123.25</ele>
        <time>2016-03-24T10:15:46Z</time>
      </trkpt>
      <trkpt lat="45.57388" lon="6.8018">
        <ele>2123.37</ele>
        <time>2016-03-24T10:15:51Z</time>
      </trkpt>
      <trkpt lat="45.57383" lon="6.80212">
        <ele>2128.52</ele>
        <time>2016-03-24T10:15:56Z</time>
      </trkpt>
      <trkpt lat="45.57381" lon="6.80241">
        <ele>2139.09</ele>
        <time>2016-03-24T10:15:58Z</time>
      </trkpt>
      <trkpt lat="45.57377" lon="6.80272">
        <ele>2146.68</ele>
        <time>2016-03-24T10:16:03Z</time>
      </trkpt>
      <trkpt lat="45.57369" lon="6.80299">
        <ele>2156.23</ele>
        <time>2016-03-24T10:16:10Z</time>
      </trkpt>
      <trkpt lat="45.57365" lon="6.80328">
        <ele>2161.72</ele>
        <time>2016-03-24T10:16:15Z</time>
      </trkpt>
      <trkpt lat="45.57363" lon="6.80357">
        <ele>2170.72</ele>
        <time>2016-03-24T10:16:19Z</time>
      </trkpt>
      <trkpt lat="45.57356" lon="6.80386">
        <ele>2183.82</ele>
        <time>2016-03-24T10:16:25Z</time>
      </trkpt>
      <trkpt lat="45.57352" lon="6.80412">
        <ele>2189.28</ele>
        <time>2016-03-24T10:16:32Z</time>
      </trkpt>
      <trkpt lat="45.57352" lon="6.8044">
        <ele>2193.73</ele>
        <time>2016-03-24T10:16:36Z</time>
      </trkpt>
      <trkpt lat="45.57346" lon="6.80464">
        <ele>2200.31</ele>
        <time>2016-03-24T10:16:42Z</time>
      </trkpt>
      <trkpt lat="45.5734" lon="6.80495">
        <ele>2203.33</ele>
        <time>2016-03-24T10:16:48Z</time>
      </trkpt>
      <trkpt lat="45.57336" lon="6.80522">
        <ele>2206.29</ele>
        <time>2016-03-24T10:16:53Z</time>
      </trkpt>
      <trkpt lat="45.57332" lon="6.8055">
        <ele>2210.28</ele>
        <time>2016-03-24T10:16:58Z</time>
      </trkpt>
      <trkpt lat="45.57326" lon="6.80577">
        <ele>2215.28</ele>
        <time>2016-03-24T10:17:04Z</time>
      </trkpt>
      <trkpt lat="45.57322" lon="6.80605">
        <ele>2219.29</ele>
        <time>2016-03-24T10:17:09Z</time>
      </trkpt>
      <trkpt lat="45.57317" lon="6.80632">
        <ele>2225.2</ele>
        <time>2016-03-24T10:17:14Z</time>
      </trkpt>
      <trkpt lat="45.57312" lon="6.80661">
        <ele>2233.13</ele>
        <time>2016-03-24T10:17:20Z</time>
      </trkpt>
      <trkpt lat="45.57308" lon="6.80689">
        <ele>2242.23</ele>
        <time>2016-03-24T10:17:25Z</time>
      </trkpt>
      <trkpt lat="45.57303" lon="6.80714">
        <ele>2249.88</ele>
        <time>2016-03-24T10:17:33Z</time>
      </trkpt>
      <trkpt lat="45.57298" lon="6.80754">
        <ele>2263.88</ele>
        <time>2016-03-24T10:17:37Z</time>
      </trkpt>
      <trkpt lat="45.57291" lon="6.80783">
        <ele>2271.36</ele>
        <time>2016-03-24T10:17:44Z</time>
      </trkpt>
      <trkpt lat="45.57289" lon="6.80812">
        <ele>2271.52</ele>
        <time>2016-03-24T10:17:48Z</time>
      </trkpt>
      <trkpt lat="45.57284" lon="6.80837">
        <ele>2278.44</ele>
        <time>2016-03-24T10:17:52Z</time>
      </trkpt>
      <trkpt lat="45.57278" lon="6.80871">
        <ele>2291.37</ele>
        <time>2016-03-24T10:17:56Z</time>
      </trkpt>
      <trkpt lat="45.57273" lon="6.80903">
        <ele>2296.89</ele>
        <time>2016-03-24T10:18:02Z</time>
      </trkpt>
      <trkpt lat="45.57268" lon="6.80931">
        <ele>2307.45</ele>
        <time>2016-03-24T10:18:08Z</time>
      </trkpt>
      <trkpt lat="45.57269" lon="6.80958">
        <ele>2313.03</ele>
        <time>2016-03-24T10:18:11Z</time>
      </trkpt>
      <trkpt lat="45.57271" lon="6.80984">
        <ele>2319.24</ele>
        <time>2016-03-24T10:18:15Z</time>
      </trkpt>
      <trkpt lat="45.57272" lon="6.8101">
        <ele>2328</ele>
        <time>2016-03-24T10:18:20Z</time>
      </trkpt>
      <trkpt lat="45.5727" lon="6.81037">
        <ele>2340.94</ele>
        <time>2016-03-24T10:18:26Z</time>
      </trkpt>
      <trkpt lat="45.57271" lon="6.81063">
        <ele>2350.04</ele>
        <time>2016-03-24T10:18:32Z</time>
      </trkpt>
      <trkpt lat="45.57258" lon="6.81092">
        <ele>2379.73</ele>
        <time>2016-03-24T10:18:45Z</time>
      </trkpt>
      <trkpt lat="45.57249" lon="6.8112">
        <ele>2395.02</ele>
        <time>2016-03-24T10:18:48Z</time>
      </trkpt>
      <trkpt lat="45.57242" lon="6.81145">
        <ele>2402.28</ele>
        <time>2016-03-24T10:18:54Z</time>
      </trkpt>
      <trkpt lat="45.57224" lon="6.81156">
        <ele>2410.8</ele>
        <time>2016-03-24T10:19:05Z</time>
      </trkpt>
      <trkpt lat="45.57207" lon="6.81167">
        <ele>2418.49</ele>
        <time>2016-03-24T10:19:20Z</time>
      </trkpt>
      <trkpt lat="45.57225" lon="6.81163">
        <ele>2418.53</ele>
        <time>2016-03-24T10:20:09Z</time>
      </trkpt>
      <trkpt lat="45.57243" lon="6.81153">
        <ele>2412.78</ele>
        <time>2016-03-24T10:20:20Z</time>
      </trkpt>
      <trkpt lat="45.57262" lon="6.81148">
        <ele>2407.78</ele>
        <time>2016-03-24T10:20:25Z</time>
      </trkpt>
      <trkpt lat="45.57284" lon="6.81151">
        <ele>2404.75</ele>
        <time>2016-03-24T10:20:29Z</time>
      </trkpt>
      <trkpt lat="45.57303" lon="6.81155">
        <ele>2400.02</ele>
        <time>2016-03-24T10:20:32Z</time>
      </trkpt>
      <trkpt lat="45.57325" lon="6.81162">
        <ele>2397.61</ele>
        <time>2016-03-24T10:20:35Z</time>
      </trkpt>
      <trkpt lat="45.57345" lon="6.81174">
        <ele>2396.58</ele>
        <time>2016-03-24T10:20:39Z</time>
      </trkpt>
      <trkpt lat="45.57358" lon="6.81193">
        <ele>2400.31</ele>
        <time>2016-03-24T10:22:18Z</time>
      </trkpt>
      <trkpt lat="45.57376" lon="6.81188">
        <ele>2390.82</ele>
        <time>2016-03-24T10:22:27Z</time>
      </trkpt>
      <trkpt lat="45.57392" lon="6.81172">
        <ele>2384.59</ele>
        <time>2016-03-24T10:22:33Z</time>
      </trkpt>
      <trkpt lat="45.57406" lon="6.81153">
        <ele>2374.57</ele>
        <time>2016-03-24T10:22:48Z</time>
      </trkpt>
      <trkpt lat="45.57423" lon="6.81143">
        <ele>2366.57</ele>
        <time>2016-03-24T10:23:04Z</time>
      </trkpt>
      <trkpt lat="45.57429" lon="6.81118">
        <ele>2353.38</ele>
        <time>2016-03-24T10:23:31Z</time>
      </trkpt>
      <trkpt lat="45.5745" lon="6.81112">
        <ele>2344.54</ele>
        <time>2016-03-24T10:23:53Z</time>
      </trkpt>
      <trkpt lat="45.57461" lon="6.81092">
        <ele>2336.59</ele>
        <time>2016-03-24T10:24:06Z</time>
      </trkpt>
      <trkpt lat="45.5746" lon="6.81066">
        <ele>2327.71</ele>
        <time>2016-03-24T10:24:40Z</time>
      </trkpt>
      <trkpt lat="45.57477" lon="6.81059">
        <ele>2317.73</ele>
        <time>2016-03-24T10:25:19Z</time>
      </trkpt>
      <trkpt lat="45.5748" lon="6.81033">
        <ele>2303.05</ele>
        <time>2016-03-24T10:25:42Z</time>
      </trkpt>
      <trkpt lat="45.57499" lon="6.81023">
        <ele>2291.54</ele>
        <time>2016-03-24T10:25:57Z</time>
      </trkpt>
      <trkpt lat="45.57502" lon="6.80996">
        <ele>2279.78</ele>
        <time>2016-03-24T10:26:12Z</time>
      </trkpt>
      <trkpt lat="45.57496" lon="6.8097">
        <ele>2275.17</ele>
        <time>2016-03-24T10:26:30Z</time>
      </trkpt>
      <trkpt lat="45.5749" lon="6.80943">
        <ele>2267.53</ele>
        <time>2016-03-24T10:26:47Z</time>
      </trkpt>
      <trkpt lat="45.57508" lon="6.80939">
        <ele>2260.17</ele>
        <time>2016-03-24T10:26:52Z</time>
      </trkpt>
      <trkpt lat="45.57523" lon="6.80916">
        <ele>2253.63</ele>
        <time>2016-03-24T10:26:57Z</time>
      </trkpt>
      <trkpt lat="45.57523" lon="6.80883">
        <ele>2250.14</ele>
        <time>2016-03-24T10:27:00Z</time>
      </trkpt>
      <trkpt lat="45.57536" lon="6.80862">
        <ele>2243.32</ele>
        <time>2016-03-24T10:27:02Z</time>
      </trkpt>
      <trkpt lat="45.57533" lon="6.80826">
        <ele>2237.83</ele>
        <time>2016-03-24T10:27:05Z</time>
      </trkpt>
      <trkpt lat="45.57538" lon="6.8079">
        <ele>2235.61</ele>
        <time>2016-03-24T10:27:08Z</time>
      </trkpt>
      <trkpt lat="45.57537" lon="6.80764">
        <ele>2233.77</ele>
        <time>2016-03-24T10:27:11Z</time>
      </trkpt>
      <trkpt lat="45.57542" lon="6.80737">
        <ele>2228.57</ele>
        <time>2016-03-24T10:28:26Z</time>
      </trkpt>
      <trkpt lat="45.57543" lon="6.80708">
        <ele>2224.47</ele>
        <time>2016-03-24T10:28:30Z</time>
      </trkpt>
      <trkpt lat="45.57555" lon="6.80679">
        <ele>2220.02</ele>
        <time>2016-03-24T10:28:33Z</time>
      </trkpt>
      <trkpt lat="45.5757" lon="6.8065">
        <ele>2217.58</ele>
        <time>2016-03-24T10:28:36Z</time>
      </trkpt>
      <trkpt lat="45.57592" lon="6.80639">
        <ele>2214.65</ele>
        <time>2016-03-24T10:28:39Z</time>
      </trkpt>
      <trkpt lat="45.57617" lon="6.80626">
        <ele>2212.58</ele>
        <time>2016-03-24T10:28:42Z</time>
      </trkpt>
      <trkpt lat="45.57637" lon="6.8063">
        <ele>2212.56</ele>
        <time>2016-03-24T10:28:45Z</time>
      </trkpt>
      <trkpt lat="45.5766" lon="6.80637">
        <ele>2199.78</ele>
        <time>2016-03-24T10:29:13Z</time>
      </trkpt>
      <trkpt lat="45.57679" lon="6.80624">
        <ele>2196.78</ele>
        <time>2016-03-24T10:29:17Z</time>
      </trkpt>
      <trkpt lat="45.57699" lon="6.80597">
        <ele>2193.58</ele>
        <time>2016-03-24T10:29:21Z</time>
      </trkpt>
      <trkpt lat="45.57715" lon="6.80576">
        <ele>2192.73</ele>
        <time>2016-03-24T10:29:23Z</time>
      </trkpt>
      <trkpt lat="45.57737" lon="6.80552">
        <ele>2190.94</ele>
        <time>2016-03-24T10:29:25Z</time>
      </trkpt>
      <trkpt lat="45.57753" lon="6.80531">
        <ele>2186.87</ele>
        <time>2016-03-24T10:29:27Z</time>
      </trkpt>
      <trkpt lat="45.57768" lon="6.80511">
        <ele>2186.7</ele>
        <time>2016-03-24T10:29:29Z</time>
      </trkpt>
      <trkpt lat="45.57782" lon="6.8049">
        <ele>2185.42</ele>
        <time>2016-03-24T10:29:31Z</time>
      </trkpt>
      <trkpt lat="45.57785" lon="6.80459">
        <ele>2178.01</ele>
        <time>2016-03-24T10:29:33Z</time>
      </trkpt>
      <trkpt lat="45.57799" lon="6.80439">
        <ele>2171.65</ele>
        <time>2016-03-24T10:29:36Z</time>
      </trkpt>
      <trkpt lat="45.57805" lon="6.80406">
        <ele>2166.78</ele>
        <time>2016-03-24T10:29:40Z</time>
      </trkpt>
      <trkpt lat="45.57807" lon="6.80376">
        <ele>2165.38</ele>
        <time>2016-03-24T10:29:43Z</time>
      </trkpt>
      <trkpt lat="45.57806" lon="6.80348">
        <ele>2162.75</ele>
        <time>2016-03-24T10:29:47Z</time>
      </trkpt>
      <trkpt lat="45.57799" lon="6.80322">
        <ele>2160.58</ele>
        <time>2016-03-24T10:29:51Z</time>
      </trkpt>
      <trkpt lat="45.57795" lon="6.8029">
        <ele>2158.57</ele>
        <time>2016-03-24T10:29:55Z</time>
      </trkpt>
      <trkpt lat="45.57801" lon="6.80264">
        <ele>2155.75</ele>
        <time>2016-03-24T10:29:59Z</time>
      </trkpt>
      <trkpt lat="45.57813" lon="6.80241">
        <ele>2153.73</ele>
        <time>2016-03-24T10:30:03Z</time>
      </trkpt>
      <trkpt lat="45.57822" lon="6.80218">
        <ele>2149.98</ele>
        <time>2016-03-24T10:30:06Z</time>
      </trkpt>
      <trkpt lat="45.57832" lon="6.80185">
        <ele>2144.64</ele>
        <time>2016-03-24T10:30:09Z</time>
      </trkpt>
      <trkpt lat="45.57834" lon="6.80156">
        <ele>2141.02</ele>
        <time>2016-03-24T10:30:11Z</time>
      </trkpt>
      <trkpt lat="45.57835" lon="6.80121">
        <ele>2138.79</ele>
        <time>2016-03-24T10:30:13Z</time>
      </trkpt>
      <trkpt lat="45.57839" lon="6.80086">
        <ele>2133.83</ele>
        <time>2016-03-24T10:30:16Z</time>
      </trkpt>
      <trkpt lat="45.57842" lon="6.80054">
        <ele>2121.39</ele>
        <time>2016-03-24T10:30:22Z</time>
      </trkpt>
      <trkpt lat="45.57838" lon="6.80023">
        <ele>2115.83</ele>
        <time>2016-03-24T10:30:25Z</time>
      </trkpt>
      <trkpt lat="45.57828" lon="6.8">
        <ele>2113.78</ele>
        <time>2016-03-24T10:30:27Z</time>
      </trkpt>
      <trkpt lat="45.57843" lon="6.79978">
        <ele>2094.98</ele>
        <time>2016-03-24T10:30:35Z</time>
      </trkpt>
      <trkpt lat="45.5786" lon="6.79967">
        <ele>2090.23</ele>
        <time>2016-03-24T10:30:37Z</time>
      </trkpt>
      <trkpt lat="45.57869" lon="6.79941">
        <ele>2084.99</ele>
        <time>2016-03-24T10:30:40Z</time>
      </trkpt>
      <trkpt lat="45.57857" lon="6.79902">
        <ele>2080.82</ele>
        <time>2016-03-24T10:30:43Z</time>
      </trkpt>
      <trkpt lat="45.57841" lon="6.79877">
        <ele>2075.38</ele>
        <time>2016-03-24T10:30:46Z</time>
      </trkpt>
      <trkpt lat="45.5785" lon="6.79848">
        <ele>2066.19</ele>
        <time>2016-03-24T10:30:51Z</time>
      </trkpt>
      <trkpt lat="45.57873" lon="6.79833">
        <ele>2061.82</ele>
        <time>2016-03-24T10:30:54Z</time>
      </trkpt>
      <trkpt lat="45.57894" lon="6.79836">
        <ele>2057.21</ele>
        <time>2016-03-24T10:30:57Z</time>
      </trkpt>
      <trkpt lat="45.57914" lon="6.79836">
        <ele>2054.74</ele>
        <time>2016-03-24T10:31:00Z</time>
      </trkpt>
      <trkpt lat="45.57934" lon="6.79835">
        <ele>2051.77</ele>
        <time>2016-03-24T10:31:04Z</time>
      </trkpt>
      <trkpt lat="45.57952" lon="6.79834">
        <ele>2048.97</ele>
        <time>2016-03-24T10:31:07Z</time>
      </trkpt>
      <trkpt lat="45.57973" lon="6.79823">
        <ele>2046.15</ele>
        <time>2016-03-24T10:31:09Z</time>
      </trkpt>
      <trkpt lat="45.57993" lon="6.798">
        <ele>2040.6</ele>
        <time>2016-03-24T10:31:11Z</time>
      </trkpt>
      <trkpt lat="45.58012" lon="6.7978">
        <ele>2037.01</ele>
        <time>2016-03-24T10:31:13Z</time>
      </trkpt>
      <trkpt lat="45.58042" lon="6.79773">
        <ele>2032.23</ele>
        <time>2016-03-24T10:31:15Z</time>
      </trkpt>
      <trkpt lat="45.58066" lon="6.7977">
        <ele>2026.6</ele>
        <time>2016-03-24T10:31:17Z</time>
      </trkpt>
      <trkpt lat="45.58092" lon="6.79767">
        <ele>2023.81</ele>
        <time>2016-03-24T10:31:19Z</time>
      </trkpt>
      <trkpt lat="45.58116" lon="6.79765">
        <ele>2022.58</ele>
        <time>2016-03-24T10:31:21Z</time>
      </trkpt>
      <trkpt lat="45.5814" lon="6.79758">
        <ele>2021.57</ele>
        <time>2016-03-24T10:31:23Z</time>
      </trkpt>
      <trkpt lat="45.58163" lon="6.79752">
        <ele>2020.57</ele>
        <time>2016-03-24T10:31:25Z</time>
      </trkpt>
      <trkpt lat="45.58188" lon="6.79744">
        <ele>2012.08</ele>
        <time>2016-03-24T10:31:28Z</time>
      </trkpt>
      <trkpt lat="45.58206" lon="6.79739">
        <ele>2010.59</ele>
        <time>2016-03-24T10:31:30Z</time>
      </trkpt>
      <trkpt lat="45.58224" lon="6.79737">
        <ele>2008.77</ele>
        <time>2016-03-24T10:31:32Z</time>
      </trkpt>
      <trkpt lat="45.58244" lon="6.79742">
        <ele>1999.78</ele>
        <time>2016-03-24T10:31:36Z</time>
      </trkpt>
      <trkpt lat="45.58266" lon="6.79745">
        <ele>1996.94</ele>
        <time>2016-03-24T10:31:39Z</time>
      </trkpt>
      <trkpt lat="45.58287" lon="6.79752">
        <ele>1996.53</ele>
        <time>2016-03-24T10:31:42Z</time>
      </trkpt>
      <trkpt lat="45.58305" lon="6.79762">
        <ele>1994.93</ele>
        <time>2016-03-24T10:31:45Z</time>
      </trkpt>
      <trkpt lat="45.58328" lon="6.79773">
        <ele>1992.77</ele>
        <time>2016-03-24T10:31:48Z</time>
      </trkpt>
      <trkpt lat="45.58346" lon="6.79783">
        <ele>1989.75</ele>
        <time>2016-03-24T10:31:51Z</time>
      </trkpt>
      <trkpt lat="45.58367" lon="6.79791">
        <ele>1988.92</ele>
        <time>2016-03-24T10:31:54Z</time>
      </trkpt>
      <trkpt lat="45.5839" lon="6.79801">
        <ele>1986.77</ele>
        <time>2016-03-24T10:31:57Z</time>
      </trkpt>
      <trkpt lat="45.58411" lon="6.7981">
        <ele>1983.78</ele>
        <time>2016-03-24T10:32:00Z</time>
      </trkpt>
      <trkpt lat="45.58433" lon="6.79817">
        <ele>1980.56</ele>
        <time>2016-03-24T10:32:03Z</time>
      </trkpt>
      <trkpt lat="45.58453" lon="6.79824">
        <ele>1977.59</ele>
        <time>2016-03-24T10:32:06Z</time>
      </trkpt>
      <trkpt lat="45.58475" lon="6.79829">
        <ele>1976.57</ele>
        <time>2016-03-24T10:32:09Z</time>
      </trkpt>
      <trkpt lat="45.58496" lon="6.79833">
        <ele>1973.78</ele>
        <time>2016-03-24T10:32:12Z</time>
      </trkpt>
      <trkpt lat="45.58517" lon="6.79839">
        <ele>1969.79</ele>
        <time>2016-03-24T10:32:15Z</time>
      </trkpt>
      <trkpt lat="45.5854" lon="6.79845">
        <ele>1968.73</ele>
        <time>2016-03-24T10:32:18Z</time>
      </trkpt>
      <trkpt lat="45.58562" lon="6.79851">
        <ele>1966.93</ele>
        <time>2016-03-24T10:32:21Z</time>
      </trkpt>
      <trkpt lat="45.58585" lon="6.79858">
        <ele>1964.58</ele>
        <time>2016-03-24T10:32:24Z</time>
      </trkpt>
      <trkpt lat="45.58606" lon="6.79874">
        <ele>1962.58</ele>
        <time>2016-03-24T10:32:27Z</time>
      </trkpt>
      <trkpt lat="45.58623" lon="6.79896">
        <ele>1961.57</ele>
        <time>2016-03-24T10:32:30Z</time>
      </trkpt>
      <trkpt lat="45.58638" lon="6.79919">
        <ele>1958.78</ele>
        <time>2016-03-24T10:32:33Z</time>
      </trkpt>
      <trkpt lat="45.58652" lon="6.79944">
        <ele>1955.01</ele>
        <time>2016-03-24T10:32:36Z</time>
      </trkpt>
      <trkpt lat="45.58667" lon="6.79962">
        <ele>1952.58</ele>
        <time>2016-03-24T10:32:39Z</time>
      </trkpt>
      <trkpt lat="45.58684" lon="6.79983">
        <ele>1950.74</ele>
        <time>2016-03-24T10:32:42Z</time>
      </trkpt>
      <trkpt lat="45.58703" lon="6.80002">
        <ele>1949.57</ele>
        <time>2016-03-24T10:32:45Z</time>
      </trkpt>
      <trkpt lat="45.58721" lon="6.80028">
        <ele>1945.02</ele>
        <time>2016-03-24T10:32:48Z</time>
      </trkpt>
      <trkpt lat="45.58744" lon="6.80041">
        <ele>1942.97</ele>
        <time>2016-03-24T10:32:51Z</time>
      </trkpt>
      <trkpt lat="45.58762" lon="6.80044">
        <ele>1941.75</ele>
        <time>2016-03-24T10:32:53Z</time>
      </trkpt>
      <trkpt lat="45.58782" lon="6.80047">
        <ele>1939.78</ele>
        <time>2016-03-24T10:32:55Z</time>
      </trkpt>
      <trkpt lat="45.58802" lon="6.80044">
        <ele>1935.22</ele>
        <time>2016-03-24T10:32:57Z</time>
      </trkpt>
      <trkpt lat="45.58823" lon="6.80041">
        <ele>1932</ele>
        <time>2016-03-24T10:32:59Z</time>
      </trkpt>
      <trkpt lat="45.58842" lon="6.80037">
        <ele>1930.59</ele>
        <time>2016-03-24T10:33:01Z</time>
      </trkpt>
      <trkpt lat="45.58863" lon="6.80036">
        <ele>1927.01</ele>
        <time>2016-03-24T10:33:03Z</time>
      </trkpt>
      <trkpt lat="45.58885" lon="6.80035">
        <ele>1924.79</ele>
        <time>2016-03-24T10:33:05Z</time>
      </trkpt>
      <trkpt lat="45.58906" lon="6.80037">
        <ele>1919</ele>
        <time>2016-03-24T10:33:08Z</time>
      </trkpt>
      <trkpt lat="45.58929" lon="6.80041">
        <ele>1911.91</ele>
        <time>2016-03-24T10:33:11Z</time>
      </trkpt>
      <trkpt lat="45.58947" lon="6.80047">
        <ele>1910.59</ele>
        <time>2016-03-24T10:33:13Z</time>
      </trkpt>
      <trkpt lat="45.5897" lon="6.80063">
        <ele>1907.59</ele>
        <time>2016-03-24T10:33:16Z</time>
      </trkpt>
      <trkpt lat="45.58991" lon="6.80078">
        <ele>1904.78</ele>
        <time>2016-03-24T10:33:19Z</time>
      </trkpt>
      <trkpt lat="45.59012" lon="6.80094">
        <ele>1901.75</ele>
        <time>2016-03-24T10:33:22Z</time>
      </trkpt>
      <trkpt lat="45.59036" lon="6.80107">
        <ele>1899.77</ele>
        <time>2016-03-24T10:33:25Z</time>
      </trkpt>
      <trkpt lat="45.59055" lon="6.80114">
        <ele>1898.54</ele>
        <time>2016-03-24T10:33:28Z</time>
      </trkpt>
      <trkpt lat="45.59075" lon="6.80122">
        <ele>1897.35</ele>
        <time>2016-03-24T10:33:31Z</time>
      </trkpt>
      <trkpt lat="45.591" lon="6.80132">
        <ele>1893.78</ele>
        <time>2016-03-24T10:33:35Z</time>
      </trkpt>
      <trkpt lat="45.59119" lon="6.80138">
        <ele>1893.54</ele>
        <time>2016-03-24T10:33:37Z</time>
      </trkpt>
      <trkpt lat="45.59142" lon="6.80144">
        <ele>1891.93</ele>
        <time>2016-03-24T10:33:40Z</time>
      </trkpt>
      <trkpt lat="45.59168" lon="6.80147">
        <ele>1890.77</ele>
        <time>2016-03-24T10:33:43Z</time>
      </trkpt>
      <trkpt lat="45.59189" lon="6.80155">
        <ele>1886.4</ele>
        <time>2016-03-24T10:33:46Z</time>
      </trkpt>
      <trkpt lat="45.59212" lon="6.80158">
        <ele>1885.12</ele>
        <time>2016-03-24T10:33:49Z</time>
      </trkpt>
      <trkpt lat="45.59233" lon="6.80161">
        <ele>1881.62</ele>
        <time>2016-03-24T10:33:52Z</time>
      </trkpt>
      <trkpt lat="45.59256" lon="6.80169">
        <ele>1876.99</ele>
        <time>2016-03-24T10:33:55Z</time>
      </trkpt>
      <trkpt lat="45.59283" lon="6.80182">
        <ele>1875.57</ele>
        <time>2016-03-24T10:33:58Z</time>
      </trkpt>
      <trkpt lat="45.59302" lon="6.80192">
        <ele>1875.53</ele>
        <time>2016-03-24T10:34:00Z</time>
      </trkpt>
      <trkpt lat="45.5932" lon="6.80207">
        <ele>1875.53</ele>
        <time>2016-03-24T10:34:02Z</time>
      </trkpt>
      <trkpt lat="45.59342" lon="6.80229">
        <ele>1872.59</ele>
        <time>2016-03-24T10:34:05Z</time>
      </trkpt>
      <trkpt lat="45.5936" lon="6.80243">
        <ele>1869.81</ele>
        <time>2016-03-24T10:34:07Z</time>
      </trkpt>
      <trkpt lat="45.59377" lon="6.80253">
        <ele>1869.7</ele>
        <time>2016-03-24T10:34:09Z</time>
      </trkpt>
      <trkpt lat="45.59391" lon="6.80279">
        <ele>1867.61</ele>
        <time>2016-03-24T10:34:12Z</time>
      </trkpt>
      <trkpt lat="45.59398" lon="6.80251">
        <ele>1858.65</ele>
        <time>2016-03-24T10:34:24Z</time>
      </trkpt>
      <trkpt lat="45.59422" lon="6.80246">
        <ele>1855.59</ele>
        <time>2016-03-24T10:34:27Z</time>
      </trkpt>
      <trkpt lat="45.59447" lon="6.80253">
        <ele>1851.82</ele>
        <time>2016-03-24T10:34:30Z</time>
      </trkpt>
      <trkpt lat="45.5947" lon="6.80259">
        <ele>1849.78</ele>
        <time>2016-03-24T10:34:32Z</time>
      </trkpt>
      <trkpt lat="45.59499" lon="6.80267">
        <ele>1842.08</ele>
        <time>2016-03-24T10:34:35Z</time>
      </trkpt>
      <trkpt lat="45.59521" lon="6.80276">
        <ele>1839.15</ele>
        <time>2016-03-24T10:34:37Z</time>
      </trkpt>
      <trkpt lat="45.59539" lon="6.80287">
        <ele>1836</ele>
        <time>2016-03-24T10:34:39Z</time>
      </trkpt>
      <trkpt lat="45.59559" lon="6.80305">
        <ele>1833.58</ele>
        <time>2016-03-24T10:34:42Z</time>
      </trkpt>
      <trkpt lat="45.5958" lon="6.80307">
        <ele>1833.53</ele>
        <time>2016-03-24T10:34:44Z</time>
      </trkpt>
      <trkpt lat="45.596" lon="6.80306">
        <ele>1832.57</ele>
        <time>2016-03-24T10:34:46Z</time>
      </trkpt>
      <trkpt lat="45.59617" lon="6.80299">
        <ele>1825.49</ele>
        <time>2016-03-24T10:34:48Z</time>
      </trkpt>
      <trkpt lat="45.5963" lon="6.8028">
        <ele>1819.29</ele>
        <time>2016-03-24T10:34:50Z</time>
      </trkpt>
      <trkpt lat="45.59643" lon="6.80256">
        <ele>1815.04</ele>
        <time>2016-03-24T10:34:52Z</time>
      </trkpt>
      <trkpt lat="45.59646" lon="6.80226">
        <ele>1811.99</ele>
        <time>2016-03-24T10:34:54Z</time>
      </trkpt>
      <trkpt lat="45.59647" lon="6.80195">
        <ele>1808.03</ele>
        <time>2016-03-24T10:34:56Z</time>
      </trkpt>
      <trkpt lat="45.59639" lon="6.80166">
        <ele>1805.79</ele>
        <time>2016-03-24T10:34:58Z</time>
      </trkpt>
      <trkpt lat="45.59626" lon="6.80135">
        <ele>1803.62</ele>
        <time>2016-03-24T10:35:00Z</time>
      </trkpt>
      <trkpt lat="45.59614" lon="6.80103">
        <ele>1791.94</ele>
        <time>2016-03-24T10:35:04Z</time>
      </trkpt>
      <trkpt lat="45.59607" lon="6.80079">
        <ele>1786.57</ele>
        <time>2016-03-24T10:35:11Z</time>
      </trkpt>
      <trkpt lat="45.59593" lon="6.80058">
        <ele>1787.48</ele>
        <time>2016-03-24T10:35:17Z</time>
      </trkpt>
      <trkpt lat="45.59575" lon="6.80041">
        <ele>1786.53</ele>
        <time>2016-03-24T10:35:22Z</time>
      </trkpt>
      <trkpt lat="45.59557" lon="6.80029">
        <ele>1785.73</ele>
        <time>2016-03-24T10:35:25Z</time>
      </trkpt>
      <trkpt lat="45.59536" lon="6.80016">
        <ele>1783.77</ele>
        <time>2016-03-24T10:35:28Z</time>
      </trkpt>
      <trkpt lat="45.59514" lon="6.80001">
        <ele>1781.58</ele>
        <time>2016-03-24T10:35:31Z</time>
      </trkpt>
      <trkpt lat="45.59491" lon="6.79994">
        <ele>1776.83</ele>
        <time>2016-03-24T10:35:34Z</time>
      </trkpt>
      <trkpt lat="45.59468" lon="6.79987">
        <ele>1774.58</ele>
        <time>2016-03-24T10:35:37Z</time>
      </trkpt>
      <trkpt lat="45.59445" lon="6.79982">
        <ele>1771.62</ele>
        <time>2016-03-24T10:35:40Z</time>
      </trkpt>
      <trkpt lat="45.59425" lon="6.79969">
        <ele>1770.57</ele>
        <time>2016-03-24T10:35:43Z</time>
      </trkpt>
      <trkpt lat="45.59405" lon="6.79955">
        <ele>1769.73</ele>
        <time>2016-03-24T10:35:46Z</time>
      </trkpt>
      <trkpt lat="45.59382" lon="6.79943">
        <ele>1767.97</ele>
        <time>2016-03-24T10:35:50Z</time>
      </trkpt>
      <trkpt lat="45.5936" lon="6.79934">
        <ele>1766.53</ele>
        <time>2016-03-24T10:35:54Z</time>
      </trkpt>
      <trkpt lat="45.5934" lon="6.79928">
        <ele>1763.78</ele>
        <time>2016-03-24T10:35:57Z</time>
      </trkpt>
      <trkpt lat="45.59323" lon="6.79909">
        <ele>1761.74</ele>
        <time>2016-03-24T10:36:00Z</time>
      </trkpt>
      <trkpt lat="45.59325" lon="6.79878">
        <ele>1756.78</ele>
        <time>2016-03-24T10:36:04Z</time>
      </trkpt>
      <trkpt lat="45.59339" lon="6.79857">
        <ele>1750.34</ele>
        <time>2016-03-24T10:36:08Z</time>
      </trkpt>
      <trkpt lat="45.59361" lon="6.79834">
        <ele>1744.99</ele>
        <time>2016-03-24T10:36:11Z</time>
      </trkpt>
      <trkpt lat="45.59376" lon="6.79809">
        <ele>1741.19</ele>
        <time>2016-03-24T10:36:13Z</time>
      </trkpt>
      <trkpt lat="45.59397" lon="6.79792">
        <ele>1738</ele>
        <time>2016-03-24T10:36:15Z</time>
      </trkpt>
      <trkpt lat="45.59414" lon="6.79769">
        <ele>1734.03</ele>
        <time>2016-03-24T10:36:17Z</time>
      </trkpt>
      <trkpt lat="45.59425" lon="6.79737">
        <ele>1729.07</ele>
        <time>2016-03-24T10:36:19Z</time>
      </trkpt>
      <trkpt lat="45.59441" lon="6.79711">
        <ele>1723.59</ele>
        <time>2016-03-24T10:36:21Z</time>
      </trkpt>
      <trkpt lat="45.59445" lon="6.79682">
        <ele>1711.69</ele>
        <time>2016-03-24T10:36:23Z</time>
      </trkpt>
      <trkpt lat="45.59464" lon="6.79663">
        <ele>1707.06</ele>
        <time>2016-03-24T10:36:25Z</time>
      </trkpt>
      <trkpt lat="45.59479" lon="6.79639">
        <ele>1703.99</ele>
        <time>2016-03-24T10:36:27Z</time>
      </trkpt>
      <trkpt lat="45.59494" lon="6.79612">
        <ele>1698.43</ele>
        <time>2016-03-24T10:36:29Z</time>
      </trkpt>
      <trkpt lat="45.59508" lon="6.79583">
        <ele>1693.41</ele>
        <time>2016-03-24T10:36:31Z</time>
      </trkpt>
      <trkpt lat="45.5952" lon="6.79549">
        <ele>1688.09</ele>
        <time>2016-03-24T10:36:33Z</time>
      </trkpt>
      <trkpt lat="45.59534" lon="6.79531">
        <ele>1683.87</ele>
        <time>2016-03-24T10:36:35Z</time>
      </trkpt>
      <trkpt lat="45.59552" lon="6.7952">
        <ele>1680.02</ele>
        <time>2016-03-24T10:36:37Z</time>
      </trkpt>
      <trkpt lat="45.59564" lon="6.795">
        <ele>1673.31</ele>
        <time>2016-03-24T10:36:39Z</time>
      </trkpt>
      <trkpt lat="45.59589" lon="6.79487">
        <ele>1667.99</ele>
        <time>2016-03-24T10:36:42Z</time>
      </trkpt>
      <trkpt lat="45.596" lon="6.79467">
        <ele>1658.4</ele>
        <time>2016-03-24T10:36:46Z</time>
      </trkpt>
      <trkpt lat="45.59619" lon="6.79467">
        <ele>1638.78</ele>
        <time>2016-03-24T10:37:15Z</time>
      </trkpt>
      <trkpt lat="45.59623" lon="6.79496">
        <ele>1633.49</ele>
        <time>2016-03-24T10:38:14Z</time>
      </trkpt>
      <trkpt lat="45.5961" lon="6.79517">
        <ele>1635.29</ele>
        <time>2016-03-24T10:38:19Z</time>
      </trkpt>
      <trkpt lat="45.59596" lon="6.79535">
        <ele>1650.58</ele>
        <time>2016-03-24T10:38:24Z</time>
      </trkpt>
      <trkpt lat="45.59585" lon="6.79558">
        <ele>1653.29</ele>
        <time>2016-03-24T10:38:29Z</time>
      </trkpt>
      <trkpt lat="45.59573" lon="6.79579">
        <ele>1661</ele>
        <time>2016-03-24T10:38:34Z</time>
      </trkpt>
      <trkpt lat="45.59561" lon="6.79599">
        <ele>1667.32</ele>
        <time>2016-03-24T10:38:39Z</time>
      </trkpt>
      <trkpt lat="45.59548" lon="6.79619">
        <ele>1675.07</ele>
        <time>2016-03-24T10:38:44Z</time>
      </trkpt>
      <trkpt lat="45.59537" lon="6.79639">
        <ele>1684.99</ele>
        <time>2016-03-24T10:38:49Z</time>
      </trkpt>
      <trkpt lat="45.59526" lon="6.7966">
        <ele>1693.04</ele>
        <time>2016-03-24T10:38:54Z</time>
      </trkpt>
      <trkpt lat="45.59512" lon="6.79682">
        <ele>1697.48</ele>
        <time>2016-03-24T10:39:00Z</time>
      </trkpt>
      <trkpt lat="45.59499" lon="6.79704">
        <ele>1701.12</ele>
        <time>2016-03-24T10:39:05Z</time>
      </trkpt>
      <trkpt lat="45.59486" lon="6.79723">
        <ele>1703.33</ele>
        <time>2016-03-24T10:39:10Z</time>
      </trkpt>
      <trkpt lat="45.59474" lon="6.79743">
        <ele>1704.33</ele>
        <time>2016-03-24T10:39:15Z</time>
      </trkpt>
      <trkpt lat="45.59461" lon="6.79765">
        <ele>1708.28</ele>
        <time>2016-03-24T10:39:20Z</time>
      </trkpt>
      <trkpt lat="45.59447" lon="6.79785">
        <ele>1714.27</ele>
        <time>2016-03-24T10:39:25Z</time>
      </trkpt>
      <trkpt lat="45.59433" lon="6.79805">
        <ele>1717.32</ele>
        <time>2016-03-24T10:39:30Z</time>
      </trkpt>
      <trkpt lat="45.59421" lon="6.79826">
        <ele>1722.08</ele>
        <time>2016-03-24T10:39:35Z</time>
      </trkpt>
      <trkpt lat="45.5941" lon="6.79848">
        <ele>1729.44</ele>
        <time>2016-03-24T10:39:40Z</time>
      </trkpt>
      <trkpt lat="45.59397" lon="6.79867">
        <ele>1737.2</ele>
        <time>2016-03-24T10:39:45Z</time>
      </trkpt>
      <trkpt lat="45.59385" lon="6.79888">
        <ele>1744.24</ele>
        <time>2016-03-24T10:39:50Z</time>
      </trkpt>
      <trkpt lat="45.59371" lon="6.79906">
        <ele>1752.07</ele>
        <time>2016-03-24T10:39:55Z</time>
      </trkpt>
      <trkpt lat="45.59359" lon="6.79925">
        <ele>1758.47</ele>
        <time>2016-03-24T10:40:00Z</time>
      </trkpt>
      <trkpt lat="45.59347" lon="6.79949">
        <ele>1764.08</ele>
        <time>2016-03-24T10:40:06Z</time>
      </trkpt>
      <trkpt lat="45.59335" lon="6.79969">
        <ele>1771.24</ele>
        <time>2016-03-24T10:40:11Z</time>
      </trkpt>
      <trkpt lat="45.59323" lon="6.79991">
        <ele>1779.03</ele>
        <time>2016-03-24T10:40:16Z</time>
      </trkpt>
      <trkpt lat="45.5931" lon="6.80013">
        <ele>1786.09</ele>
        <time>2016-03-24T10:40:22Z</time>
      </trkpt>
      <trkpt lat="45.59295" lon="6.80034">
        <ele>1798.07</ele>
        <time>2016-03-24T10:40:28Z</time>
      </trkpt>
      <trkpt lat="45.59281" lon="6.80055">
        <ele>1808.03</ele>
        <time>2016-03-24T10:40:34Z</time>
      </trkpt>
      <trkpt lat="45.59269" lon="6.8008">
        <ele>1814.27</ele>
        <time>2016-03-24T10:40:41Z</time>
      </trkpt>
      <trkpt lat="45.59256" lon="6.80101">
        <ele>1821.71</ele>
        <time>2016-03-24T10:40:46Z</time>
      </trkpt>
      <trkpt lat="45.59242" lon="6.80121">
        <ele>1834</ele>
        <time>2016-03-24T10:40:51Z</time>
      </trkpt>
      <trkpt lat="45.59229" lon="6.80138">
        <ele>1843.24</ele>
        <time>2016-03-24T10:40:57Z</time>
      </trkpt>
      <trkpt lat="45.59219" lon="6.80164">
        <ele>1852.88</ele>
        <time>2016-03-24T10:41:02Z</time>
      </trkpt>
      <trkpt lat="45.59206" lon="6.80185">
        <ele>1865.19</ele>
        <time>2016-03-24T10:41:08Z</time>
      </trkpt>
      <trkpt lat="45.59192" lon="6.80204">
        <ele>1874</ele>
        <time>2016-03-24T10:41:14Z</time>
      </trkpt>
      <trkpt lat="45.59179" lon="6.80225">
        <ele>1885.18</ele>
        <time>2016-03-24T10:41:20Z</time>
      </trkpt>
      <trkpt lat="45.59168" lon="6.80246">
        <ele>1893.83</ele>
        <time>2016-03-24T10:41:25Z</time>
      </trkpt>
      <trkpt lat="45.59154" lon="6.80268">
        <ele>1905.96</ele>
        <time>2016-03-24T10:41:31Z</time>
      </trkpt>
      <trkpt lat="45.59142" lon="6.80288">
        <ele>1913.24</ele>
        <time>2016-03-24T10:41:37Z</time>
      </trkpt>
      <trkpt lat="45.59126" lon="6.80303">
        <ele>1922.93</ele>
        <time>2016-03-24T10:41:43Z</time>
      </trkpt>
      <trkpt lat="45.59112" lon="6.80325">
        <ele>1933.8</ele>
        <time>2016-03-24T10:41:48Z</time>
      </trkpt>
      <trkpt lat="45.591" lon="6.80346">
        <ele>1943.87</ele>
        <time>2016-03-24T10:41:53Z</time>
      </trkpt>
      <trkpt lat="45.59086" lon="6.8037">
        <ele>1952.12</ele>
        <time>2016-03-24T10:41:59Z</time>
      </trkpt>
      <trkpt lat="45.59071" lon="6.80394">
        <ele>1961.84</ele>
        <time>2016-03-24T10:42:05Z</time>
      </trkpt>
      <trkpt lat="45.59056" lon="6.80415">
        <ele>1970.29</ele>
        <time>2016-03-24T10:42:11Z</time>
      </trkpt>
      <trkpt lat="45.59044" lon="6.80438">
        <ele>1978.08</ele>
        <time>2016-03-24T10:42:16Z</time>
      </trkpt>
      <trkpt lat="45.59031" lon="6.8046">
        <ele>1988.83</ele>
        <time>2016-03-24T10:42:21Z</time>
      </trkpt>
      <trkpt lat="45.5902" lon="6.80481">
        <ele>1997.28</ele>
        <time>2016-03-24T10:42:26Z</time>
      </trkpt>
      <trkpt lat="45.59008" lon="6.80502">
        <ele>2003.28</ele>
        <time>2016-03-24T10:42:31Z</time>
      </trkpt>
      <trkpt lat="45.58995" lon="6.80525">
        <ele>2011.24</ele>
        <time>2016-03-24T10:42:37Z</time>
      </trkpt>
      <trkpt lat="45.58981" lon="6.80547">
        <ele>2020.21</ele>
        <time>2016-03-24T10:42:43Z</time>
      </trkpt>
      <trkpt lat="45.58968" lon="6.80568">
        <ele>2027.88</ele>
        <time>2016-03-24T10:42:48Z</time>
      </trkpt>
      <trkpt lat="45.58954" lon="6.8059">
        <ele>2038.83</ele>
        <time>2016-03-24T10:42:53Z</time>
      </trkpt>
      <trkpt lat="45.58941" lon="6.80611">
        <ele>2045.93</ele>
        <time>2016-03-24T10:42:58Z</time>
      </trkpt>
      <trkpt lat="45.58927" lon="6.80636">
        <ele>2056.83</ele>
        <time>2016-03-24T10:43:04Z</time>
      </trkpt>
      <trkpt lat="45.58915" lon="6.80657">
        <ele>2067.04</ele>
        <time>2016-03-24T10:43:09Z</time>
      </trkpt>
      <trkpt lat="45.58904" lon="6.80677">
        <ele>2076.87</ele>
        <time>2016-03-24T10:43:14Z</time>
      </trkpt>
      <trkpt lat="45.58891" lon="6.807">
        <ele>2085.85</ele>
        <time>2016-03-24T10:43:20Z</time>
      </trkpt>
      <trkpt lat="45.58878" lon="6.80723">
        <ele>2096.26</ele>
        <time>2016-03-24T10:43:26Z</time>
      </trkpt>
      <trkpt lat="45.58867" lon="6.80743">
        <ele>2105.82</ele>
        <time>2016-03-24T10:43:31Z</time>
      </trkpt>
      <trkpt lat="45.58854" lon="6.80763">
        <ele>2117.48</ele>
        <time>2016-03-24T10:43:36Z</time>
      </trkpt>
      <trkpt lat="45.58843" lon="6.80783">
        <ele>2129.98</ele>
        <time>2016-03-24T10:43:41Z</time>
      </trkpt>
      <trkpt lat="45.5883" lon="6.80802">
        <ele>2141.19</ele>
        <time>2016-03-24T10:43:46Z</time>
      </trkpt>
      <trkpt lat="45.58817" lon="6.80824">
        <ele>2151.07</ele>
        <time>2016-03-24T10:43:52Z</time>
      </trkpt>
      <trkpt lat="45.58804" lon="6.80842">
        <ele>2158.04</ele>
        <time>2016-03-24T10:43:57Z</time>
      </trkpt>
      <trkpt lat="45.58792" lon="6.80863">
        <ele>2165.04</ele>
        <time>2016-03-24T10:44:02Z</time>
      </trkpt>
      <trkpt lat="45.5878" lon="6.80887">
        <ele>2172.08</ele>
        <time>2016-03-24T10:44:08Z</time>
      </trkpt>
      <trkpt lat="45.58765" lon="6.80911">
        <ele>2186.66</ele>
        <time>2016-03-24T10:44:14Z</time>
      </trkpt>
      <trkpt lat="45.58752" lon="6.80932">
        <ele>2197.24</ele>
        <time>2016-03-24T10:44:20Z</time>
      </trkpt>
      <trkpt lat="45.58739" lon="6.8095">
        <ele>2208.2</ele>
        <time>2016-03-24T10:44:26Z</time>
      </trkpt>
      <trkpt lat="45.58726" lon="6.80971">
        <ele>2216.28</ele>
        <time>2016-03-24T10:44:32Z</time>
      </trkpt>
      <trkpt lat="45.58713" lon="6.80992">
        <ele>2232.47</ele>
        <time>2016-03-24T10:44:38Z</time>
      </trkpt>
      <trkpt lat="45.58699" lon="6.81013">
        <ele>2257.54</ele>
        <time>2016-03-24T10:44:44Z</time>
      </trkpt>
      <trkpt lat="45.58686" lon="6.81032">
        <ele>2265.53</ele>
        <time>2016-03-24T10:44:50Z</time>
      </trkpt>
      <trkpt lat="45.58688" lon="6.81058">
        <ele>2269.52</ele>
        <time>2016-03-24T10:45:07Z</time>
      </trkpt>
      <trkpt lat="45.58702" lon="6.81077">
        <ele>2273.64</ele>
        <time>2016-03-24T10:45:29Z</time>
      </trkpt>
      <trkpt lat="45.5872" lon="6.81084">
        <ele>2267.56</ele>
        <time>2016-03-24T10:45:46Z</time>
      </trkpt>
      <trkpt lat="45.58739" lon="6.81085">
        <ele>2262.81</ele>
        <time>2016-03-24T10:46:13Z</time>
      </trkpt>
      <trkpt lat="45.58752" lon="6.81066">
        <ele>2254.83</ele>
        <time>2016-03-24T10:46:18Z</time>
      </trkpt>
      <trkpt lat="45.58755" lon="6.81037">
        <ele>2252.54</ele>
        <time>2016-03-24T10:46:27Z</time>
      </trkpt>
      <trkpt lat="45.58741" lon="6.81012">
        <ele>2248.82</ele>
        <time>2016-03-24T10:46:30Z</time>
      </trkpt>
      <trkpt lat="45.58729" lon="6.80992">
        <ele>2245.18</ele>
        <time>2016-03-24T10:46:32Z</time>
      </trkpt>
      <trkpt lat="45.58714" lon="6.80973">
        <ele>2241.84</ele>
        <time>2016-03-24T10:46:34Z</time>
      </trkpt>
      <trkpt lat="45.58699" lon="6.80955">
        <ele>2238.98</ele>
        <time>2016-03-24T10:46:36Z</time>
      </trkpt>
      <trkpt lat="45.5868" lon="6.80941">
        <ele>2234.55</ele>
        <time>2016-03-24T10:46:38Z</time>
      </trkpt>
      <trkpt lat="45.58663" lon="6.80928">
        <ele>2231.81</ele>
        <time>2016-03-24T10:46:40Z</time>
      </trkpt>
      <trkpt lat="45.58645" lon="6.80912">
        <ele>2229.78</ele>
        <time>2016-03-24T10:46:42Z</time>
      </trkpt>
      <trkpt lat="45.58626" lon="6.80898">
        <ele>2227.78</ele>
        <time>2016-03-24T10:46:44Z</time>
      </trkpt>
      <trkpt lat="45.5861" lon="6.80878">
        <ele>2225.78</ele>
        <time>2016-03-24T10:46:46Z</time>
      </trkpt>
      <trkpt lat="45.58595" lon="6.80854">
        <ele>2223.78</ele>
        <time>2016-03-24T10:46:48Z</time>
      </trkpt>
      <trkpt lat="45.58578" lon="6.80834">
        <ele>2220.02</ele>
        <time>2016-03-24T10:46:50Z</time>
      </trkpt>
      <trkpt lat="45.58559" lon="6.80813">
        <ele>2218.59</ele>
        <time>2016-03-24T10:46:52Z</time>
      </trkpt>
      <trkpt lat="45.58539" lon="6.80789">
        <ele>2211.88</ele>
        <time>2016-03-24T10:46:55Z</time>
      </trkpt>
      <trkpt lat="45.58527" lon="6.80765">
        <ele>2209.78</ele>
        <time>2016-03-24T10:46:57Z</time>
      </trkpt>
      <trkpt lat="45.58516" lon="6.80741">
        <ele>2208.74</ele>
        <time>2016-03-24T10:46:59Z</time>
      </trkpt>
      <trkpt lat="45.58506" lon="6.80717">
        <ele>2206.78</ele>
        <time>2016-03-24T10:47:01Z</time>
      </trkpt>
      <trkpt lat="45.58494" lon="6.80693">
        <ele>2203.82</ele>
        <time>2016-03-24T10:47:03Z</time>
      </trkpt>
      <trkpt lat="45.58478" lon="6.80673">
        <ele>2200.18</ele>
        <time>2016-03-24T10:47:05Z</time>
      </trkpt>
      <trkpt lat="45.58457" lon="6.80664">
        <ele>2194.12</ele>
        <time>2016-03-24T10:47:07Z</time>
      </trkpt>
      <trkpt lat="45.58439" lon="6.80659">
        <ele>2192.75</ele>
        <time>2016-03-24T10:47:09Z</time>
      </trkpt>
      <trkpt lat="45.58419" lon="6.80656">
        <ele>2190.62</ele>
        <time>2016-03-24T10:47:11Z</time>
      </trkpt>
      <trkpt lat="45.584" lon="6.80655">
        <ele>2188.61</ele>
        <time>2016-03-24T10:47:13Z</time>
      </trkpt>
      <trkpt lat="45.58377" lon="6.80651">
        <ele>2184.63</ele>
        <time>2016-03-24T10:47:16Z</time>
      </trkpt>
      <trkpt lat="45.58357" lon="6.80647">
        <ele>2183.54</ele>
        <time>2016-03-24T10:47:19Z</time>
      </trkpt>
      <trkpt lat="45.58336" lon="6.8064">
        <ele>2181.74</ele>
        <time>2016-03-24T10:47:23Z</time>
      </trkpt>
      <trkpt lat="45.58318" lon="6.80633">
        <ele>2179.74</ele>
        <time>2016-03-24T10:47:27Z</time>
      </trkpt>
      <trkpt lat="45.583" lon="6.80624">
        <ele>2178.53</ele>
        <time>2016-03-24T10:47:32Z</time>
      </trkpt>
      <trkpt lat="45.58283" lon="6.8061">
        <ele>2177.73</ele>
        <time>2016-03-24T10:47:37Z</time>
      </trkpt>
      <trkpt lat="45.58263" lon="6.80606">
        <ele>2175.54</ele>
        <time>2016-03-24T10:47:42Z</time>
      </trkpt>
      <trkpt lat="45.58252" lon="6.8058">
        <ele>2171.78</ele>
        <time>2016-03-24T10:47:46Z</time>
      </trkpt>
      <trkpt lat="45.5824" lon="6.80551">
        <ele>2169.58</ele>
        <time>2016-03-24T10:47:49Z</time>
      </trkpt>
      <trkpt lat="45.58231" lon="6.80528">
        <ele>2168.57</ele>
        <time>2016-03-24T10:47:51Z</time>
      </trkpt>
      <trkpt lat="45.58219" lon="6.80495">
        <ele>2165.78</ele>
        <time>2016-03-24T10:47:54Z</time>
      </trkpt>
      <trkpt lat="45.58209" lon="6.80467">
        <ele>2164.57</ele>
        <time>2016-03-24T10:47:57Z</time>
      </trkpt>
      <trkpt lat="45.58192" lon="6.80454">
        <ele>2161.9</ele>
        <time>2016-03-24T10:48:01Z</time>
      </trkpt>
      <trkpt lat="45.58183" lon="6.8042">
        <ele>2153.01</ele>
        <time>2016-03-24T10:48:25Z</time>
      </trkpt>
      <trkpt lat="45.5818" lon="6.80392">
        <ele>2151.75</ele>
        <time>2016-03-24T10:48:27Z</time>
      </trkpt>
      <trkpt lat="45.58164" lon="6.80373">
        <ele>2146.9</ele>
        <time>2016-03-24T10:48:29Z</time>
      </trkpt>
      <trkpt lat="45.58152" lon="6.80348">
        <ele>2144.79</ele>
        <time>2016-03-24T10:48:31Z</time>
      </trkpt>
      <trkpt lat="45.58135" lon="6.80324">
        <ele>2143.73</ele>
        <time>2016-03-24T10:48:34Z</time>
      </trkpt>
      <trkpt lat="45.58117" lon="6.80295">
        <ele>2140.78</ele>
        <time>2016-03-24T10:48:37Z</time>
      </trkpt>
      <trkpt lat="45.58102" lon="6.8028">
        <ele>2139.58</ele>
        <time>2016-03-24T10:48:39Z</time>
      </trkpt>
      <trkpt lat="45.5809" lon="6.80261">
        <ele>2137.61</ele>
        <time>2016-03-24T10:48:41Z</time>
      </trkpt>
      <trkpt lat="45.58067" lon="6.80249">
        <ele>2133.79</ele>
        <time>2016-03-24T10:48:44Z</time>
      </trkpt>
      <trkpt lat="45.58047" lon="6.80235">
        <ele>2132.54</ele>
        <time>2016-03-24T10:48:47Z</time>
      </trkpt>
      <trkpt lat="45.5803" lon="6.80209">
        <ele>2127.99</ele>
        <time>2016-03-24T10:48:50Z</time>
      </trkpt>
      <trkpt lat="45.5802" lon="6.80183">
        <ele>2125.79</ele>
        <time>2016-03-24T10:48:52Z</time>
      </trkpt>
      <trkpt lat="45.58013" lon="6.80155">
        <ele>2123.78</ele>
        <time>2016-03-24T10:48:54Z</time>
      </trkpt>
      <trkpt lat="45.57994" lon="6.80132">
        <ele>2117.8</ele>
        <time>2016-03-24T10:48:57Z</time>
      </trkpt>
      <trkpt lat="45.57972" lon="6.80115">
        <ele>2112.99</ele>
        <time>2016-03-24T10:49:00Z</time>
      </trkpt>
      <trkpt lat="45.57954" lon="6.80105">
        <ele>2109.83</ele>
        <time>2016-03-24T10:49:02Z</time>
      </trkpt>
      <trkpt lat="45.57936" lon="6.80089">
        <ele>2105.86</ele>
        <time>2016-03-24T10:49:04Z</time>
      </trkpt>
      <trkpt lat="45.57923" lon="6.80064">
        <ele>2102.02</ele>
        <time>2016-03-24T10:49:06Z</time>
      </trkpt>
      <trkpt lat="45.57909" lon="6.80037">
        <ele>2097.39</ele>
        <time>2016-03-24T10:49:08Z</time>
      </trkpt>
      <trkpt lat="45.579" lon="6.80007">
        <ele>2094.01</ele>
        <time>2016-03-24T10:49:10Z</time>
      </trkpt>
      <trkpt lat="45.57888" lon="6.79979">
        <ele>2088.11</ele>
        <time>2016-03-24T10:49:12Z</time>
      </trkpt>
      <trkpt lat="45.57879" lon="6.79948">
        <ele>2084.03</ele>
        <time>2016-03-24T10:49:14Z</time>
      </trkpt>
      <trkpt lat="45.57868" lon="6.79922">
        <ele>2081.79</ele>
        <time>2016-03-24T10:49:16Z</time>
      </trkpt>
      <trkpt lat="45.57857" lon="6.799">
        <ele>2079.78</ele>
        <time>2016-03-24T10:49:18Z</time>
      </trkpt>
      <trkpt lat="45.57843" lon="6.7988">
        <ele>2077.78</ele>
        <time>2016-03-24T10:49:20Z</time>
      </trkpt>
      <trkpt lat="45.5783" lon="6.79861">
        <ele>2076.58</ele>
        <time>2016-03-24T10:49:22Z</time>
      </trkpt>
      <trkpt lat="45.57816" lon="6.79843">
        <ele>2075.57</ele>
        <time>2016-03-24T10:49:24Z</time>
      </trkpt>
      <trkpt lat="45.57798" lon="6.79816">
        <ele>2072.78</ele>
        <time>2016-03-24T10:49:27Z</time>
      </trkpt>
      <trkpt lat="45.57779" lon="6.79792">
        <ele>2069.75</ele>
        <time>2016-03-24T10:49:30Z</time>
      </trkpt>
      <trkpt lat="45.5776" lon="6.79771">
        <ele>2067.55</ele>
        <time>2016-03-24T10:49:33Z</time>
      </trkpt>
      <trkpt lat="45.57742" lon="6.79753">
        <ele>2063.98</ele>
        <time>2016-03-24T10:49:36Z</time>
      </trkpt>
      <trkpt lat="45.57719" lon="6.79741">
        <ele>2057.81</ele>
        <time>2016-03-24T10:49:39Z</time>
      </trkpt>
      <trkpt lat="45.57702" lon="6.79731">
        <ele>2054.02</ele>
        <time>2016-03-24T10:49:41Z</time>
      </trkpt>
      <trkpt lat="45.57684" lon="6.79719">
        <ele>2050.83</ele>
        <time>2016-03-24T10:49:43Z</time>
      </trkpt>
      <trkpt lat="45.57667" lon="6.7971">
        <ele>2047.98</ele>
        <time>2016-03-24T10:49:45Z</time>
      </trkpt>
      <trkpt lat="45.5765" lon="6.79699">
        <ele>2045.79</ele>
        <time>2016-03-24T10:49:47Z</time>
      </trkpt>
      <trkpt lat="45.57633" lon="6.79687">
        <ele>2043.78</ele>
        <time>2016-03-24T10:49:49Z</time>
      </trkpt>
      <trkpt lat="45.57615" lon="6.79677">
        <ele>2042.74</ele>
        <time>2016-03-24T10:49:51Z</time>
      </trkpt>
      <trkpt lat="45.5759" lon="6.79664">
        <ele>2039.75</ele>
        <time>2016-03-24T10:49:54Z</time>
      </trkpt>
      <trkpt lat="45.57573" lon="6.79652">
        <ele>2039.54</ele>
        <time>2016-03-24T10:49:56Z</time>
      </trkpt>
      <trkpt lat="45.57553" lon="6.7964">
        <ele>2038.73</ele>
        <time>2016-03-24T10:49:59Z</time>
      </trkpt>
      <trkpt lat="45.57534" lon="6.79627">
        <ele>2037.54</ele>
        <time>2016-03-24T10:50:02Z</time>
      </trkpt>
      <trkpt lat="45.57518" lon="6.79614">
        <ele>2037.37</ele>
        <time>2016-03-24T10:50:05Z</time>
      </trkpt>
      <trkpt lat="45.57502" lon="6.79602">
        <ele>2034.57</ele>
        <time>2016-03-24T10:50:11Z</time>
      </trkpt>
      <trkpt lat="45.57486" lon="6.79588">
        <ele>2031.37</ele>
        <time>2016-03-24T10:50:27Z</time>
      </trkpt>
      <trkpt lat="45.57472" lon="6.79607">
        <ele>2031.71</ele>
        <time>2016-03-24T10:51:25Z</time>
      </trkpt>
      <trkpt lat="45.57467" lon="6.79636">
        <ele>2034.33</ele>
        <time>2016-03-24T10:51:30Z</time>
      </trkpt>
      <trkpt lat="45.57462" lon="6.79662">
        <ele>2034.53</ele>
        <time>2016-03-24T10:51:35Z</time>
      </trkpt>
      <trkpt lat="45.57457" lon="6.79688">
        <ele>2040.31</ele>
        <time>2016-03-24T10:51:40Z</time>
      </trkpt>
      <trkpt lat="45.57453" lon="6.79716">
        <ele>2050.32</ele>
        <time>2016-03-24T10:51:46Z</time>
      </trkpt>
      <trkpt lat="45.5745" lon="6.79745">
        <ele>2069.22</ele>
        <time>2016-03-24T10:51:52Z</time>
      </trkpt>
      <trkpt lat="45.57447" lon="6.79771">
        <ele>2075.27</ele>
        <time>2016-03-24T10:51:57Z</time>
      </trkpt>
      <trkpt lat="45.57443" lon="6.79799">
        <ele>2081.08</ele>
        <time>2016-03-24T10:52:02Z</time>
      </trkpt>
      <trkpt lat="45.57438" lon="6.79826">
        <ele>2087.32</ele>
        <time>2016-03-24T10:52:07Z</time>
      </trkpt>
      <trkpt lat="45.57435" lon="6.79852">
        <ele>2090.29</ele>
        <time>2016-03-24T10:52:12Z</time>
      </trkpt>
      <trkpt lat="45.5743" lon="6.79879">
        <ele>2097.07</ele>
        <time>2016-03-24T10:52:17Z</time>
      </trkpt>
      <trkpt lat="45.57426" lon="6.79907">
        <ele>2109.63</ele>
        <time>2016-03-24T10:52:22Z</time>
      </trkpt>
      <trkpt lat="45.57422" lon="6.79932">
        <ele>2113.33</ele>
        <time>2016-03-24T10:52:27Z</time>
      </trkpt>
      <trkpt lat="45.57417" lon="6.79961">
        <ele>2114.53</ele>
        <time>2016-03-24T10:52:32Z</time>
      </trkpt>
      <trkpt lat="45.57412" lon="6.79988">
        <ele>2118.28</ele>
        <time>2016-03-24T10:52:37Z</time>
      </trkpt>
      <trkpt lat="45.57408" lon="6.80016">
        <ele>2122.28</ele>
        <time>2016-03-24T10:52:42Z</time>
      </trkpt>
      <trkpt lat="45.57404" lon="6.80043">
        <ele>2126.45</ele>
        <time>2016-03-24T10:52:47Z</time>
      </trkpt>
      <trkpt lat="45.574" lon="6.80068">
        <ele>2130.29</ele>
        <time>2016-03-24T10:52:52Z</time>
      </trkpt>
      <trkpt lat="45.57396" lon="6.80094">
        <ele>2136.08</ele>
        <time>2016-03-24T10:52:57Z</time>
      </trkpt>
      <trkpt lat="45.57392" lon="6.80122">
        <ele>2139.48</ele>
        <time>2016-03-24T10:53:02Z</time>
      </trkpt>
      <trkpt lat="45.57387" lon="6.8015">
        <ele>2143.29</ele>
        <time>2016-03-24T10:53:07Z</time>
      </trkpt>
      <trkpt lat="45.57382" lon="6.80179">
        <ele>2147.28</ele>
        <time>2016-03-24T10:53:12Z</time>
      </trkpt>
      <trkpt lat="45.57378" lon="6.80206">
        <ele>2148.52</ele>
        <time>2016-03-24T10:53:17Z</time>
      </trkpt>
      <trkpt lat="45.57374" lon="6.80233">
        <ele>2153.09</ele>
        <time>2016-03-24T10:53:22Z</time>
      </trkpt>
      <trkpt lat="45.57369" lon="6.8026">
        <ele>2156.48</ele>
        <time>2016-03-24T10:53:27Z</time>
      </trkpt>
      <trkpt lat="45.57366" lon="6.80287">
        <ele>2162.27</ele>
        <time>2016-03-24T10:53:32Z</time>
      </trkpt>
      <trkpt lat="45.57362" lon="6.80314">
        <ele>2169.24</ele>
        <time>2016-03-24T10:53:37Z</time>
      </trkpt>
      <trkpt lat="45.57357" lon="6.80341">
        <ele>2175.08</ele>
        <time>2016-03-24T10:53:42Z</time>
      </trkpt>
      <trkpt lat="45.57354" lon="6.80368">
        <ele>2181.28</ele>
        <time>2016-03-24T10:53:47Z</time>
      </trkpt>
      <trkpt lat="45.57349" lon="6.80393">
        <ele>2187.08</ele>
        <time>2016-03-24T10:53:52Z</time>
      </trkpt>
      <trkpt lat="45.57344" lon="6.80419">
        <ele>2195.08</ele>
        <time>2016-03-24T10:53:57Z</time>
      </trkpt>
      <trkpt lat="45.57339" lon="6.80445">
        <ele>2201.11</ele>
        <time>2016-03-24T10:54:02Z</time>
      </trkpt>
      <trkpt lat="45.57337" lon="6.80475">
        <ele>2212.28</ele>
        <time>2016-03-24T10:54:08Z</time>
      </trkpt>
      <trkpt lat="45.57332" lon="6.80503">
        <ele>2213.52</ele>
        <time>2016-03-24T10:54:13Z</time>
      </trkpt>
      <trkpt lat="45.57329" lon="6.80529">
        <ele>2216.16</ele>
        <time>2016-03-24T10:54:18Z</time>
      </trkpt>
      <trkpt lat="45.57325" lon="6.80556">
        <ele>2219.48</ele>
        <time>2016-03-24T10:54:23Z</time>
      </trkpt>
      <trkpt lat="45.57321" lon="6.80583">
        <ele>2222.33</ele>
        <time>2016-03-24T10:54:28Z</time>
      </trkpt>
      <trkpt lat="45.57317" lon="6.8061">
        <ele>2225.28</ele>
        <time>2016-03-24T10:54:33Z</time>
      </trkpt>
      <trkpt lat="45.57313" lon="6.80638">
        <ele>2228.33</ele>
        <time>2016-03-24T10:54:38Z</time>
      </trkpt>
      <trkpt lat="45.5731" lon="6.80666">
        <ele>2231.27</ele>
        <time>2016-03-24T10:54:43Z</time>
      </trkpt>
      <trkpt lat="45.57305" lon="6.80695">
        <ele>2240.08</ele>
        <time>2016-03-24T10:54:49Z</time>
      </trkpt>
      <trkpt lat="45.57301" lon="6.80722">
        <ele>2247.27</ele>
        <time>2016-03-24T10:54:54Z</time>
      </trkpt>
      <trkpt lat="45.57297" lon="6.80749">
        <ele>2255</ele>
        <time>2016-03-24T10:54:59Z</time>
      </trkpt>
      <trkpt lat="45.57292" lon="6.80778">
        <ele>2261.2</ele>
        <time>2016-03-24T10:55:05Z</time>
      </trkpt>
      <trkpt lat="45.57287" lon="6.80805">
        <ele>2265.29</ele>
        <time>2016-03-24T10:55:10Z</time>
      </trkpt>
      <trkpt lat="45.57284" lon="6.80833">
        <ele>2268.29</ele>
        <time>2016-03-24T10:55:15Z</time>
      </trkpt>
      <trkpt lat="45.5728" lon="6.8086">
        <ele>2269.33</ele>
        <time>2016-03-24T10:55:20Z</time>
      </trkpt>
      <trkpt lat="45.57276" lon="6.80888">
        <ele>2271.48</ele>
        <time>2016-03-24T10:55:25Z</time>
      </trkpt>
      <trkpt lat="45.57271" lon="6.80917">
        <ele>2276.13</ele>
        <time>2016-03-24T10:55:30Z</time>
      </trkpt>
      <trkpt lat="45.57267" lon="6.80942">
        <ele>2286.2</ele>
        <time>2016-03-24T10:55:34Z</time>
      </trkpt>
      <trkpt lat="45.57263" lon="6.80971">
        <ele>2292.24</ele>
        <time>2016-03-24T10:55:40Z</time>
      </trkpt>
      <trkpt lat="45.57259" lon="6.80998">
        <ele>2299.28</ele>
        <time>2016-03-24T10:55:46Z</time>
      </trkpt>
      <trkpt lat="45.57255" lon="6.81027">
        <ele>2304.32</ele>
        <time>2016-03-24T10:55:53Z</time>
      </trkpt>
      <trkpt lat="45.57251" lon="6.81054">
        <ele>2317.78</ele>
        <time>2016-03-24T10:55:59Z</time>
      </trkpt>
      <trkpt lat="45.57247" lon="6.81083">
        <ele>2343.53</ele>
        <time>2016-03-24T10:56:06Z</time>
      </trkpt>
      <trkpt lat="45.57242" lon="6.81111">
        <ele>2380.92</ele>
        <time>2016-03-24T10:56:13Z</time>
      </trkpt>
      <trkpt lat="45.57238" lon="6.81137">
        <ele>2401.78</ele>
        <time>2016-03-24T10:56:19Z</time>
      </trkpt>
      <trkpt lat="45.57225" lon="6.81157">
        <ele>2414.52</ele>
        <time>2016-03-24T10:56:33Z</time>
      </trkpt>
      <trkpt lat="45.57245" lon="6.81155">
        <ele>2411.78</ele>
        <time>2016-03-24T10:57:10Z</time>
      </trkpt>
      <trkpt lat="45.57262" lon="6.8115">
        <ele>2409.58</ele>
        <time>2016-03-24T10:57:13Z</time>
      </trkpt>
      <trkpt lat="45.57286" lon="6.81152">
        <ele>2407.58</ele>
        <time>2016-03-24T10:57:16Z</time>
      </trkpt>
      <trkpt lat="45.57312" lon="6.81155">
        <ele>2401.84</ele>
        <time>2016-03-24T10:57:19Z</time>
      </trkpt>
      <trkpt lat="45.57338" lon="6.81161">
        <ele>2398.59</ele>
        <time>2016-03-24T10:57:22Z</time>
      </trkpt>
      <trkpt lat="45.57331" lon="6.81186">
        <ele>2395.53</ele>
        <time>2016-03-24T10:57:37Z</time>
      </trkpt>
      <trkpt lat="45.57338" lon="6.81212">
        <ele>2393.54</ele>
        <time>2016-03-24T10:57:42Z</time>
      </trkpt>
      <trkpt lat="45.57331" lon="6.81236">
        <ele>2388.79</ele>
        <time>2016-03-24T10:57:48Z</time>
      </trkpt>
      <trkpt lat="45.57312" lon="6.81248">
        <ele>2384.78</ele>
        <time>2016-03-24T10:57:53Z</time>
      </trkpt>
      <trkpt lat="45.57298" lon="6.81264">
        <ele>2380.21</ele>
        <time>2016-03-24T10:57:57Z</time>
      </trkpt>
      <trkpt lat="45.57289" lon="6.81287">
        <ele>2375.76</ele>
        <time>2016-03-24T10:58:00Z</time>
      </trkpt>
      <trkpt lat="45.57283" lon="6.81312">
        <ele>2371.79</ele>
        <time>2016-03-24T10:58:05Z</time>
      </trkpt>
      <trkpt lat="45.57277" lon="6.81341">
        <ele>2368.77</ele>
        <time>2016-03-24T10:58:09Z</time>
      </trkpt>
      <trkpt lat="45.57268" lon="6.81367">
        <ele>2365.58</ele>
        <time>2016-03-24T10:58:15Z</time>
      </trkpt>
      <trkpt lat="45.57255" lon="6.81388">
        <ele>2350.74</ele>
        <time>2016-03-24T10:58:39Z</time>
      </trkpt>
      <trkpt lat="45.5724" lon="6.81401">
        <ele>2345.53</ele>
        <time>2016-03-24T10:58:48Z</time>
      </trkpt>
      <trkpt lat="45.57246" lon="6.81427">
        <ele>2328.03</ele>
        <time>2016-03-24T10:59:03Z</time>
      </trkpt>
      <trkpt lat="45.57224" lon="6.8143">
        <ele>2321.77</ele>
        <time>2016-03-24T10:59:10Z</time>
      </trkpt>
      <trkpt lat="45.57205" lon="6.81441">
        <ele>2320.53</ele>
        <time>2016-03-24T10:59:16Z</time>
      </trkpt>
      <trkpt lat="45.57203" lon="6.81469">
        <ele>2309.54</ele>
        <time>2016-03-24T10:59:23Z</time>
      </trkpt>
      <trkpt lat="45.57204" lon="6.81497">
        <ele>2300.85</ele>
        <time>2016-03-24T10:59:27Z</time>
      </trkpt>
      <trkpt lat="45.57194" lon="6.81524">
        <ele>2294.03</ele>
        <time>2016-03-24T10:59:31Z</time>
      </trkpt>
      <trkpt lat="45.57193" lon="6.81551">
        <ele>2289.62</ele>
        <time>2016-03-24T10:59:35Z</time>
      </trkpt>
      <trkpt lat="45.57198" lon="6.81578">
        <ele>2287.61</ele>
        <time>2016-03-24T10:59:39Z</time>
      </trkpt>
      <trkpt lat="45.5719" lon="6.81607">
        <ele>2281.95</ele>
        <time>2016-03-24T10:59:44Z</time>
      </trkpt>
      <trkpt lat="45.57189" lon="6.81637">
        <ele>2275.59</ele>
        <time>2016-03-24T10:59:50Z</time>
      </trkpt>
      <trkpt lat="45.57183" lon="6.81662">
        <ele>2272.72</ele>
        <time>2016-03-24T11:00:25Z</time>
      </trkpt>
      <trkpt lat="45.57171" lon="6.81684">
        <ele>2267.75</ele>
        <time>2016-03-24T11:00:32Z</time>
      </trkpt>
      <trkpt lat="45.57167" lon="6.8171">
        <ele>2262.73</ele>
        <time>2016-03-24T11:00:40Z</time>
      </trkpt>
      <trkpt lat="45.5716" lon="6.81736">
        <ele>2255.17</ele>
        <time>2016-03-24T11:00:51Z</time>
      </trkpt>
      <trkpt lat="45.57166" lon="6.81764">
        <ele>2247.63</ele>
        <time>2016-03-24T11:01:01Z</time>
      </trkpt>
      <trkpt lat="45.57144" lon="6.81766">
        <ele>2238.17</ele>
        <time>2016-03-24T11:01:09Z</time>
      </trkpt>
      <trkpt lat="45.57141" lon="6.81791">
        <ele>2221.74</ele>
        <time>2016-03-24T11:01:20Z</time>
      </trkpt>
      <trkpt lat="45.57143" lon="6.81817">
        <ele>2218.77</ele>
        <time>2016-03-24T11:01:27Z</time>
      </trkpt>
      <trkpt lat="45.57148" lon="6.81848">
        <ele>2214.94</ele>
        <time>2016-03-24T11:01:33Z</time>
      </trkpt>
      <trkpt lat="45.57138" lon="6.81875">
        <ele>2209.74</ele>
        <time>2016-03-24T11:01:40Z</time>
      </trkpt>
      <trkpt lat="45.57121" lon="6.81886">
        <ele>2199.1</ele>
        <time>2016-03-24T11:01:46Z</time>
      </trkpt>
      <trkpt lat="45.57108" lon="6.81905">
        <ele>2186.55</ele>
        <time>2016-03-24T11:02:37Z</time>
      </trkpt>
      <trkpt lat="45.57097" lon="6.81926">
        <ele>2182.94</ele>
        <time>2016-03-24T11:02:44Z</time>
      </trkpt>
      <trkpt lat="45.57108" lon="6.81949">
        <ele>2171.78</ele>
        <time>2016-03-24T11:02:50Z</time>
      </trkpt>
      <trkpt lat="45.57123" lon="6.81964">
        <ele>2166.78</ele>
        <time>2016-03-24T11:02:55Z</time>
      </trkpt>
      <trkpt lat="45.57143" lon="6.81979">
        <ele>2162.58</ele>
        <time>2016-03-24T11:03:00Z</time>
      </trkpt>
      <trkpt lat="45.57162" lon="6.81997">
        <ele>2158.79</ele>
        <time>2016-03-24T11:03:04Z</time>
      </trkpt>
      <trkpt lat="45.57174" lon="6.82022">
        <ele>2153.82</ele>
        <time>2016-03-24T11:03:08Z</time>
      </trkpt>
      <trkpt lat="45.57186" lon="6.82042">
        <ele>2152.76</ele>
        <time>2016-03-24T11:03:12Z</time>
      </trkpt>
      <trkpt lat="45.57199" lon="6.82063">
        <ele>2150.42</ele>
        <time>2016-03-24T11:03:15Z</time>
      </trkpt>
      <trkpt lat="45.57208" lon="6.82085">
        <ele>2138.69</ele>
        <time>2016-03-24T11:03:45Z</time>
      </trkpt>
      <trkpt lat="45.57224" lon="6.82096">
        <ele>2135.29</ele>
        <time>2016-03-24T11:04:05Z</time>
      </trkpt>
      <trkpt lat="45.57242" lon="6.821">
        <ele>2127.78</ele>
        <time>2016-03-24T11:04:21Z</time>
      </trkpt>
      <trkpt lat="45.57249" lon="6.82125">
        <ele>2115.73</ele>
        <time>2016-03-24T11:04:35Z</time>
      </trkpt>
      <trkpt lat="45.57246" lon="6.82152">
        <ele>2104.62</ele>
        <time>2016-03-24T11:04:44Z</time>
      </trkpt>
      <trkpt lat="45.5726" lon="6.82174">
        <ele>2098.58</ele>
        <time>2016-03-24T11:04:54Z</time>
      </trkpt>
      <trkpt lat="45.57274" lon="6.82194">
        <ele>2091.73</ele>
        <time>2016-03-24T11:05:05Z</time>
      </trkpt>
      <trkpt lat="45.57289" lon="6.82214">
        <ele>2079.94</ele>
        <time>2016-03-24T11:05:17Z</time>
      </trkpt>
      <trkpt lat="45.57311" lon="6.82227">
        <ele>2071.77</ele>
        <time>2016-03-24T11:05:24Z</time>
      </trkpt>
      <trkpt lat="45.5732" lon="6.82255">
        <ele>2059.8</ele>
        <time>2016-03-24T11:05:31Z</time>
      </trkpt>
      <trkpt lat="45.57323" lon="6.82285">
        <ele>2047.03</ele>
        <time>2016-03-24T11:05:43Z</time>
      </trkpt>
      <trkpt lat="45.57317" lon="6.82314">
        <ele>2042.18</ele>
        <time>2016-03-24T11:05:48Z</time>
      </trkpt>
      <trkpt lat="45.57304" lon="6.82333">
        <ele>2040.53</ele>
        <time>2016-03-24T11:05:55Z</time>
      </trkpt>
      <trkpt lat="45.5729" lon="6.82352">
        <ele>2026.53</ele>
        <time>2016-03-24T11:17:35Z</time>
      </trkpt>
      <trkpt lat="45.57285" lon="6.8238">
        <ele>2025.73</ele>
        <time>2016-03-24T11:17:38Z</time>
      </trkpt>
      <trkpt lat="45.5728" lon="6.82405">
        <ele>2024.89</ele>
        <time>2016-03-24T11:17:41Z</time>
      </trkpt>
      <trkpt lat="45.57275" lon="6.82434">
        <ele>2022.57</ele>
        <time>2016-03-24T11:17:46Z</time>
      </trkpt>
      <trkpt lat="45.57275" lon="6.82461">
        <ele>2019.53</ele>
        <time>2016-03-24T11:18:13Z</time>
      </trkpt>
      <trkpt lat="45.57264" lon="6.82482">
        <ele>2015.41</ele>
        <time>2016-03-24T11:19:20Z</time>
      </trkpt>
      <trkpt lat="45.57243" lon="6.82493">
        <ele>2014.37</ele>
        <time>2016-03-24T11:19:24Z</time>
      </trkpt>
      <trkpt lat="45.57223" lon="6.82504">
        <ele>2015.75</ele>
        <time>2016-03-24T11:19:29Z</time>
      </trkpt>
      <trkpt lat="45.57202" lon="6.82511">
        <ele>2019.27</ele>
        <time>2016-03-24T11:19:34Z</time>
      </trkpt>
      <trkpt lat="45.57184" lon="6.82516">
        <ele>2023.24</ele>
        <time>2016-03-24T11:19:38Z</time>
      </trkpt>
      <trkpt lat="45.57166" lon="6.82522">
        <ele>2028.08</ele>
        <time>2016-03-24T11:19:42Z</time>
      </trkpt>
      <trkpt lat="45.57146" lon="6.82527">
        <ele>2035.44</ele>
        <time>2016-03-24T11:19:47Z</time>
      </trkpt>
      <trkpt lat="45.57124" lon="6.82532">
        <ele>2036.53</ele>
        <time>2016-03-24T11:19:53Z</time>
      </trkpt>
      <trkpt lat="45.57103" lon="6.82541">
        <ele>2043.23</ele>
        <time>2016-03-24T11:19:58Z</time>
      </trkpt>
      <trkpt lat="45.57083" lon="6.82545">
        <ele>2049.47</ele>
        <time>2016-03-24T11:20:03Z</time>
      </trkpt>
      <trkpt lat="45.57062" lon="6.8255">
        <ele>2057.26</ele>
        <time>2016-03-24T11:20:08Z</time>
      </trkpt>
      <trkpt lat="45.57042" lon="6.82557">
        <ele>2063.31</ele>
        <time>2016-03-24T11:20:13Z</time>
      </trkpt>
      <trkpt lat="45.57024" lon="6.82561">
        <ele>2071.88</ele>
        <time>2016-03-24T11:20:18Z</time>
      </trkpt>
      <trkpt lat="45.57005" lon="6.82569">
        <ele>2075.28</ele>
        <time>2016-03-24T11:20:22Z</time>
      </trkpt>
      <trkpt lat="45.56985" lon="6.82575">
        <ele>2083.88</ele>
        <time>2016-03-24T11:20:27Z</time>
      </trkpt>
      <trkpt lat="45.56966" lon="6.82581">
        <ele>2092.24</ele>
        <time>2016-03-24T11:20:32Z</time>
      </trkpt>
      <trkpt lat="45.56947" lon="6.82587">
        <ele>2100.07</ele>
        <time>2016-03-24T11:20:37Z</time>
      </trkpt>
      <trkpt lat="45.56929" lon="6.8259">
        <ele>2106.25</ele>
        <time>2016-03-24T11:20:42Z</time>
      </trkpt>
      <trkpt lat="45.56907" lon="6.82595">
        <ele>2112.29</ele>
        <time>2016-03-24T11:20:48Z</time>
      </trkpt>
      <trkpt lat="45.56886" lon="6.82601">
        <ele>2113.33</ele>
        <time>2016-03-24T11:20:53Z</time>
      </trkpt>
      <trkpt lat="45.56865" lon="6.82605">
        <ele>2116.48</ele>
        <time>2016-03-24T11:20:58Z</time>
      </trkpt>
      <trkpt lat="45.56846" lon="6.82611">
        <ele>2121.32</ele>
        <time>2016-03-24T11:21:03Z</time>
      </trkpt>
      <trkpt lat="45.56824" lon="6.82618">
        <ele>2124.48</ele>
        <time>2016-03-24T11:21:08Z</time>
      </trkpt>
      <trkpt lat="45.56804" lon="6.82624">
        <ele>2133.26</ele>
        <time>2016-03-24T11:21:13Z</time>
      </trkpt>
      <trkpt lat="45.56785" lon="6.82629">
        <ele>2140.24</ele>
        <time>2016-03-24T11:21:18Z</time>
      </trkpt>
      <trkpt lat="45.56764" lon="6.82636">
        <ele>2149.01</ele>
        <time>2016-03-24T11:21:23Z</time>
      </trkpt>
      <trkpt lat="45.56744" lon="6.82641">
        <ele>2159.04</ele>
        <time>2016-03-24T11:21:29Z</time>
      </trkpt>
      <trkpt lat="45.56724" lon="6.82647">
        <ele>2170.83</ele>
        <time>2016-03-24T11:21:35Z</time>
      </trkpt>
      <trkpt lat="45.56703" lon="6.82654">
        <ele>2176.52</ele>
        <time>2016-03-24T11:21:41Z</time>
      </trkpt>
      <trkpt lat="45.56682" lon="6.82661">
        <ele>2183.24</ele>
        <time>2016-03-24T11:21:46Z</time>
      </trkpt>
      <trkpt lat="45.56662" lon="6.82665">
        <ele>2185.52</ele>
        <time>2016-03-24T11:21:51Z</time>
      </trkpt>
      <trkpt lat="45.56642" lon="6.82673">
        <ele>2188.36</ele>
        <time>2016-03-24T11:21:56Z</time>
      </trkpt>
      <trkpt lat="45.56621" lon="6.8268">
        <ele>2192.47</ele>
        <time>2016-03-24T11:22:01Z</time>
      </trkpt>
      <trkpt lat="45.56601" lon="6.82686">
        <ele>2194.49</ele>
        <time>2016-03-24T11:22:06Z</time>
      </trkpt>
      <trkpt lat="45.5658" lon="6.82693">
        <ele>2195.34</ele>
        <time>2016-03-24T11:22:11Z</time>
      </trkpt>
      <trkpt lat="45.56563" lon="6.82699">
        <ele>2197.32</ele>
        <time>2016-03-24T11:22:15Z</time>
      </trkpt>
      <trkpt lat="45.56542" lon="6.82707">
        <ele>2203.09</ele>
        <time>2016-03-24T11:22:20Z</time>
      </trkpt>
      <trkpt lat="45.56523" lon="6.82708">
        <ele>2206.49</ele>
        <time>2016-03-24T11:22:27Z</time>
      </trkpt>
      <trkpt lat="45.56508" lon="6.82693">
        <ele>2206.7</ele>
        <time>2016-03-24T11:22:39Z</time>
      </trkpt>
      <trkpt lat="45.56499" lon="6.82669">
        <ele>2206.53</ele>
        <time>2016-03-24T11:22:48Z</time>
      </trkpt>
      <trkpt lat="45.56494" lon="6.82634">
        <ele>2202.73</ele>
        <time>2016-03-24T11:22:53Z</time>
      </trkpt>
      <trkpt lat="45.56489" lon="6.82596">
        <ele>2200.74</ele>
        <time>2016-03-24T11:22:56Z</time>
      </trkpt>
      <trkpt lat="45.56486" lon="6.82555">
        <ele>2196.66</ele>
        <time>2016-03-24T11:22:59Z</time>
      </trkpt>
      <trkpt lat="45.56489" lon="6.82529">
        <ele>2194.62</ele>
        <time>2016-03-24T11:23:01Z</time>
      </trkpt>
      <trkpt lat="45.56494" lon="6.82503">
        <ele>2193.73</ele>
        <time>2016-03-24T11:23:03Z</time>
      </trkpt>
      <trkpt lat="45.56503" lon="6.82477">
        <ele>2190.94</ele>
        <time>2016-03-24T11:23:06Z</time>
      </trkpt>
      <trkpt lat="45.56516" lon="6.82457">
        <ele>2188.73</ele>
        <time>2016-03-24T11:23:10Z</time>
      </trkpt>
      <trkpt lat="45.56528" lon="6.82436">
        <ele>2187.54</ele>
        <time>2016-03-24T11:23:16Z</time>
      </trkpt>
      <trkpt lat="45.56541" lon="6.82418">
        <ele>2189.49</ele>
        <time>2016-03-24T11:23:22Z</time>
      </trkpt>
      <trkpt lat="45.56551" lon="6.82441">
        <ele>2183.74</ele>
        <time>2016-03-24T11:26:29Z</time>
      </trkpt>
      <trkpt lat="45.5656" lon="6.82464">
        <ele>2180.34</ele>
        <time>2016-03-24T11:26:38Z</time>
      </trkpt>
      <trkpt lat="45.56572" lon="6.82485">
        <ele>2179.77</ele>
        <time>2016-03-24T11:26:49Z</time>
      </trkpt>
      <trkpt lat="45.56586" lon="6.82502">
        <ele>2175.57</ele>
        <time>2016-03-24T11:26:57Z</time>
      </trkpt>
      <trkpt lat="45.56605" lon="6.82511">
        <ele>2175.53</ele>
        <time>2016-03-24T11:27:04Z</time>
      </trkpt>
      <trkpt lat="45.56624" lon="6.82518">
        <ele>2174.37</ele>
        <time>2016-03-24T11:27:11Z</time>
      </trkpt>
      <trkpt lat="45.56644" lon="6.82522">
        <ele>2172.73</ele>
        <time>2016-03-24T11:27:22Z</time>
      </trkpt>
      <trkpt lat="45.56665" lon="6.82523">
        <ele>2169.71</ele>
        <time>2016-03-24T11:27:28Z</time>
      </trkpt>
      <trkpt lat="45.56683" lon="6.82527">
        <ele>2168.53</ele>
        <time>2016-03-24T11:27:34Z</time>
      </trkpt>
      <trkpt lat="45.56702" lon="6.82527">
        <ele>2168.53</ele>
        <time>2016-03-24T11:27:48Z</time>
      </trkpt>
      <trkpt lat="45.56723" lon="6.82523">
        <ele>2165.74</ele>
        <time>2016-03-24T11:27:55Z</time>
      </trkpt>
      <trkpt lat="45.56743" lon="6.8251">
        <ele>2162.62</ele>
        <time>2016-03-24T11:27:58Z</time>
      </trkpt>
      <trkpt lat="45.56761" lon="6.825">
        <ele>2161.57</ele>
        <time>2016-03-24T11:28:00Z</time>
      </trkpt>
      <trkpt lat="45.56778" lon="6.82487">
        <ele>2158.81</ele>
        <time>2016-03-24T11:28:02Z</time>
      </trkpt>
      <trkpt lat="45.56798" lon="6.82474">
        <ele>2156.78</ele>
        <time>2016-03-24T11:28:04Z</time>
      </trkpt>
      <trkpt lat="45.56818" lon="6.8246">
        <ele>2154.62</ele>
        <time>2016-03-24T11:28:06Z</time>
      </trkpt>
      <trkpt lat="45.56845" lon="6.82462">
        <ele>2152.77</ele>
        <time>2016-03-24T11:28:08Z</time>
      </trkpt>
      <trkpt lat="45.5687" lon="6.82464">
        <ele>2149.82</ele>
        <time>2016-03-24T11:28:10Z</time>
      </trkpt>
      <trkpt lat="45.56894" lon="6.82465">
        <ele>2147.61</ele>
        <time>2016-03-24T11:28:13Z</time>
      </trkpt>
      <trkpt lat="45.56907" lon="6.82483">
        <ele>2138.02</ele>
        <time>2016-03-24T11:28:31Z</time>
      </trkpt>
      <trkpt lat="45.56921" lon="6.82505">
        <ele>2130.98</ele>
        <time>2016-03-24T11:28:36Z</time>
      </trkpt>
      <trkpt lat="45.56937" lon="6.82525">
        <ele>2123.74</ele>
        <time>2016-03-24T11:28:41Z</time>
      </trkpt>
      <trkpt lat="45.56951" lon="6.82544">
        <ele>2118.98</ele>
        <time>2016-03-24T11:28:45Z</time>
      </trkpt>
      <trkpt lat="45.56961" lon="6.82566">
        <ele>2113.02</ele>
        <time>2016-03-24T11:28:49Z</time>
      </trkpt>
      <trkpt lat="45.56976" lon="6.82582">
        <ele>2105</ele>
        <time>2016-03-24T11:28:53Z</time>
      </trkpt>
      <trkpt lat="45.56997" lon="6.82578">
        <ele>2100.98</ele>
        <time>2016-03-24T11:28:57Z</time>
      </trkpt>
      <trkpt lat="45.57012" lon="6.82557">
        <ele>2093.82</ele>
        <time>2016-03-24T11:29:01Z</time>
      </trkpt>
      <trkpt lat="45.57023" lon="6.82533">
        <ele>2087.63</ele>
        <time>2016-03-24T11:29:06Z</time>
      </trkpt>
      <trkpt lat="45.5703" lon="6.82507">
        <ele>2086.57</ele>
        <time>2016-03-24T11:29:12Z</time>
      </trkpt>
      <trkpt lat="45.57051" lon="6.82503">
        <ele>2078.83</ele>
        <time>2016-03-24T11:29:18Z</time>
      </trkpt>
      <trkpt lat="45.57074" lon="6.82508">
        <ele>2073.06</ele>
        <time>2016-03-24T11:29:21Z</time>
      </trkpt>
      <trkpt lat="45.57098" lon="6.82504">
        <ele>2073.34</ele>
        <time>2016-03-24T11:29:24Z</time>
      </trkpt>
      <trkpt lat="45.57117" lon="6.82492">
        <ele>2065.38</ele>
        <time>2016-03-24T11:29:29Z</time>
      </trkpt>
      <trkpt lat="45.57132" lon="6.82471">
        <ele>2062.7</ele>
        <time>2016-03-24T11:29:33Z</time>
      </trkpt>
      <trkpt lat="45.57146" lon="6.82445">
        <ele>2057.83</ele>
        <time>2016-03-24T11:29:37Z</time>
      </trkpt>
      <trkpt lat="45.57163" lon="6.82427">
        <ele>2053.02</ele>
        <time>2016-03-24T11:29:40Z</time>
      </trkpt>
      <trkpt lat="45.57183" lon="6.82408">
        <ele>2049.17</ele>
        <time>2016-03-24T11:29:43Z</time>
      </trkpt>
      <trkpt lat="45.57202" lon="6.82396">
        <ele>2047.35</ele>
        <time>2016-03-24T11:29:46Z</time>
      </trkpt>
      <trkpt lat="45.57222" lon="6.82391">
        <ele>2045.58</ele>
        <time>2016-03-24T11:29:49Z</time>
      </trkpt>
      <trkpt lat="45.57243" lon="6.82395">
        <ele>2044.57</ele>
        <time>2016-03-24T11:29:52Z</time>
      </trkpt>
      <trkpt lat="45.57265" lon="6.82403">
        <ele>2038.02</ele>
        <time>2016-03-24T11:29:56Z</time>
      </trkpt>
      <trkpt lat="45.57281" lon="6.82421">
        <ele>2032</ele>
        <time>2016-03-24T11:29:59Z</time>
      </trkpt>
      <trkpt lat="45.57289" lon="6.8245">
        <ele>2028.77</ele>
        <time>2016-03-24T11:30:03Z</time>
      </trkpt>
      <trkpt lat="45.57295" lon="6.82475">
        <ele>2026.7</ele>
        <time>2016-03-24T11:30:07Z</time>
      </trkpt>
      <trkpt lat="45.57313" lon="6.82479">
        <ele>2019.53</ele>
        <time>2016-03-24T11:30:27Z</time>
      </trkpt>
      <trkpt lat="45.57311" lon="6.82451">
        <ele>2012.77</ele>
        <time>2016-03-24T11:30:56Z</time>
      </trkpt>
      <trkpt lat="45.57313" lon="6.82423">
        <ele>2019.01</ele>
        <time>2016-03-24T11:31:36Z</time>
      </trkpt>
      <trkpt lat="45.57308" lon="6.82397">
        <ele>2019.58</ele>
        <time>2016-03-24T11:31:41Z</time>
      </trkpt>
      <trkpt lat="45.57303" lon="6.82371">
        <ele>2019.49</ele>
        <time>2016-03-24T11:31:46Z</time>
      </trkpt>
      <trkpt lat="45.573" lon="6.82341">
        <ele>2024.09</ele>
        <time>2016-03-24T11:31:52Z</time>
      </trkpt>
      <trkpt lat="45.57296" lon="6.82312">
        <ele>2028.25</ele>
        <time>2016-03-24T11:31:58Z</time>
      </trkpt>
      <trkpt lat="45.57292" lon="6.82284">
        <ele>2034.48</ele>
        <time>2016-03-24T11:32:04Z</time>
      </trkpt>
      <trkpt lat="45.57291" lon="6.82257">
        <ele>2041.43</ele>
        <time>2016-03-24T11:32:09Z</time>
      </trkpt>
      <trkpt lat="45.57286" lon="6.82229">
        <ele>2049.08</ele>
        <time>2016-03-24T11:32:15Z</time>
      </trkpt>
      <trkpt lat="45.57282" lon="6.82199">
        <ele>2056.28</ele>
        <time>2016-03-24T11:32:21Z</time>
      </trkpt>
      <trkpt lat="45.57282" lon="6.82172">
        <ele>2068.98</ele>
        <time>2016-03-24T11:32:27Z</time>
      </trkpt>
      <trkpt lat="45.57281" lon="6.82145">
        <ele>2083.99</ele>
        <time>2016-03-24T11:32:33Z</time>
      </trkpt>
      <trkpt lat="45.57278" lon="6.82116">
        <ele>2099.12</ele>
        <time>2016-03-24T11:32:40Z</time>
      </trkpt>
      <trkpt lat="45.57275" lon="6.82088">
        <ele>2109.27</ele>
        <time>2016-03-24T11:32:47Z</time>
      </trkpt>
      <trkpt lat="45.57272" lon="6.8206">
        <ele>2125.82</ele>
        <time>2016-03-24T11:32:54Z</time>
      </trkpt>
      <trkpt lat="45.57268" lon="6.82032">
        <ele>2141.07</ele>
        <time>2016-03-24T11:33:01Z</time>
      </trkpt>
      <trkpt lat="45.57269" lon="6.82003">
        <ele>2148.29</ele>
        <time>2016-03-24T11:33:07Z</time>
      </trkpt>
      <trkpt lat="45.57265" lon="6.81974">
        <ele>2157.24</ele>
        <time>2016-03-24T11:33:13Z</time>
      </trkpt>
      <trkpt lat="45.57265" lon="6.81948">
        <ele>2169.03</ele>
        <time>2016-03-24T11:33:19Z</time>
      </trkpt>
      <trkpt lat="45.57262" lon="6.81918">
        <ele>2184.02</ele>
        <time>2016-03-24T11:33:25Z</time>
      </trkpt>
      <trkpt lat="45.57258" lon="6.81892">
        <ele>2195.42</ele>
        <time>2016-03-24T11:33:31Z</time>
      </trkpt>
      <trkpt lat="45.57256" lon="6.81865">
        <ele>2204.04</ele>
        <time>2016-03-24T11:33:36Z</time>
      </trkpt>
      <trkpt lat="45.57253" lon="6.81836">
        <ele>2213.2</ele>
        <time>2016-03-24T11:33:42Z</time>
      </trkpt>
      <trkpt lat="45.5725" lon="6.8181">
        <ele>2222.04</ele>
        <time>2016-03-24T11:33:47Z</time>
      </trkpt>
      <trkpt lat="45.57248" lon="6.81782">
        <ele>2238.2</ele>
        <time>2016-03-24T11:33:54Z</time>
      </trkpt>
      <trkpt lat="45.57244" lon="6.81754">
        <ele>2249.08</ele>
        <time>2016-03-24T11:34:00Z</time>
      </trkpt>
      <trkpt lat="45.57242" lon="6.81726">
        <ele>2262.88</ele>
        <time>2016-03-24T11:34:07Z</time>
      </trkpt>
      <trkpt lat="45.57239" lon="6.81697">
        <ele>2272.23</ele>
        <time>2016-03-24T11:34:13Z</time>
      </trkpt>
      <trkpt lat="45.57237" lon="6.81668">
        <ele>2274.67</ele>
        <time>2016-03-24T11:34:19Z</time>
      </trkpt>
      <trkpt lat="45.57235" lon="6.8164">
        <ele>2276.49</ele>
        <time>2016-03-24T11:34:24Z</time>
      </trkpt>
      <trkpt lat="45.57232" lon="6.81613">
        <ele>2280.32</ele>
        <time>2016-03-24T11:34:30Z</time>
      </trkpt>
      <trkpt lat="45.5723" lon="6.81586">
        <ele>2283.48</ele>
        <time>2016-03-24T11:34:35Z</time>
      </trkpt>
      <trkpt lat="45.57227" lon="6.81558">
        <ele>2288.28</ele>
        <time>2016-03-24T11:34:41Z</time>
      </trkpt>
      <trkpt lat="45.57224" lon="6.8153">
        <ele>2289.53</ele>
        <time>2016-03-24T11:34:46Z</time>
      </trkpt>
      <trkpt lat="45.5722" lon="6.81502">
        <ele>2289.57</ele>
        <time>2016-03-24T11:34:51Z</time>
      </trkpt>
      <trkpt lat="45.57219" lon="6.81475">
        <ele>2290.64</ele>
        <time>2016-03-24T11:34:56Z</time>
      </trkpt>
      <trkpt lat="45.57215" lon="6.81446">
        <ele>2298.44</ele>
        <time>2016-03-24T11:35:04Z</time>
      </trkpt>
      <trkpt lat="45.57213" lon="6.81418">
        <ele>2308.84</ele>
        <time>2016-03-24T11:35:10Z</time>
      </trkpt>
      <trkpt lat="45.5721" lon="6.81392">
        <ele>2314.08</ele>
        <time>2016-03-24T11:35:16Z</time>
      </trkpt>
      <trkpt lat="45.57206" lon="6.81365">
        <ele>2326.84</ele>
        <time>2016-03-24T11:35:22Z</time>
      </trkpt>
      <trkpt lat="45.57202" lon="6.81338">
        <ele>2350.95</ele>
        <time>2016-03-24T11:35:30Z</time>
      </trkpt>
      <trkpt lat="45.572" lon="6.81308">
        <ele>2369.62</ele>
        <time>2016-03-24T11:35:37Z</time>
      </trkpt>
      <trkpt lat="45.57198" lon="6.8128">
        <ele>2382.99</ele>
        <time>2016-03-24T11:35:43Z</time>
      </trkpt>
      <trkpt lat="45.57196" lon="6.81253">
        <ele>2394.82</ele>
        <time>2016-03-24T11:35:48Z</time>
      </trkpt>
      <trkpt lat="45.57194" lon="6.81225">
        <ele>2404.26</ele>
        <time>2016-03-24T11:35:54Z</time>
      </trkpt>
      <trkpt lat="45.57196" lon="6.81198">
        <ele>2411.28</ele>
        <time>2016-03-24T11:36:02Z</time>
      </trkpt>
      <trkpt lat="45.572" lon="6.81172">
        <ele>2416.52</ele>
        <time>2016-03-24T11:36:10Z</time>
      </trkpt>
      <trkpt lat="45.56907" lon="6.80963">
        <ele>2342.74</ele>
        <time>2016-03-24T12:12:19Z</time>
      </trkpt>
      <trkpt lat="45.56887" lon="6.80974">
        <ele>2360.54</ele>
        <time>2016-03-24T12:12:51Z</time>
      </trkpt>
      <trkpt lat="45.56868" lon="6.80985">
        <ele>2356.76</ele>
        <time>2016-03-24T12:12:54Z</time>
      </trkpt>
      <trkpt lat="45.56841" lon="6.80998">
        <ele>2357.52</ele>
        <time>2016-03-24T12:12:57Z</time>
      </trkpt>
      <trkpt lat="45.56816" lon="6.8101">
        <ele>2357.37</ele>
        <time>2016-03-24T12:13:00Z</time>
      </trkpt>
      <trkpt lat="45.56796" lon="6.8102">
        <ele>2356.56</ele>
        <time>2016-03-24T12:13:02Z</time>
      </trkpt>
      <trkpt lat="45.56776" lon="6.81027">
        <ele>2353.65</ele>
        <time>2016-03-24T12:13:04Z</time>
      </trkpt>
      <trkpt lat="45.5676" lon="6.81042">
        <ele>2349.38</ele>
        <time>2016-03-24T12:13:06Z</time>
      </trkpt>
      <trkpt lat="45.5674" lon="6.81051">
        <ele>2346.96</ele>
        <time>2016-03-24T12:13:08Z</time>
      </trkpt>
      <trkpt lat="45.56717" lon="6.81053">
        <ele>2342.71</ele>
        <time>2016-03-24T12:13:10Z</time>
      </trkpt>
      <trkpt lat="45.56701" lon="6.81037">
        <ele>2335.72</ele>
        <time>2016-03-24T12:13:13Z</time>
      </trkpt>
      <trkpt lat="45.56683" lon="6.81049">
        <ele>2313.57</ele>
        <time>2016-03-24T12:13:51Z</time>
      </trkpt>
      <trkpt lat="45.56662" lon="6.81061">
        <ele>2311.93</ele>
        <time>2016-03-24T12:13:54Z</time>
      </trkpt>
      <trkpt lat="45.56643" lon="6.81067">
        <ele>2309.79</ele>
        <time>2016-03-24T12:13:56Z</time>
      </trkpt>
      <trkpt lat="45.56622" lon="6.81078">
        <ele>2308.74</ele>
        <time>2016-03-24T12:13:58Z</time>
      </trkpt>
      <trkpt lat="45.56597" lon="6.81088">
        <ele>2306.74</ele>
        <time>2016-03-24T12:14:01Z</time>
      </trkpt>
      <trkpt lat="45.56576" lon="6.81098">
        <ele>2303.78</ele>
        <time>2016-03-24T12:14:04Z</time>
      </trkpt>
      <trkpt lat="45.5656" lon="6.81119">
        <ele>2302.54</ele>
        <time>2016-03-24T12:14:08Z</time>
      </trkpt>
      <trkpt lat="45.56566" lon="6.81152">
        <ele>2294.02</ele>
        <time>2016-03-24T12:14:12Z</time>
      </trkpt>
      <trkpt lat="45.56583" lon="6.81175">
        <ele>2293.76</ele>
        <time>2016-03-24T12:14:16Z</time>
      </trkpt>
      <trkpt lat="45.566" lon="6.81193">
        <ele>2291.93</ele>
        <time>2016-03-24T12:14:19Z</time>
      </trkpt>
      <trkpt lat="45.56617" lon="6.81204">
        <ele>2289.63</ele>
        <time>2016-03-24T12:14:21Z</time>
      </trkpt>
      <trkpt lat="45.56636" lon="6.81226">
        <ele>2281.59</ele>
        <time>2016-03-24T12:14:26Z</time>
      </trkpt>
      <trkpt lat="45.5666" lon="6.81247">
        <ele>2279.58</ele>
        <time>2016-03-24T12:14:29Z</time>
      </trkpt>
      <trkpt lat="45.56677" lon="6.81262">
        <ele>2276.56</ele>
        <time>2016-03-24T12:14:32Z</time>
      </trkpt>
      <trkpt lat="45.56705" lon="6.81274">
        <ele>2275.73</ele>
        <time>2016-03-24T12:14:34Z</time>
      </trkpt>
      <trkpt lat="45.56719" lon="6.81305">
        <ele>2272.65</ele>
        <time>2016-03-24T12:14:37Z</time>
      </trkpt>
      <trkpt lat="45.56733" lon="6.81326">
        <ele>2258.28</ele>
        <time>2016-03-24T12:14:41Z</time>
      </trkpt>
      <trkpt lat="45.56749" lon="6.81344">
        <ele>2254.04</ele>
        <time>2016-03-24T12:14:43Z</time>
      </trkpt>
      <trkpt lat="45.56759" lon="6.81367">
        <ele>2248.91</ele>
        <time>2016-03-24T12:14:45Z</time>
      </trkpt>
      <trkpt lat="45.56782" lon="6.8139">
        <ele>2245.83</ele>
        <time>2016-03-24T12:14:47Z</time>
      </trkpt>
      <trkpt lat="45.56807" lon="6.81407">
        <ele>2239.3</ele>
        <time>2016-03-24T12:14:49Z</time>
      </trkpt>
      <trkpt lat="45.56832" lon="6.81433">
        <ele>2236</ele>
        <time>2016-03-24T12:14:51Z</time>
      </trkpt>
      <trkpt lat="45.56848" lon="6.81449">
        <ele>2231.07</ele>
        <time>2016-03-24T12:14:53Z</time>
      </trkpt>
      <trkpt lat="45.56853" lon="6.81483">
        <ele>2223.85</ele>
        <time>2016-03-24T12:14:56Z</time>
      </trkpt>
      <trkpt lat="45.56844" lon="6.81511">
        <ele>2216.02</ele>
        <time>2016-03-24T12:14:58Z</time>
      </trkpt>
      <trkpt lat="45.56851" lon="6.81549">
        <ele>2210.67</ele>
        <time>2016-03-24T12:15:01Z</time>
      </trkpt>
      <trkpt lat="45.56865" lon="6.8157">
        <ele>2207.02</ele>
        <time>2016-03-24T12:15:03Z</time>
      </trkpt>
      <trkpt lat="45.5687" lon="6.81608">
        <ele>2198.44</ele>
        <time>2016-03-24T12:15:06Z</time>
      </trkpt>
      <trkpt lat="45.56884" lon="6.81638">
        <ele>2192.07</ele>
        <time>2016-03-24T12:15:09Z</time>
      </trkpt>
      <trkpt lat="45.56893" lon="6.81663">
        <ele>2187.07</ele>
        <time>2016-03-24T12:15:11Z</time>
      </trkpt>
      <trkpt lat="45.56912" lon="6.8167">
        <ele>2180.47</ele>
        <time>2016-03-24T12:15:13Z</time>
      </trkpt>
      <trkpt lat="45.56933" lon="6.81696">
        <ele>2172.21</ele>
        <time>2016-03-24T12:15:16Z</time>
      </trkpt>
      <trkpt lat="45.56931" lon="6.81725">
        <ele>2168.04</ele>
        <time>2016-03-24T12:15:18Z</time>
      </trkpt>
      <trkpt lat="45.56937" lon="6.81765">
        <ele>2162.26</ele>
        <time>2016-03-24T12:15:21Z</time>
      </trkpt>
      <trkpt lat="45.56947" lon="6.81791">
        <ele>2157.88</ele>
        <time>2016-03-24T12:15:23Z</time>
      </trkpt>
      <trkpt lat="45.56955" lon="6.81818">
        <ele>2153.39</ele>
        <time>2016-03-24T12:15:25Z</time>
      </trkpt>
      <trkpt lat="45.56963" lon="6.81847">
        <ele>2149.05</ele>
        <time>2016-03-24T12:15:27Z</time>
      </trkpt>
      <trkpt lat="45.56972" lon="6.81882">
        <ele>2142.04</ele>
        <time>2016-03-24T12:15:30Z</time>
      </trkpt>
      <trkpt lat="45.56978" lon="6.81909">
        <ele>2139.79</ele>
        <time>2016-03-24T12:15:32Z</time>
      </trkpt>
      <trkpt lat="45.56978" lon="6.81945">
        <ele>2133.23</ele>
        <time>2016-03-24T12:15:35Z</time>
      </trkpt>
      <trkpt lat="45.56975" lon="6.81975">
        <ele>2128.4</ele>
        <time>2016-03-24T12:15:37Z</time>
      </trkpt>
      <trkpt lat="45.56978" lon="6.82006">
        <ele>2119.86</ele>
        <time>2016-03-24T12:15:40Z</time>
      </trkpt>
      <trkpt lat="45.56974" lon="6.82039">
        <ele>2116.82</ele>
        <time>2016-03-24T12:15:42Z</time>
      </trkpt>
      <trkpt lat="45.56982" lon="6.82074">
        <ele>2114.78</ele>
        <time>2016-03-24T12:15:44Z</time>
      </trkpt>
      <trkpt lat="45.56998" lon="6.82107">
        <ele>2110.86</ele>
        <time>2016-03-24T12:15:46Z</time>
      </trkpt>
      <trkpt lat="45.57013" lon="6.82128">
        <ele>2106.7</ele>
        <time>2016-03-24T12:15:48Z</time>
      </trkpt>
      <trkpt lat="45.57026" lon="6.82164">
        <ele>2103.98</ele>
        <time>2016-03-24T12:15:50Z</time>
      </trkpt>
      <trkpt lat="45.57039" lon="6.82194">
        <ele>2101.79</ele>
        <time>2016-03-24T12:15:52Z</time>
      </trkpt>
      <trkpt lat="45.57058" lon="6.82218">
        <ele>2100.58</ele>
        <time>2016-03-24T12:15:54Z</time>
      </trkpt>
      <trkpt lat="45.57079" lon="6.82212">
        <ele>2098.14</ele>
        <time>2016-03-24T12:15:55Z</time>
      </trkpt>
      <trkpt lat="45.57102" lon="6.82216">
        <ele>2094.84</ele>
        <time>2016-03-24T12:15:57Z</time>
      </trkpt>
      <trkpt lat="45.5713" lon="6.82225">
        <ele>2092.61</ele>
        <time>2016-03-24T12:16:00Z</time>
      </trkpt>
      <trkpt lat="45.57141" lon="6.82258">
        <ele>2077.8</ele>
        <time>2016-03-24T12:16:06Z</time>
      </trkpt>
      <trkpt lat="45.57161" lon="6.82267">
        <ele>2072</ele>
        <time>2016-03-24T12:16:09Z</time>
      </trkpt>
      <trkpt lat="45.57179" lon="6.82276">
        <ele>2069.79</ele>
        <time>2016-03-24T12:16:11Z</time>
      </trkpt>
      <trkpt lat="45.57203" lon="6.82282">
        <ele>2068.42</ele>
        <time>2016-03-24T12:16:13Z</time>
      </trkpt>
      <trkpt lat="45.57222" lon="6.82288">
        <ele>2067.57</ele>
        <time>2016-03-24T12:16:15Z</time>
      </trkpt>
      <trkpt lat="45.57242" lon="6.82295">
        <ele>2066.57</ele>
        <time>2016-03-24T12:16:17Z</time>
      </trkpt>
      <trkpt lat="45.57258" lon="6.82307">
        <ele>2061.8</ele>
        <time>2016-03-24T12:16:20Z</time>
      </trkpt>
      <trkpt lat="45.57275" lon="6.82319">
        <ele>2061.54</ele>
        <time>2016-03-24T12:16:22Z</time>
      </trkpt>
      <trkpt lat="45.57267" lon="6.82342">
        <ele>2052.7</ele>
        <time>2016-03-24T12:16:25Z</time>
      </trkpt>
      <trkpt lat="45.5727" lon="6.82374">
        <ele>2047.64</ele>
        <time>2016-03-24T12:16:28Z</time>
      </trkpt>
      <trkpt lat="45.57274" lon="6.82401">
        <ele>2042.99</ele>
        <time>2016-03-24T12:16:31Z</time>
      </trkpt>
      <trkpt lat="45.5728" lon="6.82425">
        <ele>2038.82</ele>
        <time>2016-03-24T12:16:34Z</time>
      </trkpt>
      <trkpt lat="45.57273" lon="6.8245">
        <ele>2026.78</ele>
        <time>2016-03-24T12:16:44Z</time>
      </trkpt>
      <trkpt lat="45.57277" lon="6.82477">
        <ele>2022.61</ele>
        <time>2016-03-24T12:17:33Z</time>
      </trkpt>
      <trkpt lat="45.57258" lon="6.82488">
        <ele>2018.53</ele>
        <time>2016-03-24T12:17:59Z</time>
      </trkpt>
      <trkpt lat="45.57237" lon="6.82499">
        <ele>2025.09</ele>
        <time>2016-03-24T12:18:04Z</time>
      </trkpt>
      <trkpt lat="45.5722" lon="6.82511">
        <ele>2027.53</ele>
        <time>2016-03-24T12:18:09Z</time>
      </trkpt>
      <trkpt lat="45.57202" lon="6.82512">
        <ele>2028.72</ele>
        <time>2016-03-24T12:18:13Z</time>
      </trkpt>
      <trkpt lat="45.5718" lon="6.82517">
        <ele>2033.25</ele>
        <time>2016-03-24T12:18:18Z</time>
      </trkpt>
      <trkpt lat="45.57161" lon="6.82529">
        <ele>2038.49</ele>
        <time>2016-03-24T12:18:24Z</time>
      </trkpt>
      <trkpt lat="45.57143" lon="6.82536">
        <ele>2040.69</ele>
        <time>2016-03-24T12:18:29Z</time>
      </trkpt>
      <trkpt lat="45.57122" lon="6.82542">
        <ele>2045.45</ele>
        <time>2016-03-24T12:18:34Z</time>
      </trkpt>
      <trkpt lat="45.57104" lon="6.82538">
        <ele>2052.28</ele>
        <time>2016-03-24T12:18:37Z</time>
      </trkpt>
      <trkpt lat="45.57086" lon="6.82546">
        <ele>2059.28</ele>
        <time>2016-03-24T12:18:42Z</time>
      </trkpt>
      <trkpt lat="45.57066" lon="6.82552">
        <ele>2062.12</ele>
        <time>2016-03-24T12:18:47Z</time>
      </trkpt>
      <trkpt lat="45.57048" lon="6.8256">
        <ele>2066.28</ele>
        <time>2016-03-24T12:18:52Z</time>
      </trkpt>
      <trkpt lat="45.57028" lon="6.82567">
        <ele>2071.28</ele>
        <time>2016-03-24T12:18:57Z</time>
      </trkpt>
      <trkpt lat="45.5701" lon="6.82575">
        <ele>2077.28</ele>
        <time>2016-03-24T12:19:02Z</time>
      </trkpt>
      <trkpt lat="45.56992" lon="6.82581">
        <ele>2084.27</ele>
        <time>2016-03-24T12:19:07Z</time>
      </trkpt>
      <trkpt lat="45.56972" lon="6.82589">
        <ele>2091.08</ele>
        <time>2016-03-24T12:19:12Z</time>
      </trkpt>
      <trkpt lat="45.56952" lon="6.826">
        <ele>2102.99</ele>
        <time>2016-03-24T12:19:18Z</time>
      </trkpt>
      <trkpt lat="45.56932" lon="6.82589">
        <ele>2113.06</ele>
        <time>2016-03-24T12:19:21Z</time>
      </trkpt>
      <trkpt lat="45.56911" lon="6.82597">
        <ele>2116.31</ele>
        <time>2016-03-24T12:19:26Z</time>
      </trkpt>
      <trkpt lat="45.56889" lon="6.826">
        <ele>2117.53</ele>
        <time>2016-03-24T12:19:31Z</time>
      </trkpt>
      <trkpt lat="45.5687" lon="6.82607">
        <ele>2117.53</ele>
        <time>2016-03-24T12:19:36Z</time>
      </trkpt>
      <trkpt lat="45.56854" lon="6.8262">
        <ele>2121.32</ele>
        <time>2016-03-24T12:19:41Z</time>
      </trkpt>
      <trkpt lat="45.56839" lon="6.82635">
        <ele>2126.28</ele>
        <time>2016-03-24T12:19:46Z</time>
      </trkpt>
      <trkpt lat="45.5682" lon="6.82643">
        <ele>2130.28</ele>
        <time>2016-03-24T12:19:51Z</time>
      </trkpt>
      <trkpt lat="45.56802" lon="6.8265">
        <ele>2135.08</ele>
        <time>2016-03-24T12:19:56Z</time>
      </trkpt>
      <trkpt lat="45.56783" lon="6.82656">
        <ele>2139.29</ele>
        <time>2016-03-24T12:20:01Z</time>
      </trkpt>
      <trkpt lat="45.56766" lon="6.82671">
        <ele>2147.27</ele>
        <time>2016-03-24T12:20:07Z</time>
      </trkpt>
      <trkpt lat="45.56748" lon="6.82677">
        <ele>2155.05</ele>
        <time>2016-03-24T12:20:12Z</time>
      </trkpt>
      <trkpt lat="45.56731" lon="6.82685">
        <ele>2163.07</ele>
        <time>2016-03-24T12:20:17Z</time>
      </trkpt>
      <trkpt lat="45.56711" lon="6.82695">
        <ele>2169.08</ele>
        <time>2016-03-24T12:20:22Z</time>
      </trkpt>
      <trkpt lat="45.56689" lon="6.82681">
        <ele>2176.44</ele>
        <time>2016-03-24T12:20:25Z</time>
      </trkpt>
      <trkpt lat="45.56667" lon="6.82686">
        <ele>2181.28</ele>
        <time>2016-03-24T12:20:30Z</time>
      </trkpt>
      <trkpt lat="45.5665" lon="6.82697">
        <ele>2182.69</ele>
        <time>2016-03-24T12:20:35Z</time>
      </trkpt>
      <trkpt lat="45.5663" lon="6.82704">
        <ele>2184.33</ele>
        <time>2016-03-24T12:20:40Z</time>
      </trkpt>
      <trkpt lat="45.56612" lon="6.82713">
        <ele>2187.32</ele>
        <time>2016-03-24T12:20:45Z</time>
      </trkpt>
      <trkpt lat="45.56593" lon="6.82722">
        <ele>2189.52</ele>
        <time>2016-03-24T12:20:50Z</time>
      </trkpt>
      <trkpt lat="45.56565" lon="6.827">
        <ele>2201.05</ele>
        <time>2016-03-24T12:20:53Z</time>
      </trkpt>
      <trkpt lat="45.56545" lon="6.82702">
        <ele>2208.44</ele>
        <time>2016-03-24T12:20:57Z</time>
      </trkpt>
      <trkpt lat="45.56525" lon="6.82709">
        <ele>2208.53</ele>
        <time>2016-03-24T12:21:02Z</time>
      </trkpt>
      <trkpt lat="45.56508" lon="6.82699">
        <ele>2206.32</ele>
        <time>2016-03-24T12:21:15Z</time>
      </trkpt>
      <trkpt lat="45.56498" lon="6.82678">
        <ele>2207.68</ele>
        <time>2016-03-24T12:21:26Z</time>
      </trkpt>
      <trkpt lat="45.56494" lon="6.82648">
        <ele>2199.26</ele>
        <time>2016-03-24T12:21:32Z</time>
      </trkpt>
      <trkpt lat="45.56491" lon="6.8262">
        <ele>2196.74</ele>
        <time>2016-03-24T12:21:35Z</time>
      </trkpt>
      <trkpt lat="45.56487" lon="6.8259">
        <ele>2193.98</ele>
        <time>2016-03-24T12:21:37Z</time>
      </trkpt>
      <trkpt lat="45.56484" lon="6.82562">
        <ele>2190.83</ele>
        <time>2016-03-24T12:21:39Z</time>
      </trkpt>
      <trkpt lat="45.56478" lon="6.82537">
        <ele>2188.78</ele>
        <time>2016-03-24T12:21:41Z</time>
      </trkpt>
      <trkpt lat="45.56473" lon="6.82506">
        <ele>2187.54</ele>
        <time>2016-03-24T12:21:44Z</time>
      </trkpt>
      <trkpt lat="45.56473" lon="6.82479">
        <ele>2186.69</ele>
        <time>2016-03-24T12:21:48Z</time>
      </trkpt>
      <trkpt lat="45.56477" lon="6.82454">
        <ele>2182.49</ele>
        <time>2016-03-24T12:22:04Z</time>
      </trkpt>
      <trkpt lat="45.56465" lon="6.82435">
        <ele>2186.54</ele>
        <time>2016-03-24T12:22:47Z</time>
      </trkpt>
      <trkpt lat="45.5645" lon="6.82421">
        <ele>2188.53</ele>
        <time>2016-03-24T12:23:46Z</time>
      </trkpt>
      <trkpt lat="45.56432" lon="6.82404">
        <ele>2188.68</ele>
        <time>2016-03-24T12:24:15Z</time>
      </trkpt>
      <trkpt lat="45.56415" lon="6.82388">
        <ele>2186.53</ele>
        <time>2016-03-24T12:24:20Z</time>
      </trkpt>
      <trkpt lat="45.564" lon="6.82371">
        <ele>2194.02</ele>
        <time>2016-03-24T12:24:25Z</time>
      </trkpt>
      <trkpt lat="45.56382" lon="6.82353">
        <ele>2198.52</ele>
        <time>2016-03-24T12:24:31Z</time>
      </trkpt>
      <trkpt lat="45.56364" lon="6.82336">
        <ele>2200.52</ele>
        <time>2016-03-24T12:24:36Z</time>
      </trkpt>
      <trkpt lat="45.56349" lon="6.82319">
        <ele>2201.37</ele>
        <time>2016-03-24T12:24:41Z</time>
      </trkpt>
      <trkpt lat="45.56332" lon="6.82303">
        <ele>2204.48</ele>
        <time>2016-03-24T12:24:46Z</time>
      </trkpt>
      <trkpt lat="45.56315" lon="6.82286">
        <ele>2207.44</ele>
        <time>2016-03-24T12:24:51Z</time>
      </trkpt>
      <trkpt lat="45.56299" lon="6.82271">
        <ele>2213.28</ele>
        <time>2016-03-24T12:24:58Z</time>
      </trkpt>
      <trkpt lat="45.56284" lon="6.82253">
        <ele>2217.53</ele>
        <time>2016-03-24T12:25:10Z</time>
      </trkpt>
      <trkpt lat="45.56268" lon="6.82237">
        <ele>2218.33</ele>
        <time>2016-03-24T12:25:19Z</time>
      </trkpt>
      <trkpt lat="45.5625" lon="6.82219">
        <ele>2218.53</ele>
        <time>2016-03-24T12:25:25Z</time>
      </trkpt>
      <trkpt lat="45.56234" lon="6.82204">
        <ele>2219.53</ele>
        <time>2016-03-24T12:25:30Z</time>
      </trkpt>
      <trkpt lat="45.56216" lon="6.82187">
        <ele>2222.45</ele>
        <time>2016-03-24T12:25:35Z</time>
      </trkpt>
      <trkpt lat="45.56199" lon="6.82172">
        <ele>2225.13</ele>
        <time>2016-03-24T12:25:40Z</time>
      </trkpt>
      <trkpt lat="45.56182" lon="6.82156">
        <ele>2230.11</ele>
        <time>2016-03-24T12:25:45Z</time>
      </trkpt>
      <trkpt lat="45.56164" lon="6.82138">
        <ele>2232.32</ele>
        <time>2016-03-24T12:25:51Z</time>
      </trkpt>
      <trkpt lat="45.56147" lon="6.82122">
        <ele>2239.29</ele>
        <time>2016-03-24T12:25:56Z</time>
      </trkpt>
      <trkpt lat="45.56131" lon="6.82105">
        <ele>2240.49</ele>
        <time>2016-03-24T12:26:01Z</time>
      </trkpt>
      <trkpt lat="45.56114" lon="6.82091">
        <ele>2240.53</ele>
        <time>2016-03-24T12:26:06Z</time>
      </trkpt>
      <trkpt lat="45.56099" lon="6.82075">
        <ele>2242.3</ele>
        <time>2016-03-24T12:26:11Z</time>
      </trkpt>
      <trkpt lat="45.56084" lon="6.82057">
        <ele>2247.53</ele>
        <time>2016-03-24T12:26:16Z</time>
      </trkpt>
      <trkpt lat="45.56068" lon="6.82042">
        <ele>2247.56</ele>
        <time>2016-03-24T12:26:21Z</time>
      </trkpt>
      <trkpt lat="45.56051" lon="6.82023">
        <ele>2247.69</ele>
        <time>2016-03-24T12:26:26Z</time>
      </trkpt>
      <trkpt lat="45.56032" lon="6.82006">
        <ele>2250.52</ele>
        <time>2016-03-24T12:26:31Z</time>
      </trkpt>
      <trkpt lat="45.56015" lon="6.81991">
        <ele>2255.13</ele>
        <time>2016-03-24T12:26:36Z</time>
      </trkpt>
      <trkpt lat="45.56001" lon="6.81975">
        <ele>2262.07</ele>
        <time>2016-03-24T12:26:41Z</time>
      </trkpt>
      <trkpt lat="45.55987" lon="6.81958">
        <ele>2264.52</ele>
        <time>2016-03-24T12:26:46Z</time>
      </trkpt>
      <trkpt lat="45.55968" lon="6.81941">
        <ele>2266.72</ele>
        <time>2016-03-24T12:26:51Z</time>
      </trkpt>
      <trkpt lat="45.5595" lon="6.81925">
        <ele>2266.57</ele>
        <time>2016-03-24T12:26:56Z</time>
      </trkpt>
      <trkpt lat="45.55933" lon="6.8191">
        <ele>2268.29</ele>
        <time>2016-03-24T12:27:01Z</time>
      </trkpt>
      <trkpt lat="45.55917" lon="6.81894">
        <ele>2270.33</ele>
        <time>2016-03-24T12:27:06Z</time>
      </trkpt>
      <trkpt lat="45.559" lon="6.81879">
        <ele>2269.57</ele>
        <time>2016-03-24T12:27:11Z</time>
      </trkpt>
      <trkpt lat="45.55883" lon="6.81859">
        <ele>2277.85</ele>
        <time>2016-03-24T12:27:17Z</time>
      </trkpt>
      <trkpt lat="45.55866" lon="6.81844">
        <ele>2279.53</ele>
        <time>2016-03-24T12:27:22Z</time>
      </trkpt>
      <trkpt lat="45.55849" lon="6.81826">
        <ele>2280.5</ele>
        <time>2016-03-24T12:27:27Z</time>
      </trkpt>
      <trkpt lat="45.55832" lon="6.81811">
        <ele>2282.52</ele>
        <time>2016-03-24T12:27:32Z</time>
      </trkpt>
      <trkpt lat="45.55815" lon="6.81795">
        <ele>2284.45</ele>
        <time>2016-03-24T12:27:37Z</time>
      </trkpt>
      <trkpt lat="45.55797" lon="6.81781">
        <ele>2285.49</ele>
        <time>2016-03-24T12:27:42Z</time>
      </trkpt>
      <trkpt lat="45.55783" lon="6.81763">
        <ele>2291.87</ele>
        <time>2016-03-24T12:27:47Z</time>
      </trkpt>
      <trkpt lat="45.55768" lon="6.81748">
        <ele>2294.48</ele>
        <time>2016-03-24T12:27:52Z</time>
      </trkpt>
      <trkpt lat="45.55754" lon="6.8173">
        <ele>2301.93</ele>
        <time>2016-03-24T12:27:57Z</time>
      </trkpt>
      <trkpt lat="45.55738" lon="6.81714">
        <ele>2305.33</ele>
        <time>2016-03-24T12:28:04Z</time>
      </trkpt>
      <trkpt lat="45.55723" lon="6.817">
        <ele>2307.33</ele>
        <time>2016-03-24T12:28:14Z</time>
      </trkpt>
      <trkpt lat="45.55709" lon="6.81684">
        <ele>2310.33</ele>
        <time>2016-03-24T12:28:24Z</time>
      </trkpt>
      <trkpt lat="45.55694" lon="6.81669">
        <ele>2312.49</ele>
        <time>2016-03-24T12:28:34Z</time>
      </trkpt>
      <trkpt lat="45.55678" lon="6.81656">
        <ele>2315.29</ele>
        <time>2016-03-24T12:28:40Z</time>
      </trkpt>
      <trkpt lat="45.55661" lon="6.8164">
        <ele>2320.28</ele>
        <time>2016-03-24T12:28:45Z</time>
      </trkpt>
      <trkpt lat="45.55646" lon="6.81623">
        <ele>2324.44</ele>
        <time>2016-03-24T12:28:50Z</time>
      </trkpt>
      <trkpt lat="45.55629" lon="6.81607">
        <ele>2328.28</ele>
        <time>2016-03-24T12:28:55Z</time>
      </trkpt>
      <trkpt lat="45.55612" lon="6.8159">
        <ele>2335.08</ele>
        <time>2016-03-24T12:29:01Z</time>
      </trkpt>
      <trkpt lat="45.55598" lon="6.81571">
        <ele>2343.22</ele>
        <time>2016-03-24T12:29:05Z</time>
      </trkpt>
      <trkpt lat="45.55581" lon="6.81556">
        <ele>2348.44</ele>
        <time>2016-03-24T12:29:10Z</time>
      </trkpt>
      <trkpt lat="45.55564" lon="6.81541">
        <ele>2353.49</ele>
        <time>2016-03-24T12:29:15Z</time>
      </trkpt>
      <trkpt lat="45.55549" lon="6.81526">
        <ele>2357.44</ele>
        <time>2016-03-24T12:29:20Z</time>
      </trkpt>
      <trkpt lat="45.55532" lon="6.81511">
        <ele>2359.49</ele>
        <time>2016-03-24T12:29:25Z</time>
      </trkpt>
      <trkpt lat="45.55515" lon="6.81496">
        <ele>2362.26</ele>
        <time>2016-03-24T12:29:30Z</time>
      </trkpt>
      <trkpt lat="45.55498" lon="6.8148">
        <ele>2370.68</ele>
        <time>2016-03-24T12:29:35Z</time>
      </trkpt>
      <trkpt lat="45.55483" lon="6.81464">
        <ele>2375.29</ele>
        <time>2016-03-24T12:29:41Z</time>
      </trkpt>
      <trkpt lat="45.55466" lon="6.81449">
        <ele>2381.45</ele>
        <time>2016-03-24T12:29:50Z</time>
      </trkpt>
      <trkpt lat="45.55452" lon="6.81431">
        <ele>2390.37</ele>
        <time>2016-03-24T12:29:58Z</time>
      </trkpt>
      <trkpt lat="45.55437" lon="6.81417">
        <ele>2396.17</ele>
        <time>2016-03-24T12:30:03Z</time>
      </trkpt>
      <trkpt lat="45.55423" lon="6.814">
        <ele>2409.94</ele>
        <time>2016-03-24T12:30:08Z</time>
      </trkpt>
      <trkpt lat="45.55405" lon="6.81383">
        <ele>2418.27</ele>
        <time>2016-03-24T12:30:14Z</time>
      </trkpt>
      <trkpt lat="45.55388" lon="6.81368">
        <ele>2423.08</ele>
        <time>2016-03-24T12:30:19Z</time>
      </trkpt>
      <trkpt lat="45.55373" lon="6.81353">
        <ele>2427.09</ele>
        <time>2016-03-24T12:30:24Z</time>
      </trkpt>
      <trkpt lat="45.55357" lon="6.81337">
        <ele>2432.32</ele>
        <time>2016-03-24T12:30:29Z</time>
      </trkpt>
      <trkpt lat="45.55341" lon="6.81322">
        <ele>2436.45</ele>
        <time>2016-03-24T12:30:34Z</time>
      </trkpt>
      <trkpt lat="45.55325" lon="6.81305">
        <ele>2444.22</ele>
        <time>2016-03-24T12:30:39Z</time>
      </trkpt>
      <trkpt lat="45.55309" lon="6.81289">
        <ele>2454.06</ele>
        <time>2016-03-24T12:30:44Z</time>
      </trkpt>
      <trkpt lat="45.55292" lon="6.8127">
        <ele>2461.08</ele>
        <time>2016-03-24T12:30:50Z</time>
      </trkpt>
      <trkpt lat="45.55276" lon="6.81255">
        <ele>2468.2</ele>
        <time>2016-03-24T12:30:55Z</time>
      </trkpt>
      <trkpt lat="45.55261" lon="6.8124">
        <ele>2478.07</ele>
        <time>2016-03-24T12:31:00Z</time>
      </trkpt>
      <trkpt lat="45.55245" lon="6.81224">
        <ele>2486.07</ele>
        <time>2016-03-24T12:31:05Z</time>
      </trkpt>
      <trkpt lat="45.55228" lon="6.81206">
        <ele>2496.46</ele>
        <time>2016-03-24T12:31:11Z</time>
      </trkpt>
      <trkpt lat="45.55211" lon="6.8119">
        <ele>2500.29</ele>
        <time>2016-03-24T12:31:16Z</time>
      </trkpt>
      <trkpt lat="45.55194" lon="6.81174">
        <ele>2503.32</ele>
        <time>2016-03-24T12:31:21Z</time>
      </trkpt>
      <trkpt lat="45.55179" lon="6.81159">
        <ele>2509.23</ele>
        <time>2016-03-24T12:31:26Z</time>
      </trkpt>
      <trkpt lat="45.55162" lon="6.81143">
        <ele>2517.24</ele>
        <time>2016-03-24T12:31:31Z</time>
      </trkpt>
      <trkpt lat="45.55146" lon="6.81128">
        <ele>2523.28</ele>
        <time>2016-03-24T12:31:36Z</time>
      </trkpt>
      <trkpt lat="45.5513" lon="6.81112">
        <ele>2529.27</ele>
        <time>2016-03-24T12:31:41Z</time>
      </trkpt>
      <trkpt lat="45.55115" lon="6.81095">
        <ele>2535.48</ele>
        <time>2016-03-24T12:31:46Z</time>
      </trkpt>
      <trkpt lat="45.55098" lon="6.81085">
        <ele>2538.37</ele>
        <time>2016-03-24T12:31:52Z</time>
      </trkpt>
      <trkpt lat="45.5508" lon="6.81091">
        <ele>2542.36</ele>
        <time>2016-03-24T12:32:19Z</time>
      </trkpt>
      <trkpt lat="45.55066" lon="6.81115">
        <ele>2545.49</ele>
        <time>2016-03-24T12:32:33Z</time>
      </trkpt>
      <trkpt lat="45.55057" lon="6.81137">
        <ele>2543.58</ele>
        <time>2016-03-24T12:32:36Z</time>
      </trkpt>
      <trkpt lat="45.55047" lon="6.81167">
        <ele>2543.53</ele>
        <time>2016-03-24T12:32:39Z</time>
      </trkpt>
      <trkpt lat="45.55036" lon="6.81189">
        <ele>2545.29</ele>
        <time>2016-03-24T12:32:41Z</time>
      </trkpt>
      <trkpt lat="45.55025" lon="6.81214">
        <ele>2544.56</ele>
        <time>2016-03-24T12:32:43Z</time>
      </trkpt>
      <trkpt lat="45.55014" lon="6.81238">
        <ele>2542.61</ele>
        <time>2016-03-24T12:32:45Z</time>
      </trkpt>
      <trkpt lat="45.55004" lon="6.81263">
        <ele>2542.53</ele>
        <time>2016-03-24T12:32:47Z</time>
      </trkpt>
      <trkpt lat="45.54994" lon="6.81288">
        <ele>2542.53</ele>
        <time>2016-03-24T12:32:49Z</time>
      </trkpt>
      <trkpt lat="45.54985" lon="6.81325">
        <ele>2537.03</ele>
        <time>2016-03-24T12:32:52Z</time>
      </trkpt>
      <trkpt lat="45.54977" lon="6.81351">
        <ele>2534.95</ele>
        <time>2016-03-24T12:32:54Z</time>
      </trkpt>
      <trkpt lat="45.54975" lon="6.8138">
        <ele>2526.85</ele>
        <time>2016-03-24T12:32:57Z</time>
      </trkpt>
      <trkpt lat="45.54971" lon="6.8141">
        <ele>2523.75</ele>
        <time>2016-03-24T12:33:00Z</time>
      </trkpt>
      <trkpt lat="45.54965" lon="6.81436">
        <ele>2521.74</ele>
        <time>2016-03-24T12:33:03Z</time>
      </trkpt>
      <trkpt lat="45.5496" lon="6.81463">
        <ele>2518.96</ele>
        <time>2016-03-24T12:33:07Z</time>
      </trkpt>
      <trkpt lat="45.54958" lon="6.8149">
        <ele>2511.78</ele>
        <time>2016-03-24T12:33:12Z</time>
      </trkpt>
      <trkpt lat="45.54957" lon="6.81515">
        <ele>2509.68</ele>
        <time>2016-03-24T12:33:17Z</time>
      </trkpt>
      <trkpt lat="45.54955" lon="6.81547">
        <ele>2509.53</ele>
        <time>2016-03-24T12:33:23Z</time>
      </trkpt>
      <trkpt lat="45.54952" lon="6.81579">
        <ele>2503.78</ele>
        <time>2016-03-24T12:33:27Z</time>
      </trkpt>
      <trkpt lat="45.54952" lon="6.81606">
        <ele>2501.58</ele>
        <time>2016-03-24T12:33:30Z</time>
      </trkpt>
      <trkpt lat="45.54948" lon="6.81636">
        <ele>2499.58</ele>
        <time>2016-03-24T12:33:33Z</time>
      </trkpt>
      <trkpt lat="45.54943" lon="6.81667">
        <ele>2495.79</ele>
        <time>2016-03-24T12:33:36Z</time>
      </trkpt>
      <trkpt lat="45.54932" lon="6.817">
        <ele>2495.53</ele>
        <time>2016-03-24T12:33:39Z</time>
      </trkpt>
      <trkpt lat="45.54923" lon="6.81725">
        <ele>2493.96</ele>
        <time>2016-03-24T12:33:42Z</time>
      </trkpt>
      <trkpt lat="45.54911" lon="6.81745">
        <ele>2489.82</ele>
        <time>2016-03-24T12:33:46Z</time>
      </trkpt>
      <trkpt lat="45.54899" lon="6.81765">
        <ele>2482.78</ele>
        <time>2016-03-24T12:33:52Z</time>
      </trkpt>
      <trkpt lat="45.54886" lon="6.81785">
        <ele>2481.57</ele>
        <time>2016-03-24T12:34:01Z</time>
      </trkpt>
      <trkpt lat="45.54876" lon="6.81809">
        <ele>2479.71</ele>
        <time>2016-03-24T12:34:08Z</time>
      </trkpt>
      <trkpt lat="45.54867" lon="6.81833">
        <ele>2479.49</ele>
        <time>2016-03-24T12:34:15Z</time>
      </trkpt>
      <trkpt lat="45.54862" lon="6.81861">
        <ele>2473.73</ele>
        <time>2016-03-24T12:34:25Z</time>
      </trkpt>
      <trkpt lat="45.54855" lon="6.81888">
        <ele>2472.53</ele>
        <time>2016-03-24T12:34:34Z</time>
      </trkpt>
      <trkpt lat="45.54846" lon="6.81912">
        <ele>2471.73</ele>
        <time>2016-03-24T12:34:41Z</time>
      </trkpt>
      <trkpt lat="45.54838" lon="6.81937">
        <ele>2471.53</ele>
        <time>2016-03-24T12:34:47Z</time>
      </trkpt>
      <trkpt lat="45.54833" lon="6.81962">
        <ele>2471.69</ele>
        <time>2016-03-24T12:34:52Z</time>
      </trkpt>
      <trkpt lat="45.54827" lon="6.81989">
        <ele>2470.37</ele>
        <time>2016-03-24T12:34:57Z</time>
      </trkpt>
      <trkpt lat="45.54825" lon="6.82017">
        <ele>2466.58</ele>
        <time>2016-03-24T12:35:03Z</time>
      </trkpt>
      <trkpt lat="45.54829" lon="6.82044">
        <ele>2464.41</ele>
        <time>2016-03-24T12:35:11Z</time>
      </trkpt>
      <trkpt lat="45.54832" lon="6.8207">
        <ele>2466.52</ele>
        <time>2016-03-24T12:35:18Z</time>
      </trkpt>
      <trkpt lat="45.5484" lon="6.82095">
        <ele>2462.4</ele>
        <time>2016-03-24T12:35:24Z</time>
      </trkpt>
      <trkpt lat="45.54848" lon="6.82121">
        <ele>2463.52</ele>
        <time>2016-03-24T12:35:32Z</time>
      </trkpt>
      <trkpt lat="45.54853" lon="6.82148">
        <ele>2461.35</ele>
        <time>2016-03-24T12:35:39Z</time>
      </trkpt>
      <trkpt lat="45.54857" lon="6.82175">
        <ele>2461.29</ele>
        <time>2016-03-24T12:35:44Z</time>
      </trkpt>
      <trkpt lat="45.54858" lon="6.82205">
        <ele>2456.3</ele>
        <time>2016-03-24T12:35:50Z</time>
      </trkpt>
      <trkpt lat="45.54852" lon="6.82232">
        <ele>2458.49</ele>
        <time>2016-03-24T12:35:57Z</time>
      </trkpt>
      <trkpt lat="45.54846" lon="6.82257">
        <ele>2460.56</ele>
        <time>2016-03-24T12:36:06Z</time>
      </trkpt>
      <trkpt lat="45.54839" lon="6.82285">
        <ele>2459.73</ele>
        <time>2016-03-24T12:36:12Z</time>
      </trkpt>
      <trkpt lat="45.54833" lon="6.82313">
        <ele>2459.58</ele>
        <time>2016-03-24T12:36:17Z</time>
      </trkpt>
      <trkpt lat="45.5483" lon="6.82341">
        <ele>2454.01</ele>
        <time>2016-03-24T12:36:22Z</time>
      </trkpt>
      <trkpt lat="45.54827" lon="6.82373">
        <ele>2447.82</ele>
        <time>2016-03-24T12:36:27Z</time>
      </trkpt>
      <trkpt lat="45.54824" lon="6.82398">
        <ele>2445.93</ele>
        <time>2016-03-24T12:36:31Z</time>
      </trkpt>
      <trkpt lat="45.54819" lon="6.82428">
        <ele>2445.73</ele>
        <time>2016-03-24T12:36:36Z</time>
      </trkpt>
      <trkpt lat="45.54806" lon="6.8245">
        <ele>2445.53</ele>
        <time>2016-03-24T12:36:43Z</time>
      </trkpt>
      <trkpt lat="45.54798" lon="6.82476">
        <ele>2445.53</ele>
        <time>2016-03-24T12:36:51Z</time>
      </trkpt>
      <trkpt lat="45.54792" lon="6.82501">
        <ele>2445.53</ele>
        <time>2016-03-24T12:37:17Z</time>
      </trkpt>
      <trkpt lat="45.54786" lon="6.82528">
        <ele>2444.53</ele>
        <time>2016-03-24T12:37:43Z</time>
      </trkpt>
      <trkpt lat="45.54777" lon="6.82552">
        <ele>2446.32</ele>
        <time>2016-03-24T12:37:51Z</time>
      </trkpt>
      <trkpt lat="45.54771" lon="6.82576">
        <ele>2452.13</ele>
        <time>2016-03-24T12:37:59Z</time>
      </trkpt>
      <trkpt lat="45.54764" lon="6.82601">
        <ele>2463.08</ele>
        <time>2016-03-24T12:38:10Z</time>
      </trkpt>
      <trkpt lat="45.54757" lon="6.82626">
        <ele>2468.33</ele>
        <time>2016-03-24T12:38:21Z</time>
      </trkpt>
      <trkpt lat="45.5475" lon="6.8265">
        <ele>2473.28</ele>
        <time>2016-03-24T12:38:31Z</time>
      </trkpt>
      <trkpt lat="45.54743" lon="6.82677">
        <ele>2474.49</ele>
        <time>2016-03-24T12:38:42Z</time>
      </trkpt>
      <trkpt lat="45.54734" lon="6.827">
        <ele>2476.43</ele>
        <time>2016-03-24T12:38:51Z</time>
      </trkpt>
      <trkpt lat="45.54726" lon="6.82724">
        <ele>2477.53</ele>
        <time>2016-03-24T12:39:01Z</time>
      </trkpt>
      <trkpt lat="45.54719" lon="6.82748">
        <ele>2471.57</ele>
        <time>2016-03-24T12:39:11Z</time>
      </trkpt>
      <trkpt lat="45.54712" lon="6.82773">
        <ele>2471.52</ele>
        <time>2016-03-24T12:39:21Z</time>
      </trkpt>
      <trkpt lat="45.54703" lon="6.82797">
        <ele>2470.52</ele>
        <time>2016-03-24T12:39:30Z</time>
      </trkpt>
      <trkpt lat="45.54699" lon="6.82824">
        <ele>2476.28</ele>
        <time>2016-03-24T12:39:41Z</time>
      </trkpt>
      <trkpt lat="45.54693" lon="6.82849">
        <ele>2477.7</ele>
        <time>2016-03-24T12:39:51Z</time>
      </trkpt>
      <trkpt lat="45.54684" lon="6.82874">
        <ele>2473.61</ele>
        <time>2016-03-24T12:40:01Z</time>
      </trkpt>
      <trkpt lat="45.54678" lon="6.82901">
        <ele>2474.52</ele>
        <time>2016-03-24T12:40:12Z</time>
      </trkpt>
      <trkpt lat="45.54669" lon="6.82927">
        <ele>2478.49</ele>
        <time>2016-03-24T12:40:22Z</time>
      </trkpt>
      <trkpt lat="45.54665" lon="6.82952">
        <ele>2477.69</ele>
        <time>2016-03-24T12:40:32Z</time>
      </trkpt>
      <trkpt lat="45.5466" lon="6.82979">
        <ele>2480.31</ele>
        <time>2016-03-24T12:40:43Z</time>
      </trkpt>
      <trkpt lat="45.54652" lon="6.83004">
        <ele>2486.13</ele>
        <time>2016-03-24T12:40:53Z</time>
      </trkpt>
      <trkpt lat="45.54645" lon="6.83029">
        <ele>2494.52</ele>
        <time>2016-03-24T12:41:04Z</time>
      </trkpt>
      <trkpt lat="45.54641" lon="6.83056">
        <ele>2504.45</ele>
        <time>2016-03-24T12:41:15Z</time>
      </trkpt>
      <trkpt lat="45.54634" lon="6.83082">
        <ele>2514.52</ele>
        <time>2016-03-24T12:41:25Z</time>
      </trkpt>
      <trkpt lat="45.54626" lon="6.83107">
        <ele>2525.88</ele>
        <time>2016-03-24T12:41:37Z</time>
      </trkpt>
      <trkpt lat="45.54621" lon="6.83134">
        <ele>2539.12</ele>
        <time>2016-03-24T12:41:49Z</time>
      </trkpt>
      <trkpt lat="45.54614" lon="6.83159">
        <ele>2551.47</ele>
        <time>2016-03-24T12:42:00Z</time>
      </trkpt>
      <trkpt lat="45.54608" lon="6.83185">
        <ele>2561.25</ele>
        <time>2016-03-24T12:42:12Z</time>
      </trkpt>
      <trkpt lat="45.54599" lon="6.8321">
        <ele>2574.23</ele>
        <time>2016-03-24T12:42:22Z</time>
      </trkpt>
      <trkpt lat="45.54591" lon="6.83234">
        <ele>2587.28</ele>
        <time>2016-03-24T12:42:33Z</time>
      </trkpt>
      <trkpt lat="45.54586" lon="6.8326">
        <ele>2593.5</ele>
        <time>2016-03-24T12:42:44Z</time>
      </trkpt>
      <trkpt lat="45.54579" lon="6.83286">
        <ele>2596.53</ele>
        <time>2016-03-24T12:42:55Z</time>
      </trkpt>
      <trkpt lat="45.54572" lon="6.8331">
        <ele>2597.53</ele>
        <time>2016-03-24T12:43:05Z</time>
      </trkpt>
      <trkpt lat="45.54563" lon="6.83335">
        <ele>2602.52</ele>
        <time>2016-03-24T12:43:15Z</time>
      </trkpt>
      <trkpt lat="45.54556" lon="6.83361">
        <ele>2607.49</ele>
        <time>2016-03-24T12:43:25Z</time>
      </trkpt>
      <trkpt lat="45.5455" lon="6.83385">
        <ele>2611.48</ele>
        <time>2016-03-24T12:43:35Z</time>
      </trkpt>
      <trkpt lat="45.54542" lon="6.8341">
        <ele>2618.48</ele>
        <time>2016-03-24T12:43:45Z</time>
      </trkpt>
      <trkpt lat="45.54537" lon="6.83435">
        <ele>2620.52</ele>
        <time>2016-03-24T12:43:55Z</time>
      </trkpt>
      <trkpt lat="45.54529" lon="6.83459">
        <ele>2623.7</ele>
        <time>2016-03-24T12:44:05Z</time>
      </trkpt>
      <trkpt lat="45.54521" lon="6.83485">
        <ele>2627.32</ele>
        <time>2016-03-24T12:44:15Z</time>
      </trkpt>
      <trkpt lat="45.54515" lon="6.8351">
        <ele>2631.32</ele>
        <time>2016-03-24T12:44:25Z</time>
      </trkpt>
      <trkpt lat="45.54507" lon="6.83533">
        <ele>2636.32</ele>
        <time>2016-03-24T12:44:34Z</time>
      </trkpt>
      <trkpt lat="45.54501" lon="6.83558">
        <ele>2638.53</ele>
        <time>2016-03-24T12:44:44Z</time>
      </trkpt>
      <trkpt lat="45.54493" lon="6.83584">
        <ele>2644.49</ele>
        <time>2016-03-24T12:44:55Z</time>
      </trkpt>
      <trkpt lat="45.54483" lon="6.83608">
        <ele>2650.49</ele>
        <time>2016-03-24T12:45:06Z</time>
      </trkpt>
      <trkpt lat="45.54475" lon="6.83632">
        <ele>2660.45</ele>
        <time>2016-03-24T12:45:17Z</time>
      </trkpt>
      <trkpt lat="45.54464" lon="6.83653">
        <ele>2669.29</ele>
        <time>2016-03-24T12:45:26Z</time>
      </trkpt>
      <trkpt lat="45.5446" lon="6.83681">
        <ele>2670.36</ele>
        <time>2016-03-24T12:45:38Z</time>
      </trkpt>
      <trkpt lat="45.54453" lon="6.83706">
        <ele>2672.57</ele>
        <time>2016-03-24T12:45:49Z</time>
      </trkpt>
      <trkpt lat="45.54446" lon="6.83734">
        <ele>2675.37</ele>
        <time>2016-03-24T12:46:00Z</time>
      </trkpt>
      <trkpt lat="45.54438" lon="6.83757">
        <ele>2678.53</ele>
        <time>2016-03-24T12:46:09Z</time>
      </trkpt>
      <trkpt lat="45.5443" lon="6.83782">
        <ele>2684.52</ele>
        <time>2016-03-24T12:46:19Z</time>
      </trkpt>
      <trkpt lat="45.54422" lon="6.83805">
        <ele>2691.12</ele>
        <time>2016-03-24T12:46:28Z</time>
      </trkpt>
      <trkpt lat="45.5441" lon="6.83828">
        <ele>2700.28</ele>
        <time>2016-03-24T12:46:36Z</time>
      </trkpt>
      <trkpt lat="45.5441" lon="6.83854">
        <ele>2705.32</ele>
        <time>2016-03-24T12:46:49Z</time>
      </trkpt>
      <trkpt lat="45.54404" lon="6.83881">
        <ele>2715.28</ele>
        <time>2016-03-24T12:47:00Z</time>
      </trkpt>
      <trkpt lat="45.544" lon="6.83906">
        <ele>2731.27</ele>
        <time>2016-03-24T12:47:12Z</time>
      </trkpt>
      <trkpt lat="45.54393" lon="6.8393">
        <ele>2744.43</ele>
        <time>2016-03-24T12:47:23Z</time>
      </trkpt>
      <trkpt lat="45.54386" lon="6.83955">
        <ele>2759.27</ele>
        <time>2016-03-24T12:47:35Z</time>
      </trkpt>
      <trkpt lat="45.54382" lon="6.83981">
        <ele>2774.27</ele>
        <time>2016-03-24T12:47:48Z</time>
      </trkpt>
      <trkpt lat="45.54378" lon="6.84006">
        <ele>2783.25</ele>
        <time>2016-03-24T12:48:00Z</time>
      </trkpt>
      <trkpt lat="45.54373" lon="6.84031">
        <ele>2791.53</ele>
        <time>2016-03-24T12:48:11Z</time>
      </trkpt>
      <trkpt lat="45.54365" lon="6.84056">
        <ele>2804.13</ele>
        <time>2016-03-24T12:48:22Z</time>
      </trkpt>
      <trkpt lat="45.54359" lon="6.84081">
        <ele>2809.48</ele>
        <time>2016-03-24T12:48:33Z</time>
      </trkpt>
      <trkpt lat="45.54351" lon="6.84106">
        <ele>2813.51</ele>
        <time>2016-03-24T12:48:44Z</time>
      </trkpt>
      <trkpt lat="45.54346" lon="6.84134">
        <ele>2813.3</ele>
        <time>2016-03-24T12:48:54Z</time>
      </trkpt>
      <trkpt lat="45.54355" lon="6.84157">
        <ele>2818.54</ele>
        <time>2016-03-24T12:49:29Z</time>
      </trkpt>
      <trkpt lat="45.54373" lon="6.84162">
        <ele>2815.74</ele>
        <time>2016-03-24T12:49:39Z</time>
      </trkpt>
      <trkpt lat="45.54393" lon="6.84155">
        <ele>2807.93</ele>
        <time>2016-03-24T12:49:47Z</time>
      </trkpt>
      <trkpt lat="45.54409" lon="6.84143">
        <ele>2805.72</ele>
        <time>2016-03-24T12:49:55Z</time>
      </trkpt>
      <trkpt lat="45.54428" lon="6.84139">
        <ele>2800.78</ele>
        <time>2016-03-24T12:50:09Z</time>
      </trkpt>
      <trkpt lat="45.54443" lon="6.8412">
        <ele>2790.78</ele>
        <time>2016-03-24T12:50:36Z</time>
      </trkpt>
      <trkpt lat="45.54451" lon="6.84094">
        <ele>2784.78</ele>
        <time>2016-03-24T12:50:47Z</time>
      </trkpt>
      <trkpt lat="45.54456" lon="6.84068">
        <ele>2775.77</ele>
        <time>2016-03-24T12:50:57Z</time>
      </trkpt>
      <trkpt lat="45.5447" lon="6.84044">
        <ele>2769.74</ele>
        <time>2016-03-24T12:51:06Z</time>
      </trkpt>
      <trkpt lat="45.54471" lon="6.84014">
        <ele>2761.97</ele>
        <time>2016-03-24T12:51:18Z</time>
      </trkpt>
      <trkpt lat="45.54477" lon="6.83989">
        <ele>2743.78</ele>
        <time>2016-03-24T12:51:35Z</time>
      </trkpt>
      <trkpt lat="45.5447" lon="6.83965">
        <ele>2733.98</ele>
        <time>2016-03-24T12:51:44Z</time>
      </trkpt>
      <trkpt lat="45.54466" lon="6.83939">
        <ele>2721.82</ele>
        <time>2016-03-24T12:51:52Z</time>
      </trkpt>
      <trkpt lat="45.54482" lon="6.83925">
        <ele>2716.82</ele>
        <time>2016-03-24T12:51:57Z</time>
      </trkpt>
      <trkpt lat="45.54467" lon="6.83908">
        <ele>2715.53</ele>
        <time>2016-03-24T12:52:02Z</time>
      </trkpt>
      <trkpt lat="45.5446" lon="6.83878">
        <ele>2708.63</ele>
        <time>2016-03-24T12:52:07Z</time>
      </trkpt>
      <trkpt lat="45.54456" lon="6.83847">
        <ele>2705.97</ele>
        <time>2016-03-24T12:52:10Z</time>
      </trkpt>
      <trkpt lat="45.54469" lon="6.83813">
        <ele>2701.82</ele>
        <time>2016-03-24T12:52:13Z</time>
      </trkpt>
      <trkpt lat="45.54473" lon="6.8377">
        <ele>2698.02</ele>
        <time>2016-03-24T12:52:15Z</time>
      </trkpt>
      <trkpt lat="45.54484" lon="6.83737">
        <ele>2695.79</ele>
        <time>2016-03-24T12:52:17Z</time>
      </trkpt>
      <trkpt lat="45.54493" lon="6.8371">
        <ele>2692.82</ele>
        <time>2016-03-24T12:52:19Z</time>
      </trkpt>
      <trkpt lat="45.545" lon="6.83685">
        <ele>2673.62</ele>
        <time>2016-03-24T12:53:43Z</time>
      </trkpt>
      <trkpt lat="45.54509" lon="6.83661">
        <ele>2667.49</ele>
        <time>2016-03-24T12:54:02Z</time>
      </trkpt>
      <trkpt lat="45.54515" lon="6.83627">
        <ele>2660.98</ele>
        <time>2016-03-24T12:54:06Z</time>
      </trkpt>
      <trkpt lat="45.54529" lon="6.83599">
        <ele>2657.59</ele>
        <time>2016-03-24T12:54:09Z</time>
      </trkpt>
      <trkpt lat="45.5454" lon="6.83571">
        <ele>2654.97</ele>
        <time>2016-03-24T12:54:11Z</time>
      </trkpt>
      <trkpt lat="45.5455" lon="6.83549">
        <ele>2651.19</ele>
        <time>2016-03-24T12:54:13Z</time>
      </trkpt>
      <trkpt lat="45.54557" lon="6.83518">
        <ele>2648</ele>
        <time>2016-03-24T12:54:15Z</time>
      </trkpt>
      <trkpt lat="45.54561" lon="6.83492">
        <ele>2642.91</ele>
        <time>2016-03-24T12:54:17Z</time>
      </trkpt>
      <trkpt lat="45.5457" lon="6.83458">
        <ele>2637.99</ele>
        <time>2016-03-24T12:54:20Z</time>
      </trkpt>
      <trkpt lat="45.54565" lon="6.83423">
        <ele>2632.99</ele>
        <time>2016-03-24T12:54:23Z</time>
      </trkpt>
      <trkpt lat="45.54561" lon="6.83385">
        <ele>2628.82</ele>
        <time>2016-03-24T12:54:26Z</time>
      </trkpt>
      <trkpt lat="45.54561" lon="6.83357">
        <ele>2625.02</ele>
        <time>2016-03-24T12:54:28Z</time>
      </trkpt>
      <trkpt lat="45.54549" lon="6.83326">
        <ele>2619.27</ele>
        <time>2016-03-24T12:54:30Z</time>
      </trkpt>
      <trkpt lat="45.5454" lon="6.83293">
        <ele>2613.28</ele>
        <time>2016-03-24T12:54:32Z</time>
      </trkpt>
      <trkpt lat="45.54549" lon="6.83265">
        <ele>2603.29</ele>
        <time>2016-03-24T12:54:35Z</time>
      </trkpt>
      <trkpt lat="45.54559" lon="6.83243">
        <ele>2590.94</ele>
        <time>2016-03-24T12:54:56Z</time>
      </trkpt>
      <trkpt lat="45.54561" lon="6.83217">
        <ele>2581.54</ele>
        <time>2016-03-24T12:55:04Z</time>
      </trkpt>
      <trkpt lat="45.54558" lon="6.83191">
        <ele>2564.89</ele>
        <time>2016-03-24T12:55:12Z</time>
      </trkpt>
      <trkpt lat="45.54565" lon="6.83164">
        <ele>2552.39</ele>
        <time>2016-03-24T12:55:22Z</time>
      </trkpt>
      <trkpt lat="45.54554" lon="6.83137">
        <ele>2545.03</ele>
        <time>2016-03-24T12:55:28Z</time>
      </trkpt>
      <trkpt lat="45.54564" lon="6.83112">
        <ele>2540.75</ele>
        <time>2016-03-24T12:55:32Z</time>
      </trkpt>
      <trkpt lat="45.54579" lon="6.83093">
        <ele>2535.73</ele>
        <time>2016-03-24T12:55:50Z</time>
      </trkpt>
      <trkpt lat="45.54588" lon="6.83064">
        <ele>2531.82</ele>
        <time>2016-03-24T12:55:53Z</time>
      </trkpt>
      <trkpt lat="45.54603" lon="6.83037">
        <ele>2526.42</ele>
        <time>2016-03-24T12:55:55Z</time>
      </trkpt>
      <trkpt lat="45.54617" lon="6.83005">
        <ele>2523.01</ele>
        <time>2016-03-24T12:55:57Z</time>
      </trkpt>
      <trkpt lat="45.54635" lon="6.82973">
        <ele>2521.75</ele>
        <time>2016-03-24T12:55:59Z</time>
      </trkpt>
      <trkpt lat="45.54647" lon="6.82953">
        <ele>2521.57</ele>
        <time>2016-03-24T12:56:00Z</time>
      </trkpt>
      <trkpt lat="45.54661" lon="6.82919">
        <ele>2517.05</ele>
        <time>2016-03-24T12:56:02Z</time>
      </trkpt>
      <trkpt lat="45.54675" lon="6.82892">
        <ele>2514.79</ele>
        <time>2016-03-24T12:56:04Z</time>
      </trkpt>
      <trkpt lat="45.54686" lon="6.82868">
        <ele>2511.82</ele>
        <time>2016-03-24T12:56:06Z</time>
      </trkpt>
      <trkpt lat="45.54701" lon="6.8284">
        <ele>2506.77</ele>
        <time>2016-03-24T12:56:09Z</time>
      </trkpt>
      <trkpt lat="45.54711" lon="6.82819">
        <ele>2500.64</ele>
        <time>2016-03-24T12:56:12Z</time>
      </trkpt>
      <trkpt lat="45.54722" lon="6.82797">
        <ele>2497.61</ele>
        <time>2016-03-24T12:56:16Z</time>
      </trkpt>
      <trkpt lat="45.54734" lon="6.82776">
        <ele>2489.53</ele>
        <time>2016-03-24T12:56:24Z</time>
      </trkpt>
      <trkpt lat="45.54744" lon="6.82754">
        <ele>2486.53</ele>
        <time>2016-03-24T12:56:40Z</time>
      </trkpt>
      <trkpt lat="45.54756" lon="6.82733">
        <ele>2484.13</ele>
        <time>2016-03-24T12:56:59Z</time>
      </trkpt>
      <trkpt lat="45.54767" lon="6.82711">
        <ele>2484.5</ele>
        <time>2016-03-24T12:57:10Z</time>
      </trkpt>
      <trkpt lat="45.5478" lon="6.82689">
        <ele>2482.57</ele>
        <time>2016-03-24T12:57:33Z</time>
      </trkpt>
      <trkpt lat="45.54793" lon="6.8266">
        <ele>2478.78</ele>
        <time>2016-03-24T12:57:38Z</time>
      </trkpt>
      <trkpt lat="45.54807" lon="6.8263">
        <ele>2476.61</ele>
        <time>2016-03-24T12:57:41Z</time>
      </trkpt>
      <trkpt lat="45.54816" lon="6.82608">
        <ele>2474.13</ele>
        <time>2016-03-24T12:57:43Z</time>
      </trkpt>
      <trkpt lat="45.54832" lon="6.82582">
        <ele>2473.56</ele>
        <time>2016-03-24T12:57:45Z</time>
      </trkpt>
      <trkpt lat="45.54846" lon="6.82565">
        <ele>2466.49</ele>
        <time>2016-03-24T12:57:47Z</time>
      </trkpt>
      <trkpt lat="45.54868" lon="6.82567">
        <ele>2461.83</ele>
        <time>2016-03-24T12:57:50Z</time>
      </trkpt>
      <trkpt lat="45.54883" lon="6.82583">
        <ele>2462.66</ele>
        <time>2016-03-24T12:57:52Z</time>
      </trkpt>
      <trkpt lat="45.54895" lon="6.82607">
        <ele>2458.82</ele>
        <time>2016-03-24T12:57:55Z</time>
      </trkpt>
      <trkpt lat="45.54907" lon="6.82635">
        <ele>2454.82</ele>
        <time>2016-03-24T12:57:58Z</time>
      </trkpt>
      <trkpt lat="45.54921" lon="6.82664">
        <ele>2451.81</ele>
        <time>2016-03-24T12:58:01Z</time>
      </trkpt>
      <trkpt lat="45.54934" lon="6.82687">
        <ele>2452.34</ele>
        <time>2016-03-24T12:58:03Z</time>
      </trkpt>
      <trkpt lat="45.5495" lon="6.82708">
        <ele>2447.24</ele>
        <time>2016-03-24T12:58:05Z</time>
      </trkpt>
      <trkpt lat="45.54969" lon="6.82722">
        <ele>2444.96</ele>
        <time>2016-03-24T12:58:07Z</time>
      </trkpt>
      <trkpt lat="45.54994" lon="6.8273">
        <ele>2443.59</ele>
        <time>2016-03-24T12:58:09Z</time>
      </trkpt>
      <trkpt lat="45.5502" lon="6.82736">
        <ele>2442.73</ele>
        <time>2016-03-24T12:58:11Z</time>
      </trkpt>
      <trkpt lat="45.55046" lon="6.82742">
        <ele>2439.82</ele>
        <time>2016-03-24T12:58:13Z</time>
      </trkpt>
      <trkpt lat="45.55073" lon="6.82741">
        <ele>2437.94</ele>
        <time>2016-03-24T12:58:15Z</time>
      </trkpt>
      <trkpt lat="45.55094" lon="6.82741">
        <ele>2433.87</ele>
        <time>2016-03-24T12:58:17Z</time>
      </trkpt>
      <trkpt lat="45.55112" lon="6.82736">
        <ele>2428.42</ele>
        <time>2016-03-24T12:58:19Z</time>
      </trkpt>
      <trkpt lat="45.55138" lon="6.82723">
        <ele>2420.85</ele>
        <time>2016-03-24T12:58:22Z</time>
      </trkpt>
      <trkpt lat="45.55157" lon="6.82708">
        <ele>2418.78</ele>
        <time>2016-03-24T12:58:24Z</time>
      </trkpt>
      <trkpt lat="45.55178" lon="6.82691">
        <ele>2417.74</ele>
        <time>2016-03-24T12:58:26Z</time>
      </trkpt>
      <trkpt lat="45.55193" lon="6.82677">
        <ele>2412.74</ele>
        <time>2016-03-24T12:58:28Z</time>
      </trkpt>
      <trkpt lat="45.55212" lon="6.82677">
        <ele>2406.68</ele>
        <time>2016-03-24T12:58:31Z</time>
      </trkpt>
      <trkpt lat="45.55222" lon="6.82651">
        <ele>2379.95</ele>
        <time>2016-03-24T13:03:02Z</time>
      </trkpt>
      <trkpt lat="45.55237" lon="6.82624">
        <ele>2377.61</ele>
        <time>2016-03-24T13:03:05Z</time>
      </trkpt>
      <trkpt lat="45.55257" lon="6.82599">
        <ele>2376.38</ele>
        <time>2016-03-24T13:03:08Z</time>
      </trkpt>
      <trkpt lat="45.55272" lon="6.8258">
        <ele>2375.54</ele>
        <time>2016-03-24T13:03:11Z</time>
      </trkpt>
      <trkpt lat="45.55284" lon="6.82559">
        <ele>2372.56</ele>
        <time>2016-03-24T13:03:14Z</time>
      </trkpt>
      <trkpt lat="45.55297" lon="6.82534">
        <ele>2370.89</ele>
        <time>2016-03-24T13:03:18Z</time>
      </trkpt>
      <trkpt lat="45.55311" lon="6.82512">
        <ele>2369.53</ele>
        <time>2016-03-24T13:03:23Z</time>
      </trkpt>
      <trkpt lat="45.55323" lon="6.82491">
        <ele>2368.34</ele>
        <time>2016-03-24T13:03:28Z</time>
      </trkpt>
      <trkpt lat="45.55334" lon="6.82469">
        <ele>2365.53</ele>
        <time>2016-03-24T13:03:33Z</time>
      </trkpt>
      <trkpt lat="45.55347" lon="6.8245">
        <ele>2364.54</ele>
        <time>2016-03-24T13:03:38Z</time>
      </trkpt>
      <trkpt lat="45.55361" lon="6.82429">
        <ele>2363.53</ele>
        <time>2016-03-24T13:03:44Z</time>
      </trkpt>
      <trkpt lat="45.55377" lon="6.82409">
        <ele>2361.73</ele>
        <time>2016-03-24T13:03:49Z</time>
      </trkpt>
      <trkpt lat="45.55392" lon="6.82391">
        <ele>2359.57</ele>
        <time>2016-03-24T13:03:53Z</time>
      </trkpt>
      <trkpt lat="45.55405" lon="6.82372">
        <ele>2358.54</ele>
        <time>2016-03-24T13:03:56Z</time>
      </trkpt>
      <trkpt lat="45.55421" lon="6.82353">
        <ele>2356.74</ele>
        <time>2016-03-24T13:03:59Z</time>
      </trkpt>
      <trkpt lat="45.55438" lon="6.82338">
        <ele>2352.79</ele>
        <time>2016-03-24T13:04:02Z</time>
      </trkpt>
      <trkpt lat="45.55456" lon="6.82319">
        <ele>2351.73</ele>
        <time>2016-03-24T13:04:05Z</time>
      </trkpt>
      <trkpt lat="45.55474" lon="6.82292">
        <ele>2348.81</ele>
        <time>2016-03-24T13:04:08Z</time>
      </trkpt>
      <trkpt lat="45.55488" lon="6.8227">
        <ele>2347.58</ele>
        <time>2016-03-24T13:04:10Z</time>
      </trkpt>
      <trkpt lat="45.55504" lon="6.82249">
        <ele>2347.53</ele>
        <time>2016-03-24T13:04:12Z</time>
      </trkpt>
      <trkpt lat="45.55521" lon="6.82229">
        <ele>2346.57</ele>
        <time>2016-03-24T13:04:14Z</time>
      </trkpt>
      <trkpt lat="45.55537" lon="6.82211">
        <ele>2346.53</ele>
        <time>2016-03-24T13:04:16Z</time>
      </trkpt>
      <trkpt lat="45.55554" lon="6.82185">
        <ele>2338.37</ele>
        <time>2016-03-24T13:04:19Z</time>
      </trkpt>
      <trkpt lat="45.5557" lon="6.82169">
        <ele>2335.8</ele>
        <time>2016-03-24T13:04:21Z</time>
      </trkpt>
      <trkpt lat="45.5559" lon="6.8215">
        <ele>2332.59</ele>
        <time>2016-03-24T13:04:24Z</time>
      </trkpt>
      <trkpt lat="45.55611" lon="6.82132">
        <ele>2330.58</ele>
        <time>2016-03-24T13:04:27Z</time>
      </trkpt>
      <trkpt lat="45.55631" lon="6.82114">
        <ele>2331.52</ele>
        <time>2016-03-24T13:04:30Z</time>
      </trkpt>
      <trkpt lat="45.55651" lon="6.82123">
        <ele>2309.54</ele>
        <time>2016-03-24T13:05:06Z</time>
      </trkpt>
      <trkpt lat="45.55674" lon="6.82122">
        <ele>2305.76</ele>
        <time>2016-03-24T13:05:09Z</time>
      </trkpt>
      <trkpt lat="45.55691" lon="6.8213">
        <ele>2302.98</ele>
        <time>2016-03-24T13:05:11Z</time>
      </trkpt>
      <trkpt lat="45.55712" lon="6.8213">
        <ele>2301.59</ele>
        <time>2016-03-24T13:05:13Z</time>
      </trkpt>
      <trkpt lat="45.5573" lon="6.82122">
        <ele>2299.77</ele>
        <time>2016-03-24T13:05:15Z</time>
      </trkpt>
      <trkpt lat="45.55754" lon="6.82126">
        <ele>2295.82</ele>
        <time>2016-03-24T13:05:18Z</time>
      </trkpt>
      <trkpt lat="45.55773" lon="6.82125">
        <ele>2294.58</ele>
        <time>2016-03-24T13:05:20Z</time>
      </trkpt>
      <trkpt lat="45.55793" lon="6.82123">
        <ele>2288.13</ele>
        <time>2016-03-24T13:05:22Z</time>
      </trkpt>
      <trkpt lat="45.5582" lon="6.82127">
        <ele>2284.82</ele>
        <time>2016-03-24T13:05:25Z</time>
      </trkpt>
      <trkpt lat="45.55843" lon="6.82126">
        <ele>2284.5</ele>
        <time>2016-03-24T13:05:28Z</time>
      </trkpt>
      <trkpt lat="45.55868" lon="6.82124">
        <ele>2281.94</ele>
        <time>2016-03-24T13:05:31Z</time>
      </trkpt>
      <trkpt lat="45.55893" lon="6.82135">
        <ele>2278.59</ele>
        <time>2016-03-24T13:05:34Z</time>
      </trkpt>
      <trkpt lat="45.55918" lon="6.82142">
        <ele>2271.2</ele>
        <time>2016-03-24T13:05:37Z</time>
      </trkpt>
      <trkpt lat="45.5594" lon="6.82153">
        <ele>2265.35</ele>
        <time>2016-03-24T13:05:40Z</time>
      </trkpt>
      <trkpt lat="45.55959" lon="6.82168">
        <ele>2261.79</ele>
        <time>2016-03-24T13:05:43Z</time>
      </trkpt>
      <trkpt lat="45.55975" lon="6.82189">
        <ele>2258.78</ele>
        <time>2016-03-24T13:05:46Z</time>
      </trkpt>
      <trkpt lat="45.55989" lon="6.82218">
        <ele>2253.99</ele>
        <time>2016-03-24T13:05:49Z</time>
      </trkpt>
      <trkpt lat="45.55995" lon="6.82256">
        <ele>2250.62</ele>
        <time>2016-03-24T13:05:52Z</time>
      </trkpt>
      <trkpt lat="45.56007" lon="6.82279">
        <ele>2249.57</ele>
        <time>2016-03-24T13:05:54Z</time>
      </trkpt>
      <trkpt lat="45.56019" lon="6.823">
        <ele>2241.5</ele>
        <time>2016-03-24T13:05:57Z</time>
      </trkpt>
      <trkpt lat="45.56034" lon="6.82319">
        <ele>2240.73</ele>
        <time>2016-03-24T13:06:00Z</time>
      </trkpt>
      <trkpt lat="45.56054" lon="6.8234">
        <ele>2238.78</ele>
        <time>2016-03-24T13:06:02Z</time>
      </trkpt>
      <trkpt lat="45.5607" lon="6.8236">
        <ele>2238.38</ele>
        <time>2016-03-24T13:06:04Z</time>
      </trkpt>
      <trkpt lat="45.56084" lon="6.82379">
        <ele>2237.08</ele>
        <time>2016-03-24T13:06:06Z</time>
      </trkpt>
      <trkpt lat="45.561" lon="6.82401">
        <ele>2235.75</ele>
        <time>2016-03-24T13:06:08Z</time>
      </trkpt>
      <trkpt lat="45.56117" lon="6.8242">
        <ele>2234.74</ele>
        <time>2016-03-24T13:06:10Z</time>
      </trkpt>
      <trkpt lat="45.56138" lon="6.82437">
        <ele>2234.7</ele>
        <time>2016-03-24T13:06:12Z</time>
      </trkpt>
      <trkpt lat="45.56156" lon="6.8245">
        <ele>2232.78</ele>
        <time>2016-03-24T13:06:14Z</time>
      </trkpt>
      <trkpt lat="45.56177" lon="6.82462">
        <ele>2231.9</ele>
        <time>2016-03-24T13:06:16Z</time>
      </trkpt>
      <trkpt lat="45.562" lon="6.82471">
        <ele>2228.78</ele>
        <time>2016-03-24T13:06:19Z</time>
      </trkpt>
      <trkpt lat="45.56219" lon="6.82477">
        <ele>2224.98</ele>
        <time>2016-03-24T13:06:22Z</time>
      </trkpt>
      <trkpt lat="45.56242" lon="6.82484">
        <ele>2218.83</ele>
        <time>2016-03-24T13:06:26Z</time>
      </trkpt>
      <trkpt lat="45.56264" lon="6.82488">
        <ele>2215.74</ele>
        <time>2016-03-24T13:06:30Z</time>
      </trkpt>
      <trkpt lat="45.56288" lon="6.82482">
        <ele>2212.78</ele>
        <time>2016-03-24T13:06:34Z</time>
      </trkpt>
      <trkpt lat="45.56308" lon="6.82478">
        <ele>2211.54</ele>
        <time>2016-03-24T13:06:37Z</time>
      </trkpt>
      <trkpt lat="45.56331" lon="6.82478">
        <ele>2210.54</ele>
        <time>2016-03-24T13:06:40Z</time>
      </trkpt>
      <trkpt lat="45.56351" lon="6.82478">
        <ele>2207.78</ele>
        <time>2016-03-24T13:06:43Z</time>
      </trkpt>
      <trkpt lat="45.56371" lon="6.82477">
        <ele>2205.75</ele>
        <time>2016-03-24T13:06:47Z</time>
      </trkpt>
      <trkpt lat="45.5639" lon="6.82475">
        <ele>2204.89</ele>
        <time>2016-03-24T13:06:51Z</time>
      </trkpt>
      <trkpt lat="45.56413" lon="6.82477">
        <ele>2201.71</ele>
        <time>2016-03-24T13:06:55Z</time>
      </trkpt>
      <trkpt lat="45.56434" lon="6.82479">
        <ele>2196.97</ele>
        <time>2016-03-24T13:06:59Z</time>
      </trkpt>
      <trkpt lat="45.56453" lon="6.82477">
        <ele>2191.19</ele>
        <time>2016-03-24T13:07:02Z</time>
      </trkpt>
      <trkpt lat="45.56471" lon="6.82474">
        <ele>2188.42</ele>
        <time>2016-03-24T13:07:05Z</time>
      </trkpt>
      <trkpt lat="45.56472" lon="6.82448">
        <ele>2186.33</ele>
        <time>2016-03-24T13:07:18Z</time>
      </trkpt>
      <trkpt lat="45.56458" lon="6.82431">
        <ele>2185.73</ele>
        <time>2016-03-24T13:08:27Z</time>
      </trkpt>
      <trkpt lat="45.56442" lon="6.82409">
        <ele>2180.82</ele>
        <time>2016-03-24T13:09:14Z</time>
      </trkpt>
      <trkpt lat="45.56426" lon="6.82395">
        <ele>2183.32</ele>
        <time>2016-03-24T13:09:18Z</time>
      </trkpt>
      <trkpt lat="45.56409" lon="6.8238">
        <ele>2188.07</ele>
        <time>2016-03-24T13:09:23Z</time>
      </trkpt>
      <trkpt lat="45.56392" lon="6.82363">
        <ele>2196.28</ele>
        <time>2016-03-24T13:09:28Z</time>
      </trkpt>
      <trkpt lat="45.56375" lon="6.82345">
        <ele>2197.49</ele>
        <time>2016-03-24T13:09:33Z</time>
      </trkpt>
      <trkpt lat="45.56358" lon="6.82328">
        <ele>2197.72</ele>
        <time>2016-03-24T13:09:38Z</time>
      </trkpt>
      <trkpt lat="45.5634" lon="6.82311">
        <ele>2200.33</ele>
        <time>2016-03-24T13:09:43Z</time>
      </trkpt>
      <trkpt lat="45.56323" lon="6.82294">
        <ele>2203.29</ele>
        <time>2016-03-24T13:09:48Z</time>
      </trkpt>
      <trkpt lat="45.56306" lon="6.82278">
        <ele>2207.47</ele>
        <time>2016-03-24T13:09:53Z</time>
      </trkpt>
      <trkpt lat="45.56289" lon="6.82262">
        <ele>2211.28</ele>
        <time>2016-03-24T13:09:58Z</time>
      </trkpt>
      <trkpt lat="45.56273" lon="6.82246">
        <ele>2214.33</ele>
        <time>2016-03-24T13:10:03Z</time>
      </trkpt>
      <trkpt lat="45.56257" lon="6.82229">
        <ele>2215.33</ele>
        <time>2016-03-24T13:10:08Z</time>
      </trkpt>
      <trkpt lat="45.5624" lon="6.82211">
        <ele>2217.49</ele>
        <time>2016-03-24T13:10:13Z</time>
      </trkpt>
      <trkpt lat="45.56224" lon="6.82196">
        <ele>2218.37</ele>
        <time>2016-03-24T13:10:18Z</time>
      </trkpt>
      <trkpt lat="45.56207" lon="6.8218">
        <ele>2222.48</ele>
        <time>2016-03-24T13:10:23Z</time>
      </trkpt>
      <trkpt lat="45.56191" lon="6.82164">
        <ele>2226.32</ele>
        <time>2016-03-24T13:10:28Z</time>
      </trkpt>
      <trkpt lat="45.56175" lon="6.82148">
        <ele>2232.28</ele>
        <time>2016-03-24T13:10:33Z</time>
      </trkpt>
      <trkpt lat="45.56158" lon="6.82131">
        <ele>2239.2</ele>
        <time>2016-03-24T13:10:38Z</time>
      </trkpt>
      <trkpt lat="45.56141" lon="6.82115">
        <ele>2242.29</ele>
        <time>2016-03-24T13:10:43Z</time>
      </trkpt>
      <trkpt lat="45.56124" lon="6.82098">
        <ele>2246.28</ele>
        <time>2016-03-24T13:10:48Z</time>
      </trkpt>
      <trkpt lat="45.56108" lon="6.82083">
        <ele>2250.32</ele>
        <time>2016-03-24T13:10:53Z</time>
      </trkpt>
      <trkpt lat="45.56093" lon="6.82067">
        <ele>2256.27</ele>
        <time>2016-03-24T13:10:58Z</time>
      </trkpt>
      <trkpt lat="45.56076" lon="6.82049">
        <ele>2256.53</ele>
        <time>2016-03-24T13:11:03Z</time>
      </trkpt>
      <trkpt lat="45.56058" lon="6.82032">
        <ele>2258.52</ele>
        <time>2016-03-24T13:11:08Z</time>
      </trkpt>
      <trkpt lat="45.56042" lon="6.82016">
        <ele>2260.33</ele>
        <time>2016-03-24T13:11:13Z</time>
      </trkpt>
      <trkpt lat="45.56026" lon="6.82">
        <ele>2261.5</ele>
        <time>2016-03-24T13:11:18Z</time>
      </trkpt>
      <trkpt lat="45.56009" lon="6.81984">
        <ele>2264.32</ele>
        <time>2016-03-24T13:11:23Z</time>
      </trkpt>
      <trkpt lat="45.55994" lon="6.81969">
        <ele>2267.48</ele>
        <time>2016-03-24T13:11:28Z</time>
      </trkpt>
      <trkpt lat="45.55977" lon="6.81952">
        <ele>2268.53</ele>
        <time>2016-03-24T13:11:33Z</time>
      </trkpt>
      <trkpt lat="45.5596" lon="6.81937">
        <ele>2270.49</ele>
        <time>2016-03-24T13:11:38Z</time>
      </trkpt>
      <trkpt lat="45.55944" lon="6.81921">
        <ele>2272.49</ele>
        <time>2016-03-24T13:11:43Z</time>
      </trkpt>
      <trkpt lat="45.55927" lon="6.81903">
        <ele>2276.47</ele>
        <time>2016-03-24T13:11:48Z</time>
      </trkpt>
      <trkpt lat="45.55911" lon="6.81887">
        <ele>2279.32</ele>
        <time>2016-03-24T13:11:53Z</time>
      </trkpt>
      <trkpt lat="45.55895" lon="6.81871">
        <ele>2282.49</ele>
        <time>2016-03-24T13:11:58Z</time>
      </trkpt>
      <trkpt lat="45.55879" lon="6.81856">
        <ele>2287.48</ele>
        <time>2016-03-24T13:12:03Z</time>
      </trkpt>
      <trkpt lat="45.55863" lon="6.81839">
        <ele>2288.33</ele>
        <time>2016-03-24T13:12:08Z</time>
      </trkpt>
      <trkpt lat="45.55846" lon="6.81822">
        <ele>2287.53</ele>
        <time>2016-03-24T13:12:13Z</time>
      </trkpt>
      <trkpt lat="45.5583" lon="6.81805">
        <ele>2289.32</ele>
        <time>2016-03-24T13:12:18Z</time>
      </trkpt>
      <trkpt lat="45.55814" lon="6.81788">
        <ele>2290.49</ele>
        <time>2016-03-24T13:12:23Z</time>
      </trkpt>
      <trkpt lat="45.55797" lon="6.81773">
        <ele>2294.32</ele>
        <time>2016-03-24T13:12:28Z</time>
      </trkpt>
      <trkpt lat="45.55781" lon="6.81757">
        <ele>2299.05</ele>
        <time>2016-03-24T13:12:33Z</time>
      </trkpt>
      <trkpt lat="45.55765" lon="6.81741">
        <ele>2305.27</ele>
        <time>2016-03-24T13:12:38Z</time>
      </trkpt>
      <trkpt lat="45.55749" lon="6.81725">
        <ele>2311.27</ele>
        <time>2016-03-24T13:12:43Z</time>
      </trkpt>
      <trkpt lat="45.55734" lon="6.81708">
        <ele>2313.52</ele>
        <time>2016-03-24T13:12:48Z</time>
      </trkpt>
      <trkpt lat="45.55717" lon="6.81692">
        <ele>2315.49</ele>
        <time>2016-03-24T13:12:53Z</time>
      </trkpt>
      <trkpt lat="45.55701" lon="6.81675">
        <ele>2318.29</ele>
        <time>2016-03-24T13:12:58Z</time>
      </trkpt>
      <trkpt lat="45.55683" lon="6.81658">
        <ele>2323.44</ele>
        <time>2016-03-24T13:13:03Z</time>
      </trkpt>
      <trkpt lat="45.55667" lon="6.81643">
        <ele>2325.49</ele>
        <time>2016-03-24T13:13:08Z</time>
      </trkpt>
      <trkpt lat="45.55651" lon="6.81627">
        <ele>2329.48</ele>
        <time>2016-03-24T13:13:13Z</time>
      </trkpt>
      <trkpt lat="45.55635" lon="6.81611">
        <ele>2334.29</ele>
        <time>2016-03-24T13:13:18Z</time>
      </trkpt>
      <trkpt lat="45.55619" lon="6.81595">
        <ele>2342.07</ele>
        <time>2016-03-24T13:13:23Z</time>
      </trkpt>
      <trkpt lat="45.55603" lon="6.81579">
        <ele>2349.24</ele>
        <time>2016-03-24T13:13:28Z</time>
      </trkpt>
      <trkpt lat="45.55587" lon="6.81563">
        <ele>2352.32</ele>
        <time>2016-03-24T13:13:33Z</time>
      </trkpt>
      <trkpt lat="45.5557" lon="6.81547">
        <ele>2355.48</ele>
        <time>2016-03-24T13:13:38Z</time>
      </trkpt>
      <trkpt lat="45.55553" lon="6.8153">
        <ele>2359.48</ele>
        <time>2016-03-24T13:13:43Z</time>
      </trkpt>
      <trkpt lat="45.55537" lon="6.81515">
        <ele>2363.32</ele>
        <time>2016-03-24T13:13:48Z</time>
      </trkpt>
      <trkpt lat="45.55521" lon="6.81499">
        <ele>2367.29</ele>
        <time>2016-03-24T13:13:53Z</time>
      </trkpt>
      <trkpt lat="45.55504" lon="6.81482">
        <ele>2372.28</ele>
        <time>2016-03-24T13:13:58Z</time>
      </trkpt>
      <trkpt lat="45.55488" lon="6.81466">
        <ele>2378.28</ele>
        <time>2016-03-24T13:14:03Z</time>
      </trkpt>
      <trkpt lat="45.55473" lon="6.81451">
        <ele>2385.07</ele>
        <time>2016-03-24T13:14:08Z</time>
      </trkpt>
      <trkpt lat="45.55457" lon="6.81435">
        <ele>2391.24</ele>
        <time>2016-03-24T13:14:13Z</time>
      </trkpt>
      <trkpt lat="45.55442" lon="6.8142">
        <ele>2399.27</ele>
        <time>2016-03-24T13:14:18Z</time>
      </trkpt>
      <trkpt lat="45.55427" lon="6.81404">
        <ele>2409.02</ele>
        <time>2016-03-24T13:14:23Z</time>
      </trkpt>
      <trkpt lat="45.55411" lon="6.81389">
        <ele>2417.24</ele>
        <time>2016-03-24T13:14:28Z</time>
      </trkpt>
      <trkpt lat="45.55397" lon="6.81374">
        <ele>2425.27</ele>
        <time>2016-03-24T13:14:33Z</time>
      </trkpt>
      <trkpt lat="45.55381" lon="6.81359">
        <ele>2430.28</ele>
        <time>2016-03-24T13:14:38Z</time>
      </trkpt>
      <trkpt lat="45.55365" lon="6.81343">
        <ele>2436.12</ele>
        <time>2016-03-24T13:14:43Z</time>
      </trkpt>
      <trkpt lat="45.55349" lon="6.81328">
        <ele>2441.52</ele>
        <time>2016-03-24T13:14:50Z</time>
      </trkpt>
      <trkpt lat="45.55334" lon="6.81312">
        <ele>2448.29</ele>
        <time>2016-03-24T13:15:00Z</time>
      </trkpt>
      <trkpt lat="45.55316" lon="6.81295">
        <ele>2456.24</ele>
        <time>2016-03-24T13:15:07Z</time>
      </trkpt>
      <trkpt lat="45.55302" lon="6.8128">
        <ele>2461.28</ele>
        <time>2016-03-24T13:15:12Z</time>
      </trkpt>
      <trkpt lat="45.55285" lon="6.81265">
        <ele>2467.28</ele>
        <time>2016-03-24T13:15:17Z</time>
      </trkpt>
      <trkpt lat="45.55269" lon="6.81249">
        <ele>2474.08</ele>
        <time>2016-03-24T13:15:22Z</time>
      </trkpt>
      <trkpt lat="45.55254" lon="6.81234">
        <ele>2483.83</ele>
        <time>2016-03-24T13:15:27Z</time>
      </trkpt>
      <trkpt lat="45.55236" lon="6.81216">
        <ele>2494.04</ele>
        <time>2016-03-24T13:15:33Z</time>
      </trkpt>
      <trkpt lat="45.55221" lon="6.81201">
        <ele>2499.32</ele>
        <time>2016-03-24T13:15:38Z</time>
      </trkpt>
      <trkpt lat="45.55205" lon="6.81185">
        <ele>2503.28</ele>
        <time>2016-03-24T13:15:43Z</time>
      </trkpt>
      <trkpt lat="45.55188" lon="6.81169">
        <ele>2508.28</ele>
        <time>2016-03-24T13:15:48Z</time>
      </trkpt>
      <trkpt lat="45.55173" lon="6.81154">
        <ele>2514.24</ele>
        <time>2016-03-24T13:15:53Z</time>
      </trkpt>
      <trkpt lat="45.55156" lon="6.81138">
        <ele>2520.27</ele>
        <time>2016-03-24T13:15:58Z</time>
      </trkpt>
      <trkpt lat="45.5514" lon="6.81123">
        <ele>2527.24</ele>
        <time>2016-03-24T13:16:03Z</time>
      </trkpt>
      <trkpt lat="45.55123" lon="6.81106">
        <ele>2533.24</ele>
        <time>2016-03-24T13:16:08Z</time>
      </trkpt>
      <trkpt lat="45.55105" lon="6.81089">
        <ele>2537.49</ele>
        <time>2016-03-24T13:16:13Z</time>
      </trkpt>
      <trkpt lat="45.55096" lon="6.81065">
        <ele>2536.3</ele>
        <time>2016-03-24T13:16:24Z</time>
      </trkpt>
      <trkpt lat="45.55114" lon="6.81059">
        <ele>2542.77</ele>
        <time>2016-03-24T13:17:39Z</time>
      </trkpt>
      <trkpt lat="45.55132" lon="6.8107">
        <ele>2538.53</ele>
        <time>2016-03-24T13:17:48Z</time>
      </trkpt>
      <trkpt lat="45.55149" lon="6.81079">
        <ele>2527.86</ele>
        <time>2016-03-24T13:18:01Z</time>
      </trkpt>
      <trkpt lat="45.5517" lon="6.81085">
        <ele>2519.78</ele>
        <time>2016-03-24T13:18:20Z</time>
      </trkpt>
      <trkpt lat="45.55173" lon="6.81112">
        <ele>2513.77</ele>
        <time>2016-03-24T13:18:29Z</time>
      </trkpt>
      <trkpt lat="45.55182" lon="6.81136">
        <ele>2514.73</ele>
        <time>2016-03-24T13:18:33Z</time>
      </trkpt>
      <trkpt lat="45.552" lon="6.81154">
        <ele>2512.77</ele>
        <time>2016-03-24T13:18:36Z</time>
      </trkpt>
      <trkpt lat="45.55216" lon="6.81171">
        <ele>2509.81</ele>
        <time>2016-03-24T13:18:39Z</time>
      </trkpt>
      <trkpt lat="45.55236" lon="6.81176">
        <ele>2504.86</ele>
        <time>2016-03-24T13:18:42Z</time>
      </trkpt>
      <trkpt lat="45.55251" lon="6.81194">
        <ele>2495.74</ele>
        <time>2016-03-24T13:18:53Z</time>
      </trkpt>
      <trkpt lat="45.55269" lon="6.81193">
        <ele>2490.75</ele>
        <time>2016-03-24T13:19:00Z</time>
      </trkpt>
      <trkpt lat="45.55289" lon="6.8121">
        <ele>2489.46</ele>
        <time>2016-03-24T13:19:04Z</time>
      </trkpt>
      <trkpt lat="45.55294" lon="6.81236">
        <ele>2481.79</ele>
        <time>2016-03-24T13:19:10Z</time>
      </trkpt>
      <trkpt lat="45.55291" lon="6.81263">
        <ele>2470.98</ele>
        <time>2016-03-24T13:19:18Z</time>
      </trkpt>
      <trkpt lat="45.55298" lon="6.81287">
        <ele>2463.74</ele>
        <time>2016-03-24T13:19:27Z</time>
      </trkpt>
      <trkpt lat="45.55312" lon="6.81303">
        <ele>2456.38</ele>
        <time>2016-03-24T13:19:33Z</time>
      </trkpt>
      <trkpt lat="45.55332" lon="6.81319">
        <ele>2454.77</ele>
        <time>2016-03-24T13:19:37Z</time>
      </trkpt>
      <trkpt lat="45.55347" lon="6.8134">
        <ele>2452.74</ele>
        <time>2016-03-24T13:19:40Z</time>
      </trkpt>
      <trkpt lat="45.55364" lon="6.81357">
        <ele>2447.94</ele>
        <time>2016-03-24T13:19:44Z</time>
      </trkpt>
      <trkpt lat="45.55378" lon="6.81376">
        <ele>2441.54</ele>
        <time>2016-03-24T13:19:53Z</time>
      </trkpt>
      <trkpt lat="45.55394" lon="6.81393">
        <ele>2425.02</ele>
        <time>2016-03-24T13:20:06Z</time>
      </trkpt>
      <trkpt lat="45.55404" lon="6.81416">
        <ele>2418.73</ele>
        <time>2016-03-24T13:20:12Z</time>
      </trkpt>
      <trkpt lat="45.55421" lon="6.81433">
        <ele>2410.35</ele>
        <time>2016-03-24T13:20:21Z</time>
      </trkpt>
      <trkpt lat="45.55442" lon="6.81438">
        <ele>2401.73</ele>
        <time>2016-03-24T13:20:30Z</time>
      </trkpt>
      <trkpt lat="45.55454" lon="6.81461">
        <ele>2389.97</ele>
        <time>2016-03-24T13:20:42Z</time>
      </trkpt>
      <trkpt lat="45.55459" lon="6.81486">
        <ele>2383.98</ele>
        <time>2016-03-24T13:20:48Z</time>
      </trkpt>
      <trkpt lat="45.55482" lon="6.81501">
        <ele>2382.77</ele>
        <time>2016-03-24T13:20:52Z</time>
      </trkpt>
      <trkpt lat="45.55487" lon="6.81542">
        <ele>2377.99</ele>
        <time>2016-03-24T13:20:56Z</time>
      </trkpt>
      <trkpt lat="45.55486" lon="6.8157">
        <ele>2372.22</ele>
        <time>2016-03-24T13:20:59Z</time>
      </trkpt>
      <trkpt lat="45.55498" lon="6.81591">
        <ele>2370.53</ele>
        <time>2016-03-24T13:21:04Z</time>
      </trkpt>
      <trkpt lat="45.55515" lon="6.81601">
        <ele>2366.66</ele>
        <time>2016-03-24T13:21:08Z</time>
      </trkpt>
      <trkpt lat="45.55532" lon="6.81622">
        <ele>2361.03</ele>
        <time>2016-03-24T13:21:11Z</time>
      </trkpt>
      <trkpt lat="45.55548" lon="6.8164">
        <ele>2356.23</ele>
        <time>2016-03-24T13:21:13Z</time>
      </trkpt>
      <trkpt lat="45.55557" lon="6.81666">
        <ele>2351.88</ele>
        <time>2016-03-24T13:21:15Z</time>
      </trkpt>
      <trkpt lat="45.55571" lon="6.81688">
        <ele>2350.58</ele>
        <time>2016-03-24T13:21:17Z</time>
      </trkpt>
      <trkpt lat="45.5559" lon="6.81713">
        <ele>2348.93</ele>
        <time>2016-03-24T13:21:20Z</time>
      </trkpt>
      <trkpt lat="45.55601" lon="6.81735">
        <ele>2348.55</ele>
        <time>2016-03-24T13:21:22Z</time>
      </trkpt>
      <trkpt lat="45.55621" lon="6.81754">
        <ele>2346.61</ele>
        <time>2016-03-24T13:21:25Z</time>
      </trkpt>
      <trkpt lat="45.5564" lon="6.81759">
        <ele>2332.9</ele>
        <time>2016-03-24T13:21:28Z</time>
      </trkpt>
      <trkpt lat="45.55653" lon="6.81783">
        <ele>2331.59</ele>
        <time>2016-03-24T13:21:30Z</time>
      </trkpt>
      <trkpt lat="45.55667" lon="6.81803">
        <ele>2328.01</ele>
        <time>2016-03-24T13:21:32Z</time>
      </trkpt>
      <trkpt lat="45.55681" lon="6.81823">
        <ele>2323.87</ele>
        <time>2016-03-24T13:21:34Z</time>
      </trkpt>
      <trkpt lat="45.55698" lon="6.81849">
        <ele>2320.97</ele>
        <time>2016-03-24T13:21:37Z</time>
      </trkpt>
      <trkpt lat="45.55715" lon="6.81873">
        <ele>2315.22</ele>
        <time>2016-03-24T13:21:40Z</time>
      </trkpt>
      <trkpt lat="45.55737" lon="6.81888">
        <ele>2312.74</ele>
        <time>2016-03-24T13:21:43Z</time>
      </trkpt>
      <trkpt lat="45.55759" lon="6.81903">
        <ele>2307.99</ele>
        <time>2016-03-24T13:21:46Z</time>
      </trkpt>
      <trkpt lat="45.55783" lon="6.81913">
        <ele>2305.55</ele>
        <time>2016-03-24T13:21:49Z</time>
      </trkpt>
      <trkpt lat="45.55803" lon="6.81922">
        <ele>2299.61</ele>
        <time>2016-03-24T13:21:51Z</time>
      </trkpt>
      <trkpt lat="45.55823" lon="6.81936">
        <ele>2296.17</ele>
        <time>2016-03-24T13:21:53Z</time>
      </trkpt>
      <trkpt lat="45.55839" lon="6.81955">
        <ele>2292.04</ele>
        <time>2016-03-24T13:21:55Z</time>
      </trkpt>
      <trkpt lat="45.55857" lon="6.81971">
        <ele>2288.03</ele>
        <time>2016-03-24T13:21:57Z</time>
      </trkpt>
      <trkpt lat="45.55876" lon="6.81985">
        <ele>2283.87</ele>
        <time>2016-03-24T13:21:59Z</time>
      </trkpt>
      <trkpt lat="45.55894" lon="6.81998">
        <ele>2280.82</ele>
        <time>2016-03-24T13:22:01Z</time>
      </trkpt>
      <trkpt lat="45.55911" lon="6.82014">
        <ele>2277.82</ele>
        <time>2016-03-24T13:22:03Z</time>
      </trkpt>
      <trkpt lat="45.55928" lon="6.82026">
        <ele>2275.78</ele>
        <time>2016-03-24T13:22:05Z</time>
      </trkpt>
      <trkpt lat="45.55951" lon="6.82037">
        <ele>2268.91</ele>
        <time>2016-03-24T13:22:08Z</time>
      </trkpt>
      <trkpt lat="45.55968" lon="6.82051">
        <ele>2265.99</ele>
        <time>2016-03-24T13:22:10Z</time>
      </trkpt>
      <trkpt lat="45.55991" lon="6.82069">
        <ele>2260.8</ele>
        <time>2016-03-24T13:22:13Z</time>
      </trkpt>
      <trkpt lat="45.56008" lon="6.8208">
        <ele>2257.82</ele>
        <time>2016-03-24T13:22:15Z</time>
      </trkpt>
      <trkpt lat="45.56024" lon="6.8209">
        <ele>2254.82</ele>
        <time>2016-03-24T13:22:17Z</time>
      </trkpt>
      <trkpt lat="45.5604" lon="6.82103">
        <ele>2252.94</ele>
        <time>2016-03-24T13:22:19Z</time>
      </trkpt>
      <trkpt lat="45.56057" lon="6.82116">
        <ele>2249.99</ele>
        <time>2016-03-24T13:22:21Z</time>
      </trkpt>
      <trkpt lat="45.56081" lon="6.8213">
        <ele>2245.82</ele>
        <time>2016-03-24T13:22:24Z</time>
      </trkpt>
      <trkpt lat="45.56103" lon="6.82145">
        <ele>2241.98</ele>
        <time>2016-03-24T13:22:27Z</time>
      </trkpt>
      <trkpt lat="45.5612" lon="6.82158">
        <ele>2239.63</ele>
        <time>2016-03-24T13:22:29Z</time>
      </trkpt>
      <trkpt lat="45.56137" lon="6.82166">
        <ele>2236.97</ele>
        <time>2016-03-24T13:22:31Z</time>
      </trkpt>
      <trkpt lat="45.56156" lon="6.82178">
        <ele>2235.75</ele>
        <time>2016-03-24T13:22:33Z</time>
      </trkpt>
      <trkpt lat="45.56175" lon="6.82194">
        <ele>2231.06</ele>
        <time>2016-03-24T13:22:35Z</time>
      </trkpt>
      <trkpt lat="45.56195" lon="6.82209">
        <ele>2227.99</ele>
        <time>2016-03-24T13:22:37Z</time>
      </trkpt>
      <trkpt lat="45.56213" lon="6.82221">
        <ele>2226.75</ele>
        <time>2016-03-24T13:22:39Z</time>
      </trkpt>
      <trkpt lat="45.56236" lon="6.82239">
        <ele>2222.02</ele>
        <time>2016-03-24T13:22:42Z</time>
      </trkpt>
      <trkpt lat="45.56257" lon="6.82257">
        <ele>2216.99</ele>
        <time>2016-03-24T13:22:45Z</time>
      </trkpt>
      <trkpt lat="45.56276" lon="6.82269">
        <ele>2214.58</ele>
        <time>2016-03-24T13:22:48Z</time>
      </trkpt>
      <trkpt lat="45.56294" lon="6.82277">
        <ele>2210.98</ele>
        <time>2016-03-24T13:22:51Z</time>
      </trkpt>
      <trkpt lat="45.56312" lon="6.82285">
        <ele>2205.83</ele>
        <time>2016-03-24T13:22:54Z</time>
      </trkpt>
      <trkpt lat="45.56332" lon="6.82298">
        <ele>2201.82</ele>
        <time>2016-03-24T13:22:57Z</time>
      </trkpt>
      <trkpt lat="45.5635" lon="6.82309">
        <ele>2197.98</ele>
        <time>2016-03-24T13:23:00Z</time>
      </trkpt>
      <trkpt lat="45.5637" lon="6.82323">
        <ele>2197.56</ele>
        <time>2016-03-24T13:23:04Z</time>
      </trkpt>
      <trkpt lat="45.56389" lon="6.82336">
        <ele>2197.54</ele>
        <time>2016-03-24T13:23:08Z</time>
      </trkpt>
      <trkpt lat="45.56407" lon="6.82348">
        <ele>2196.78</ele>
        <time>2016-03-24T13:23:12Z</time>
      </trkpt>
      <trkpt lat="45.56423" lon="6.82359">
        <ele>2194.73</ele>
        <time>2016-03-24T13:23:16Z</time>
      </trkpt>
      <trkpt lat="45.5644" lon="6.82373">
        <ele>2192.13</ele>
        <time>2016-03-24T13:23:20Z</time>
      </trkpt>
      <trkpt lat="45.5646" lon="6.82388">
        <ele>2187.94</ele>
        <time>2016-03-24T13:23:24Z</time>
      </trkpt>
      <trkpt lat="45.56474" lon="6.82409">
        <ele>2186.57</ele>
        <time>2016-03-24T13:23:28Z</time>
      </trkpt>
      <trkpt lat="45.56479" lon="6.82437">
        <ele>2180.82</ele>
        <time>2016-03-24T13:23:33Z</time>
      </trkpt>
      <trkpt lat="45.56462" lon="6.82428">
        <ele>2184.53</ele>
        <time>2016-03-24T13:25:57Z</time>
      </trkpt>
      <trkpt lat="45.56445" lon="6.8241">
        <ele>2180.62</ele>
        <time>2016-03-24T13:28:10Z</time>
      </trkpt>
      <trkpt lat="45.56428" lon="6.82393">
        <ele>2179.53</ele>
        <time>2016-03-24T13:28:15Z</time>
      </trkpt>
      <trkpt lat="45.56411" lon="6.82378">
        <ele>2182.29</ele>
        <time>2016-03-24T13:28:20Z</time>
      </trkpt>
      <trkpt lat="45.56394" lon="6.82361">
        <ele>2188.29</ele>
        <time>2016-03-24T13:28:26Z</time>
      </trkpt>
      <trkpt lat="45.56377" lon="6.82344">
        <ele>2192.28</ele>
        <time>2016-03-24T13:28:31Z</time>
      </trkpt>
      <trkpt lat="45.5636" lon="6.82328">
        <ele>2195.29</ele>
        <time>2016-03-24T13:28:36Z</time>
      </trkpt>
      <trkpt lat="45.56341" lon="6.82311">
        <ele>2199.47</ele>
        <time>2016-03-24T13:28:41Z</time>
      </trkpt>
      <trkpt lat="45.56325" lon="6.82296">
        <ele>2202.32</ele>
        <time>2016-03-24T13:28:46Z</time>
      </trkpt>
      <trkpt lat="45.56307" lon="6.82279">
        <ele>2205.52</ele>
        <time>2016-03-24T13:28:52Z</time>
      </trkpt>
      <trkpt lat="45.56293" lon="6.82263">
        <ele>2212.23</ele>
        <time>2016-03-24T13:28:56Z</time>
      </trkpt>
      <trkpt lat="45.56277" lon="6.82243">
        <ele>2214.56</ele>
        <time>2016-03-24T13:29:01Z</time>
      </trkpt>
      <trkpt lat="45.5626" lon="6.82226">
        <ele>2215.53</ele>
        <time>2016-03-24T13:29:06Z</time>
      </trkpt>
      <trkpt lat="45.56244" lon="6.82211">
        <ele>2217.33</ele>
        <time>2016-03-24T13:29:11Z</time>
      </trkpt>
      <trkpt lat="45.56228" lon="6.82193">
        <ele>2219.33</ele>
        <time>2016-03-24T13:29:16Z</time>
      </trkpt>
      <trkpt lat="45.56212" lon="6.82179">
        <ele>2222.32</ele>
        <time>2016-03-24T13:29:21Z</time>
      </trkpt>
      <trkpt lat="45.56195" lon="6.82164">
        <ele>2226.29</ele>
        <time>2016-03-24T13:29:26Z</time>
      </trkpt>
      <trkpt lat="45.56179" lon="6.82152">
        <ele>2229.48</ele>
        <time>2016-03-24T13:29:31Z</time>
      </trkpt>
      <trkpt lat="45.56163" lon="6.82133">
        <ele>2233.21</ele>
        <time>2016-03-24T13:29:36Z</time>
      </trkpt>
      <trkpt lat="45.56147" lon="6.82117">
        <ele>2235.33</ele>
        <time>2016-03-24T13:29:41Z</time>
      </trkpt>
      <trkpt lat="45.56131" lon="6.821">
        <ele>2238.32</ele>
        <time>2016-03-24T13:29:46Z</time>
      </trkpt>
      <trkpt lat="45.56114" lon="6.82084">
        <ele>2241.48</ele>
        <time>2016-03-24T13:29:51Z</time>
      </trkpt>
      <trkpt lat="45.56098" lon="6.82069">
        <ele>2245.48</ele>
        <time>2016-03-24T13:29:56Z</time>
      </trkpt>
      <trkpt lat="45.56082" lon="6.8205">
        <ele>2248.53</ele>
        <time>2016-03-24T13:30:01Z</time>
      </trkpt>
      <trkpt lat="45.56066" lon="6.82034">
        <ele>2250.33</ele>
        <time>2016-03-24T13:30:06Z</time>
      </trkpt>
      <trkpt lat="45.56049" lon="6.82019">
        <ele>2251.32</ele>
        <time>2016-03-24T13:30:11Z</time>
      </trkpt>
      <trkpt lat="45.56032" lon="6.82001">
        <ele>2251.53</ele>
        <time>2016-03-24T13:30:16Z</time>
      </trkpt>
      <trkpt lat="45.56013" lon="6.81986">
        <ele>2255.29</ele>
        <time>2016-03-24T13:30:22Z</time>
      </trkpt>
      <trkpt lat="45.55998" lon="6.81967">
        <ele>2260.12</ele>
        <time>2016-03-24T13:30:27Z</time>
      </trkpt>
      <trkpt lat="45.55982" lon="6.8195">
        <ele>2263.57</ele>
        <time>2016-03-24T13:30:36Z</time>
      </trkpt>
      <trkpt lat="45.55966" lon="6.81936">
        <ele>2265.53</ele>
        <time>2016-03-24T13:30:46Z</time>
      </trkpt>
      <trkpt lat="45.5595" lon="6.8192">
        <ele>2266.53</ele>
        <time>2016-03-24T13:30:56Z</time>
      </trkpt>
      <trkpt lat="45.55933" lon="6.81903">
        <ele>2267.52</ele>
        <time>2016-03-24T13:31:03Z</time>
      </trkpt>
      <trkpt lat="45.55917" lon="6.81887">
        <ele>2270.32</ele>
        <time>2016-03-24T13:31:08Z</time>
      </trkpt>
      <trkpt lat="45.55901" lon="6.81869">
        <ele>2274.48</ele>
        <time>2016-03-24T13:31:13Z</time>
      </trkpt>
      <trkpt lat="45.55883" lon="6.81853">
        <ele>2278.29</ele>
        <time>2016-03-24T13:31:19Z</time>
      </trkpt>
      <trkpt lat="45.55866" lon="6.81836">
        <ele>2279.53</ele>
        <time>2016-03-24T13:31:24Z</time>
      </trkpt>
      <trkpt lat="45.55849" lon="6.81819">
        <ele>2280.5</ele>
        <time>2016-03-24T13:31:29Z</time>
      </trkpt>
      <trkpt lat="45.55833" lon="6.81802">
        <ele>2283.32</ele>
        <time>2016-03-24T13:31:34Z</time>
      </trkpt>
      <trkpt lat="45.55816" lon="6.81784">
        <ele>2287.48</ele>
        <time>2016-03-24T13:31:39Z</time>
      </trkpt>
      <trkpt lat="45.55799" lon="6.81767">
        <ele>2290.29</ele>
        <time>2016-03-24T13:31:44Z</time>
      </trkpt>
      <trkpt lat="45.55783" lon="6.81753">
        <ele>2293.29</ele>
        <time>2016-03-24T13:31:49Z</time>
      </trkpt>
      <trkpt lat="45.55767" lon="6.81734">
        <ele>2297.29</ele>
        <time>2016-03-24T13:31:54Z</time>
      </trkpt>
      <trkpt lat="45.55751" lon="6.81719">
        <ele>2303.3</ele>
        <time>2016-03-24T13:31:59Z</time>
      </trkpt>
      <trkpt lat="45.55736" lon="6.81704">
        <ele>2303.53</ele>
        <time>2016-03-24T13:32:04Z</time>
      </trkpt>
      <trkpt lat="45.55719" lon="6.81687">
        <ele>2306.33</ele>
        <time>2016-03-24T13:32:09Z</time>
      </trkpt>
      <trkpt lat="45.55703" lon="6.81672">
        <ele>2308.69</ele>
        <time>2016-03-24T13:32:14Z</time>
      </trkpt>
      <trkpt lat="45.55686" lon="6.81656">
        <ele>2311.32</ele>
        <time>2016-03-24T13:32:19Z</time>
      </trkpt>
      <trkpt lat="45.5567" lon="6.81642">
        <ele>2314.32</ele>
        <time>2016-03-24T13:32:24Z</time>
      </trkpt>
      <trkpt lat="45.55654" lon="6.81626">
        <ele>2320.08</ele>
        <time>2016-03-24T13:32:29Z</time>
      </trkpt>
      <trkpt lat="45.55637" lon="6.8161">
        <ele>2327.07</ele>
        <time>2016-03-24T13:32:34Z</time>
      </trkpt>
      <trkpt lat="45.55621" lon="6.81595">
        <ele>2332.31</ele>
        <time>2016-03-24T13:32:39Z</time>
      </trkpt>
      <trkpt lat="45.55605" lon="6.81579">
        <ele>2340.04</ele>
        <time>2016-03-24T13:32:44Z</time>
      </trkpt>
      <trkpt lat="45.55589" lon="6.81559">
        <ele>2344.32</ele>
        <time>2016-03-24T13:32:49Z</time>
      </trkpt>
      <trkpt lat="45.55572" lon="6.81544">
        <ele>2349.31</ele>
        <time>2016-03-24T13:32:54Z</time>
      </trkpt>
      <trkpt lat="45.55556" lon="6.81529">
        <ele>2354.28</ele>
        <time>2016-03-24T13:32:59Z</time>
      </trkpt>
      <trkpt lat="45.55539" lon="6.81511">
        <ele>2359.45</ele>
        <time>2016-03-24T13:33:04Z</time>
      </trkpt>
      <trkpt lat="45.55523" lon="6.81495">
        <ele>2360.53</ele>
        <time>2016-03-24T13:33:09Z</time>
      </trkpt>
      <trkpt lat="45.55504" lon="6.81479">
        <ele>2365.29</ele>
        <time>2016-03-24T13:33:15Z</time>
      </trkpt>
      <trkpt lat="45.55486" lon="6.81461">
        <ele>2372.2</ele>
        <time>2016-03-24T13:33:20Z</time>
      </trkpt>
      <trkpt lat="45.5547" lon="6.81445">
        <ele>2378.88</ele>
        <time>2016-03-24T13:33:25Z</time>
      </trkpt>
      <trkpt lat="45.55453" lon="6.81429">
        <ele>2385.09</ele>
        <time>2016-03-24T13:33:31Z</time>
      </trkpt>
      <trkpt lat="45.55435" lon="6.81413">
        <ele>2392.43</ele>
        <time>2016-03-24T13:33:37Z</time>
      </trkpt>
      <trkpt lat="45.55418" lon="6.81396">
        <ele>2402.83</ele>
        <time>2016-03-24T13:33:43Z</time>
      </trkpt>
      <trkpt lat="45.554" lon="6.81378">
        <ele>2413.28</ele>
        <time>2016-03-24T13:33:49Z</time>
      </trkpt>
      <trkpt lat="45.55383" lon="6.81361">
        <ele>2421.08</ele>
        <time>2016-03-24T13:33:54Z</time>
      </trkpt>
      <trkpt lat="45.55366" lon="6.81345">
        <ele>2429.03</ele>
        <time>2016-03-24T13:33:59Z</time>
      </trkpt>
      <trkpt lat="45.5535" lon="6.81329">
        <ele>2437.24</ele>
        <time>2016-03-24T13:34:04Z</time>
      </trkpt>
      <trkpt lat="45.55335" lon="6.81314">
        <ele>2443.08</ele>
        <time>2016-03-24T13:34:09Z</time>
      </trkpt>
      <trkpt lat="45.55319" lon="6.81297">
        <ele>2451.07</ele>
        <time>2016-03-24T13:34:14Z</time>
      </trkpt>
      <trkpt lat="45.55303" lon="6.8128">
        <ele>2459.24</ele>
        <time>2016-03-24T13:34:19Z</time>
      </trkpt>
      <trkpt lat="45.55288" lon="6.81264">
        <ele>2466.24</ele>
        <time>2016-03-24T13:34:24Z</time>
      </trkpt>
      <trkpt lat="45.55272" lon="6.8125">
        <ele>2474.07</ele>
        <time>2016-03-24T13:34:29Z</time>
      </trkpt>
      <trkpt lat="45.55256" lon="6.81234">
        <ele>2481.27</ele>
        <time>2016-03-24T13:34:35Z</time>
      </trkpt>
      <trkpt lat="45.5524" lon="6.81218">
        <ele>2489.2</ele>
        <time>2016-03-24T13:34:41Z</time>
      </trkpt>
      <trkpt lat="45.55223" lon="6.81201">
        <ele>2496.13</ele>
        <time>2016-03-24T13:34:47Z</time>
      </trkpt>
      <trkpt lat="45.55205" lon="6.81183">
        <ele>2501.28</ele>
        <time>2016-03-24T13:34:53Z</time>
      </trkpt>
      <trkpt lat="45.55187" lon="6.81167">
        <ele>2506.28</ele>
        <time>2016-03-24T13:34:59Z</time>
      </trkpt>
      <trkpt lat="45.5517" lon="6.8115">
        <ele>2511.32</ele>
        <time>2016-03-24T13:35:05Z</time>
      </trkpt>
      <trkpt lat="45.55156" lon="6.81135">
        <ele>2518.08</ele>
        <time>2016-03-24T13:35:10Z</time>
      </trkpt>
      <trkpt lat="45.55139" lon="6.81119">
        <ele>2522.52</ele>
        <time>2016-03-24T13:35:16Z</time>
      </trkpt>
      <trkpt lat="45.55124" lon="6.81104">
        <ele>2530.07</ele>
        <time>2016-03-24T13:35:22Z</time>
      </trkpt>
      <trkpt lat="45.55108" lon="6.81089">
        <ele>2536.12</ele>
        <time>2016-03-24T13:35:27Z</time>
      </trkpt>
      <trkpt lat="45.55095" lon="6.81067">
        <ele>2536.09</ele>
        <time>2016-03-24T13:35:37Z</time>
      </trkpt>
      <trkpt lat="45.55093" lon="6.81041">
        <ele>2541.68</ele>
        <time>2016-03-24T13:36:57Z</time>
      </trkpt>
      <trkpt lat="45.55097" lon="6.81012">
        <ele>2532.77</ele>
        <time>2016-03-24T13:37:11Z</time>
      </trkpt>
      <trkpt lat="45.55093" lon="6.80985">
        <ele>2533.36</ele>
        <time>2016-03-24T13:37:16Z</time>
      </trkpt>
      <trkpt lat="45.55092" lon="6.80955">
        <ele>2532.54</ele>
        <time>2016-03-24T13:37:19Z</time>
      </trkpt>
      <trkpt lat="45.55094" lon="6.80928">
        <ele>2530.39</ele>
        <time>2016-03-24T13:37:22Z</time>
      </trkpt>
      <trkpt lat="45.55101" lon="6.80901">
        <ele>2526.5</ele>
        <time>2016-03-24T13:37:46Z</time>
      </trkpt>
      <trkpt lat="45.55104" lon="6.80874">
        <ele>2522.62</ele>
        <time>2016-03-24T13:37:50Z</time>
      </trkpt>
      <trkpt lat="45.55124" lon="6.80863">
        <ele>2513.59</ele>
        <time>2016-03-24T13:37:56Z</time>
      </trkpt>
      <trkpt lat="45.5514" lon="6.80889">
        <ele>2512.38</ele>
        <time>2016-03-24T13:37:59Z</time>
      </trkpt>
      <trkpt lat="45.55166" lon="6.80892">
        <ele>2507.19</ele>
        <time>2016-03-24T13:38:02Z</time>
      </trkpt>
      <trkpt lat="45.55191" lon="6.80892">
        <ele>2504.8</ele>
        <time>2016-03-24T13:38:04Z</time>
      </trkpt>
      <trkpt lat="45.55214" lon="6.80888">
        <ele>2505.5</ele>
        <time>2016-03-24T13:38:06Z</time>
      </trkpt>
      <trkpt lat="45.55234" lon="6.80874">
        <ele>2503.77</ele>
        <time>2016-03-24T13:38:08Z</time>
      </trkpt>
      <trkpt lat="45.55251" lon="6.80865">
        <ele>2502.74</ele>
        <time>2016-03-24T13:38:10Z</time>
      </trkpt>
      <trkpt lat="45.55268" lon="6.80874">
        <ele>2475.77</ele>
        <time>2016-03-24T13:39:08Z</time>
      </trkpt>
      <trkpt lat="45.5528" lon="6.80898">
        <ele>2475.74</ele>
        <time>2016-03-24T13:39:52Z</time>
      </trkpt>
      <trkpt lat="45.5529" lon="6.80931">
        <ele>2474.38</ele>
        <time>2016-03-24T13:39:55Z</time>
      </trkpt>
      <trkpt lat="45.55304" lon="6.80955">
        <ele>2472.6</ele>
        <time>2016-03-24T13:39:57Z</time>
      </trkpt>
      <trkpt lat="45.55324" lon="6.80956">
        <ele>2471.57</ele>
        <time>2016-03-24T13:39:59Z</time>
      </trkpt>
      <trkpt lat="45.55346" lon="6.80973">
        <ele>2467.53</ele>
        <time>2016-03-24T13:40:02Z</time>
      </trkpt>
      <trkpt lat="45.5537" lon="6.80971">
        <ele>2469.29</ele>
        <time>2016-03-24T13:40:05Z</time>
      </trkpt>
      <trkpt lat="45.55395" lon="6.80975">
        <ele>2466.94</ele>
        <time>2016-03-24T13:40:08Z</time>
      </trkpt>
      <trkpt lat="45.55414" lon="6.80985">
        <ele>2463.99</ele>
        <time>2016-03-24T13:40:10Z</time>
      </trkpt>
      <trkpt lat="45.55432" lon="6.80979">
        <ele>2460.03</ele>
        <time>2016-03-24T13:40:12Z</time>
      </trkpt>
      <trkpt lat="45.55454" lon="6.80951">
        <ele>2454.77</ele>
        <time>2016-03-24T13:40:15Z</time>
      </trkpt>
      <trkpt lat="45.55475" lon="6.80943">
        <ele>2450.86</ele>
        <time>2016-03-24T13:40:17Z</time>
      </trkpt>
      <trkpt lat="45.55497" lon="6.80948">
        <ele>2449.9</ele>
        <time>2016-03-24T13:40:19Z</time>
      </trkpt>
      <trkpt lat="45.55518" lon="6.80947">
        <ele>2449.55</ele>
        <time>2016-03-24T13:40:21Z</time>
      </trkpt>
      <trkpt lat="45.5554" lon="6.80938">
        <ele>2449.53</ele>
        <time>2016-03-24T13:40:24Z</time>
      </trkpt>
      <trkpt lat="45.55567" lon="6.80938">
        <ele>2447.74</ele>
        <time>2016-03-24T13:40:27Z</time>
      </trkpt>
      <trkpt lat="45.55585" lon="6.80928">
        <ele>2445.94</ele>
        <time>2016-03-24T13:40:29Z</time>
      </trkpt>
      <trkpt lat="45.55604" lon="6.80912">
        <ele>2443.79</ele>
        <time>2016-03-24T13:40:31Z</time>
      </trkpt>
      <trkpt lat="45.55627" lon="6.8091">
        <ele>2437.62</ele>
        <time>2016-03-24T13:40:33Z</time>
      </trkpt>
      <trkpt lat="45.5565" lon="6.80931">
        <ele>2432.03</ele>
        <time>2016-03-24T13:40:36Z</time>
      </trkpt>
      <trkpt lat="45.55667" lon="6.80945">
        <ele>2429.95</ele>
        <time>2016-03-24T13:40:38Z</time>
      </trkpt>
      <trkpt lat="45.55686" lon="6.80957">
        <ele>2427.63</ele>
        <time>2016-03-24T13:40:40Z</time>
      </trkpt>
      <trkpt lat="45.55708" lon="6.80959">
        <ele>2425.13</ele>
        <time>2016-03-24T13:40:42Z</time>
      </trkpt>
      <trkpt lat="45.55732" lon="6.80954">
        <ele>2422.8</ele>
        <time>2016-03-24T13:40:44Z</time>
      </trkpt>
      <trkpt lat="45.5575" lon="6.80959">
        <ele>2422.54</ele>
        <time>2016-03-24T13:40:46Z</time>
      </trkpt>
      <trkpt lat="45.5577" lon="6.80976">
        <ele>2421.73</ele>
        <time>2016-03-24T13:40:48Z</time>
      </trkpt>
      <trkpt lat="45.55792" lon="6.80984">
        <ele>2421.54</ele>
        <time>2016-03-24T13:40:50Z</time>
      </trkpt>
      <trkpt lat="45.5582" lon="6.80979">
        <ele>2420.73</ele>
        <time>2016-03-24T13:40:52Z</time>
      </trkpt>
      <trkpt lat="45.55838" lon="6.80999">
        <ele>2419.58</ele>
        <time>2016-03-24T13:40:54Z</time>
      </trkpt>
      <trkpt lat="45.55858" lon="6.81003">
        <ele>2417.77</ele>
        <time>2016-03-24T13:40:56Z</time>
      </trkpt>
      <trkpt lat="45.55881" lon="6.80986">
        <ele>2415.78</ele>
        <time>2016-03-24T13:40:58Z</time>
      </trkpt>
      <trkpt lat="45.559" lon="6.80976">
        <ele>2412.66</ele>
        <time>2016-03-24T13:41:00Z</time>
      </trkpt>
      <trkpt lat="45.55924" lon="6.80971">
        <ele>2410.78</ele>
        <time>2016-03-24T13:41:02Z</time>
      </trkpt>
      <trkpt lat="45.55945" lon="6.80979">
        <ele>2405.74</ele>
        <time>2016-03-24T13:41:04Z</time>
      </trkpt>
      <trkpt lat="45.55964" lon="6.80985">
        <ele>2396.9</ele>
        <time>2016-03-24T13:41:06Z</time>
      </trkpt>
      <trkpt lat="45.55982" lon="6.80996">
        <ele>2390.15</ele>
        <time>2016-03-24T13:41:08Z</time>
      </trkpt>
      <trkpt lat="45.56004" lon="6.81001">
        <ele>2385.88</ele>
        <time>2016-03-24T13:41:10Z</time>
      </trkpt>
      <trkpt lat="45.56024" lon="6.81006">
        <ele>2384.74</ele>
        <time>2016-03-24T13:41:12Z</time>
      </trkpt>
      <trkpt lat="45.56029" lon="6.81043">
        <ele>2356</ele>
        <time>2016-03-24T13:41:38Z</time>
      </trkpt>
      <trkpt lat="45.56041" lon="6.81074">
        <ele>2355.53</ele>
        <time>2016-03-24T13:41:41Z</time>
      </trkpt>
      <trkpt lat="45.56057" lon="6.81089">
        <ele>2355.53</ele>
        <time>2016-03-24T13:41:43Z</time>
      </trkpt>
      <trkpt lat="45.56076" lon="6.81094">
        <ele>2356.49</ele>
        <time>2016-03-24T13:41:45Z</time>
      </trkpt>
      <trkpt lat="45.56094" lon="6.81105">
        <ele>2355.57</ele>
        <time>2016-03-24T13:41:47Z</time>
      </trkpt>
      <trkpt lat="45.56111" lon="6.81119">
        <ele>2355.53</ele>
        <time>2016-03-24T13:41:49Z</time>
      </trkpt>
      <trkpt lat="45.56131" lon="6.81126">
        <ele>2354.57</ele>
        <time>2016-03-24T13:41:51Z</time>
      </trkpt>
      <trkpt lat="45.56153" lon="6.81132">
        <ele>2353.57</ele>
        <time>2016-03-24T13:41:53Z</time>
      </trkpt>
      <trkpt lat="45.56173" lon="6.81139">
        <ele>2351.77</ele>
        <time>2016-03-24T13:41:55Z</time>
      </trkpt>
      <trkpt lat="45.56192" lon="6.81145">
        <ele>2350.58</ele>
        <time>2016-03-24T13:41:57Z</time>
      </trkpt>
      <trkpt lat="45.56209" lon="6.81153">
        <ele>2344.29</ele>
        <time>2016-03-24T13:41:59Z</time>
      </trkpt>
      <trkpt lat="45.56228" lon="6.81157">
        <ele>2340.2</ele>
        <time>2016-03-24T13:42:01Z</time>
      </trkpt>
      <trkpt lat="45.56253" lon="6.81158">
        <ele>2337.58</ele>
        <time>2016-03-24T13:42:04Z</time>
      </trkpt>
      <trkpt lat="45.56275" lon="6.8116">
        <ele>2336.57</ele>
        <time>2016-03-24T13:42:07Z</time>
      </trkpt>
      <trkpt lat="45.56295" lon="6.81162">
        <ele>2333.02</ele>
        <time>2016-03-24T13:42:11Z</time>
      </trkpt>
      <trkpt lat="45.56316" lon="6.81163">
        <ele>2327.77</ele>
        <time>2016-03-24T13:42:16Z</time>
      </trkpt>
      <trkpt lat="45.56336" lon="6.81161">
        <ele>2320.5</ele>
        <time>2016-03-24T13:42:21Z</time>
      </trkpt>
      <trkpt lat="45.56358" lon="6.81169">
        <ele>2316.59</ele>
        <time>2016-03-24T13:42:26Z</time>
      </trkpt>
      <trkpt lat="45.56379" lon="6.81183">
        <ele>2312.58</ele>
        <time>2016-03-24T13:42:30Z</time>
      </trkpt>
      <trkpt lat="45.564" lon="6.81194">
        <ele>2308.63</ele>
        <time>2016-03-24T13:42:33Z</time>
      </trkpt>
      <trkpt lat="45.56417" lon="6.81211">
        <ele>2306.77</ele>
        <time>2016-03-24T13:42:35Z</time>
      </trkpt>
      <trkpt lat="45.5643" lon="6.8123">
        <ele>2303.82</ele>
        <time>2016-03-24T13:42:37Z</time>
      </trkpt>
      <trkpt lat="45.56435" lon="6.81261">
        <ele>2301.74</ele>
        <time>2016-03-24T13:42:40Z</time>
      </trkpt>
      <trkpt lat="45.56436" lon="6.81287">
        <ele>2291.75</ele>
        <time>2016-03-24T13:42:51Z</time>
      </trkpt>
      <trkpt lat="45.56429" lon="6.81313">
        <ele>2289.73</ele>
        <time>2016-03-24T13:43:00Z</time>
      </trkpt>
      <trkpt lat="45.5642" lon="6.81337">
        <ele>2285.79</ele>
        <time>2016-03-24T13:43:05Z</time>
      </trkpt>
      <trkpt lat="45.56405" lon="6.81353">
        <ele>2286.34</ele>
        <time>2016-03-24T13:43:10Z</time>
      </trkpt>
      <trkpt lat="45.56385" lon="6.81364">
        <ele>2281.57</ele>
        <time>2016-03-24T13:43:15Z</time>
      </trkpt>
      <trkpt lat="45.56364" lon="6.81367">
        <ele>2282.72</ele>
        <time>2016-03-24T13:43:19Z</time>
      </trkpt>
      <trkpt lat="45.56344" lon="6.81369">
        <ele>2281.53</ele>
        <time>2016-03-24T13:43:23Z</time>
      </trkpt>
      <trkpt lat="45.56323" lon="6.81372">
        <ele>2281.53</ele>
        <time>2016-03-24T13:43:27Z</time>
      </trkpt>
      <trkpt lat="45.56304" lon="6.81376">
        <ele>2279.14</ele>
        <time>2016-03-24T13:43:31Z</time>
      </trkpt>
      <trkpt lat="45.56286" lon="6.81383">
        <ele>2276.77</ele>
        <time>2016-03-24T13:43:35Z</time>
      </trkpt>
      <trkpt lat="45.56269" lon="6.81394">
        <ele>2279.31</ele>
        <time>2016-03-24T13:43:40Z</time>
      </trkpt>
      <trkpt lat="45.56253" lon="6.8141">
        <ele>2276.77</ele>
        <time>2016-03-24T13:43:46Z</time>
      </trkpt>
      <trkpt lat="45.56239" lon="6.81429">
        <ele>2271.79</ele>
        <time>2016-03-24T13:43:51Z</time>
      </trkpt>
      <trkpt lat="45.56224" lon="6.81444">
        <ele>2269.54</ele>
        <time>2016-03-24T13:43:56Z</time>
      </trkpt>
      <trkpt lat="45.56208" lon="6.81458">
        <ele>2264.66</ele>
        <time>2016-03-24T13:44:00Z</time>
      </trkpt>
      <trkpt lat="45.5619" lon="6.81481">
        <ele>2262.57</ele>
        <time>2016-03-24T13:44:04Z</time>
      </trkpt>
      <trkpt lat="45.56182" lon="6.81509">
        <ele>2258.79</ele>
        <time>2016-03-24T13:44:07Z</time>
      </trkpt>
      <trkpt lat="45.56168" lon="6.81542">
        <ele>2257.7</ele>
        <time>2016-03-24T13:44:10Z</time>
      </trkpt>
      <trkpt lat="45.56159" lon="6.81566">
        <ele>2257.54</ele>
        <time>2016-03-24T13:44:12Z</time>
      </trkpt>
      <trkpt lat="45.56154" lon="6.81594">
        <ele>2257.33</ele>
        <time>2016-03-24T13:44:16Z</time>
      </trkpt>
      <trkpt lat="45.56153" lon="6.81623">
        <ele>2255.54</ele>
        <time>2016-03-24T13:44:20Z</time>
      </trkpt>
      <trkpt lat="45.56161" lon="6.81652">
        <ele>2255.69</ele>
        <time>2016-03-24T13:44:23Z</time>
      </trkpt>
      <trkpt lat="45.56169" lon="6.81683">
        <ele>2256.52</ele>
        <time>2016-03-24T13:44:26Z</time>
      </trkpt>
      <trkpt lat="45.56179" lon="6.81712">
        <ele>2257.52</ele>
        <time>2016-03-24T13:44:29Z</time>
      </trkpt>
      <trkpt lat="45.56193" lon="6.81737">
        <ele>2259.29</ele>
        <time>2016-03-24T13:44:32Z</time>
      </trkpt>
      <trkpt lat="45.56213" lon="6.81752">
        <ele>2259.5</ele>
        <time>2016-03-24T13:44:36Z</time>
      </trkpt>
      <trkpt lat="45.56232" lon="6.81764">
        <ele>2256.77</ele>
        <time>2016-03-24T13:44:41Z</time>
      </trkpt>
      <trkpt lat="45.56252" lon="6.81771">
        <ele>2253.77</ele>
        <time>2016-03-24T13:44:47Z</time>
      </trkpt>
      <trkpt lat="45.5627" lon="6.81777">
        <ele>2252.56</ele>
        <time>2016-03-24T13:44:52Z</time>
      </trkpt>
      <trkpt lat="45.5629" lon="6.81787">
        <ele>2252.52</ele>
        <time>2016-03-24T13:44:58Z</time>
      </trkpt>
      <trkpt lat="45.56309" lon="6.81795">
        <ele>2249.78</ele>
        <time>2016-03-24T13:45:03Z</time>
      </trkpt>
      <trkpt lat="45.56328" lon="6.81805">
        <ele>2246.77</ele>
        <time>2016-03-24T13:45:07Z</time>
      </trkpt>
      <trkpt lat="45.56345" lon="6.81821">
        <ele>2245.73</ele>
        <time>2016-03-24T13:45:12Z</time>
      </trkpt>
      <trkpt lat="45.56361" lon="6.81838">
        <ele>2244.69</ele>
        <time>2016-03-24T13:45:17Z</time>
      </trkpt>
      <trkpt lat="45.56376" lon="6.81858">
        <ele>2242.54</ele>
        <time>2016-03-24T13:45:22Z</time>
      </trkpt>
      <trkpt lat="45.56389" lon="6.81876">
        <ele>2239.77</ele>
        <time>2016-03-24T13:45:26Z</time>
      </trkpt>
      <trkpt lat="45.56404" lon="6.81893">
        <ele>2238.53</ele>
        <time>2016-03-24T13:45:30Z</time>
      </trkpt>
      <trkpt lat="45.56418" lon="6.81908">
        <ele>2237.53</ele>
        <time>2016-03-24T13:45:34Z</time>
      </trkpt>
      <trkpt lat="45.56435" lon="6.8192">
        <ele>2236.57</ele>
        <time>2016-03-24T13:45:39Z</time>
      </trkpt>
      <trkpt lat="45.56452" lon="6.8193">
        <ele>2235.69</ele>
        <time>2016-03-24T13:45:44Z</time>
      </trkpt>
      <trkpt lat="45.56471" lon="6.81942">
        <ele>2233.73</ele>
        <time>2016-03-24T13:45:49Z</time>
      </trkpt>
      <trkpt lat="45.56487" lon="6.81961">
        <ele>2231.74</ele>
        <time>2016-03-24T13:45:53Z</time>
      </trkpt>
      <trkpt lat="45.56502" lon="6.81983">
        <ele>2230.54</ele>
        <time>2016-03-24T13:45:57Z</time>
      </trkpt>
      <trkpt lat="45.56512" lon="6.82008">
        <ele>2227.55</ele>
        <time>2016-03-24T13:46:01Z</time>
      </trkpt>
      <trkpt lat="45.56517" lon="6.82034">
        <ele>2229.26</ele>
        <time>2016-03-24T13:46:05Z</time>
      </trkpt>
      <trkpt lat="45.56516" lon="6.8206">
        <ele>2223.03</ele>
        <time>2016-03-24T13:46:10Z</time>
      </trkpt>
      <trkpt lat="45.56513" lon="6.8209">
        <ele>2220.89</ele>
        <time>2016-03-24T13:46:15Z</time>
      </trkpt>
      <trkpt lat="45.56507" lon="6.8212">
        <ele>2219.37</ele>
        <time>2016-03-24T13:46:19Z</time>
      </trkpt>
      <trkpt lat="45.56505" lon="6.82148">
        <ele>2215.59</ele>
        <time>2016-03-24T13:46:22Z</time>
      </trkpt>
      <trkpt lat="45.56507" lon="6.82176">
        <ele>2214.54</ele>
        <time>2016-03-24T13:46:25Z</time>
      </trkpt>
      <trkpt lat="45.56508" lon="6.82205">
        <ele>2210.98</ele>
        <time>2016-03-24T13:46:28Z</time>
      </trkpt>
      <trkpt lat="45.56507" lon="6.82233">
        <ele>2210.53</ele>
        <time>2016-03-24T13:46:31Z</time>
      </trkpt>
      <trkpt lat="45.56501" lon="6.82264">
        <ele>2208.42</ele>
        <time>2016-03-24T13:46:34Z</time>
      </trkpt>
      <trkpt lat="45.56491" lon="6.82286">
        <ele>2203.09</ele>
        <time>2016-03-24T13:46:36Z</time>
      </trkpt>
      <trkpt lat="45.56484" lon="6.82312">
        <ele>2201.59</ele>
        <time>2016-03-24T13:46:38Z</time>
      </trkpt>
      <trkpt lat="45.56477" lon="6.82343">
        <ele>2201.69</ele>
        <time>2016-03-24T13:46:40Z</time>
      </trkpt>
      <trkpt lat="45.56474" lon="6.82371">
        <ele>2198.98</ele>
        <time>2016-03-24T13:46:42Z</time>
      </trkpt>
      <trkpt lat="45.56478" lon="6.824">
        <ele>2196.58</ele>
        <time>2016-03-24T13:46:45Z</time>
      </trkpt>
      <trkpt lat="45.56477" lon="6.8243">
        <ele>2195.57</ele>
        <time>2016-03-24T13:46:49Z</time>
      </trkpt>
      <trkpt lat="45.56495" lon="6.82437">
        <ele>2184.53</ele>
        <time>2016-03-24T13:48:16Z</time>
      </trkpt>
      <trkpt lat="45.56513" lon="6.82438">
        <ele>2185.34</ele>
        <time>2016-03-24T13:48:23Z</time>
      </trkpt>
      <trkpt lat="45.5653" lon="6.82448">
        <ele>2183.77</ele>
        <time>2016-03-24T13:48:29Z</time>
      </trkpt>
      <trkpt lat="45.56549" lon="6.82457">
        <ele>2182.53</ele>
        <time>2016-03-24T13:48:34Z</time>
      </trkpt>
      <trkpt lat="45.56567" lon="6.82466">
        <ele>2182.53</ele>
        <time>2016-03-24T13:48:38Z</time>
      </trkpt>
      <trkpt lat="45.56582" lon="6.82479">
        <ele>2181.58</ele>
        <time>2016-03-24T13:48:42Z</time>
      </trkpt>
      <trkpt lat="45.56602" lon="6.8249">
        <ele>2181.53</ele>
        <time>2016-03-24T13:48:47Z</time>
      </trkpt>
      <trkpt lat="45.5662" lon="6.82496">
        <ele>2179.37</ele>
        <time>2016-03-24T13:48:52Z</time>
      </trkpt>
      <trkpt lat="45.5664" lon="6.82498">
        <ele>2180.49</ele>
        <time>2016-03-24T13:48:58Z</time>
      </trkpt>
      <trkpt lat="45.56658" lon="6.82499">
        <ele>2179.56</ele>
        <time>2016-03-24T13:49:03Z</time>
      </trkpt>
      <trkpt lat="45.56677" lon="6.82499">
        <ele>2179.14</ele>
        <time>2016-03-24T13:49:07Z</time>
      </trkpt>
      <trkpt lat="45.56697" lon="6.82502">
        <ele>2177.53</ele>
        <time>2016-03-24T13:49:11Z</time>
      </trkpt>
      <trkpt lat="45.56715" lon="6.82507">
        <ele>2176.54</ele>
        <time>2016-03-24T13:49:14Z</time>
      </trkpt>
      <trkpt lat="45.56735" lon="6.82504">
        <ele>2173.65</ele>
        <time>2016-03-24T13:49:17Z</time>
      </trkpt>
      <trkpt lat="45.56762" lon="6.82505">
        <ele>2172.73</ele>
        <time>2016-03-24T13:49:20Z</time>
      </trkpt>
      <trkpt lat="45.56782" lon="6.82502">
        <ele>2170.62</ele>
        <time>2016-03-24T13:49:22Z</time>
      </trkpt>
      <trkpt lat="45.56804" lon="6.82496">
        <ele>2168.77</ele>
        <time>2016-03-24T13:49:24Z</time>
      </trkpt>
      <trkpt lat="45.56829" lon="6.82496">
        <ele>2166.14</ele>
        <time>2016-03-24T13:49:26Z</time>
      </trkpt>
      <trkpt lat="45.56852" lon="6.82495">
        <ele>2163</ele>
        <time>2016-03-24T13:49:28Z</time>
      </trkpt>
      <trkpt lat="45.56878" lon="6.82498">
        <ele>2160.63</ele>
        <time>2016-03-24T13:49:30Z</time>
      </trkpt>
      <trkpt lat="45.56901" lon="6.82503">
        <ele>2157.81</ele>
        <time>2016-03-24T13:49:32Z</time>
      </trkpt>
      <trkpt lat="45.56927" lon="6.82521">
        <ele>2153.37</ele>
        <time>2016-03-24T13:49:35Z</time>
      </trkpt>
      <trkpt lat="45.56944" lon="6.8253">
        <ele>2150</ele>
        <time>2016-03-24T13:49:37Z</time>
      </trkpt>
      <trkpt lat="45.56967" lon="6.82544">
        <ele>2143.2</ele>
        <time>2016-03-24T13:49:40Z</time>
      </trkpt>
      <trkpt lat="45.56988" lon="6.82553">
        <ele>2139.04</ele>
        <time>2016-03-24T13:49:42Z</time>
      </trkpt>
      <trkpt lat="45.57016" lon="6.82559">
        <ele>2135.35</ele>
        <time>2016-03-24T13:49:44Z</time>
      </trkpt>
      <trkpt lat="45.57043" lon="6.82562">
        <ele>2132.8</ele>
        <time>2016-03-24T13:49:46Z</time>
      </trkpt>
      <trkpt lat="45.57067" lon="6.82561">
        <ele>2121.98</ele>
        <time>2016-03-24T13:49:48Z</time>
      </trkpt>
      <trkpt lat="45.57093" lon="6.82555">
        <ele>2117.07</ele>
        <time>2016-03-24T13:49:50Z</time>
      </trkpt>
      <trkpt lat="45.57106" lon="6.82529">
        <ele>2111.67</ele>
        <time>2016-03-24T13:49:53Z</time>
      </trkpt>
      <trkpt lat="45.57119" lon="6.82501">
        <ele>2103.54</ele>
        <time>2016-03-24T13:49:55Z</time>
      </trkpt>
      <trkpt lat="45.57128" lon="6.82471">
        <ele>2096.49</ele>
        <time>2016-03-24T13:49:57Z</time>
      </trkpt>
      <trkpt lat="45.57142" lon="6.82446">
        <ele>2092.05</ele>
        <time>2016-03-24T13:49:59Z</time>
      </trkpt>
      <trkpt lat="45.5716" lon="6.82427">
        <ele>2087.39</ele>
        <time>2016-03-24T13:50:01Z</time>
      </trkpt>
      <trkpt lat="45.57181" lon="6.82418">
        <ele>2082.09</ele>
        <time>2016-03-24T13:50:03Z</time>
      </trkpt>
      <trkpt lat="45.57202" lon="6.82412">
        <ele>2077.87</ele>
        <time>2016-03-24T13:50:05Z</time>
      </trkpt>
      <trkpt lat="45.57221" lon="6.82406">
        <ele>2075.62</ele>
        <time>2016-03-24T13:50:07Z</time>
      </trkpt>
      <trkpt lat="45.57246" lon="6.82407">
        <ele>2069.84</ele>
        <time>2016-03-24T13:50:10Z</time>
      </trkpt>
      <trkpt lat="45.57267" lon="6.82407">
        <ele>2060.19</ele>
        <time>2016-03-24T13:50:13Z</time>
      </trkpt>
      <trkpt lat="45.57288" lon="6.82416">
        <ele>2057.54</ele>
        <time>2016-03-24T13:50:17Z</time>
      </trkpt>
      <trkpt lat="45.57298" lon="6.82443">
        <ele>2045.08</ele>
        <time>2016-03-24T13:50:22Z</time>
      </trkpt>
      <trkpt lat="45.57309" lon="6.8247">
        <ele>2032.39</ele>
        <time>2016-03-24T13:50:27Z</time>
      </trkpt>
      <trkpt lat="45.57325" lon="6.82455">
        <ele>2017.55</ele>
        <time>2016-03-24T13:51:17Z</time>
      </trkpt>
      <trkpt lat="45.57342" lon="6.82443">
        <ele>2015.3</ele>
        <time>2016-03-24T13:51:31Z</time>
      </trkpt>
      <trkpt lat="45.57367" lon="6.82444">
        <ele>2010.67</ele>
        <time>2016-03-24T13:51:34Z</time>
      </trkpt>
      <trkpt lat="45.57387" lon="6.82453">
        <ele>2009.74</ele>
        <time>2016-03-24T13:51:36Z</time>
      </trkpt>
      <trkpt lat="45.57406" lon="6.82463">
        <ele>2005.06</ele>
        <time>2016-03-24T13:51:38Z</time>
      </trkpt>
      <trkpt lat="45.57426" lon="6.82471">
        <ele>2004.39</ele>
        <time>2016-03-24T13:51:40Z</time>
      </trkpt>
      <trkpt lat="45.57453" lon="6.82499">
        <ele>1998.03</ele>
        <time>2016-03-24T13:51:43Z</time>
      </trkpt>
      <trkpt lat="45.57471" lon="6.82514">
        <ele>1995.15</ele>
        <time>2016-03-24T13:51:45Z</time>
      </trkpt>
      <trkpt lat="45.57487" lon="6.82533">
        <ele>1991.04</ele>
        <time>2016-03-24T13:51:47Z</time>
      </trkpt>
      <trkpt lat="45.57505" lon="6.8255">
        <ele>1987.99</ele>
        <time>2016-03-24T13:51:49Z</time>
      </trkpt>
      <trkpt lat="45.57521" lon="6.82567">
        <ele>1985.15</ele>
        <time>2016-03-24T13:51:51Z</time>
      </trkpt>
      <trkpt lat="45.57535" lon="6.82594">
        <ele>1980.08</ele>
        <time>2016-03-24T13:51:53Z</time>
      </trkpt>
      <trkpt lat="45.57557" lon="6.82623">
        <ele>1975.86</ele>
        <time>2016-03-24T13:51:56Z</time>
      </trkpt>
      <trkpt lat="45.57569" lon="6.8265">
        <ele>1971.22</ele>
        <time>2016-03-24T13:51:58Z</time>
      </trkpt>
      <trkpt lat="45.57586" lon="6.82675">
        <ele>1966.88</ele>
        <time>2016-03-24T13:52:00Z</time>
      </trkpt>
      <trkpt lat="45.57601" lon="6.82702">
        <ele>1965.74</ele>
        <time>2016-03-24T13:52:02Z</time>
      </trkpt>
      <trkpt lat="45.57616" lon="6.82725">
        <ele>1964.74</ele>
        <time>2016-03-24T13:52:04Z</time>
      </trkpt>
      <trkpt lat="45.57628" lon="6.82745">
        <ele>1961.34</ele>
        <time>2016-03-24T13:52:06Z</time>
      </trkpt>
      <trkpt lat="45.5764" lon="6.82769">
        <ele>1956.88</ele>
        <time>2016-03-24T13:52:08Z</time>
      </trkpt>
      <trkpt lat="45.57659" lon="6.82782">
        <ele>1955.75</ele>
        <time>2016-03-24T13:52:10Z</time>
      </trkpt>
      <trkpt lat="45.57674" lon="6.82802">
        <ele>1952.66</ele>
        <time>2016-03-24T13:52:12Z</time>
      </trkpt>
      <trkpt lat="45.57691" lon="6.82827">
        <ele>1952.38</ele>
        <time>2016-03-24T13:52:14Z</time>
      </trkpt>
      <trkpt lat="45.57708" lon="6.8285">
        <ele>1951.72</ele>
        <time>2016-03-24T13:52:16Z</time>
      </trkpt>
      <trkpt lat="45.57726" lon="6.82868">
        <ele>1951.54</ele>
        <time>2016-03-24T13:52:18Z</time>
      </trkpt>
      <trkpt lat="45.57745" lon="6.82884">
        <ele>1948.81</ele>
        <time>2016-03-24T13:52:20Z</time>
      </trkpt>
      <trkpt lat="45.57762" lon="6.82899">
        <ele>1948.54</ele>
        <time>2016-03-24T13:52:22Z</time>
      </trkpt>
      <trkpt lat="45.57782" lon="6.82918">
        <ele>1945.97</ele>
        <time>2016-03-24T13:52:24Z</time>
      </trkpt>
      <trkpt lat="45.57802" lon="6.82933">
        <ele>1943.79</ele>
        <time>2016-03-24T13:52:26Z</time>
      </trkpt>
      <trkpt lat="45.57823" lon="6.82951">
        <ele>1940.98</ele>
        <time>2016-03-24T13:52:28Z</time>
      </trkpt>
      <trkpt lat="45.57843" lon="6.82961">
        <ele>1933.99</ele>
        <time>2016-03-24T13:52:30Z</time>
      </trkpt>
      <trkpt lat="45.57862" lon="6.82981">
        <ele>1930.99</ele>
        <time>2016-03-24T13:52:32Z</time>
      </trkpt>
      <trkpt lat="45.57879" lon="6.82997">
        <ele>1926.87</ele>
        <time>2016-03-24T13:52:34Z</time>
      </trkpt>
      <trkpt lat="45.57897" lon="6.83012">
        <ele>1925.58</ele>
        <time>2016-03-24T13:52:36Z</time>
      </trkpt>
      <trkpt lat="45.57914" lon="6.83026">
        <ele>1922.81</ele>
        <time>2016-03-24T13:52:38Z</time>
      </trkpt>
      <trkpt lat="45.57931" lon="6.83035">
        <ele>1919.02</ele>
        <time>2016-03-24T13:52:40Z</time>
      </trkpt>
      <trkpt lat="45.57957" lon="6.83046">
        <ele>1916.58</ele>
        <time>2016-03-24T13:52:43Z</time>
      </trkpt>
      <trkpt lat="45.57977" lon="6.83052">
        <ele>1914.77</ele>
        <time>2016-03-24T13:52:45Z</time>
      </trkpt>
      <trkpt lat="45.57998" lon="6.83057">
        <ele>1913.74</ele>
        <time>2016-03-24T13:52:47Z</time>
      </trkpt>
      <trkpt lat="45.58017" lon="6.83077">
        <ele>1909.38</ele>
        <time>2016-03-24T13:52:49Z</time>
      </trkpt>
      <trkpt lat="45.58034" lon="6.83103">
        <ele>1904.24</ele>
        <time>2016-03-24T13:52:51Z</time>
      </trkpt>
      <trkpt lat="45.58051" lon="6.83126">
        <ele>1898.28</ele>
        <time>2016-03-24T13:52:53Z</time>
      </trkpt>
      <trkpt lat="45.58071" lon="6.83147">
        <ele>1894.04</ele>
        <time>2016-03-24T13:52:55Z</time>
      </trkpt>
      <trkpt lat="45.58096" lon="6.83164">
        <ele>1891.79</ele>
        <time>2016-03-24T13:52:57Z</time>
      </trkpt>
      <trkpt lat="45.58119" lon="6.83187">
        <ele>1887.06</ele>
        <time>2016-03-24T13:52:59Z</time>
      </trkpt>
      <trkpt lat="45.5814" lon="6.83203">
        <ele>1883.83</ele>
        <time>2016-03-24T13:53:01Z</time>
      </trkpt>
      <trkpt lat="45.58163" lon="6.83214">
        <ele>1880.82</ele>
        <time>2016-03-24T13:53:03Z</time>
      </trkpt>
      <trkpt lat="45.58184" lon="6.83214">
        <ele>1876.86</ele>
        <time>2016-03-24T13:53:05Z</time>
      </trkpt>
      <trkpt lat="45.58204" lon="6.83221">
        <ele>1874.78</ele>
        <time>2016-03-24T13:53:07Z</time>
      </trkpt>
      <trkpt lat="45.58221" lon="6.83234">
        <ele>1873.74</ele>
        <time>2016-03-24T13:53:09Z</time>
      </trkpt>
      <trkpt lat="45.58237" lon="6.83247">
        <ele>1872.58</ele>
        <time>2016-03-24T13:53:11Z</time>
      </trkpt>
      <trkpt lat="45.58256" lon="6.83268">
        <ele>1869.94</ele>
        <time>2016-03-24T13:53:14Z</time>
      </trkpt>
      <trkpt lat="45.58274" lon="6.83289">
        <ele>1867.74</ele>
        <time>2016-03-24T13:53:17Z</time>
      </trkpt>
      <trkpt lat="45.5829" lon="6.83312">
        <ele>1863.98</ele>
        <time>2016-03-24T13:53:20Z</time>
      </trkpt>
      <trkpt lat="45.58305" lon="6.83331">
        <ele>1859.98</ele>
        <time>2016-03-24T13:53:23Z</time>
      </trkpt>
      <trkpt lat="45.5832" lon="6.8335">
        <ele>1855.79</ele>
        <time>2016-03-24T13:53:26Z</time>
      </trkpt>
      <trkpt lat="45.58337" lon="6.83368">
        <ele>1853.74</ele>
        <time>2016-03-24T13:53:30Z</time>
      </trkpt>
      <trkpt lat="45.58354" lon="6.83382">
        <ele>1850.93</ele>
        <time>2016-03-24T13:53:35Z</time>
      </trkpt>
      <trkpt lat="45.58366" lon="6.83401">
        <ele>1846.01</ele>
        <time>2016-03-24T13:53:40Z</time>
      </trkpt>
      <trkpt lat="45.58379" lon="6.83422">
        <ele>1841.53</ele>
        <time>2016-03-24T13:53:51Z</time>
      </trkpt>
      <trkpt lat="45.58397" lon="6.83426">
        <ele>1820.73</ele>
        <time>2016-03-24T13:54:47Z</time>
      </trkpt>
      <trkpt lat="45.58404" lon="6.83401">
        <ele>1819.52</ele>
        <time>2016-03-24T13:55:39Z</time>
      </trkpt>
      <trkpt lat="45.58404" lon="6.83372">
        <ele>1828.08</ele>
        <time>2016-03-24T13:55:48Z</time>
      </trkpt>
      <trkpt lat="45.58408" lon="6.83346">
        <ele>1831.53</ele>
        <time>2016-03-24T13:55:58Z</time>
      </trkpt>
      <trkpt lat="45.58411" lon="6.83321">
        <ele>1837.29</ele>
        <time>2016-03-24T13:56:08Z</time>
      </trkpt>
      <trkpt lat="45.58413" lon="6.83294">
        <ele>1839.53</ele>
        <time>2016-03-24T13:56:19Z</time>
      </trkpt>
      <trkpt lat="45.58417" lon="6.83268">
        <ele>1844.49</ele>
        <time>2016-03-24T13:56:30Z</time>
      </trkpt>
      <trkpt lat="45.58421" lon="6.83243">
        <ele>1846.53</ele>
        <time>2016-03-24T13:56:40Z</time>
      </trkpt>
      <trkpt lat="45.58423" lon="6.83216">
        <ele>1846.6</ele>
        <time>2016-03-24T13:56:51Z</time>
      </trkpt>
      <trkpt lat="45.58425" lon="6.8319">
        <ele>1848.32</ele>
        <time>2016-03-24T13:57:01Z</time>
      </trkpt>
      <trkpt lat="45.58427" lon="6.83162">
        <ele>1852.36</ele>
        <time>2016-03-24T13:57:12Z</time>
      </trkpt>
      <trkpt lat="45.58429" lon="6.83136">
        <ele>1851.73</ele>
        <time>2016-03-24T13:57:23Z</time>
      </trkpt>
      <trkpt lat="45.5843" lon="6.83108">
        <ele>1853.37</ele>
        <time>2016-03-24T13:57:34Z</time>
      </trkpt>
      <trkpt lat="45.58434" lon="6.83082">
        <ele>1859.49</ele>
        <time>2016-03-24T13:57:45Z</time>
      </trkpt>
      <trkpt lat="45.58435" lon="6.83054">
        <ele>1864.53</ele>
        <time>2016-03-24T13:57:58Z</time>
      </trkpt>
      <trkpt lat="45.58439" lon="6.83028">
        <ele>1866.28</ele>
        <time>2016-03-24T13:58:08Z</time>
      </trkpt>
      <trkpt lat="45.58441" lon="6.83001">
        <ele>1878.29</ele>
        <time>2016-03-24T13:58:20Z</time>
      </trkpt>
      <trkpt lat="45.58444" lon="6.82975">
        <ele>1878.69</ele>
        <time>2016-03-24T13:58:29Z</time>
      </trkpt>
      <trkpt lat="45.5845" lon="6.8295">
        <ele>1889.24</ele>
        <time>2016-03-24T13:58:41Z</time>
      </trkpt>
      <trkpt lat="45.5845" lon="6.82923">
        <ele>1902.33</ele>
        <time>2016-03-24T13:58:54Z</time>
      </trkpt>
      <trkpt lat="45.58453" lon="6.82898">
        <ele>1920.46</ele>
        <time>2016-03-24T13:59:08Z</time>
      </trkpt>
      <trkpt lat="45.58458" lon="6.82873">
        <ele>1932.13</ele>
        <time>2016-03-24T13:59:19Z</time>
      </trkpt>
      <trkpt lat="45.58462" lon="6.82847">
        <ele>1941.12</ele>
        <time>2016-03-24T13:59:30Z</time>
      </trkpt>
      <trkpt lat="45.58462" lon="6.82821">
        <ele>1956.27</ele>
        <time>2016-03-24T13:59:44Z</time>
      </trkpt>
      <trkpt lat="45.58466" lon="6.82795">
        <ele>1972.08</ele>
        <time>2016-03-24T13:59:56Z</time>
      </trkpt>
      <trkpt lat="45.58471" lon="6.8277">
        <ele>1981.29</ele>
        <time>2016-03-24T14:00:07Z</time>
      </trkpt>
      <trkpt lat="45.58474" lon="6.82743">
        <ele>1994.24</ele>
        <time>2016-03-24T14:00:19Z</time>
      </trkpt>
      <trkpt lat="45.58476" lon="6.82717">
        <ele>2000.28</ele>
        <time>2016-03-24T14:00:31Z</time>
      </trkpt>
      <trkpt lat="45.58478" lon="6.8269">
        <ele>2010.29</ele>
        <time>2016-03-24T14:00:43Z</time>
      </trkpt>
      <trkpt lat="45.5848" lon="6.82663">
        <ele>2017.28</ele>
        <time>2016-03-24T14:00:54Z</time>
      </trkpt>
      <trkpt lat="45.58482" lon="6.82636">
        <ele>2022.27</ele>
        <time>2016-03-24T14:01:05Z</time>
      </trkpt>
      <trkpt lat="45.58486" lon="6.8261">
        <ele>2032.29</ele>
        <time>2016-03-24T14:01:18Z</time>
      </trkpt>
      <trkpt lat="45.58491" lon="6.82583">
        <ele>2037.32</ele>
        <time>2016-03-24T14:01:29Z</time>
      </trkpt>
      <trkpt lat="45.58493" lon="6.82557">
        <ele>2044.48</ele>
        <time>2016-03-24T14:01:40Z</time>
      </trkpt>
      <trkpt lat="45.58495" lon="6.82531">
        <ele>2051.49</ele>
        <time>2016-03-24T14:01:51Z</time>
      </trkpt>
      <trkpt lat="45.58498" lon="6.82505">
        <ele>2058.28</ele>
        <time>2016-03-24T14:02:02Z</time>
      </trkpt>
      <trkpt lat="45.585" lon="6.82479">
        <ele>2069.49</ele>
        <time>2016-03-24T14:02:15Z</time>
      </trkpt>
      <trkpt lat="45.58502" lon="6.82451">
        <ele>2076.68</ele>
        <time>2016-03-24T14:02:26Z</time>
      </trkpt>
      <trkpt lat="45.58505" lon="6.82424">
        <ele>2087.32</ele>
        <time>2016-03-24T14:02:38Z</time>
      </trkpt>
      <trkpt lat="45.58509" lon="6.82398">
        <ele>2099.28</ele>
        <time>2016-03-24T14:02:51Z</time>
      </trkpt>
      <trkpt lat="45.58511" lon="6.82371">
        <ele>2110.49</ele>
        <time>2016-03-24T14:03:04Z</time>
      </trkpt>
      <trkpt lat="45.58512" lon="6.82344">
        <ele>2123.28</ele>
        <time>2016-03-24T14:03:17Z</time>
      </trkpt>
      <trkpt lat="45.58515" lon="6.82316">
        <ele>2135.27</ele>
        <time>2016-03-24T14:03:30Z</time>
      </trkpt>
      <trkpt lat="45.58517" lon="6.82289">
        <ele>2146.49</ele>
        <time>2016-03-24T14:03:43Z</time>
      </trkpt>
      <trkpt lat="45.5852" lon="6.82262">
        <ele>2163.32</ele>
        <time>2016-03-24T14:03:57Z</time>
      </trkpt>
      <trkpt lat="45.58524" lon="6.82235">
        <ele>2175.51</ele>
        <time>2016-03-24T14:04:10Z</time>
      </trkpt>
      <trkpt lat="45.58526" lon="6.82209">
        <ele>2177.52</ele>
        <time>2016-03-24T14:04:21Z</time>
      </trkpt>
      <trkpt lat="45.58527" lon="6.82183">
        <ele>2181.33</ele>
        <time>2016-03-24T14:04:31Z</time>
      </trkpt>
      <trkpt lat="45.5853" lon="6.82155">
        <ele>2184.53</ele>
        <time>2016-03-24T14:04:42Z</time>
      </trkpt>
      <trkpt lat="45.58533" lon="6.82127">
        <ele>2191.45</ele>
        <time>2016-03-24T14:04:54Z</time>
      </trkpt>
      <trkpt lat="45.58535" lon="6.82101">
        <ele>2198.48</ele>
        <time>2016-03-24T14:05:05Z</time>
      </trkpt>
      <trkpt lat="45.58538" lon="6.82075">
        <ele>2205.48</ele>
        <time>2016-03-24T14:05:16Z</time>
      </trkpt>
      <trkpt lat="45.58541" lon="6.8205">
        <ele>2209.54</ele>
        <time>2016-03-24T14:05:27Z</time>
      </trkpt>
      <trkpt lat="45.58543" lon="6.82023">
        <ele>2213.49</ele>
        <time>2016-03-24T14:05:38Z</time>
      </trkpt>
      <trkpt lat="45.58546" lon="6.81996">
        <ele>2218.49</ele>
        <time>2016-03-24T14:05:49Z</time>
      </trkpt>
      <trkpt lat="45.58549" lon="6.8197">
        <ele>2223.32</ele>
        <time>2016-03-24T14:06:00Z</time>
      </trkpt>
      <trkpt lat="45.58552" lon="6.81943">
        <ele>2227.48</ele>
        <time>2016-03-24T14:06:11Z</time>
      </trkpt>
      <trkpt lat="45.58555" lon="6.81917">
        <ele>2233.48</ele>
        <time>2016-03-24T14:06:22Z</time>
      </trkpt>
      <trkpt lat="45.58557" lon="6.81891">
        <ele>2238.33</ele>
        <time>2016-03-24T14:06:33Z</time>
      </trkpt>
      <trkpt lat="45.5856" lon="6.81864">
        <ele>2243.33</ele>
        <time>2016-03-24T14:06:45Z</time>
      </trkpt>
      <trkpt lat="45.58564" lon="6.81838">
        <ele>2249.49</ele>
        <time>2016-03-24T14:06:56Z</time>
      </trkpt>
      <trkpt lat="45.58566" lon="6.81811">
        <ele>2252.48</ele>
        <time>2016-03-24T14:07:07Z</time>
      </trkpt>
      <trkpt lat="45.58569" lon="6.81784">
        <ele>2255.49</ele>
        <time>2016-03-24T14:07:18Z</time>
      </trkpt>
      <trkpt lat="45.58572" lon="6.81757">
        <ele>2262.45</ele>
        <time>2016-03-24T14:07:29Z</time>
      </trkpt>
      <trkpt lat="45.58575" lon="6.81731">
        <ele>2264.53</ele>
        <time>2016-03-24T14:07:41Z</time>
      </trkpt>
      <trkpt lat="45.58579" lon="6.81704">
        <ele>2266.53</ele>
        <time>2016-03-24T14:07:52Z</time>
      </trkpt>
      <trkpt lat="45.58582" lon="6.81678">
        <ele>2270.32</ele>
        <time>2016-03-24T14:08:02Z</time>
      </trkpt>
      <trkpt lat="45.58583" lon="6.81651">
        <ele>2273.28</ele>
        <time>2016-03-24T14:08:13Z</time>
      </trkpt>
      <trkpt lat="45.58585" lon="6.81624">
        <ele>2276.53</ele>
        <time>2016-03-24T14:08:24Z</time>
      </trkpt>
      <trkpt lat="45.58588" lon="6.81598">
        <ele>2278.33</ele>
        <time>2016-03-24T14:08:35Z</time>
      </trkpt>
      <trkpt lat="45.58591" lon="6.81571">
        <ele>2280.53</ele>
        <time>2016-03-24T14:08:46Z</time>
      </trkpt>
      <trkpt lat="45.58592" lon="6.81544">
        <ele>2286.33</ele>
        <time>2016-03-24T14:08:58Z</time>
      </trkpt>
      <trkpt lat="45.58595" lon="6.81517">
        <ele>2291.48</ele>
        <time>2016-03-24T14:09:09Z</time>
      </trkpt>
      <trkpt lat="45.58597" lon="6.8149">
        <ele>2296.49</ele>
        <time>2016-03-24T14:09:21Z</time>
      </trkpt>
      <trkpt lat="45.58601" lon="6.81463">
        <ele>2306.33</ele>
        <time>2016-03-24T14:09:32Z</time>
      </trkpt>
      <trkpt lat="45.58605" lon="6.81436">
        <ele>2307.56</ele>
        <time>2016-03-24T14:09:44Z</time>
      </trkpt>
      <trkpt lat="45.58607" lon="6.8141">
        <ele>2309.33</ele>
        <time>2016-03-24T14:09:54Z</time>
      </trkpt>
      <trkpt lat="45.58617" lon="6.81385">
        <ele>2309.34</ele>
        <time>2016-03-24T14:10:01Z</time>
      </trkpt>
      <trkpt lat="45.58636" lon="6.8138">
        <ele>2310.52</ele>
        <time>2016-03-24T14:10:07Z</time>
      </trkpt>
      <trkpt lat="45.58653" lon="6.81392">
        <ele>2312.53</ele>
        <time>2016-03-24T14:10:15Z</time>
      </trkpt>
      <trkpt lat="45.58673" lon="6.81404">
        <ele>2310.74</ele>
        <time>2016-03-24T14:10:22Z</time>
      </trkpt>
      <trkpt lat="45.58693" lon="6.81414">
        <ele>2309.53</ele>
        <time>2016-03-24T14:10:27Z</time>
      </trkpt>
      <trkpt lat="45.5871" lon="6.81401">
        <ele>2305.94</ele>
        <time>2016-03-24T14:10:32Z</time>
      </trkpt>
      <trkpt lat="45.58722" lon="6.81381">
        <ele>2303.58</ele>
        <time>2016-03-24T14:10:37Z</time>
      </trkpt>
      <trkpt lat="45.58725" lon="6.81351">
        <ele>2301.77</ele>
        <time>2016-03-24T14:10:41Z</time>
      </trkpt>
      <trkpt lat="45.58715" lon="6.81324">
        <ele>2299.77</ele>
        <time>2016-03-24T14:10:45Z</time>
      </trkpt>
      <trkpt lat="45.58706" lon="6.81296">
        <ele>2297.57</ele>
        <time>2016-03-24T14:10:49Z</time>
      </trkpt>
      <trkpt lat="45.58701" lon="6.8127">
        <ele>2295.58</ele>
        <time>2016-03-24T14:10:52Z</time>
      </trkpt>
      <trkpt lat="45.58698" lon="6.81243">
        <ele>2293.58</ele>
        <time>2016-03-24T14:10:55Z</time>
      </trkpt>
      <trkpt lat="45.58699" lon="6.81215">
        <ele>2291.74</ele>
        <time>2016-03-24T14:10:58Z</time>
      </trkpt>
      <trkpt lat="45.58694" lon="6.81185">
        <ele>2288.78</ele>
        <time>2016-03-24T14:11:01Z</time>
      </trkpt>
      <trkpt lat="45.58694" lon="6.81149">
        <ele>2286.58</ele>
        <time>2016-03-24T14:11:04Z</time>
      </trkpt>
      <trkpt lat="45.58698" lon="6.81123">
        <ele>2283.17</ele>
        <time>2016-03-24T14:11:06Z</time>
      </trkpt>
      <trkpt lat="45.58714" lon="6.81101">
        <ele>2280.58</ele>
        <time>2016-03-24T14:11:09Z</time>
      </trkpt>
      <trkpt lat="45.58734" lon="6.81087">
        <ele>2271.92</ele>
        <time>2016-03-24T14:11:12Z</time>
      </trkpt>
      <trkpt lat="45.58759" lon="6.81077">
        <ele>2268.62</ele>
        <time>2016-03-24T14:11:15Z</time>
      </trkpt>
      <trkpt lat="45.58762" lon="6.81048">
        <ele>2262.77</ele>
        <time>2016-03-24T14:11:20Z</time>
      </trkpt>
      <trkpt lat="45.58757" lon="6.81023">
        <ele>2257.98</ele>
        <time>2016-03-24T14:11:24Z</time>
      </trkpt>
      <trkpt lat="45.58744" lon="6.81002">
        <ele>2252.8</ele>
        <time>2016-03-24T14:11:27Z</time>
      </trkpt>
      <trkpt lat="45.58726" lon="6.80979">
        <ele>2247.86</ele>
        <time>2016-03-24T14:11:30Z</time>
      </trkpt>
      <trkpt lat="45.58705" lon="6.80955">
        <ele>2243.98</ele>
        <time>2016-03-24T14:11:33Z</time>
      </trkpt>
      <trkpt lat="45.58683" lon="6.80936">
        <ele>2239.95</ele>
        <time>2016-03-24T14:11:36Z</time>
      </trkpt>
      <trkpt lat="45.58666" lon="6.80923">
        <ele>2237.79</ele>
        <time>2016-03-24T14:11:38Z</time>
      </trkpt>
      <trkpt lat="45.58648" lon="6.80909">
        <ele>2234.82</ele>
        <time>2016-03-24T14:11:40Z</time>
      </trkpt>
      <trkpt lat="45.58631" lon="6.80894">
        <ele>2232.78</ele>
        <time>2016-03-24T14:11:42Z</time>
      </trkpt>
      <trkpt lat="45.58616" lon="6.80876">
        <ele>2230.78</ele>
        <time>2016-03-24T14:11:44Z</time>
      </trkpt>
      <trkpt lat="45.58597" lon="6.80849">
        <ele>2228.58</ele>
        <time>2016-03-24T14:11:47Z</time>
      </trkpt>
      <trkpt lat="45.58583" lon="6.80832">
        <ele>2225.81</ele>
        <time>2016-03-24T14:11:49Z</time>
      </trkpt>
      <trkpt lat="45.58562" lon="6.8081">
        <ele>2221.98</ele>
        <time>2016-03-24T14:11:52Z</time>
      </trkpt>
      <trkpt lat="45.58544" lon="6.80785">
        <ele>2217.82</ele>
        <time>2016-03-24T14:11:55Z</time>
      </trkpt>
      <trkpt lat="45.58529" lon="6.8076">
        <ele>2214.81</ele>
        <time>2016-03-24T14:11:58Z</time>
      </trkpt>
      <trkpt lat="45.58518" lon="6.80737">
        <ele>2209.19</ele>
        <time>2016-03-24T14:12:01Z</time>
      </trkpt>
      <trkpt lat="45.58505" lon="6.80711">
        <ele>2204.98</ele>
        <time>2016-03-24T14:12:04Z</time>
      </trkpt>
      <trkpt lat="45.5849" lon="6.80686">
        <ele>2201.78</ele>
        <time>2016-03-24T14:12:07Z</time>
      </trkpt>
      <trkpt lat="45.5847" lon="6.80664">
        <ele>2198.78</ele>
        <time>2016-03-24T14:12:10Z</time>
      </trkpt>
      <trkpt lat="45.58447" lon="6.80656">
        <ele>2196.77</ele>
        <time>2016-03-24T14:12:13Z</time>
      </trkpt>
      <trkpt lat="45.58421" lon="6.80649">
        <ele>2194.93</ele>
        <time>2016-03-24T14:12:16Z</time>
      </trkpt>
      <trkpt lat="45.58401" lon="6.80651">
        <ele>2190.6</ele>
        <time>2016-03-24T14:12:19Z</time>
      </trkpt>
      <trkpt lat="45.58381" lon="6.80644">
        <ele>2188.74</ele>
        <time>2016-03-24T14:12:22Z</time>
      </trkpt>
      <trkpt lat="45.58362" lon="6.8064">
        <ele>2185.94</ele>
        <time>2016-03-24T14:12:26Z</time>
      </trkpt>
      <trkpt lat="45.58344" lon="6.80635">
        <ele>2184.58</ele>
        <time>2016-03-24T14:12:31Z</time>
      </trkpt>
      <trkpt lat="45.58326" lon="6.80622">
        <ele>2183.53</ele>
        <time>2016-03-24T14:12:37Z</time>
      </trkpt>
      <trkpt lat="45.58306" lon="6.80619">
        <ele>2177.57</ele>
        <time>2016-03-24T14:13:34Z</time>
      </trkpt>
      <trkpt lat="45.58287" lon="6.80614">
        <ele>2175.73</ele>
        <time>2016-03-24T14:13:41Z</time>
      </trkpt>
      <trkpt lat="45.58271" lon="6.80591">
        <ele>2173.74</ele>
        <time>2016-03-24T14:13:47Z</time>
      </trkpt>
      <trkpt lat="45.58256" lon="6.80565">
        <ele>2171.77</ele>
        <time>2016-03-24T14:13:51Z</time>
      </trkpt>
      <trkpt lat="45.58241" lon="6.80535">
        <ele>2167.63</ele>
        <time>2016-03-24T14:13:54Z</time>
      </trkpt>
      <trkpt lat="45.5823" lon="6.80513">
        <ele>2166.57</ele>
        <time>2016-03-24T14:13:56Z</time>
      </trkpt>
      <trkpt lat="45.5822" lon="6.80486">
        <ele>2164.77</ele>
        <time>2016-03-24T14:13:58Z</time>
      </trkpt>
      <trkpt lat="45.5821" lon="6.80456">
        <ele>2163.57</ele>
        <time>2016-03-24T14:14:01Z</time>
      </trkpt>
      <trkpt lat="45.58196" lon="6.80427">
        <ele>2160.78</ele>
        <time>2016-03-24T14:14:05Z</time>
      </trkpt>
      <trkpt lat="45.58184" lon="6.8039">
        <ele>2153.84</ele>
        <time>2016-03-24T14:14:08Z</time>
      </trkpt>
      <trkpt lat="45.58173" lon="6.80364">
        <ele>2149.22</ele>
        <time>2016-03-24T14:14:10Z</time>
      </trkpt>
      <trkpt lat="45.58158" lon="6.80342">
        <ele>2146.64</ele>
        <time>2016-03-24T14:14:12Z</time>
      </trkpt>
      <trkpt lat="45.58144" lon="6.80324">
        <ele>2145.58</ele>
        <time>2016-03-24T14:14:14Z</time>
      </trkpt>
      <trkpt lat="45.5813" lon="6.80295">
        <ele>2141.98</ele>
        <time>2016-03-24T14:14:17Z</time>
      </trkpt>
      <trkpt lat="45.58116" lon="6.80278">
        <ele>2138.83</ele>
        <time>2016-03-24T14:14:19Z</time>
      </trkpt>
      <trkpt lat="45.58095" lon="6.80256">
        <ele>2135.75</ele>
        <time>2016-03-24T14:14:22Z</time>
      </trkpt>
      <trkpt lat="45.58075" lon="6.80234">
        <ele>2133.77</ele>
        <time>2016-03-24T14:14:25Z</time>
      </trkpt>
      <trkpt lat="45.58056" lon="6.80214">
        <ele>2130.78</ele>
        <time>2016-03-24T14:14:28Z</time>
      </trkpt>
      <trkpt lat="45.58034" lon="6.80198">
        <ele>2124.39</ele>
        <time>2016-03-24T14:14:31Z</time>
      </trkpt>
      <trkpt lat="45.58019" lon="6.80171">
        <ele>2119.99</ele>
        <time>2016-03-24T14:14:34Z</time>
      </trkpt>
      <trkpt lat="45.58011" lon="6.80143">
        <ele>2116.78</ele>
        <time>2016-03-24T14:14:37Z</time>
      </trkpt>
      <trkpt lat="45.57998" lon="6.80125">
        <ele>2108.57</ele>
        <time>2016-03-24T14:14:56Z</time>
      </trkpt>
      <trkpt lat="45.57978" lon="6.80109">
        <ele>2104.78</ele>
        <time>2016-03-24T14:15:00Z</time>
      </trkpt>
      <trkpt lat="45.57955" lon="6.80097">
        <ele>2099.03</ele>
        <time>2016-03-24T14:15:03Z</time>
      </trkpt>
      <trkpt lat="45.57939" lon="6.8008">
        <ele>2094.23</ele>
        <time>2016-03-24T14:15:05Z</time>
      </trkpt>
      <trkpt lat="45.57923" lon="6.8006">
        <ele>2090.04</ele>
        <time>2016-03-24T14:15:07Z</time>
      </trkpt>
      <trkpt lat="45.5791" lon="6.80036">
        <ele>2085.07</ele>
        <time>2016-03-24T14:15:09Z</time>
      </trkpt>
      <trkpt lat="45.579" lon="6.8001">
        <ele>2081.83</ele>
        <time>2016-03-24T14:15:11Z</time>
      </trkpt>
      <trkpt lat="45.5789" lon="6.79985">
        <ele>2080.58</ele>
        <time>2016-03-24T14:15:13Z</time>
      </trkpt>
      <trkpt lat="45.57878" lon="6.7995">
        <ele>2076.02</ele>
        <time>2016-03-24T14:15:16Z</time>
      </trkpt>
      <trkpt lat="45.57864" lon="6.79917">
        <ele>2072.78</ele>
        <time>2016-03-24T14:15:19Z</time>
      </trkpt>
      <trkpt lat="45.57849" lon="6.79886">
        <ele>2071.57</ele>
        <time>2016-03-24T14:15:22Z</time>
      </trkpt>
      <trkpt lat="45.5783" lon="6.79863">
        <ele>2067.82</ele>
        <time>2016-03-24T14:15:25Z</time>
      </trkpt>
      <trkpt lat="45.57811" lon="6.79839">
        <ele>2063.82</ele>
        <time>2016-03-24T14:15:28Z</time>
      </trkpt>
      <trkpt lat="45.57791" lon="6.79819">
        <ele>2061.77</ele>
        <time>2016-03-24T14:15:31Z</time>
      </trkpt>
      <trkpt lat="45.57775" lon="6.79798">
        <ele>2059.74</ele>
        <time>2016-03-24T14:15:34Z</time>
      </trkpt>
      <trkpt lat="45.5776" lon="6.79778">
        <ele>2057.8</ele>
        <time>2016-03-24T14:15:37Z</time>
      </trkpt>
      <trkpt lat="45.57744" lon="6.79761">
        <ele>2052.96</ele>
        <time>2016-03-24T14:15:40Z</time>
      </trkpt>
      <trkpt lat="45.57723" lon="6.79741">
        <ele>2049.78</ele>
        <time>2016-03-24T14:15:43Z</time>
      </trkpt>
      <trkpt lat="45.57706" lon="6.79728">
        <ele>2048.74</ele>
        <time>2016-03-24T14:15:45Z</time>
      </trkpt>
      <trkpt lat="45.57689" lon="6.79716">
        <ele>2047.42</ele>
        <time>2016-03-24T14:15:47Z</time>
      </trkpt>
      <trkpt lat="45.57666" lon="6.79699">
        <ele>2044.59</ele>
        <time>2016-03-24T14:15:50Z</time>
      </trkpt>
      <trkpt lat="45.57643" lon="6.79683">
        <ele>2041.78</ele>
        <time>2016-03-24T14:15:53Z</time>
      </trkpt>
      <trkpt lat="45.5762" lon="6.79669">
        <ele>2038.78</ele>
        <time>2016-03-24T14:15:56Z</time>
      </trkpt>
      <trkpt lat="45.57598" lon="6.79653">
        <ele>2037.57</ele>
        <time>2016-03-24T14:15:59Z</time>
      </trkpt>
      <trkpt lat="45.57576" lon="6.79642">
        <ele>2034.78</ele>
        <time>2016-03-24T14:16:02Z</time>
      </trkpt>
      <trkpt lat="45.57556" lon="6.79631">
        <ele>2033.57</ele>
        <time>2016-03-24T14:16:05Z</time>
      </trkpt>
      <trkpt lat="45.57539" lon="6.79619">
        <ele>2032.57</ele>
        <time>2016-03-24T14:16:08Z</time>
      </trkpt>
      <trkpt lat="45.57523" lon="6.79606">
        <ele>2032.37</ele>
        <time>2016-03-24T14:16:11Z</time>
      </trkpt>
      <trkpt lat="45.57507" lon="6.79591">
        <ele>2031.7</ele>
        <time>2016-03-24T14:16:15Z</time>
      </trkpt>
      <trkpt lat="45.57492" lon="6.79572">
        <ele>2028.57</ele>
        <time>2016-03-24T14:16:20Z</time>
      </trkpt>
      <trkpt lat="45.57474" lon="6.7956">
        <ele>2025.77</ele>
        <time>2016-03-24T14:16:24Z</time>
      </trkpt>
      <trkpt lat="45.57456" lon="6.79554">
        <ele>2023.74</ele>
        <time>2016-03-24T14:16:27Z</time>
      </trkpt>
      <trkpt lat="45.57437" lon="6.79546">
        <ele>2021.74</ele>
        <time>2016-03-24T14:16:30Z</time>
      </trkpt>
      <trkpt lat="45.57415" lon="6.79542">
        <ele>2019.77</ele>
        <time>2016-03-24T14:16:33Z</time>
      </trkpt>
      <trkpt lat="45.57393" lon="6.79541">
        <ele>2017.58</ele>
        <time>2016-03-24T14:16:36Z</time>
      </trkpt>
      <trkpt lat="45.57371" lon="6.79536">
        <ele>2014.78</ele>
        <time>2016-03-24T14:16:39Z</time>
      </trkpt>
      <trkpt lat="45.57353" lon="6.79525">
        <ele>2012.77</ele>
        <time>2016-03-24T14:16:42Z</time>
      </trkpt>
      <trkpt lat="45.57338" lon="6.7951">
        <ele>2011.73</ele>
        <time>2016-03-24T14:16:45Z</time>
      </trkpt>
      <trkpt lat="45.57318" lon="6.79488">
        <ele>2009.78</ele>
        <time>2016-03-24T14:16:49Z</time>
      </trkpt>
      <trkpt lat="45.573" lon="6.7948">
        <ele>2007.74</ele>
        <time>2016-03-24T14:16:52Z</time>
      </trkpt>
      <trkpt lat="45.57281" lon="6.79472">
        <ele>2005.77</ele>
        <time>2016-03-24T14:16:55Z</time>
      </trkpt>
      <trkpt lat="45.57262" lon="6.79463">
        <ele>2002.94</ele>
        <time>2016-03-24T14:16:58Z</time>
      </trkpt>
      <trkpt lat="45.57242" lon="6.79454">
        <ele>2000.77</ele>
        <time>2016-03-24T14:17:01Z</time>
      </trkpt>
      <trkpt lat="45.57221" lon="6.79444">
        <ele>1998.74</ele>
        <time>2016-03-24T14:17:04Z</time>
      </trkpt>
      <trkpt lat="45.57201" lon="6.79429">
        <ele>1997.54</ele>
        <time>2016-03-24T14:17:07Z</time>
      </trkpt>
      <trkpt lat="45.57181" lon="6.79414">
        <ele>1995.9</ele>
        <time>2016-03-24T14:17:10Z</time>
      </trkpt>
      <trkpt lat="45.57163" lon="6.79393">
        <ele>1992.78</ele>
        <time>2016-03-24T14:17:13Z</time>
      </trkpt>
      <trkpt lat="45.57142" lon="6.7938">
        <ele>1988.79</ele>
        <time>2016-03-24T14:17:16Z</time>
      </trkpt>
      <trkpt lat="45.57116" lon="6.79372">
        <ele>1985.78</ele>
        <time>2016-03-24T14:17:19Z</time>
      </trkpt>
      <trkpt lat="45.57098" lon="6.79363">
        <ele>1982.82</ele>
        <time>2016-03-24T14:17:21Z</time>
      </trkpt>
      <trkpt lat="45.57075" lon="6.79347">
        <ele>1977.83</ele>
        <time>2016-03-24T14:17:24Z</time>
      </trkpt>
      <trkpt lat="45.57068" lon="6.79321">
        <ele>1975.58</ele>
        <time>2016-03-24T14:17:27Z</time>
      </trkpt>
      <trkpt lat="45.57087" lon="6.79308">
        <ele>1966.78</ele>
        <time>2016-03-24T14:17:54Z</time>
      </trkpt>
      <trkpt lat="45.57106" lon="6.79299">
        <ele>1967.53</ele>
        <time>2016-03-24T14:17:58Z</time>
      </trkpt>
      <trkpt lat="45.5712" lon="6.79281">
        <ele>1955.87</ele>
        <time>2016-03-24T14:18:06Z</time>
      </trkpt>
      <trkpt lat="45.57138" lon="6.7926">
        <ele>1951.74</ele>
        <time>2016-03-24T14:18:11Z</time>
      </trkpt>
      <trkpt lat="45.57158" lon="6.79235">
        <ele>1947.02</ele>
        <time>2016-03-24T14:18:14Z</time>
      </trkpt>
      <trkpt lat="45.57181" lon="6.79211">
        <ele>1941.83</ele>
        <time>2016-03-24T14:18:17Z</time>
      </trkpt>
      <trkpt lat="45.57179" lon="6.79184">
        <ele>1931.98</ele>
        <time>2016-03-24T14:18:24Z</time>
      </trkpt>
      <trkpt lat="45.57172" lon="6.79158">
        <ele>1926.06</ele>
        <time>2016-03-24T14:18:27Z</time>
      </trkpt>
      <trkpt lat="45.57172" lon="6.79125">
        <ele>1921.79</ele>
        <time>2016-03-24T14:18:30Z</time>
      </trkpt>
      <trkpt lat="45.57164" lon="6.79094">
        <ele>1914.24</ele>
        <time>2016-03-24T14:18:33Z</time>
      </trkpt>
      <trkpt lat="45.5717" lon="6.79058">
        <ele>1908.99</ele>
        <time>2016-03-24T14:18:36Z</time>
      </trkpt>
      <trkpt lat="45.57165" lon="6.7903">
        <ele>1900.12</ele>
        <time>2016-03-24T14:18:39Z</time>
      </trkpt>
      <trkpt lat="45.57167" lon="6.79004">
        <ele>1888.73</ele>
        <time>2016-03-24T14:18:57Z</time>
      </trkpt>
      <trkpt lat="45.57158" lon="6.78981">
        <ele>1882.78</ele>
        <time>2016-03-24T14:19:02Z</time>
      </trkpt>
      <trkpt lat="45.57147" lon="6.78954">
        <ele>1879.82</ele>
        <time>2016-03-24T14:19:04Z</time>
      </trkpt>
      <trkpt lat="45.57133" lon="6.78923">
        <ele>1877.94</ele>
        <time>2016-03-24T14:19:06Z</time>
      </trkpt>
      <trkpt lat="45.57122" lon="6.78897">
        <ele>1875.63</ele>
        <time>2016-03-24T14:19:08Z</time>
      </trkpt>
      <trkpt lat="45.57108" lon="6.78861">
        <ele>1870.57</ele>
        <time>2016-03-24T14:19:10Z</time>
      </trkpt>
      <trkpt lat="45.57092" lon="6.78817">
        <ele>1866.85</ele>
        <time>2016-03-24T14:19:12Z</time>
      </trkpt>
      <trkpt lat="45.57085" lon="6.78791">
        <ele>1865.8</ele>
        <time>2016-03-24T14:19:13Z</time>
      </trkpt>
      <trkpt lat="45.57067" lon="6.78751">
        <ele>1858.66</ele>
        <time>2016-03-24T14:19:15Z</time>
      </trkpt>
      <trkpt lat="45.57055" lon="6.78712">
        <ele>1855.02</ele>
        <time>2016-03-24T14:19:17Z</time>
      </trkpt>
      <trkpt lat="45.57044" lon="6.78677">
        <ele>1849.11</ele>
        <time>2016-03-24T14:19:19Z</time>
      </trkpt>
      <trkpt lat="45.57034" lon="6.78639">
        <ele>1842.31</ele>
        <time>2016-03-24T14:19:21Z</time>
      </trkpt>
      <trkpt lat="45.57023" lon="6.78603">
        <ele>1836.28</ele>
        <time>2016-03-24T14:19:23Z</time>
      </trkpt>
      <trkpt lat="45.57014" lon="6.78567">
        <ele>1829.16</ele>
        <time>2016-03-24T14:19:25Z</time>
      </trkpt>
      <trkpt lat="45.57006" lon="6.78531">
        <ele>1825.04</ele>
        <time>2016-03-24T14:19:27Z</time>
      </trkpt>
      <trkpt lat="45.57001" lon="6.78497">
        <ele>1823.75</ele>
        <time>2016-03-24T14:19:29Z</time>
      </trkpt>
      <trkpt lat="45.56997" lon="6.78468">
        <ele>1821.78</ele>
        <time>2016-03-24T14:19:31Z</time>
      </trkpt>
      <trkpt lat="45.56994" lon="6.7844">
        <ele>1819.78</ele>
        <time>2016-03-24T14:19:33Z</time>
      </trkpt>
      <trkpt lat="45.5699" lon="6.78404">
        <ele>1817.61</ele>
        <time>2016-03-24T14:19:36Z</time>
      </trkpt>
      <trkpt lat="45.56986" lon="6.78379">
        <ele>1813.05</ele>
        <time>2016-03-24T14:19:38Z</time>
      </trkpt>
      <trkpt lat="45.56982" lon="6.78343">
        <ele>1808.79</ele>
        <time>2016-03-24T14:19:41Z</time>
      </trkpt>
      <trkpt lat="45.56977" lon="6.78309">
        <ele>1805.62</ele>
        <time>2016-03-24T14:19:44Z</time>
      </trkpt>
      <trkpt lat="45.56972" lon="6.78274">
        <ele>1802.78</ele>
        <time>2016-03-24T14:19:47Z</time>
      </trkpt>
      <trkpt lat="45.56958" lon="6.78247">
        <ele>1798.82</ele>
        <time>2016-03-24T14:19:50Z</time>
      </trkpt>
      <trkpt lat="45.56943" lon="6.78225">
        <ele>1797.53</ele>
        <time>2016-03-24T14:19:54Z</time>
      </trkpt>
      <trkpt lat="45.56927" lon="6.78209">
        <ele>1792.78</ele>
        <time>2016-03-24T14:19:58Z</time>
      </trkpt>
      <trkpt lat="45.56913" lon="6.78189">
        <ele>1791.53</ele>
        <time>2016-03-24T14:20:03Z</time>
      </trkpt>
      <trkpt lat="45.56901" lon="6.78168">
        <ele>1788.74</ele>
        <time>2016-03-24T14:20:14Z</time>
      </trkpt>
      <trkpt lat="45.56892" lon="6.78145">
        <ele>1788.53</ele>
        <time>2016-03-24T14:20:18Z</time>
      </trkpt>
      <trkpt lat="45.56879" lon="6.78119">
        <ele>1785.74</ele>
        <time>2016-03-24T14:20:23Z</time>
      </trkpt>
      <trkpt lat="45.56867" lon="6.78096">
        <ele>1784.54</ele>
        <time>2016-03-24T14:20:27Z</time>
      </trkpt>
      <trkpt lat="45.56858" lon="6.78069">
        <ele>1784.97</ele>
        <time>2016-03-24T14:20:31Z</time>
      </trkpt>
      <trkpt lat="45.56849" lon="6.78045">
        <ele>1780.74</ele>
        <time>2016-03-24T14:20:42Z</time>
      </trkpt>
      <trkpt lat="45.56831" lon="6.78028">
        <ele>1776.74</ele>
        <time>2016-03-24T14:20:48Z</time>
      </trkpt>
      <trkpt lat="45.56814" lon="6.78012">
        <ele>1775.57</ele>
        <time>2016-03-24T14:20:52Z</time>
      </trkpt>
      <trkpt lat="45.568" lon="6.77995">
        <ele>1773.58</ele>
        <time>2016-03-24T14:20:55Z</time>
      </trkpt>
      <trkpt lat="45.56781" lon="6.77978">
        <ele>1770.45</ele>
        <time>2016-03-24T14:20:59Z</time>
      </trkpt>
      <trkpt lat="45.56765" lon="6.77962">
        <ele>1769.56</ele>
        <time>2016-03-24T14:21:03Z</time>
      </trkpt>
      <trkpt lat="45.56747" lon="6.77947">
        <ele>1769.49</ele>
        <time>2016-03-24T14:21:09Z</time>
      </trkpt>
      <trkpt lat="45.56735" lon="6.77926">
        <ele>1769.53</ele>
        <time>2016-03-24T14:21:16Z</time>
      </trkpt>
      <trkpt lat="45.56727" lon="6.77903">
        <ele>1769.32</ele>
        <time>2016-03-24T14:21:21Z</time>
      </trkpt>
      <trkpt lat="45.56713" lon="6.77882">
        <ele>1767.73</ele>
        <time>2016-03-24T14:21:26Z</time>
      </trkpt>
      <trkpt lat="45.56694" lon="6.77869">
        <ele>1765.77</ele>
        <time>2016-03-24T14:21:30Z</time>
      </trkpt>
      <trkpt lat="45.56673" lon="6.77858">
        <ele>1763.58</ele>
        <time>2016-03-24T14:21:34Z</time>
      </trkpt>
      <trkpt lat="45.56657" lon="6.77848">
        <ele>1761.77</ele>
        <time>2016-03-24T14:21:37Z</time>
      </trkpt>
      <trkpt lat="45.56645" lon="6.77823">
        <ele>1762.52</ele>
        <time>2016-03-24T14:21:40Z</time>
      </trkpt>
      <trkpt lat="45.56637" lon="6.77789">
        <ele>1762.53</ele>
        <time>2016-03-24T14:21:43Z</time>
      </trkpt>
      <trkpt lat="45.56635" lon="6.77762">
        <ele>1761.57</ele>
        <time>2016-03-24T14:21:46Z</time>
      </trkpt>
      <trkpt lat="45.56642" lon="6.77731">
        <ele>1756.8</ele>
        <time>2016-03-24T14:21:50Z</time>
      </trkpt>
      <trkpt lat="45.56647" lon="6.77703">
        <ele>1753.62</ele>
        <time>2016-03-24T14:21:53Z</time>
      </trkpt>
      <trkpt lat="45.56653" lon="6.77677">
        <ele>1751.93</ele>
        <time>2016-03-24T14:21:55Z</time>
      </trkpt>
      <trkpt lat="45.56653" lon="6.77645">
        <ele>1750.75</ele>
        <time>2016-03-24T14:21:57Z</time>
      </trkpt>
      <trkpt lat="45.56649" lon="6.77617">
        <ele>1747.18</ele>
        <time>2016-03-24T14:21:59Z</time>
      </trkpt>
      <trkpt lat="45.56643" lon="6.77593">
        <ele>1743.84</ele>
        <time>2016-03-24T14:22:01Z</time>
      </trkpt>
      <trkpt lat="45.56633" lon="6.77562">
        <ele>1739.02</ele>
        <time>2016-03-24T14:22:04Z</time>
      </trkpt>
      <trkpt lat="45.56625" lon="6.77528">
        <ele>1736.77</ele>
        <time>2016-03-24T14:22:07Z</time>
      </trkpt>
      <trkpt lat="45.56617" lon="6.77494">
        <ele>1733.78</ele>
        <time>2016-03-24T14:22:10Z</time>
      </trkpt>
      <trkpt lat="45.56614" lon="6.77465">
        <ele>1731.62</ele>
        <time>2016-03-24T14:22:12Z</time>
      </trkpt>
      <trkpt lat="45.56601" lon="6.77447">
        <ele>1728.97</ele>
        <time>2016-03-24T14:22:14Z</time>
      </trkpt>
      <trkpt lat="45.56585" lon="6.77433">
        <ele>1729.51</ele>
        <time>2016-03-24T14:22:16Z</time>
      </trkpt>
      <trkpt lat="45.56568" lon="6.77418">
        <ele>1728.73</ele>
        <time>2016-03-24T14:22:18Z</time>
      </trkpt>
      <trkpt lat="45.56554" lon="6.77401">
        <ele>1723.6</ele>
        <time>2016-03-24T14:22:21Z</time>
      </trkpt>
      <trkpt lat="45.56538" lon="6.77387">
        <ele>1723.53</ele>
        <time>2016-03-24T14:22:25Z</time>
      </trkpt>
      <trkpt lat="45.56518" lon="6.77364">
        <ele>1721.19</ele>
        <time>2016-03-24T14:22:29Z</time>
      </trkpt>
      <trkpt lat="45.56508" lon="6.77337">
        <ele>1713.74</ele>
        <time>2016-03-24T14:22:35Z</time>
      </trkpt>
      <trkpt lat="45.56493" lon="6.77315">
        <ele>1711.54</ele>
        <time>2016-03-24T14:22:40Z</time>
      </trkpt>
      <trkpt lat="45.56474" lon="6.77296">
        <ele>1712.72</ele>
        <time>2016-03-24T14:22:45Z</time>
      </trkpt>
      <trkpt lat="45.56457" lon="6.77276">
        <ele>1714.48</ele>
        <time>2016-03-24T14:22:50Z</time>
      </trkpt>
      <trkpt lat="45.56441" lon="6.77262">
        <ele>1712.77</ele>
        <time>2016-03-24T14:22:54Z</time>
      </trkpt>
      <trkpt lat="45.56423" lon="6.77242">
        <ele>1713.13</ele>
        <time>2016-03-24T14:22:58Z</time>
      </trkpt>
      <trkpt lat="45.56404" lon="6.77231">
        <ele>1711.73</ele>
        <time>2016-03-24T14:23:02Z</time>
      </trkpt>
      <trkpt lat="45.56385" lon="6.77224">
        <ele>1712.52</ele>
        <time>2016-03-24T14:23:05Z</time>
      </trkpt>
      <trkpt lat="45.56363" lon="6.77225">
        <ele>1706.58</ele>
        <time>2016-03-24T14:23:11Z</time>
      </trkpt>
      <trkpt lat="45.56343" lon="6.77227">
        <ele>1705.56</ele>
        <time>2016-03-24T14:23:15Z</time>
      </trkpt>
      <trkpt lat="45.56318" lon="6.77227">
        <ele>1704.54</ele>
        <time>2016-03-24T14:23:18Z</time>
      </trkpt>
      <trkpt lat="45.56298" lon="6.77236">
        <ele>1704.37</ele>
        <time>2016-03-24T14:23:21Z</time>
      </trkpt>
      <trkpt lat="45.56284" lon="6.77254">
        <ele>1704.34</ele>
        <time>2016-03-24T14:23:24Z</time>
      </trkpt>
      <trkpt lat="45.56264" lon="6.77266">
        <ele>1706.32</ele>
        <time>2016-03-24T14:23:27Z</time>
      </trkpt>
      <trkpt lat="45.56246" lon="6.77266">
        <ele>1701.22</ele>
        <time>2016-03-24T14:23:32Z</time>
      </trkpt>
      <trkpt lat="45.56224" lon="6.77268">
        <ele>1699.64</ele>
        <time>2016-03-24T14:23:36Z</time>
      </trkpt>
      <trkpt lat="45.56206" lon="6.77265">
        <ele>1698.73</ele>
        <time>2016-03-24T14:23:40Z</time>
      </trkpt>
      <trkpt lat="45.56189" lon="6.77244">
        <ele>1697.69</ele>
        <time>2016-03-24T14:23:44Z</time>
      </trkpt>
      <trkpt lat="45.56176" lon="6.77222">
        <ele>1696.57</ele>
        <time>2016-03-24T14:23:48Z</time>
      </trkpt>
      <trkpt lat="45.56167" lon="6.77196">
        <ele>1693.54</ele>
        <time>2016-03-24T14:23:53Z</time>
      </trkpt>
      <trkpt lat="45.56161" lon="6.77167">
        <ele>1690.77</ele>
        <time>2016-03-24T14:23:59Z</time>
      </trkpt>
      <trkpt lat="45.56152" lon="6.77135">
        <ele>1686.82</ele>
        <time>2016-03-24T14:24:04Z</time>
      </trkpt>
      <trkpt lat="45.56147" lon="6.77108">
        <ele>1688.33</ele>
        <time>2016-03-24T14:24:07Z</time>
      </trkpt>
      <trkpt lat="45.56143" lon="6.77083">
        <ele>1687.54</ele>
        <time>2016-03-24T14:24:10Z</time>
      </trkpt>
      <trkpt lat="45.56137" lon="6.77053">
        <ele>1685.58</ele>
        <time>2016-03-24T14:24:15Z</time>
      </trkpt>
      <trkpt lat="45.5613" lon="6.77026">
        <ele>1682.74</ele>
        <time>2016-03-24T14:24:21Z</time>
      </trkpt>
      <trkpt lat="45.56118" lon="6.77005">
        <ele>1676.58</ele>
        <time>2016-03-24T14:24:45Z</time>
      </trkpt>
      <trkpt lat="45.56111" lon="6.76981">
        <ele>1678.48</ele>
        <time>2016-03-24T14:24:52Z</time>
      </trkpt>
      <trkpt lat="45.56103" lon="6.76948">
        <ele>1676.73</ele>
        <time>2016-03-24T14:24:58Z</time>
      </trkpt>
      <trkpt lat="45.56093" lon="6.76917">
        <ele>1673.57</ele>
        <time>2016-03-24T14:25:02Z</time>
      </trkpt>
      <trkpt lat="45.56078" lon="6.76899">
        <ele>1669.79</ele>
        <time>2016-03-24T14:25:06Z</time>
      </trkpt>
      <trkpt lat="45.5606" lon="6.76883">
        <ele>1668.57</ele>
        <time>2016-03-24T14:25:10Z</time>
      </trkpt>
      <trkpt lat="45.56038" lon="6.76873">
        <ele>1668.72</ele>
        <time>2016-03-24T14:25:14Z</time>
      </trkpt>
      <trkpt lat="45.56029" lon="6.7685">
        <ele>1667.56</ele>
        <time>2016-03-24T14:25:18Z</time>
      </trkpt>
      <trkpt lat="45.5602" lon="6.76828">
        <ele>1662.75</ele>
        <time>2016-03-24T14:25:22Z</time>
      </trkpt>
      <trkpt lat="45.56004" lon="6.76812">
        <ele>1660.58</ele>
        <time>2016-03-24T14:25:25Z</time>
      </trkpt>
      <trkpt lat="45.55988" lon="6.76788">
        <ele>1654.69</ele>
        <time>2016-03-24T14:25:29Z</time>
      </trkpt>
      <trkpt lat="45.55982" lon="6.7676">
        <ele>1654.34</ele>
        <time>2016-03-24T14:25:32Z</time>
      </trkpt>
      <trkpt lat="45.55976" lon="6.76728">
        <ele>1651.58</ele>
        <time>2016-03-24T14:25:36Z</time>
      </trkpt>
      <trkpt lat="45.55963" lon="6.76703">
        <ele>1648.74</ele>
        <time>2016-03-24T14:25:40Z</time>
      </trkpt>
      <trkpt lat="45.5595" lon="6.76684">
        <ele>1644.97</ele>
        <time>2016-03-24T14:25:44Z</time>
      </trkpt>
      <trkpt lat="45.55932" lon="6.76665">
        <ele>1643.37</ele>
        <time>2016-03-24T14:25:48Z</time>
      </trkpt>
      <trkpt lat="45.55909" lon="6.76661">
        <ele>1646.29</ele>
        <time>2016-03-24T14:25:53Z</time>
      </trkpt>
      <trkpt lat="45.55891" lon="6.76669">
        <ele>1644.7</ele>
        <time>2016-03-24T14:25:57Z</time>
      </trkpt>
      <trkpt lat="45.55873" lon="6.76676">
        <ele>1645.52</ele>
        <time>2016-03-24T14:26:00Z</time>
      </trkpt>
      <trkpt lat="45.55854" lon="6.76684">
        <ele>1642.58</ele>
        <time>2016-03-24T14:26:04Z</time>
      </trkpt>
      <trkpt lat="45.55831" lon="6.76678">
        <ele>1640.57</ele>
        <time>2016-03-24T14:26:08Z</time>
      </trkpt>
      <trkpt lat="45.55815" lon="6.76657">
        <ele>1636.01</ele>
        <time>2016-03-24T14:26:12Z</time>
      </trkpt>
      <trkpt lat="45.55805" lon="6.76631">
        <ele>1633.74</ele>
        <time>2016-03-24T14:26:15Z</time>
      </trkpt>
      <trkpt lat="45.55789" lon="6.76611">
        <ele>1631.74</ele>
        <time>2016-03-24T14:26:18Z</time>
      </trkpt>
      <trkpt lat="45.55771" lon="6.76607">
        <ele>1630.73</ele>
        <time>2016-03-24T14:26:21Z</time>
      </trkpt>
      <trkpt lat="45.55752" lon="6.76604">
        <ele>1628.74</ele>
        <time>2016-03-24T14:26:24Z</time>
      </trkpt>
      <trkpt lat="45.55732" lon="6.76594">
        <ele>1627.54</ele>
        <time>2016-03-24T14:26:28Z</time>
      </trkpt>
      <trkpt lat="45.55712" lon="6.7659">
        <ele>1625.58</ele>
        <time>2016-03-24T14:26:32Z</time>
      </trkpt>
      <trkpt lat="45.55691" lon="6.76586">
        <ele>1621.78</ele>
        <time>2016-03-24T14:26:36Z</time>
      </trkpt>
      <trkpt lat="45.55671" lon="6.76577">
        <ele>1620.7</ele>
        <time>2016-03-24T14:26:40Z</time>
      </trkpt>
      <trkpt lat="45.55651" lon="6.76572">
        <ele>1618.54</ele>
        <time>2016-03-24T14:26:44Z</time>
      </trkpt>
      <trkpt lat="45.55629" lon="6.76569">
        <ele>1617.77</ele>
        <time>2016-03-24T14:26:49Z</time>
      </trkpt>
      <trkpt lat="45.55608" lon="6.76558">
        <ele>1615.58</ele>
        <time>2016-03-24T14:26:53Z</time>
      </trkpt>
      <trkpt lat="45.55592" lon="6.76536">
        <ele>1613.55</ele>
        <time>2016-03-24T14:26:58Z</time>
      </trkpt>
      <trkpt lat="45.55577" lon="6.76517">
        <ele>1611.73</ele>
        <time>2016-03-24T14:27:04Z</time>
      </trkpt>
      <trkpt lat="45.55565" lon="6.76498">
        <ele>1609.53</ele>
        <time>2016-03-24T14:27:21Z</time>
      </trkpt>
      <trkpt lat="45.55548" lon="6.76511">
        <ele>1607.74</ele>
        <time>2016-03-24T14:29:08Z</time>
      </trkpt>
      <trkpt lat="45.55542" lon="6.76539">
        <ele>1606.25</ele>
        <time>2016-03-24T14:29:25Z</time>
      </trkpt>
      <trkpt lat="45.55536" lon="6.76564">
        <ele>1613.07</ele>
        <time>2016-03-24T14:29:30Z</time>
      </trkpt>
      <trkpt lat="45.55529" lon="6.76591">
        <ele>1621.27</ele>
        <time>2016-03-24T14:29:36Z</time>
      </trkpt>
      <trkpt lat="45.55522" lon="6.76619">
        <ele>1631.08</ele>
        <time>2016-03-24T14:29:42Z</time>
      </trkpt>
      <trkpt lat="45.55516" lon="6.76646">
        <ele>1642.04</ele>
        <time>2016-03-24T14:29:48Z</time>
      </trkpt>
      <trkpt lat="45.55508" lon="6.7667">
        <ele>1646.49</ele>
        <time>2016-03-24T14:29:53Z</time>
      </trkpt>
      <trkpt lat="45.555" lon="6.76696">
        <ele>1649.52</ele>
        <time>2016-03-24T14:29:59Z</time>
      </trkpt>
      <trkpt lat="45.55494" lon="6.7672">
        <ele>1654.29</ele>
        <time>2016-03-24T14:30:04Z</time>
      </trkpt>
      <trkpt lat="45.55486" lon="6.76745">
        <ele>1661.11</ele>
        <time>2016-03-24T14:30:09Z</time>
      </trkpt>
      <trkpt lat="45.55476" lon="6.76767">
        <ele>1665.44</ele>
        <time>2016-03-24T14:30:14Z</time>
      </trkpt>
      <trkpt lat="45.55464" lon="6.76791">
        <ele>1672.27</ele>
        <time>2016-03-24T14:30:19Z</time>
      </trkpt>
      <trkpt lat="45.55456" lon="6.76816">
        <ele>1680.48</ele>
        <time>2016-03-24T14:30:25Z</time>
      </trkpt>
      <trkpt lat="45.55449" lon="6.7684">
        <ele>1683.5</ele>
        <time>2016-03-24T14:30:30Z</time>
      </trkpt>
      <trkpt lat="45.55446" lon="6.76865">
        <ele>1693.04</ele>
        <time>2016-03-24T14:30:36Z</time>
      </trkpt>
      <trkpt lat="45.55436" lon="6.76893">
        <ele>1701.23</ele>
        <time>2016-03-24T14:30:42Z</time>
      </trkpt>
      <trkpt lat="45.55427" lon="6.76919">
        <ele>1708.5</ele>
        <time>2016-03-24T14:30:48Z</time>
      </trkpt>
      <trkpt lat="45.5542" lon="6.76945">
        <ele>1717.22</ele>
        <time>2016-03-24T14:30:54Z</time>
      </trkpt>
      <trkpt lat="45.55414" lon="6.76972">
        <ele>1731</ele>
        <time>2016-03-24T14:31:01Z</time>
      </trkpt>
      <trkpt lat="45.55407" lon="6.76997">
        <ele>1740.04</ele>
        <time>2016-03-24T14:31:07Z</time>
      </trkpt>
      <trkpt lat="45.55399" lon="6.77022">
        <ele>1745.52</ele>
        <time>2016-03-24T14:31:13Z</time>
      </trkpt>
      <trkpt lat="45.55391" lon="6.77046">
        <ele>1753.87</ele>
        <time>2016-03-24T14:31:18Z</time>
      </trkpt>
      <trkpt lat="45.55387" lon="6.77071">
        <ele>1762.09</ele>
        <time>2016-03-24T14:31:24Z</time>
      </trkpt>
      <trkpt lat="45.55382" lon="6.77097">
        <ele>1773.59</ele>
        <time>2016-03-24T14:31:30Z</time>
      </trkpt>
      <trkpt lat="45.55375" lon="6.77122">
        <ele>1779.14</ele>
        <time>2016-03-24T14:31:36Z</time>
      </trkpt>
      <trkpt lat="45.5537" lon="6.7715">
        <ele>1785.48</ele>
        <time>2016-03-24T14:31:42Z</time>
      </trkpt>
      <trkpt lat="45.55365" lon="6.77175">
        <ele>1792.07</ele>
        <time>2016-03-24T14:31:47Z</time>
      </trkpt>
      <trkpt lat="45.55355" lon="6.77198">
        <ele>1801.07</ele>
        <time>2016-03-24T14:31:52Z</time>
      </trkpt>
      <trkpt lat="45.5535" lon="6.77225">
        <ele>1810.08</ele>
        <time>2016-03-24T14:31:58Z</time>
      </trkpt>
      <trkpt lat="45.55344" lon="6.77255">
        <ele>1813.49</ele>
        <time>2016-03-24T14:32:06Z</time>
      </trkpt>
      <trkpt lat="45.55338" lon="6.77283">
        <ele>1821.28</ele>
        <time>2016-03-24T14:32:12Z</time>
      </trkpt>
      <trkpt lat="45.5533" lon="6.77312">
        <ele>1828.07</ele>
        <time>2016-03-24T14:32:18Z</time>
      </trkpt>
      <trkpt lat="45.55322" lon="6.77337">
        <ele>1834.12</ele>
        <time>2016-03-24T14:32:23Z</time>
      </trkpt>
      <trkpt lat="45.55314" lon="6.77365">
        <ele>1844.23</ele>
        <time>2016-03-24T14:32:29Z</time>
      </trkpt>
      <trkpt lat="45.55308" lon="6.77394">
        <ele>1851.28</ele>
        <time>2016-03-24T14:32:35Z</time>
      </trkpt>
      <trkpt lat="45.55302" lon="6.77421">
        <ele>1856.12</ele>
        <time>2016-03-24T14:32:41Z</time>
      </trkpt>
      <trkpt lat="45.55294" lon="6.77448">
        <ele>1862.08</ele>
        <time>2016-03-24T14:32:47Z</time>
      </trkpt>
      <trkpt lat="45.55287" lon="6.77477">
        <ele>1865.28</ele>
        <time>2016-03-24T14:32:53Z</time>
      </trkpt>
      <trkpt lat="45.5528" lon="6.77504">
        <ele>1871.32</ele>
        <time>2016-03-24T14:32:59Z</time>
      </trkpt>
      <trkpt lat="45.55274" lon="6.77531">
        <ele>1879.23</ele>
        <time>2016-03-24T14:33:05Z</time>
      </trkpt>
      <trkpt lat="45.55266" lon="6.77558">
        <ele>1884.28</ele>
        <time>2016-03-24T14:33:11Z</time>
      </trkpt>
      <trkpt lat="45.55259" lon="6.77585">
        <ele>1891.28</ele>
        <time>2016-03-24T14:33:17Z</time>
      </trkpt>
      <trkpt lat="45.55251" lon="6.77613">
        <ele>1900.03</ele>
        <time>2016-03-24T14:33:23Z</time>
      </trkpt>
      <trkpt lat="45.55243" lon="6.7764">
        <ele>1908.08</ele>
        <time>2016-03-24T14:33:29Z</time>
      </trkpt>
      <trkpt lat="45.55236" lon="6.77667">
        <ele>1913.47</ele>
        <time>2016-03-24T14:33:35Z</time>
      </trkpt>
      <trkpt lat="45.55227" lon="6.77694">
        <ele>1923.03</ele>
        <time>2016-03-24T14:33:41Z</time>
      </trkpt>
      <trkpt lat="45.5522" lon="6.7772">
        <ele>1929.12</ele>
        <time>2016-03-24T14:33:47Z</time>
      </trkpt>
      <trkpt lat="45.55211" lon="6.77747">
        <ele>1936.27</ele>
        <time>2016-03-24T14:33:53Z</time>
      </trkpt>
      <trkpt lat="45.55203" lon="6.77775">
        <ele>1944.64</ele>
        <time>2016-03-24T14:33:59Z</time>
      </trkpt>
      <trkpt lat="45.55196" lon="6.77801">
        <ele>1949.52</ele>
        <time>2016-03-24T14:34:05Z</time>
      </trkpt>
      <trkpt lat="45.55188" lon="6.77831">
        <ele>1955.07</ele>
        <time>2016-03-24T14:34:11Z</time>
      </trkpt>
      <trkpt lat="45.55181" lon="6.77858">
        <ele>1960.24</ele>
        <time>2016-03-24T14:34:17Z</time>
      </trkpt>
      <trkpt lat="45.55175" lon="6.77885">
        <ele>1963.28</ele>
        <time>2016-03-24T14:34:23Z</time>
      </trkpt>
      <trkpt lat="45.55166" lon="6.77913">
        <ele>1972.24</ele>
        <time>2016-03-24T14:34:29Z</time>
      </trkpt>
      <trkpt lat="45.55159" lon="6.77941">
        <ele>1980.21</ele>
        <time>2016-03-24T14:34:35Z</time>
      </trkpt>
      <trkpt lat="45.55152" lon="6.77967">
        <ele>1988.44</ele>
        <time>2016-03-24T14:34:41Z</time>
      </trkpt>
      <trkpt lat="45.55144" lon="6.77993">
        <ele>1995.04</ele>
        <time>2016-03-24T14:34:47Z</time>
      </trkpt>
      <trkpt lat="45.55136" lon="6.78021">
        <ele>2007.04</ele>
        <time>2016-03-24T14:34:53Z</time>
      </trkpt>
      <trkpt lat="45.55127" lon="6.78046">
        <ele>2013.67</ele>
        <time>2016-03-24T14:34:59Z</time>
      </trkpt>
      <trkpt lat="45.55122" lon="6.78072">
        <ele>2018.25</ele>
        <time>2016-03-24T14:35:05Z</time>
      </trkpt>
      <trkpt lat="45.55113" lon="6.78097">
        <ele>2025.48</ele>
        <time>2016-03-24T14:35:11Z</time>
      </trkpt>
      <trkpt lat="45.55107" lon="6.78124">
        <ele>2026.33</ele>
        <time>2016-03-24T14:35:17Z</time>
      </trkpt>
      <trkpt lat="45.55099" lon="6.78151">
        <ele>2030.31</ele>
        <time>2016-03-24T14:35:23Z</time>
      </trkpt>
      <trkpt lat="45.55093" lon="6.78178">
        <ele>2031.68</ele>
        <time>2016-03-24T14:35:29Z</time>
      </trkpt>
      <trkpt lat="45.55085" lon="6.78205">
        <ele>2037.07</ele>
        <time>2016-03-24T14:35:35Z</time>
      </trkpt>
      <trkpt lat="45.55078" lon="6.7823">
        <ele>2039.53</ele>
        <time>2016-03-24T14:35:41Z</time>
      </trkpt>
      <trkpt lat="45.5507" lon="6.78254">
        <ele>2044.29</ele>
        <time>2016-03-24T14:35:47Z</time>
      </trkpt>
      <trkpt lat="45.55064" lon="6.78283">
        <ele>2050.32</ele>
        <time>2016-03-24T14:35:53Z</time>
      </trkpt>
      <trkpt lat="45.55059" lon="6.78311">
        <ele>2053.5</ele>
        <time>2016-03-24T14:35:59Z</time>
      </trkpt>
      <trkpt lat="45.55055" lon="6.78339">
        <ele>2054.28</ele>
        <time>2016-03-24T14:36:05Z</time>
      </trkpt>
      <trkpt lat="45.55049" lon="6.78364">
        <ele>2059.32</ele>
        <time>2016-03-24T14:36:10Z</time>
      </trkpt>
      <trkpt lat="45.55043" lon="6.78389">
        <ele>2064.29</ele>
        <time>2016-03-24T14:36:15Z</time>
      </trkpt>
      <trkpt lat="45.55037" lon="6.78417">
        <ele>2069.28</ele>
        <time>2016-03-24T14:36:21Z</time>
      </trkpt>
      <trkpt lat="45.55029" lon="6.78441">
        <ele>2074.25</ele>
        <time>2016-03-24T14:36:27Z</time>
      </trkpt>
      <trkpt lat="45.55022" lon="6.78465">
        <ele>2081.28</ele>
        <time>2016-03-24T14:36:32Z</time>
      </trkpt>
      <trkpt lat="45.55016" lon="6.78491">
        <ele>2088.08</ele>
        <time>2016-03-24T14:36:37Z</time>
      </trkpt>
      <trkpt lat="45.5501" lon="6.78516">
        <ele>2094.23</ele>
        <time>2016-03-24T14:36:42Z</time>
      </trkpt>
      <trkpt lat="45.55003" lon="6.78545">
        <ele>2104.68</ele>
        <time>2016-03-24T14:36:48Z</time>
      </trkpt>
      <trkpt lat="45.54994" lon="6.78573">
        <ele>2114.08</ele>
        <time>2016-03-24T14:36:54Z</time>
      </trkpt>
      <trkpt lat="45.54985" lon="6.78596">
        <ele>2122.28</ele>
        <time>2016-03-24T14:36:59Z</time>
      </trkpt>
      <trkpt lat="45.54976" lon="6.78622">
        <ele>2130.24</ele>
        <time>2016-03-24T14:37:05Z</time>
      </trkpt>
      <trkpt lat="45.54971" lon="6.78651">
        <ele>2137.28</ele>
        <time>2016-03-24T14:37:11Z</time>
      </trkpt>
      <trkpt lat="45.54963" lon="6.78677">
        <ele>2144.44</ele>
        <time>2016-03-24T14:37:17Z</time>
      </trkpt>
      <trkpt lat="45.54958" lon="6.78706">
        <ele>2148.52</ele>
        <time>2016-03-24T14:37:23Z</time>
      </trkpt>
      <trkpt lat="45.54951" lon="6.78733">
        <ele>2155.28</ele>
        <time>2016-03-24T14:37:29Z</time>
      </trkpt>
      <trkpt lat="45.54944" lon="6.7876">
        <ele>2159.29</ele>
        <time>2016-03-24T14:37:35Z</time>
      </trkpt>
      <trkpt lat="45.54938" lon="6.78788">
        <ele>2163.32</ele>
        <time>2016-03-24T14:37:41Z</time>
      </trkpt>
      <trkpt lat="45.5493" lon="6.78815">
        <ele>2168.45</ele>
        <time>2016-03-24T14:37:47Z</time>
      </trkpt>
      <trkpt lat="45.54923" lon="6.78842">
        <ele>2175.44</ele>
        <time>2016-03-24T14:37:53Z</time>
      </trkpt>
      <trkpt lat="45.54917" lon="6.78869">
        <ele>2180.32</ele>
        <time>2016-03-24T14:37:59Z</time>
      </trkpt>
      <trkpt lat="45.54909" lon="6.78898">
        <ele>2185.12</ele>
        <time>2016-03-24T14:38:05Z</time>
      </trkpt>
      <trkpt lat="45.549" lon="6.78923">
        <ele>2194.3</ele>
        <time>2016-03-24T14:38:11Z</time>
      </trkpt>
      <trkpt lat="45.54893" lon="6.7895">
        <ele>2200.28</ele>
        <time>2016-03-24T14:38:17Z</time>
      </trkpt>
      <trkpt lat="45.54889" lon="6.7898">
        <ele>2203.49</ele>
        <time>2016-03-24T14:38:23Z</time>
      </trkpt>
      <trkpt lat="45.54883" lon="6.79007">
        <ele>2208.28</ele>
        <time>2016-03-24T14:38:29Z</time>
      </trkpt>
      <trkpt lat="45.54875" lon="6.79034">
        <ele>2218.07</ele>
        <time>2016-03-24T14:38:35Z</time>
      </trkpt>
      <trkpt lat="45.54868" lon="6.79062">
        <ele>2225.11</ele>
        <time>2016-03-24T14:38:41Z</time>
      </trkpt>
      <trkpt lat="45.54861" lon="6.79089">
        <ele>2229.52</ele>
        <time>2016-03-24T14:38:47Z</time>
      </trkpt>
      <trkpt lat="45.54854" lon="6.79117">
        <ele>2234.45</ele>
        <time>2016-03-24T14:38:53Z</time>
      </trkpt>
      <trkpt lat="45.54847" lon="6.79144">
        <ele>2242.24</ele>
        <time>2016-03-24T14:38:59Z</time>
      </trkpt>
      <trkpt lat="45.54837" lon="6.7917">
        <ele>2252.04</ele>
        <time>2016-03-24T14:39:05Z</time>
      </trkpt>
      <trkpt lat="45.54827" lon="6.79192">
        <ele>2263.46</ele>
        <time>2016-03-24T14:39:11Z</time>
      </trkpt>
      <trkpt lat="45.54817" lon="6.79217">
        <ele>2268.92</ele>
        <time>2016-03-24T14:39:16Z</time>
      </trkpt>
      <trkpt lat="45.54809" lon="6.79243">
        <ele>2272.52</ele>
        <time>2016-03-24T14:39:26Z</time>
      </trkpt>
      <trkpt lat="45.5479" lon="6.79239">
        <ele>2276.37</ele>
        <time>2016-03-24T14:40:00Z</time>
      </trkpt>
      <trkpt lat="45.54774" lon="6.79229">
        <ele>2278.32</ele>
        <time>2016-03-24T14:40:10Z</time>
      </trkpt>
      <trkpt lat="45.54754" lon="6.79224">
        <ele>2277.73</ele>
        <time>2016-03-24T14:40:16Z</time>
      </trkpt>
      <trkpt lat="45.54733" lon="6.79214">
        <ele>2271.74</ele>
        <time>2016-03-24T14:40:23Z</time>
      </trkpt>
      <trkpt lat="45.54726" lon="6.7919">
        <ele>2263.54</ele>
        <time>2016-03-24T14:40:32Z</time>
      </trkpt>
      <trkpt lat="45.54713" lon="6.79158">
        <ele>2258.78</ele>
        <time>2016-03-24T14:40:43Z</time>
      </trkpt>
      <trkpt lat="45.54719" lon="6.79129">
        <ele>2251.87</ele>
        <time>2016-03-24T14:40:47Z</time>
      </trkpt>
      <trkpt lat="45.54724" lon="6.79091">
        <ele>2248.65</ele>
        <time>2016-03-24T14:40:50Z</time>
      </trkpt>
      <trkpt lat="45.54738" lon="6.79056">
        <ele>2236.86</ele>
        <time>2016-03-24T14:40:52Z</time>
      </trkpt>
      <trkpt lat="45.54756" lon="6.79025">
        <ele>2233.02</ele>
        <time>2016-03-24T14:40:54Z</time>
      </trkpt>
      <trkpt lat="45.54773" lon="6.78999">
        <ele>2230.79</ele>
        <time>2016-03-24T14:40:56Z</time>
      </trkpt>
      <trkpt lat="45.54782" lon="6.78968">
        <ele>2227.02</ele>
        <time>2016-03-24T14:40:58Z</time>
      </trkpt>
      <trkpt lat="45.54775" lon="6.78935">
        <ele>2220.95</ele>
        <time>2016-03-24T14:41:00Z</time>
      </trkpt>
      <trkpt lat="45.54776" lon="6.78902">
        <ele>2214.23</ele>
        <time>2016-03-24T14:41:03Z</time>
      </trkpt>
      <trkpt lat="45.54758" lon="6.78885">
        <ele>2194.23</ele>
        <time>2016-03-24T14:41:11Z</time>
      </trkpt>
      <trkpt lat="45.54752" lon="6.78855">
        <ele>2188.03</ele>
        <time>2016-03-24T14:41:14Z</time>
      </trkpt>
      <trkpt lat="45.54755" lon="6.78822">
        <ele>2184.43</ele>
        <time>2016-03-24T14:41:15Z</time>
      </trkpt>
      <trkpt lat="45.54761" lon="6.78787">
        <ele>2179.09</ele>
        <time>2016-03-24T14:41:17Z</time>
      </trkpt>
      <trkpt lat="45.54764" lon="6.78755">
        <ele>2174.23</ele>
        <time>2016-03-24T14:41:19Z</time>
      </trkpt>
      <trkpt lat="45.54773" lon="6.78724">
        <ele>2171.96</ele>
        <time>2016-03-24T14:41:21Z</time>
      </trkpt>
      <trkpt lat="45.54775" lon="6.78696">
        <ele>2169.95</ele>
        <time>2016-03-24T14:41:23Z</time>
      </trkpt>
      <trkpt lat="45.5478" lon="6.78669">
        <ele>2165.87</ele>
        <time>2016-03-24T14:41:25Z</time>
      </trkpt>
      <trkpt lat="45.54789" lon="6.78644">
        <ele>2161.02</ele>
        <time>2016-03-24T14:41:28Z</time>
      </trkpt>
      <trkpt lat="45.54796" lon="6.78619">
        <ele>2156.15</ele>
        <time>2016-03-24T14:41:31Z</time>
      </trkpt>
      <trkpt lat="45.54794" lon="6.78592">
        <ele>2144.06</ele>
        <time>2016-03-24T14:41:42Z</time>
      </trkpt>
      <trkpt lat="45.54797" lon="6.78552">
        <ele>2136.3</ele>
        <time>2016-03-24T14:41:45Z</time>
      </trkpt>
      <trkpt lat="45.54787" lon="6.78525">
        <ele>2131.88</ele>
        <time>2016-03-24T14:41:47Z</time>
      </trkpt>
      <trkpt lat="45.54783" lon="6.7849">
        <ele>2128.82</ele>
        <time>2016-03-24T14:41:49Z</time>
      </trkpt>
      <trkpt lat="45.54769" lon="6.78456">
        <ele>2124.86</ele>
        <time>2016-03-24T14:41:51Z</time>
      </trkpt>
      <trkpt lat="45.54758" lon="6.78429">
        <ele>2121.02</ele>
        <time>2016-03-24T14:41:53Z</time>
      </trkpt>
      <trkpt lat="45.54744" lon="6.78407">
        <ele>2117.19</ele>
        <time>2016-03-24T14:41:55Z</time>
      </trkpt>
      <trkpt lat="45.54736" lon="6.78376">
        <ele>2114</ele>
        <time>2016-03-24T14:41:57Z</time>
      </trkpt>
      <trkpt lat="45.54732" lon="6.78342">
        <ele>2110.03</ele>
        <time>2016-03-24T14:41:59Z</time>
      </trkpt>
      <trkpt lat="45.54738" lon="6.78307">
        <ele>2106.03</ele>
        <time>2016-03-24T14:42:01Z</time>
      </trkpt>
      <trkpt lat="45.54748" lon="6.78282">
        <ele>2102.99</ele>
        <time>2016-03-24T14:42:03Z</time>
      </trkpt>
      <trkpt lat="45.54751" lon="6.7825">
        <ele>2099.03</ele>
        <time>2016-03-24T14:42:05Z</time>
      </trkpt>
      <trkpt lat="45.54752" lon="6.78214">
        <ele>2086.79</ele>
        <time>2016-03-24T14:42:08Z</time>
      </trkpt>
      <trkpt lat="45.54762" lon="6.78187">
        <ele>2083.82</ele>
        <time>2016-03-24T14:42:10Z</time>
      </trkpt>
      <trkpt lat="45.54769" lon="6.78156">
        <ele>2080.82</ele>
        <time>2016-03-24T14:42:12Z</time>
      </trkpt>
      <trkpt lat="45.54778" lon="6.78128">
        <ele>2077.33</ele>
        <time>2016-03-24T14:42:15Z</time>
      </trkpt>
      <trkpt lat="45.5478" lon="6.78098">
        <ele>2072.4</ele>
        <time>2016-03-24T14:42:17Z</time>
      </trkpt>
      <trkpt lat="45.54785" lon="6.78064">
        <ele>2068.05</ele>
        <time>2016-03-24T14:42:19Z</time>
      </trkpt>
      <trkpt lat="45.54775" lon="6.78022">
        <ele>2064.83</ele>
        <time>2016-03-24T14:42:21Z</time>
      </trkpt>
      <trkpt lat="45.54764" lon="6.77987">
        <ele>2058.62</ele>
        <time>2016-03-24T14:42:23Z</time>
      </trkpt>
      <trkpt lat="45.54757" lon="6.77948">
        <ele>2052.29</ele>
        <time>2016-03-24T14:42:25Z</time>
      </trkpt>
      <trkpt lat="45.54745" lon="6.77916">
        <ele>2048.84</ele>
        <time>2016-03-24T14:42:27Z</time>
      </trkpt>
      <trkpt lat="45.54743" lon="6.77887">
        <ele>2042.78</ele>
        <time>2016-03-24T14:42:29Z</time>
      </trkpt>
      <trkpt lat="45.5473" lon="6.77856">
        <ele>2037.83</ele>
        <time>2016-03-24T14:42:32Z</time>
      </trkpt>
      <trkpt lat="45.54725" lon="6.77831">
        <ele>2029.21</ele>
        <time>2016-03-24T14:42:35Z</time>
      </trkpt>
      <trkpt lat="45.54717" lon="6.77804">
        <ele>2025.2</ele>
        <time>2016-03-24T14:42:37Z</time>
      </trkpt>
      <trkpt lat="45.54715" lon="6.77776">
        <ele>2022.8</ele>
        <time>2016-03-24T14:42:39Z</time>
      </trkpt>
      <trkpt lat="45.54711" lon="6.77742">
        <ele>2018.22</ele>
        <time>2016-03-24T14:42:41Z</time>
      </trkpt>
      <trkpt lat="45.54709" lon="6.77704">
        <ele>2018.52</ele>
        <time>2016-03-24T14:42:43Z</time>
      </trkpt>
      <trkpt lat="45.54706" lon="6.77676">
        <ele>2009.57</ele>
        <time>2016-03-24T14:42:45Z</time>
      </trkpt>
      <trkpt lat="45.54714" lon="6.77647">
        <ele>2002.17</ele>
        <time>2016-03-24T14:42:47Z</time>
      </trkpt>
      <trkpt lat="45.54725" lon="6.77623">
        <ele>1996.44</ele>
        <time>2016-03-24T14:42:49Z</time>
      </trkpt>
      <trkpt lat="45.54743" lon="6.77599">
        <ele>1989.49</ele>
        <time>2016-03-24T14:42:51Z</time>
      </trkpt>
      <trkpt lat="45.54751" lon="6.77575">
        <ele>1983.61</ele>
        <time>2016-03-24T14:42:53Z</time>
      </trkpt>
      <trkpt lat="45.54761" lon="6.77542">
        <ele>1977</ele>
        <time>2016-03-24T14:42:56Z</time>
      </trkpt>
      <trkpt lat="45.54763" lon="6.77511">
        <ele>1971.86</ele>
        <time>2016-03-24T14:42:59Z</time>
      </trkpt>
      <trkpt lat="45.54756" lon="6.77483">
        <ele>1965.04</ele>
        <time>2016-03-24T14:43:02Z</time>
      </trkpt>
      <trkpt lat="45.5475" lon="6.77457">
        <ele>1954.71</ele>
        <time>2016-03-24T14:43:05Z</time>
      </trkpt>
      <trkpt lat="45.54741" lon="6.77425">
        <ele>1947.24</ele>
        <time>2016-03-24T14:43:08Z</time>
      </trkpt>
      <trkpt lat="45.54743" lon="6.7739">
        <ele>1942.25</ele>
        <time>2016-03-24T14:43:11Z</time>
      </trkpt>
      <trkpt lat="45.54737" lon="6.77358">
        <ele>1935.07</ele>
        <time>2016-03-24T14:43:14Z</time>
      </trkpt>
      <trkpt lat="45.5473" lon="6.77321">
        <ele>1921.75</ele>
        <time>2016-03-24T14:43:18Z</time>
      </trkpt>
      <trkpt lat="45.54741" lon="6.77299">
        <ele>1884.12</ele>
        <time>2016-03-24T14:43:46Z</time>
      </trkpt>
      <trkpt lat="45.54749" lon="6.77275">
        <ele>1870.97</ele>
        <time>2016-03-24T14:43:54Z</time>
      </trkpt>
      <trkpt lat="45.54758" lon="6.77251">
        <ele>1851</ele>
        <time>2016-03-24T14:44:03Z</time>
      </trkpt>
      <trkpt lat="45.54772" lon="6.77234">
        <ele>1843.58</ele>
        <time>2016-03-24T14:44:11Z</time>
      </trkpt>
      <trkpt lat="45.54762" lon="6.7721">
        <ele>1835.63</ele>
        <time>2016-03-24T14:44:19Z</time>
      </trkpt>
      <trkpt lat="45.5476" lon="6.77183">
        <ele>1820.81</ele>
        <time>2016-03-24T14:44:35Z</time>
      </trkpt>
      <trkpt lat="45.54766" lon="6.77158">
        <ele>1807.78</ele>
        <time>2016-03-24T14:44:46Z</time>
      </trkpt>
      <trkpt lat="45.54768" lon="6.77128">
        <ele>1799.75</ele>
        <time>2016-03-24T14:44:53Z</time>
      </trkpt>
      <trkpt lat="45.5478" lon="6.77109">
        <ele>1793.75</ele>
        <time>2016-03-24T14:44:57Z</time>
      </trkpt>
      <trkpt lat="45.54792" lon="6.77087">
        <ele>1789.82</ele>
        <time>2016-03-24T14:45:00Z</time>
      </trkpt>
      <trkpt lat="45.54814" lon="6.77075">
        <ele>1784.38</ele>
        <time>2016-03-24T14:45:04Z</time>
      </trkpt>
      <trkpt lat="45.54834" lon="6.77052">
        <ele>1779.03</ele>
        <time>2016-03-24T14:45:07Z</time>
      </trkpt>
      <trkpt lat="45.54848" lon="6.77035">
        <ele>1777.59</ele>
        <time>2016-03-24T14:45:09Z</time>
      </trkpt>
      <trkpt lat="45.54868" lon="6.77006">
        <ele>1773.6</ele>
        <time>2016-03-24T14:45:12Z</time>
      </trkpt>
      <trkpt lat="45.54879" lon="6.76984">
        <ele>1772.57</ele>
        <time>2016-03-24T14:45:14Z</time>
      </trkpt>
      <trkpt lat="45.5489" lon="6.76962">
        <ele>1765.91</ele>
        <time>2016-03-24T14:45:17Z</time>
      </trkpt>
      <trkpt lat="45.54905" lon="6.76938">
        <ele>1756.74</ele>
        <time>2016-03-24T14:45:21Z</time>
      </trkpt>
      <trkpt lat="45.54919" lon="6.76916">
        <ele>1752.82</ele>
        <time>2016-03-24T14:45:24Z</time>
      </trkpt>
      <trkpt lat="45.54936" lon="6.76892">
        <ele>1748.79</ele>
        <time>2016-03-24T14:45:27Z</time>
      </trkpt>
      <trkpt lat="45.54947" lon="6.76871">
        <ele>1745.82</ele>
        <time>2016-03-24T14:45:29Z</time>
      </trkpt>
      <trkpt lat="45.54966" lon="6.76847">
        <ele>1739.23</ele>
        <time>2016-03-24T14:45:32Z</time>
      </trkpt>
      <trkpt lat="45.54986" lon="6.76826">
        <ele>1734.79</ele>
        <time>2016-03-24T14:45:35Z</time>
      </trkpt>
      <trkpt lat="45.54986" lon="6.76794">
        <ele>1728.82</ele>
        <time>2016-03-24T14:45:39Z</time>
      </trkpt>
      <trkpt lat="45.55001" lon="6.7678">
        <ele>1725.14</ele>
        <time>2016-03-24T14:45:42Z</time>
      </trkpt>
      <trkpt lat="45.55005" lon="6.76752">
        <ele>1718.87</ele>
        <time>2016-03-24T14:45:45Z</time>
      </trkpt>
      <trkpt lat="45.55006" lon="6.76724">
        <ele>1713.64</ele>
        <time>2016-03-24T14:45:48Z</time>
      </trkpt>
      <trkpt lat="45.5502" lon="6.76701">
        <ele>1710.94</ele>
        <time>2016-03-24T14:45:51Z</time>
      </trkpt>
      <trkpt lat="45.55016" lon="6.76675">
        <ele>1705.03</ele>
        <time>2016-03-24T14:45:54Z</time>
      </trkpt>
      <trkpt lat="45.55027" lon="6.76646">
        <ele>1696.99</ele>
        <time>2016-03-24T14:45:58Z</time>
      </trkpt>
      <trkpt lat="45.5504" lon="6.76627">
        <ele>1691.74</ele>
        <time>2016-03-24T14:46:03Z</time>
      </trkpt>
      <trkpt lat="45.55055" lon="6.76606">
        <ele>1687.18</ele>
        <time>2016-03-24T14:46:06Z</time>
      </trkpt>
      <trkpt lat="45.55072" lon="6.76591">
        <ele>1683.78</ele>
        <time>2016-03-24T14:46:09Z</time>
      </trkpt>
      <trkpt lat="45.55092" lon="6.76576">
        <ele>1680.75</ele>
        <time>2016-03-24T14:46:12Z</time>
      </trkpt>
      <trkpt lat="45.55111" lon="6.76565">
        <ele>1675.28</ele>
        <time>2016-03-24T14:46:15Z</time>
      </trkpt>
      <trkpt lat="45.55132" lon="6.76547">
        <ele>1670.86</ele>
        <time>2016-03-24T14:46:18Z</time>
      </trkpt>
      <trkpt lat="45.55118" lon="6.76528">
        <ele>1659.13</ele>
        <time>2016-03-24T14:46:22Z</time>
      </trkpt>
      <trkpt lat="45.55115" lon="6.76498">
        <ele>1651.24</ele>
        <time>2016-03-24T14:46:26Z</time>
      </trkpt>
      <trkpt lat="45.55109" lon="6.76471">
        <ele>1644.81</ele>
        <time>2016-03-24T14:46:29Z</time>
      </trkpt>
      <trkpt lat="45.55109" lon="6.7644">
        <ele>1639.22</ele>
        <time>2016-03-24T14:46:32Z</time>
      </trkpt>
      <trkpt lat="45.5511" lon="6.76411">
        <ele>1633.22</ele>
        <time>2016-03-24T14:46:35Z</time>
      </trkpt>
      <trkpt lat="45.55111" lon="6.76385">
        <ele>1626.9</ele>
        <time>2016-03-24T14:46:38Z</time>
      </trkpt>
      <trkpt lat="45.55114" lon="6.7636">
        <ele>1615.94</ele>
        <time>2016-03-24T14:46:52Z</time>
      </trkpt>
      <trkpt lat="45.55109" lon="6.76334">
        <ele>1607.45</ele>
        <time>2016-03-24T14:51:07Z</time>
      </trkpt>
      <trkpt lat="45.54915" lon="6.73995">
        <ele>1576.17</ele>
        <time>2016-03-24T14:59:43Z</time>
      </trkpt>
      <trkpt lat="45.54899" lon="6.73972">
        <ele>1575.66</ele>
        <time>2016-03-24T15:00:04Z</time>
      </trkpt>
      <trkpt lat="45.54917" lon="6.73957">
        <ele>1580.25</ele>
        <time>2016-03-24T15:00:09Z</time>
      </trkpt>
      <trkpt lat="45.54919" lon="6.73931">
        <ele>1546.54</ele>
        <time>2016-03-24T15:00:54Z</time>
      </trkpt>
      <trkpt lat="45.54918" lon="6.73905">
        <ele>1549.52</ele>
        <time>2016-03-24T15:01:19Z</time>
      </trkpt>
      <trkpt lat="45.54919" lon="6.73879">
        <ele>1547.72</ele>
        <time>2016-03-24T15:02:40Z</time>
      </trkpt>
      <trkpt lat="45.54934" lon="6.73865">
        <ele>1549.51</ele>
        <time>2016-03-24T15:03:08Z</time>
      </trkpt>
      <trkpt lat="45.54953" lon="6.73853">
        <ele>1550.57</ele>
        <time>2016-03-24T15:03:14Z</time>
      </trkpt>
      <trkpt lat="45.54958" lon="6.73818">
        <ele>1547.58</ele>
        <time>2016-03-24T15:03:18Z</time>
      </trkpt>
      <trkpt lat="45.54956" lon="6.7379">
        <ele>1544.81</ele>
        <time>2016-03-24T15:03:20Z</time>
      </trkpt>
      <trkpt lat="45.54964" lon="6.73758">
        <ele>1540.6</ele>
        <time>2016-03-24T15:03:23Z</time>
      </trkpt>
      <trkpt lat="45.54966" lon="6.73731">
        <ele>1538.77</ele>
        <time>2016-03-24T15:03:25Z</time>
      </trkpt>
      <trkpt lat="45.54968" lon="6.73696">
        <ele>1536.78</ele>
        <time>2016-03-24T15:03:27Z</time>
      </trkpt>
      <trkpt lat="45.54971" lon="6.73667">
        <ele>1531.74</ele>
        <time>2016-03-24T15:03:29Z</time>
      </trkpt>
      <trkpt lat="45.54976" lon="6.73642">
        <ele>1528.02</ele>
        <time>2016-03-24T15:03:31Z</time>
      </trkpt>
      <trkpt lat="45.54987" lon="6.73607">
        <ele>1524.94</ele>
        <time>2016-03-24T15:03:34Z</time>
      </trkpt>
      <trkpt lat="45.55005" lon="6.73585">
        <ele>1524.53</ele>
        <time>2016-03-24T15:03:37Z</time>
      </trkpt>
      <trkpt lat="45.55025" lon="6.73579">
        <ele>1516.95</ele>
        <time>2016-03-24T15:03:40Z</time>
      </trkpt>
      <trkpt lat="45.55053" lon="6.73579">
        <ele>1513.19</ele>
        <time>2016-03-24T15:03:42Z</time>
      </trkpt>
      <trkpt lat="45.55084" lon="6.73583">
        <ele>1510.64</ele>
        <time>2016-03-24T15:03:44Z</time>
      </trkpt>
      <trkpt lat="45.55113" lon="6.73593">
        <ele>1508.78</ele>
        <time>2016-03-24T15:03:46Z</time>
      </trkpt>
      <trkpt lat="45.55141" lon="6.73592">
        <ele>1506.78</ele>
        <time>2016-03-24T15:03:48Z</time>
      </trkpt>
      <trkpt lat="45.55168" lon="6.73584">
        <ele>1504.78</ele>
        <time>2016-03-24T15:03:50Z</time>
      </trkpt>
      <trkpt lat="45.5519" lon="6.73571">
        <ele>1501.02</ele>
        <time>2016-03-24T15:03:52Z</time>
      </trkpt>
      <trkpt lat="45.55217" lon="6.7356">
        <ele>1489.05</ele>
        <time>2016-03-24T15:03:55Z</time>
      </trkpt>
      <trkpt lat="45.55237" lon="6.73545">
        <ele>1484.87</ele>
        <time>2016-03-24T15:03:57Z</time>
      </trkpt>
      <trkpt lat="45.55253" lon="6.73531">
        <ele>1478.62</ele>
        <time>2016-03-24T15:03:59Z</time>
      </trkpt>
      <trkpt lat="45.55276" lon="6.73526">
        <ele>1475.81</ele>
        <time>2016-03-24T15:04:01Z</time>
      </trkpt>
      <trkpt lat="45.55294" lon="6.73541">
        <ele>1470.42</ele>
        <time>2016-03-24T15:04:03Z</time>
      </trkpt>
      <trkpt lat="45.55317" lon="6.7354">
        <ele>1467.81</ele>
        <time>2016-03-24T15:04:05Z</time>
      </trkpt>
      <trkpt lat="45.55335" lon="6.73545">
        <ele>1460.66</ele>
        <time>2016-03-24T15:04:07Z</time>
      </trkpt>
      <trkpt lat="45.55356" lon="6.73549">
        <ele>1457.82</ele>
        <time>2016-03-24T15:04:09Z</time>
      </trkpt>
      <trkpt lat="45.55372" lon="6.7356">
        <ele>1450.24</ele>
        <time>2016-03-24T15:04:12Z</time>
      </trkpt>
      <trkpt lat="45.55396" lon="6.73556">
        <ele>1446.78</ele>
        <time>2016-03-24T15:04:15Z</time>
      </trkpt>
      <trkpt lat="45.55419" lon="6.73566">
        <ele>1435.66</ele>
        <time>2016-03-24T15:04:19Z</time>
      </trkpt>
      <trkpt lat="45.55444" lon="6.7357">
        <ele>1432.75</ele>
        <time>2016-03-24T15:04:22Z</time>
      </trkpt>
      <trkpt lat="45.55462" lon="6.73562">
        <ele>1429.78</ele>
        <time>2016-03-24T15:04:25Z</time>
      </trkpt>
      <trkpt lat="45.55482" lon="6.7356">
        <ele>1412.87</ele>
        <time>2016-03-24T15:04:31Z</time>
      </trkpt>
      <trkpt lat="45.55501" lon="6.73573">
        <ele>1405.82</ele>
        <time>2016-03-24T15:04:35Z</time>
      </trkpt>
      <trkpt lat="45.55523" lon="6.73576">
        <ele>1387.6</ele>
        <time>2016-03-24T15:04:42Z</time>
      </trkpt>
      <trkpt lat="45.55544" lon="6.73577">
        <ele>1375.86</ele>
        <time>2016-03-24T15:04:47Z</time>
      </trkpt>
      <trkpt lat="45.55565" lon="6.73588">
        <ele>1367.72</ele>
        <time>2016-03-24T15:04:52Z</time>
      </trkpt>
      <trkpt lat="45.55586" lon="6.73596">
        <ele>1362.72</ele>
        <time>2016-03-24T15:04:57Z</time>
      </trkpt>
      <trkpt lat="45.55604" lon="6.73614">
        <ele>1353.39</ele>
        <time>2016-03-24T15:05:05Z</time>
      </trkpt>
      <trkpt lat="45.5562" lon="6.73625">
        <ele>1344.8</ele>
        <time>2016-03-24T15:05:10Z</time>
      </trkpt>
      <trkpt lat="45.55639" lon="6.7362">
        <ele>1329.7</ele>
        <time>2016-03-24T15:05:16Z</time>
      </trkpt>
      <trkpt lat="45.55656" lon="6.73628">
        <ele>1323.85</ele>
        <time>2016-03-24T15:05:20Z</time>
      </trkpt>
      <trkpt lat="45.55667" lon="6.73653">
        <ele>1316.99</ele>
        <time>2016-03-24T15:05:25Z</time>
      </trkpt>
      <trkpt lat="45.55682" lon="6.7368">
        <ele>1311.05</ele>
        <time>2016-03-24T15:05:29Z</time>
      </trkpt>
      <trkpt lat="45.55701" lon="6.73689">
        <ele>1305.64</ele>
        <time>2016-03-24T15:05:32Z</time>
      </trkpt>
      <trkpt lat="45.55724" lon="6.737">
        <ele>1303.54</ele>
        <time>2016-03-24T15:05:36Z</time>
      </trkpt>
      <trkpt lat="45.55743" lon="6.73716">
        <ele>1296.79</ele>
        <time>2016-03-24T15:05:40Z</time>
      </trkpt>
      <trkpt lat="45.55763" lon="6.7373">
        <ele>1288.56</ele>
        <time>2016-03-24T15:05:44Z</time>
      </trkpt>
      <trkpt lat="45.55777" lon="6.73751">
        <ele>1280.4</ele>
        <time>2016-03-24T15:05:48Z</time>
      </trkpt>
      <trkpt lat="45.558" lon="6.73751">
        <ele>1276.82</ele>
        <time>2016-03-24T15:05:51Z</time>
      </trkpt>
      <trkpt lat="45.55817" lon="6.73744">
        <ele>1272.82</ele>
        <time>2016-03-24T15:05:54Z</time>
      </trkpt>
      <trkpt lat="45.55839" lon="6.73756">
        <ele>1268.79</ele>
        <time>2016-03-24T15:05:57Z</time>
      </trkpt>
      <trkpt lat="45.55858" lon="6.73741">
        <ele>1264.79</ele>
        <time>2016-03-24T15:06:00Z</time>
      </trkpt>
      <trkpt lat="45.55881" lon="6.73727">
        <ele>1261.81</ele>
        <time>2016-03-24T15:06:03Z</time>
      </trkpt>
      <trkpt lat="45.55905" lon="6.73715">
        <ele>1260.73</ele>
        <time>2016-03-24T15:06:06Z</time>
      </trkpt>
      <trkpt lat="45.55924" lon="6.73709">
        <ele>1258.78</ele>
        <time>2016-03-24T15:06:08Z</time>
      </trkpt>
      <trkpt lat="45.55939" lon="6.73724">
        <ele>1234.4</ele>
        <time>2016-03-24T15:06:13Z</time>
      </trkpt>
      <trkpt lat="45.55942" lon="6.7375">
        <ele>1219.33</ele>
        <time>2016-03-24T15:06:40Z</time>
      </trkpt>
      <trkpt lat="45.55924" lon="6.73756">
        <ele>1209.77</ele>
        <time>2016-03-24T15:07:12Z</time>
      </trkpt>
      <trkpt lat="45.55905" lon="6.73751">
        <ele>1212.09</ele>
        <time>2016-03-24T15:07:18Z</time>
      </trkpt>
      <trkpt lat="45.55885" lon="6.73746">
        <ele>1219.07</ele>
        <time>2016-03-24T15:07:24Z</time>
      </trkpt>
      <trkpt lat="45.55865" lon="6.73738">
        <ele>1228.27</ele>
        <time>2016-03-24T15:07:30Z</time>
      </trkpt>
      <trkpt lat="45.55847" lon="6.73729">
        <ele>1235.11</ele>
        <time>2016-03-24T15:07:35Z</time>
      </trkpt>
      <trkpt lat="45.55829" lon="6.73721">
        <ele>1243.27</ele>
        <time>2016-03-24T15:07:41Z</time>
      </trkpt>
      <trkpt lat="45.55809" lon="6.73713">
        <ele>1250.52</ele>
        <time>2016-03-24T15:07:47Z</time>
      </trkpt>
      <trkpt lat="45.5579" lon="6.73704">
        <ele>1258.47</ele>
        <time>2016-03-24T15:07:53Z</time>
      </trkpt>
      <trkpt lat="45.55772" lon="6.73698">
        <ele>1263.29</ele>
        <time>2016-03-24T15:07:58Z</time>
      </trkpt>
      <trkpt lat="45.55752" lon="6.7369">
        <ele>1269.13</ele>
        <time>2016-03-24T15:08:04Z</time>
      </trkpt>
      <trkpt lat="45.55735" lon="6.73685">
        <ele>1278.28</ele>
        <time>2016-03-24T15:08:10Z</time>
      </trkpt>
      <trkpt lat="45.55715" lon="6.73676">
        <ele>1286.08</ele>
        <time>2016-03-24T15:08:16Z</time>
      </trkpt>
      <trkpt lat="45.55697" lon="6.73668">
        <ele>1292.24</ele>
        <time>2016-03-24T15:08:21Z</time>
      </trkpt>
      <trkpt lat="45.55678" lon="6.73659">
        <ele>1302.08</ele>
        <time>2016-03-24T15:08:27Z</time>
      </trkpt>
      <trkpt lat="45.55658" lon="6.73651">
        <ele>1312.23</ele>
        <time>2016-03-24T15:08:33Z</time>
      </trkpt>
      <trkpt lat="45.55639" lon="6.73645">
        <ele>1320.24</ele>
        <time>2016-03-24T15:08:39Z</time>
      </trkpt>
      <trkpt lat="45.55622" lon="6.73639">
        <ele>1325.31</ele>
        <time>2016-03-24T15:08:44Z</time>
      </trkpt>
      <trkpt lat="45.55601" lon="6.73636">
        <ele>1330.48</ele>
        <time>2016-03-24T15:08:50Z</time>
      </trkpt>
      <trkpt lat="45.55582" lon="6.73626">
        <ele>1335.29</ele>
        <time>2016-03-24T15:08:56Z</time>
      </trkpt>
      <trkpt lat="45.55563" lon="6.73617">
        <ele>1342.24</ele>
        <time>2016-03-24T15:09:02Z</time>
      </trkpt>
      <trkpt lat="45.55544" lon="6.73612">
        <ele>1351.27</ele>
        <time>2016-03-24T15:09:09Z</time>
      </trkpt>
      <trkpt lat="45.55524" lon="6.73604">
        <ele>1359.24</ele>
        <time>2016-03-24T15:09:15Z</time>
      </trkpt>
      <trkpt lat="45.55504" lon="6.73594">
        <ele>1365.3</ele>
        <time>2016-03-24T15:09:21Z</time>
      </trkpt>
      <trkpt lat="45.55484" lon="6.73584">
        <ele>1374.29</ele>
        <time>2016-03-24T15:09:27Z</time>
      </trkpt>
      <trkpt lat="45.55466" lon="6.73578">
        <ele>1379.49</ele>
        <time>2016-03-24T15:09:33Z</time>
      </trkpt>
      <trkpt lat="45.55448" lon="6.73578">
        <ele>1382.68</ele>
        <time>2016-03-24T15:09:38Z</time>
      </trkpt>
      <trkpt lat="45.55432" lon="6.73567">
        <ele>1387.5</ele>
        <time>2016-03-24T15:09:45Z</time>
      </trkpt>
      <trkpt lat="45.55411" lon="6.73559">
        <ele>1401.03</ele>
        <time>2016-03-24T15:09:51Z</time>
      </trkpt>
      <trkpt lat="45.55391" lon="6.73549">
        <ele>1407.47</ele>
        <time>2016-03-24T15:09:56Z</time>
      </trkpt>
      <trkpt lat="45.55373" lon="6.73542">
        <ele>1413.09</ele>
        <time>2016-03-24T15:10:01Z</time>
      </trkpt>
      <trkpt lat="45.55355" lon="6.73533">
        <ele>1423.24</ele>
        <time>2016-03-24T15:10:06Z</time>
      </trkpt>
      <trkpt lat="45.55336" lon="6.73524">
        <ele>1428.49</ele>
        <time>2016-03-24T15:10:11Z</time>
      </trkpt>
      <trkpt lat="45.55317" lon="6.73515">
        <ele>1431.56</ele>
        <time>2016-03-24T15:10:17Z</time>
      </trkpt>
      <trkpt lat="45.55298" lon="6.73507">
        <ele>1435.48</ele>
        <time>2016-03-24T15:10:22Z</time>
      </trkpt>
      <trkpt lat="45.55278" lon="6.73499">
        <ele>1440.32</ele>
        <time>2016-03-24T15:10:28Z</time>
      </trkpt>
      <trkpt lat="45.55258" lon="6.73491">
        <ele>1447.05</ele>
        <time>2016-03-24T15:10:34Z</time>
      </trkpt>
      <trkpt lat="45.55239" lon="6.73485">
        <ele>1454.44</ele>
        <time>2016-03-24T15:10:40Z</time>
      </trkpt>
      <trkpt lat="45.55219" lon="6.73477">
        <ele>1459.32</ele>
        <time>2016-03-24T15:10:46Z</time>
      </trkpt>
      <trkpt lat="45.55199" lon="6.73468">
        <ele>1462.29</ele>
        <time>2016-03-24T15:10:52Z</time>
      </trkpt>
      <trkpt lat="45.55179" lon="6.73462">
        <ele>1466.48</ele>
        <time>2016-03-24T15:10:58Z</time>
      </trkpt>
      <trkpt lat="45.55159" lon="6.73455">
        <ele>1469.48</ele>
        <time>2016-03-24T15:11:04Z</time>
      </trkpt>
      <trkpt lat="45.55138" lon="6.73448">
        <ele>1474.29</ele>
        <time>2016-03-24T15:11:10Z</time>
      </trkpt>
      <trkpt lat="45.55119" lon="6.7344">
        <ele>1480.29</ele>
        <time>2016-03-24T15:11:16Z</time>
      </trkpt>
      <trkpt lat="45.55102" lon="6.73433">
        <ele>1482.45</ele>
        <time>2016-03-24T15:11:21Z</time>
      </trkpt>
      <trkpt lat="45.55082" lon="6.73426">
        <ele>1486.49</ele>
        <time>2016-03-24T15:11:27Z</time>
      </trkpt>
      <trkpt lat="45.55061" lon="6.73418">
        <ele>1493.27</ele>
        <time>2016-03-24T15:11:33Z</time>
      </trkpt>
      <trkpt lat="45.55043" lon="6.73414">
        <ele>1495.53</ele>
        <time>2016-03-24T15:11:38Z</time>
      </trkpt>
      <trkpt lat="45.55024" lon="6.73404">
        <ele>1502.27</ele>
        <time>2016-03-24T15:11:44Z</time>
      </trkpt>
      <trkpt lat="45.55005" lon="6.73395">
        <ele>1508.25</ele>
        <time>2016-03-24T15:11:50Z</time>
      </trkpt>
      <trkpt lat="45.54987" lon="6.73388">
        <ele>1513.28</ele>
        <time>2016-03-24T15:11:55Z</time>
      </trkpt>
      <trkpt lat="45.54969" lon="6.73377">
        <ele>1517.48</ele>
        <time>2016-03-24T15:12:00Z</time>
      </trkpt>
      <trkpt lat="45.5495" lon="6.73369">
        <ele>1521.33</ele>
        <time>2016-03-24T15:12:08Z</time>
      </trkpt>
      <trkpt lat="45.54933" lon="6.73359">
        <ele>1530.25</ele>
        <time>2016-03-24T15:12:18Z</time>
      </trkpt>
      <trkpt lat="45.54916" lon="6.7335">
        <ele>1543.24</ele>
        <time>2016-03-24T15:12:29Z</time>
      </trkpt>
      <trkpt lat="45.54898" lon="6.73343">
        <ele>1552.48</ele>
        <time>2016-03-24T15:12:38Z</time>
      </trkpt>
      <trkpt lat="45.5488" lon="6.73337">
        <ele>1557.28</ele>
        <time>2016-03-24T15:12:46Z</time>
      </trkpt>
      <trkpt lat="45.54861" lon="6.73334">
        <ele>1568.04</ele>
        <time>2016-03-24T15:12:53Z</time>
      </trkpt>
      <trkpt lat="45.5484" lon="6.73327">
        <ele>1576.08</ele>
        <time>2016-03-24T15:13:00Z</time>
      </trkpt>
      <trkpt lat="45.54822" lon="6.73319">
        <ele>1583.27</ele>
        <time>2016-03-24T15:13:05Z</time>
      </trkpt>
      <trkpt lat="45.54804" lon="6.73312">
        <ele>1590.29</ele>
        <time>2016-03-24T15:13:11Z</time>
      </trkpt>
      <trkpt lat="45.54786" lon="6.73304">
        <ele>1596.29</ele>
        <time>2016-03-24T15:13:17Z</time>
      </trkpt>
      <trkpt lat="45.54765" lon="6.73295">
        <ele>1606.47</ele>
        <time>2016-03-24T15:13:23Z</time>
      </trkpt>
      <trkpt lat="45.54748" lon="6.73287">
        <ele>1612.31</ele>
        <time>2016-03-24T15:13:28Z</time>
      </trkpt>
      <trkpt lat="45.54727" lon="6.73277">
        <ele>1617.51</ele>
        <time>2016-03-24T15:13:34Z</time>
      </trkpt>
      <trkpt lat="45.54707" lon="6.73269">
        <ele>1623.28</ele>
        <time>2016-03-24T15:13:39Z</time>
      </trkpt>
      <trkpt lat="45.54688" lon="6.73261">
        <ele>1630.29</ele>
        <time>2016-03-24T15:13:45Z</time>
      </trkpt>
      <trkpt lat="45.54666" lon="6.73254">
        <ele>1634.29</ele>
        <time>2016-03-24T15:13:51Z</time>
      </trkpt>
      <trkpt lat="45.54645" lon="6.73245">
        <ele>1644.24</ele>
        <time>2016-03-24T15:13:57Z</time>
      </trkpt>
      <trkpt lat="45.54624" lon="6.73238">
        <ele>1650.32</ele>
        <time>2016-03-24T15:14:03Z</time>
      </trkpt>
      <trkpt lat="45.54606" lon="6.73232">
        <ele>1655.28</ele>
        <time>2016-03-24T15:14:08Z</time>
      </trkpt>
      <trkpt lat="45.54588" lon="6.73221">
        <ele>1658.12</ele>
        <time>2016-03-24T15:14:17Z</time>
      </trkpt>
      <trkpt lat="45.54596" lon="6.73195">
        <ele>1655.6</ele>
        <time>2016-03-24T15:14:26Z</time>
      </trkpt>
      <trkpt lat="45.54612" lon="6.73172">
        <ele>1654.53</ele>
        <time>2016-03-24T15:14:30Z</time>
      </trkpt>
      <trkpt lat="45.54626" lon="6.73151">
        <ele>1654.37</ele>
        <time>2016-03-24T15:14:35Z</time>
      </trkpt>
      <trkpt lat="45.54607" lon="6.73141">
        <ele>1654.53</ele>
        <time>2016-03-24T15:15:13Z</time>
      </trkpt>
      <trkpt lat="45.54588" lon="6.73147">
        <ele>1652.93</ele>
        <time>2016-03-24T15:15:20Z</time>
      </trkpt>
      <trkpt lat="45.54569" lon="6.7315">
        <ele>1659.31</ele>
        <time>2016-03-24T15:15:26Z</time>
      </trkpt>
      <trkpt lat="45.54549" lon="6.7315">
        <ele>1663.28</ele>
        <time>2016-03-24T15:15:32Z</time>
      </trkpt>
      <trkpt lat="45.54531" lon="6.73151">
        <ele>1668.48</ele>
        <time>2016-03-24T15:15:38Z</time>
      </trkpt>
      <trkpt lat="45.54511" lon="6.73149">
        <ele>1675.29</ele>
        <time>2016-03-24T15:15:44Z</time>
      </trkpt>
      <trkpt lat="45.54493" lon="6.73146">
        <ele>1678.69</ele>
        <time>2016-03-24T15:15:50Z</time>
      </trkpt>
      <trkpt lat="45.54474" lon="6.73143">
        <ele>1693.26</ele>
        <time>2016-03-24T15:15:57Z</time>
      </trkpt>
      <trkpt lat="45.54455" lon="6.73143">
        <ele>1698.52</ele>
        <time>2016-03-24T15:16:04Z</time>
      </trkpt>
      <trkpt lat="45.54435" lon="6.73142">
        <ele>1701.48</ele>
        <time>2016-03-24T15:16:11Z</time>
      </trkpt>
      <trkpt lat="45.54417" lon="6.73139">
        <ele>1706.69</ele>
        <time>2016-03-24T15:16:17Z</time>
      </trkpt>
      <trkpt lat="45.54396" lon="6.73136">
        <ele>1713.49</ele>
        <time>2016-03-24T15:16:24Z</time>
      </trkpt>
      <trkpt lat="45.54377" lon="6.73133">
        <ele>1719.53</ele>
        <time>2016-03-24T15:16:31Z</time>
      </trkpt>
      <trkpt lat="45.54356" lon="6.73136">
        <ele>1737.72</ele>
        <time>2016-03-24T15:16:39Z</time>
      </trkpt>
      <trkpt lat="45.54336" lon="6.73138">
        <ele>1759.29</ele>
        <time>2016-03-24T15:16:47Z</time>
      </trkpt>
      <trkpt lat="45.54315" lon="6.73136">
        <ele>1773.08</ele>
        <time>2016-03-24T15:16:54Z</time>
      </trkpt>
      <trkpt lat="45.54294" lon="6.73135">
        <ele>1795.31</ele>
        <time>2016-03-24T15:17:02Z</time>
      </trkpt>
      <trkpt lat="45.54275" lon="6.73136">
        <ele>1800.49</ele>
        <time>2016-03-24T15:17:09Z</time>
      </trkpt>
      <trkpt lat="45.54254" lon="6.73134">
        <ele>1801.49</ele>
        <time>2016-03-24T15:17:15Z</time>
      </trkpt>
      <trkpt lat="45.54235" lon="6.73136">
        <ele>1809.52</ele>
        <time>2016-03-24T15:17:22Z</time>
      </trkpt>
      <trkpt lat="45.54215" lon="6.73137">
        <ele>1819.49</ele>
        <time>2016-03-24T15:17:29Z</time>
      </trkpt>
      <trkpt lat="45.54195" lon="6.73138">
        <ele>1828.32</ele>
        <time>2016-03-24T15:17:36Z</time>
      </trkpt>
      <trkpt lat="45.54176" lon="6.7314">
        <ele>1842.27</ele>
        <time>2016-03-24T15:17:43Z</time>
      </trkpt>
      <trkpt lat="45.54157" lon="6.73137">
        <ele>1846.29</ele>
        <time>2016-03-24T15:17:49Z</time>
      </trkpt>
      <trkpt lat="45.54138" lon="6.73135">
        <ele>1848.49</ele>
        <time>2016-03-24T15:17:55Z</time>
      </trkpt>
      <trkpt lat="45.54118" lon="6.73135">
        <ele>1851.32</ele>
        <time>2016-03-24T15:18:02Z</time>
      </trkpt>
      <trkpt lat="45.54099" lon="6.73133">
        <ele>1854.13</ele>
        <time>2016-03-24T15:18:08Z</time>
      </trkpt>
      <trkpt lat="45.54079" lon="6.73134">
        <ele>1866.31</ele>
        <time>2016-03-24T15:18:15Z</time>
      </trkpt>
      <trkpt lat="45.54061" lon="6.73135">
        <ele>1882.16</ele>
        <time>2016-03-24T15:18:22Z</time>
      </trkpt>
      <trkpt lat="45.54043" lon="6.73131">
        <ele>1884.52</ele>
        <time>2016-03-24T15:18:28Z</time>
      </trkpt>
      <trkpt lat="45.54023" lon="6.7313">
        <ele>1893.31</ele>
        <time>2016-03-24T15:18:35Z</time>
      </trkpt>
      <trkpt lat="45.54005" lon="6.73137">
        <ele>1909.52</ele>
        <time>2016-03-24T15:18:42Z</time>
      </trkpt>
      <trkpt lat="45.53987" lon="6.73139">
        <ele>1933.52</ele>
        <time>2016-03-24T15:18:49Z</time>
      </trkpt>
      <trkpt lat="45.53966" lon="6.7314">
        <ele>1937.52</ele>
        <time>2016-03-24T15:18:56Z</time>
      </trkpt>
      <trkpt lat="45.53948" lon="6.73138">
        <ele>1940.17</ele>
        <time>2016-03-24T15:19:02Z</time>
      </trkpt>
      <trkpt lat="45.53927" lon="6.73136">
        <ele>1942.48</ele>
        <time>2016-03-24T15:19:09Z</time>
      </trkpt>
      <trkpt lat="45.53908" lon="6.73134">
        <ele>1944.49</ele>
        <time>2016-03-24T15:19:15Z</time>
      </trkpt>
      <trkpt lat="45.5389" lon="6.73132">
        <ele>1946.49</ele>
        <time>2016-03-24T15:19:21Z</time>
      </trkpt>
      <trkpt lat="45.53871" lon="6.73132">
        <ele>1953.49</ele>
        <time>2016-03-24T15:19:27Z</time>
      </trkpt>
      <trkpt lat="45.53851" lon="6.73131">
        <ele>1957.29</ele>
        <time>2016-03-24T15:19:34Z</time>
      </trkpt>
      <trkpt lat="45.53831" lon="6.73132">
        <ele>1966.52</ele>
        <time>2016-03-24T15:19:41Z</time>
      </trkpt>
      <trkpt lat="45.53812" lon="6.73133">
        <ele>1984.31</ele>
        <time>2016-03-24T15:19:48Z</time>
      </trkpt>
      <trkpt lat="45.53793" lon="6.73131">
        <ele>1994.32</ele>
        <time>2016-03-24T15:19:55Z</time>
      </trkpt>
      <trkpt lat="45.53773" lon="6.73129">
        <ele>1997.32</ele>
        <time>2016-03-24T15:20:02Z</time>
      </trkpt>
      <trkpt lat="45.53753" lon="6.73136">
        <ele>2024.47</ele>
        <time>2016-03-24T15:20:10Z</time>
      </trkpt>
      <trkpt lat="45.53734" lon="6.73137">
        <ele>2039.42</ele>
        <time>2016-03-24T15:20:17Z</time>
      </trkpt>
      <trkpt lat="45.53713" lon="6.73137">
        <ele>2044.49</ele>
        <time>2016-03-24T15:20:24Z</time>
      </trkpt>
      <trkpt lat="45.53693" lon="6.73138">
        <ele>2051.52</ele>
        <time>2016-03-24T15:20:31Z</time>
      </trkpt>
      <trkpt lat="45.53673" lon="6.73141">
        <ele>2061.23</ele>
        <time>2016-03-24T15:20:38Z</time>
      </trkpt>
      <trkpt lat="45.53653" lon="6.73142">
        <ele>2073.53</ele>
        <time>2016-03-24T15:20:45Z</time>
      </trkpt>
      <trkpt lat="45.53635" lon="6.73142">
        <ele>2080.51</ele>
        <time>2016-03-24T15:20:51Z</time>
      </trkpt>
      <trkpt lat="45.53616" lon="6.73143">
        <ele>2092.17</ele>
        <time>2016-03-24T15:20:57Z</time>
      </trkpt>
      <trkpt lat="45.53598" lon="6.73142">
        <ele>2093.72</ele>
        <time>2016-03-24T15:21:03Z</time>
      </trkpt>
      <trkpt lat="45.53577" lon="6.73141">
        <ele>2097.29</ele>
        <time>2016-03-24T15:21:10Z</time>
      </trkpt>
      <trkpt lat="45.53558" lon="6.7314">
        <ele>2099.49</ele>
        <time>2016-03-24T15:21:16Z</time>
      </trkpt>
      <trkpt lat="45.5354" lon="6.73143">
        <ele>2100.48</ele>
        <time>2016-03-24T15:21:22Z</time>
      </trkpt>
      <trkpt lat="45.5352" lon="6.73146">
        <ele>2105.13</ele>
        <time>2016-03-24T15:21:29Z</time>
      </trkpt>
      <trkpt lat="45.535" lon="6.73143">
        <ele>2107.48</ele>
        <time>2016-03-24T15:21:35Z</time>
      </trkpt>
      <trkpt lat="45.5348" lon="6.73145">
        <ele>2115.23</ele>
        <time>2016-03-24T15:21:42Z</time>
      </trkpt>
      <trkpt lat="45.5346" lon="6.73144">
        <ele>2116.53</ele>
        <time>2016-03-24T15:21:51Z</time>
      </trkpt>
      <trkpt lat="45.5344" lon="6.73134">
        <ele>2114.53</ele>
        <time>2016-03-24T15:22:00Z</time>
      </trkpt>
      <trkpt lat="45.5342" lon="6.73121">
        <ele>2115.52</ele>
        <time>2016-03-24T15:22:07Z</time>
      </trkpt>
      <trkpt lat="45.53402" lon="6.73111">
        <ele>2115.57</ele>
        <time>2016-03-24T15:22:11Z</time>
      </trkpt>
      <trkpt lat="45.53402" lon="6.73085">
        <ele>2115.37</ele>
        <time>2016-03-24T15:22:16Z</time>
      </trkpt>
      <trkpt lat="45.53394" lon="6.73061">
        <ele>2115.54</ele>
        <time>2016-03-24T15:22:41Z</time>
      </trkpt>
      <trkpt lat="45.53381" lon="6.73042">
        <ele>2116.48</ele>
        <time>2016-03-24T15:22:56Z</time>
      </trkpt>
      <trkpt lat="45.53368" lon="6.73023">
        <ele>2123.28</ele>
        <time>2016-03-24T15:23:05Z</time>
      </trkpt>
      <trkpt lat="45.53353" lon="6.73004">
        <ele>2123.53</ele>
        <time>2016-03-24T15:23:16Z</time>
      </trkpt>
      <trkpt lat="45.5334" lon="6.72984">
        <ele>2129.43</ele>
        <time>2016-03-24T15:23:24Z</time>
      </trkpt>
      <trkpt lat="45.53327" lon="6.72964">
        <ele>2134.13</ele>
        <time>2016-03-24T15:23:33Z</time>
      </trkpt>
      <trkpt lat="45.53315" lon="6.72941">
        <ele>2143.91</ele>
        <time>2016-03-24T15:23:43Z</time>
      </trkpt>
      <trkpt lat="45.53303" lon="6.7292">
        <ele>2153.29</ele>
        <time>2016-03-24T15:23:53Z</time>
      </trkpt>
      <trkpt lat="45.5329" lon="6.72899">
        <ele>2162.28</ele>
        <time>2016-03-24T15:24:03Z</time>
      </trkpt>
      <trkpt lat="45.53277" lon="6.72879">
        <ele>2171.32</ele>
        <time>2016-03-24T15:24:14Z</time>
      </trkpt>
      <trkpt lat="45.53264" lon="6.72858">
        <ele>2176.32</ele>
        <time>2016-03-24T15:24:24Z</time>
      </trkpt>
      <trkpt lat="45.53252" lon="6.72836">
        <ele>2181.53</ele>
        <time>2016-03-24T15:24:34Z</time>
      </trkpt>
      <trkpt lat="45.53239" lon="6.72817">
        <ele>2184.29</ele>
        <time>2016-03-24T15:24:43Z</time>
      </trkpt>
      <trkpt lat="45.53225" lon="6.72797">
        <ele>2187.49</ele>
        <time>2016-03-24T15:24:53Z</time>
      </trkpt>
      <trkpt lat="45.53213" lon="6.72777">
        <ele>2190.53</ele>
        <time>2016-03-24T15:25:02Z</time>
      </trkpt>
      <trkpt lat="45.532" lon="6.72758">
        <ele>2195.49</ele>
        <time>2016-03-24T15:25:11Z</time>
      </trkpt>
      <trkpt lat="45.53187" lon="6.72738">
        <ele>2200.32</ele>
        <time>2016-03-24T15:25:21Z</time>
      </trkpt>
      <trkpt lat="45.53174" lon="6.72717">
        <ele>2206.32</ele>
        <time>2016-03-24T15:25:31Z</time>
      </trkpt>
      <trkpt lat="45.53161" lon="6.72697">
        <ele>2208.53</ele>
        <time>2016-03-24T15:25:41Z</time>
      </trkpt>
      <trkpt lat="45.53151" lon="6.72676">
        <ele>2213.33</ele>
        <time>2016-03-24T15:25:50Z</time>
      </trkpt>
      <trkpt lat="45.53137" lon="6.72655">
        <ele>2217.49</ele>
        <time>2016-03-24T15:26:00Z</time>
      </trkpt>
      <trkpt lat="45.53124" lon="6.72636">
        <ele>2222.49</ele>
        <time>2016-03-24T15:26:10Z</time>
      </trkpt>
      <trkpt lat="45.53113" lon="6.72615">
        <ele>2226.49</ele>
        <time>2016-03-24T15:26:19Z</time>
      </trkpt>
      <trkpt lat="45.531" lon="6.72595">
        <ele>2228.49</ele>
        <time>2016-03-24T15:26:29Z</time>
      </trkpt>
      <trkpt lat="45.53088" lon="6.72575">
        <ele>2230.52</ele>
        <time>2016-03-24T15:26:38Z</time>
      </trkpt>
      <trkpt lat="45.53075" lon="6.72557">
        <ele>2232.33</ele>
        <time>2016-03-24T15:26:47Z</time>
      </trkpt>
      <trkpt lat="45.53062" lon="6.72537">
        <ele>2235.32</ele>
        <time>2016-03-24T15:26:57Z</time>
      </trkpt>
      <trkpt lat="45.5305" lon="6.72517">
        <ele>2237.33</ele>
        <time>2016-03-24T15:27:07Z</time>
      </trkpt>
      <trkpt lat="45.53037" lon="6.72498">
        <ele>2241.33</ele>
        <time>2016-03-24T15:27:16Z</time>
      </trkpt>
      <trkpt lat="45.53023" lon="6.72478">
        <ele>2244.53</ele>
        <time>2016-03-24T15:27:26Z</time>
      </trkpt>
      <trkpt lat="45.5301" lon="6.72457">
        <ele>2246.53</ele>
        <time>2016-03-24T15:27:36Z</time>
      </trkpt>
      <trkpt lat="45.52998" lon="6.72436">
        <ele>2249.49</ele>
        <time>2016-03-24T15:27:45Z</time>
      </trkpt>
      <trkpt lat="45.52986" lon="6.72416">
        <ele>2253.32</ele>
        <time>2016-03-24T15:27:54Z</time>
      </trkpt>
      <trkpt lat="45.52972" lon="6.72395">
        <ele>2255.49</ele>
        <time>2016-03-24T15:28:04Z</time>
      </trkpt>
      <trkpt lat="45.52959" lon="6.72375">
        <ele>2256.53</ele>
        <time>2016-03-24T15:28:13Z</time>
      </trkpt>
      <trkpt lat="45.52947" lon="6.72356">
        <ele>2259.53</ele>
        <time>2016-03-24T15:28:23Z</time>
      </trkpt>
      <trkpt lat="45.52933" lon="6.72338">
        <ele>2266.28</ele>
        <time>2016-03-24T15:28:33Z</time>
      </trkpt>
      <trkpt lat="45.5292" lon="6.72316">
        <ele>2272.49</ele>
        <time>2016-03-24T15:28:43Z</time>
      </trkpt>
      <trkpt lat="45.52909" lon="6.72295">
        <ele>2279.49</ele>
        <time>2016-03-24T15:28:52Z</time>
      </trkpt>
      <trkpt lat="45.52896" lon="6.72274">
        <ele>2285.53</ele>
        <time>2016-03-24T15:29:02Z</time>
      </trkpt>
      <trkpt lat="45.52882" lon="6.72255">
        <ele>2296.32</ele>
        <time>2016-03-24T15:29:13Z</time>
      </trkpt>
      <trkpt lat="45.52868" lon="6.72235">
        <ele>2305.27</ele>
        <time>2016-03-24T15:29:24Z</time>
      </trkpt>
      <trkpt lat="45.52856" lon="6.72215">
        <ele>2313.24</ele>
        <time>2016-03-24T15:29:34Z</time>
      </trkpt>
      <trkpt lat="45.52844" lon="6.72195">
        <ele>2321.48</ele>
        <time>2016-03-24T15:29:44Z</time>
      </trkpt>
      <trkpt lat="45.52832" lon="6.72173">
        <ele>2329.28</ele>
        <time>2016-03-24T15:29:54Z</time>
      </trkpt>
      <trkpt lat="45.52818" lon="6.72152">
        <ele>2336.33</ele>
        <time>2016-03-24T15:30:05Z</time>
      </trkpt>
      <trkpt lat="45.52807" lon="6.72132">
        <ele>2338.33</ele>
        <time>2016-03-24T15:30:14Z</time>
      </trkpt>
      <trkpt lat="45.52791" lon="6.72117">
        <ele>2339.29</ele>
        <time>2016-03-24T15:30:25Z</time>
      </trkpt>
      <trkpt lat="45.52773" lon="6.72104">
        <ele>2337.57</ele>
        <time>2016-03-24T15:30:31Z</time>
      </trkpt>
      <trkpt lat="45.52755" lon="6.72099">
        <ele>2338.34</ele>
        <time>2016-03-24T15:30:47Z</time>
      </trkpt>
      <trkpt lat="45.52736" lon="6.72106">
        <ele>2334.78</ele>
        <time>2016-03-24T15:30:52Z</time>
      </trkpt>
      <trkpt lat="45.52734" lon="6.72139">
        <ele>2331.74</ele>
        <time>2016-03-24T15:30:56Z</time>
      </trkpt>
      <trkpt lat="45.52746" lon="6.72161">
        <ele>2323.28</ele>
        <time>2016-03-24T15:30:59Z</time>
      </trkpt>
      <trkpt lat="45.5276" lon="6.72188">
        <ele>2319.15</ele>
        <time>2016-03-24T15:31:02Z</time>
      </trkpt>
      <trkpt lat="45.52772" lon="6.72218">
        <ele>2316.58</ele>
        <time>2016-03-24T15:31:05Z</time>
      </trkpt>
      <trkpt lat="45.52781" lon="6.72241">
        <ele>2309.17</ele>
        <time>2016-03-24T15:31:07Z</time>
      </trkpt>
      <trkpt lat="45.52791" lon="6.72267">
        <ele>2304.08</ele>
        <time>2016-03-24T15:31:09Z</time>
      </trkpt>
      <trkpt lat="45.52788" lon="6.72295">
        <ele>2303.39</ele>
        <time>2016-03-24T15:31:11Z</time>
      </trkpt>
      <trkpt lat="45.5277" lon="6.72304">
        <ele>2301.73</ele>
        <time>2016-03-24T15:31:15Z</time>
      </trkpt>
      <trkpt lat="45.52753" lon="6.72319">
        <ele>2293.93</ele>
        <time>2016-03-24T15:31:24Z</time>
      </trkpt>
      <trkpt lat="45.52736" lon="6.72336">
        <ele>2289.97</ele>
        <time>2016-03-24T15:31:29Z</time>
      </trkpt>
      <trkpt lat="45.52717" lon="6.72345">
        <ele>2287.77</ele>
        <time>2016-03-24T15:31:33Z</time>
      </trkpt>
      <trkpt lat="45.52696" lon="6.72344">
        <ele>2283.62</ele>
        <time>2016-03-24T15:31:37Z</time>
      </trkpt>
      <trkpt lat="45.52674" lon="6.72347">
        <ele>2274.15</ele>
        <time>2016-03-24T15:31:42Z</time>
      </trkpt>
      <trkpt lat="45.52651" lon="6.72345">
        <ele>2268.03</ele>
        <time>2016-03-24T15:31:45Z</time>
      </trkpt>
      <trkpt lat="45.52631" lon="6.72348">
        <ele>2262.78</ele>
        <time>2016-03-24T15:31:49Z</time>
      </trkpt>
      <trkpt lat="45.52611" lon="6.72346">
        <ele>2258.95</ele>
        <time>2016-03-24T15:31:52Z</time>
      </trkpt>
      <trkpt lat="45.52595" lon="6.72364">
        <ele>2255.14</ele>
        <time>2016-03-24T15:31:55Z</time>
      </trkpt>
      <trkpt lat="45.52571" lon="6.72368">
        <ele>2248.99</ele>
        <time>2016-03-24T15:31:59Z</time>
      </trkpt>
      <trkpt lat="45.52547" lon="6.72356">
        <ele>2241.24</ele>
        <time>2016-03-24T15:32:02Z</time>
      </trkpt>
      <trkpt lat="45.52529" lon="6.72361">
        <ele>2236.4</ele>
        <time>2016-03-24T15:32:04Z</time>
      </trkpt>
      <trkpt lat="45.52509" lon="6.72352">
        <ele>2230.03</ele>
        <time>2016-03-24T15:32:07Z</time>
      </trkpt>
      <trkpt lat="45.52491" lon="6.72348">
        <ele>2225.07</ele>
        <time>2016-03-24T15:32:09Z</time>
      </trkpt>
      <trkpt lat="45.52475" lon="6.72333">
        <ele>2210.55</ele>
        <time>2016-03-24T15:32:21Z</time>
      </trkpt>
      <trkpt lat="45.52469" lon="6.72307">
        <ele>2196.57</ele>
        <time>2016-03-24T15:33:19Z</time>
      </trkpt>
      <trkpt lat="45.52464" lon="6.72279">
        <ele>2188.53</ele>
        <time>2016-03-24T15:33:37Z</time>
      </trkpt>
      <trkpt lat="45.52458" lon="6.72254">
        <ele>2192.33</ele>
        <time>2016-03-24T15:33:47Z</time>
      </trkpt>
      <trkpt lat="45.52451" lon="6.72229">
        <ele>2196.53</ele>
        <time>2016-03-24T15:34:00Z</time>
      </trkpt>
      <trkpt lat="45.52447" lon="6.72204">
        <ele>2200.32</ele>
        <time>2016-03-24T15:34:10Z</time>
      </trkpt>
      <trkpt lat="45.52441" lon="6.72177">
        <ele>2207.28</ele>
        <time>2016-03-24T15:34:22Z</time>
      </trkpt>
      <trkpt lat="45.52435" lon="6.72151">
        <ele>2214.29</ele>
        <time>2016-03-24T15:34:34Z</time>
      </trkpt>
      <trkpt lat="45.52428" lon="6.72125">
        <ele>2226.33</ele>
        <time>2016-03-24T15:34:47Z</time>
      </trkpt>
      <trkpt lat="45.52422" lon="6.721">
        <ele>2232.49</ele>
        <time>2016-03-24T15:34:59Z</time>
      </trkpt>
      <trkpt lat="45.52415" lon="6.72075">
        <ele>2236.52</ele>
        <time>2016-03-24T15:35:11Z</time>
      </trkpt>
      <trkpt lat="45.52407" lon="6.7205">
        <ele>2240.54</ele>
        <time>2016-03-24T15:35:24Z</time>
      </trkpt>
      <trkpt lat="45.52399" lon="6.72025">
        <ele>2242.36</ele>
        <time>2016-03-24T15:35:37Z</time>
      </trkpt>
      <trkpt lat="45.52397" lon="6.71998">
        <ele>2255.28</ele>
        <time>2016-03-24T15:35:52Z</time>
      </trkpt>
      <trkpt lat="45.52393" lon="6.71973">
        <ele>2273.52</ele>
        <time>2016-03-24T15:36:08Z</time>
      </trkpt>
      <trkpt lat="45.52387" lon="6.71947">
        <ele>2280.29</ele>
        <time>2016-03-24T15:36:22Z</time>
      </trkpt>
      <trkpt lat="45.52379" lon="6.71922">
        <ele>2281.53</ele>
        <time>2016-03-24T15:36:34Z</time>
      </trkpt>
      <trkpt lat="45.52373" lon="6.71898">
        <ele>2281.53</ele>
        <time>2016-03-24T15:36:45Z</time>
      </trkpt>
      <trkpt lat="45.52369" lon="6.7187">
        <ele>2291.89</ele>
        <time>2016-03-24T15:36:58Z</time>
      </trkpt>
      <trkpt lat="45.52364" lon="6.71845">
        <ele>2296.52</ele>
        <time>2016-03-24T15:37:10Z</time>
      </trkpt>
      <trkpt lat="45.52358" lon="6.7182">
        <ele>2304.67</ele>
        <time>2016-03-24T15:37:22Z</time>
      </trkpt>
      <trkpt lat="45.52354" lon="6.71794">
        <ele>2313.09</ele>
        <time>2016-03-24T15:37:34Z</time>
      </trkpt>
      <trkpt lat="45.52349" lon="6.71769">
        <ele>2323.28</ele>
        <time>2016-03-24T15:37:46Z</time>
      </trkpt>
      <trkpt lat="45.52343" lon="6.71743">
        <ele>2329.32</ele>
        <time>2016-03-24T15:37:57Z</time>
      </trkpt>
      <trkpt lat="45.52337" lon="6.71718">
        <ele>2332.51</ele>
        <time>2016-03-24T15:38:08Z</time>
      </trkpt>
      <trkpt lat="45.52329" lon="6.71693">
        <ele>2331.53</ele>
        <time>2016-03-24T15:38:20Z</time>
      </trkpt>
      <trkpt lat="45.52322" lon="6.71668">
        <ele>2332.25</ele>
        <time>2016-03-24T15:38:33Z</time>
      </trkpt>
      <trkpt lat="45.52317" lon="6.71642">
        <ele>2337.63</ele>
        <time>2016-03-24T15:38:47Z</time>
      </trkpt>
      <trkpt lat="45.52303" lon="6.71625">
        <ele>2338.33</ele>
        <time>2016-03-24T15:38:56Z</time>
      </trkpt>
      <trkpt lat="45.52285" lon="6.7161">
        <ele>2334.73</ele>
        <time>2016-03-24T15:39:14Z</time>
      </trkpt>
      <trkpt lat="45.5227" lon="6.71589">
        <ele>2331.78</ele>
        <time>2016-03-24T15:39:17Z</time>
      </trkpt>
      <trkpt lat="45.52254" lon="6.71567">
        <ele>2330.58</ele>
        <time>2016-03-24T15:39:19Z</time>
      </trkpt>
      <trkpt lat="45.52236" lon="6.71546">
        <ele>2329.57</ele>
        <time>2016-03-24T15:39:21Z</time>
      </trkpt>
      <trkpt lat="45.52224" lon="6.71523">
        <ele>2328.73</ele>
        <time>2016-03-24T15:39:23Z</time>
      </trkpt>
      <trkpt lat="45.52209" lon="6.71504">
        <ele>2326.74</ele>
        <time>2016-03-24T15:39:26Z</time>
      </trkpt>
      <trkpt lat="45.52192" lon="6.7148">
        <ele>2325.57</ele>
        <time>2016-03-24T15:39:30Z</time>
      </trkpt>
      <trkpt lat="45.52177" lon="6.71459">
        <ele>2324.73</ele>
        <time>2016-03-24T15:39:35Z</time>
      </trkpt>
      <trkpt lat="45.5216" lon="6.71438">
        <ele>2320.78</ele>
        <time>2016-03-24T15:39:40Z</time>
      </trkpt>
      <trkpt lat="45.52152" lon="6.71413">
        <ele>2316.78</ele>
        <time>2016-03-24T15:39:44Z</time>
      </trkpt>
      <trkpt lat="45.5215" lon="6.71383">
        <ele>2313.81</ele>
        <time>2016-03-24T15:39:47Z</time>
      </trkpt>
      <trkpt lat="45.52148" lon="6.71346">
        <ele>2311.58</ele>
        <time>2016-03-24T15:39:50Z</time>
      </trkpt>
      <trkpt lat="45.52146" lon="6.71313">
        <ele>2310.73</ele>
        <time>2016-03-24T15:39:52Z</time>
      </trkpt>
      <trkpt lat="45.5214" lon="6.71281">
        <ele>2308.78</ele>
        <time>2016-03-24T15:39:54Z</time>
      </trkpt>
      <trkpt lat="45.52137" lon="6.71245">
        <ele>2306.94</ele>
        <time>2016-03-24T15:39:56Z</time>
      </trkpt>
      <trkpt lat="45.52133" lon="6.71216">
        <ele>2305.59</ele>
        <time>2016-03-24T15:39:58Z</time>
      </trkpt>
      <trkpt lat="45.52127" lon="6.71189">
        <ele>2304.57</ele>
        <time>2016-03-24T15:40:00Z</time>
      </trkpt>
      <trkpt lat="45.52122" lon="6.71151">
        <ele>2300.82</ele>
        <time>2016-03-24T15:40:03Z</time>
      </trkpt>
      <trkpt lat="45.52117" lon="6.71122">
        <ele>2299.58</ele>
        <time>2016-03-24T15:40:05Z</time>
      </trkpt>
      <trkpt lat="45.52102" lon="6.71092">
        <ele>2294.99</ele>
        <time>2016-03-24T15:40:08Z</time>
      </trkpt>
      <trkpt lat="45.52084" lon="6.71077">
        <ele>2291.42</ele>
        <time>2016-03-24T15:40:09Z</time>
      </trkpt>
      <trkpt lat="45.52064" lon="6.71057">
        <ele>2283.85</ele>
        <time>2016-03-24T15:40:11Z</time>
      </trkpt>
      <trkpt lat="45.52039" lon="6.71041">
        <ele>2276.66</ele>
        <time>2016-03-24T15:40:13Z</time>
      </trkpt>
      <trkpt lat="45.52015" lon="6.71023">
        <ele>2269.5</ele>
        <time>2016-03-24T15:40:15Z</time>
      </trkpt>
      <trkpt lat="45.51991" lon="6.71011">
        <ele>2264.09</ele>
        <time>2016-03-24T15:40:17Z</time>
      </trkpt>
      <trkpt lat="45.51969" lon="6.70996">
        <ele>2260.99</ele>
        <time>2016-03-24T15:40:19Z</time>
      </trkpt>
      <trkpt lat="45.51948" lon="6.70981">
        <ele>2256.07</ele>
        <time>2016-03-24T15:40:21Z</time>
      </trkpt>
      <trkpt lat="45.51924" lon="6.7097">
        <ele>2249.31</ele>
        <time>2016-03-24T15:40:23Z</time>
      </trkpt>
      <trkpt lat="45.51901" lon="6.70952">
        <ele>2242.16</ele>
        <time>2016-03-24T15:40:25Z</time>
      </trkpt>
      <trkpt lat="45.51877" lon="6.70936">
        <ele>2237.24</ele>
        <time>2016-03-24T15:40:27Z</time>
      </trkpt>
      <trkpt lat="45.51852" lon="6.70918">
        <ele>2232.08</ele>
        <time>2016-03-24T15:40:29Z</time>
      </trkpt>
      <trkpt lat="45.51827" lon="6.70901">
        <ele>2228.03</ele>
        <time>2016-03-24T15:40:31Z</time>
      </trkpt>
      <trkpt lat="45.51802" lon="6.70885">
        <ele>2224.03</ele>
        <time>2016-03-24T15:40:33Z</time>
      </trkpt>
      <trkpt lat="45.51786" lon="6.70873">
        <ele>2220.99</ele>
        <time>2016-03-24T15:40:35Z</time>
      </trkpt>
      <trkpt lat="45.51769" lon="6.70861">
        <ele>2209.72</ele>
        <time>2016-03-24T15:40:38Z</time>
      </trkpt>
      <trkpt lat="45.51747" lon="6.7085">
        <ele>2203.59</ele>
        <time>2016-03-24T15:40:42Z</time>
      </trkpt>
      <trkpt lat="45.51728" lon="6.70845">
        <ele>2198.06</ele>
        <time>2016-03-24T15:40:45Z</time>
      </trkpt>
      <trkpt lat="45.51701" lon="6.70839">
        <ele>2192.03</ele>
        <time>2016-03-24T15:40:48Z</time>
      </trkpt>
      <trkpt lat="45.51682" lon="6.70831">
        <ele>2190.59</ele>
        <time>2016-03-24T15:40:50Z</time>
      </trkpt>
      <trkpt lat="45.51663" lon="6.70829">
        <ele>2187.97</ele>
        <time>2016-03-24T15:40:53Z</time>
      </trkpt>
      <trkpt lat="45.51643" lon="6.70825">
        <ele>2186.53</ele>
        <time>2016-03-24T15:40:57Z</time>
      </trkpt>
      <trkpt lat="45.51622" lon="6.70822">
        <ele>2185.37</ele>
        <time>2016-03-24T15:41:01Z</time>
      </trkpt>
      <trkpt lat="45.51602" lon="6.70819">
        <ele>2182.58</ele>
        <time>2016-03-24T15:41:05Z</time>
      </trkpt>
      <trkpt lat="45.51582" lon="6.70814">
        <ele>2182.5</ele>
        <time>2016-03-24T15:41:10Z</time>
      </trkpt>
      <trkpt lat="45.51562" lon="6.70828">
        <ele>2177.18</ele>
        <time>2016-03-24T15:41:15Z</time>
      </trkpt>
      <trkpt lat="45.5154" lon="6.7083">
        <ele>2173.78</ele>
        <time>2016-03-24T15:41:18Z</time>
      </trkpt>
      <trkpt lat="45.51521" lon="6.70834">
        <ele>2169.38</ele>
        <time>2016-03-24T15:41:20Z</time>
      </trkpt>
      <trkpt lat="45.51501" lon="6.70833">
        <ele>2162.65</ele>
        <time>2016-03-24T15:41:22Z</time>
      </trkpt>
      <trkpt lat="45.5148" lon="6.70826">
        <ele>2155.34</ele>
        <time>2016-03-24T15:41:24Z</time>
      </trkpt>
      <trkpt lat="45.51452" lon="6.70816">
        <ele>2151.84</ele>
        <time>2016-03-24T15:41:26Z</time>
      </trkpt>
      <trkpt lat="45.51426" lon="6.70801">
        <ele>2148.98</ele>
        <time>2016-03-24T15:41:28Z</time>
      </trkpt>
      <trkpt lat="45.51405" lon="6.70791">
        <ele>2148.55</ele>
        <time>2016-03-24T15:41:30Z</time>
      </trkpt>
      <trkpt lat="45.51385" lon="6.70779">
        <ele>2148.5</ele>
        <time>2016-03-24T15:41:33Z</time>
      </trkpt>
      <trkpt lat="45.51365" lon="6.70779">
        <ele>2147.56</ele>
        <time>2016-03-24T15:41:37Z</time>
      </trkpt>
      <trkpt lat="45.51345" lon="6.70781">
        <ele>2147.53</ele>
        <time>2016-03-24T15:41:40Z</time>
      </trkpt>
      <trkpt lat="45.51323" lon="6.70777">
        <ele>2146.7</ele>
        <time>2016-03-24T15:41:43Z</time>
      </trkpt>
      <trkpt lat="45.51308" lon="6.7076">
        <ele>2138.76</ele>
        <time>2016-03-24T15:41:48Z</time>
      </trkpt>
      <trkpt lat="45.51292" lon="6.70744">
        <ele>2136.57</ele>
        <time>2016-03-24T15:41:54Z</time>
      </trkpt>
      <trkpt lat="45.51273" lon="6.70727">
        <ele>2133.78</ele>
        <time>2016-03-24T15:41:59Z</time>
      </trkpt>
      <trkpt lat="45.51255" lon="6.70711">
        <ele>2127.87</ele>
        <time>2016-03-24T15:42:02Z</time>
      </trkpt>
      <trkpt lat="45.51229" lon="6.7071">
        <ele>2123.79</ele>
        <time>2016-03-24T15:42:05Z</time>
      </trkpt>
      <trkpt lat="45.51211" lon="6.70722">
        <ele>2115.98</ele>
        <time>2016-03-24T15:42:08Z</time>
      </trkpt>
      <trkpt lat="45.51188" lon="6.70733">
        <ele>2112.94</ele>
        <time>2016-03-24T15:42:11Z</time>
      </trkpt>
      <trkpt lat="45.51167" lon="6.70722">
        <ele>2107.99</ele>
        <time>2016-03-24T15:42:14Z</time>
      </trkpt>
      <trkpt lat="45.51147" lon="6.7071">
        <ele>2103.07</ele>
        <time>2016-03-24T15:42:16Z</time>
      </trkpt>
      <trkpt lat="45.51128" lon="6.70701">
        <ele>2099.83</ele>
        <time>2016-03-24T15:42:18Z</time>
      </trkpt>
      <trkpt lat="45.5111" lon="6.70695">
        <ele>2096.18</ele>
        <time>2016-03-24T15:42:20Z</time>
      </trkpt>
      <trkpt lat="45.51092" lon="6.70688">
        <ele>2093</ele>
        <time>2016-03-24T15:42:22Z</time>
      </trkpt>
      <trkpt lat="45.51078" lon="6.70661">
        <ele>2087.99</ele>
        <time>2016-03-24T15:42:25Z</time>
      </trkpt>
      <trkpt lat="45.51077" lon="6.70634">
        <ele>2084.81</ele>
        <time>2016-03-24T15:42:28Z</time>
      </trkpt>
      <trkpt lat="45.51074" lon="6.706">
        <ele>2083.73</ele>
        <time>2016-03-24T15:42:32Z</time>
      </trkpt>
      <trkpt lat="45.5107" lon="6.70572">
        <ele>2078.71</ele>
        <time>2016-03-24T15:42:37Z</time>
      </trkpt>
      <trkpt lat="45.5107" lon="6.7054">
        <ele>2072.07</ele>
        <time>2016-03-24T15:42:40Z</time>
      </trkpt>
      <trkpt lat="45.51072" lon="6.7051">
        <ele>2066.83</ele>
        <time>2016-03-24T15:42:43Z</time>
      </trkpt>
      <trkpt lat="45.51068" lon="6.70484">
        <ele>2059.34</ele>
        <time>2016-03-24T15:42:45Z</time>
      </trkpt>
      <trkpt lat="45.51073" lon="6.70459">
        <ele>2056.8</ele>
        <time>2016-03-24T15:42:47Z</time>
      </trkpt>
      <trkpt lat="45.51085" lon="6.70436">
        <ele>2057.18</ele>
        <time>2016-03-24T15:42:49Z</time>
      </trkpt>
      <trkpt lat="45.511" lon="6.7042">
        <ele>2050.96</ele>
        <time>2016-03-24T15:42:51Z</time>
      </trkpt>
      <trkpt lat="45.51116" lon="6.70399">
        <ele>2047.03</ele>
        <time>2016-03-24T15:42:53Z</time>
      </trkpt>
      <trkpt lat="45.51131" lon="6.70369">
        <ele>2039.81</ele>
        <time>2016-03-24T15:42:56Z</time>
      </trkpt>
      <trkpt lat="45.51145" lon="6.70352">
        <ele>2037.3</ele>
        <time>2016-03-24T15:42:58Z</time>
      </trkpt>
      <trkpt lat="45.51156" lon="6.70329">
        <ele>2032.88</ele>
        <time>2016-03-24T15:43:00Z</time>
      </trkpt>
      <trkpt lat="45.5117" lon="6.70308">
        <ele>2029.83</ele>
        <time>2016-03-24T15:43:02Z</time>
      </trkpt>
      <trkpt lat="45.51179" lon="6.70278">
        <ele>2027.14</ele>
        <time>2016-03-24T15:43:04Z</time>
      </trkpt>
      <trkpt lat="45.5119" lon="6.70247">
        <ele>2025.6</ele>
        <time>2016-03-24T15:43:06Z</time>
      </trkpt>
      <trkpt lat="45.51201" lon="6.70222">
        <ele>2025.53</ele>
        <time>2016-03-24T15:43:08Z</time>
      </trkpt>
      <trkpt lat="45.51215" lon="6.7019">
        <ele>2024.57</ele>
        <time>2016-03-24T15:43:10Z</time>
      </trkpt>
      <trkpt lat="45.51225" lon="6.70151">
        <ele>2013.94</ele>
        <time>2016-03-24T15:43:13Z</time>
      </trkpt>
      <trkpt lat="45.51236" lon="6.7012">
        <ele>2010.17</ele>
        <time>2016-03-24T15:43:17Z</time>
      </trkpt>
      <trkpt lat="45.51239" lon="6.70085">
        <ele>2004.86</ele>
        <time>2016-03-24T15:43:20Z</time>
      </trkpt>
      <trkpt lat="45.51238" lon="6.70055">
        <ele>2003.58</ele>
        <time>2016-03-24T15:43:22Z</time>
      </trkpt>
      <trkpt lat="45.51239" lon="6.70017">
        <ele>1997.04</ele>
        <time>2016-03-24T15:43:25Z</time>
      </trkpt>
      <trkpt lat="45.51233" lon="6.69987">
        <ele>1990.95</ele>
        <time>2016-03-24T15:43:27Z</time>
      </trkpt>
      <trkpt lat="45.51234" lon="6.69954">
        <ele>1987.67</ele>
        <time>2016-03-24T15:43:29Z</time>
      </trkpt>
      <trkpt lat="45.51227" lon="6.69926">
        <ele>1984.02</ele>
        <time>2016-03-24T15:43:31Z</time>
      </trkpt>
      <trkpt lat="45.51226" lon="6.69895">
        <ele>1980.99</ele>
        <time>2016-03-24T15:43:33Z</time>
      </trkpt>
      <trkpt lat="45.51213" lon="6.69868">
        <ele>1965.89</ele>
        <time>2016-03-24T15:43:37Z</time>
      </trkpt>
      <trkpt lat="45.51202" lon="6.69842">
        <ele>1959.83</ele>
        <time>2016-03-24T15:43:41Z</time>
      </trkpt>
      <trkpt lat="45.51192" lon="6.6982">
        <ele>1954.54</ele>
        <time>2016-03-24T15:43:47Z</time>
      </trkpt>
      <trkpt lat="45.5118" lon="6.69798">
        <ele>1930.33</ele>
        <time>2016-03-24T15:46:45Z</time>
      </trkpt>
      <trkpt lat="45.51161" lon="6.69785">
        <ele>1937.76</ele>
        <time>2016-03-24T15:48:18Z</time>
      </trkpt>
      <trkpt lat="45.51139" lon="6.69775">
        <ele>1941.28</ele>
        <time>2016-03-24T15:48:34Z</time>
      </trkpt>
      <trkpt lat="45.51118" lon="6.69771">
        <ele>1938.91</ele>
        <time>2016-03-24T15:48:37Z</time>
      </trkpt>
      <trkpt lat="45.51098" lon="6.69767">
        <ele>1937.54</ele>
        <time>2016-03-24T15:48:40Z</time>
      </trkpt>
      <trkpt lat="45.51076" lon="6.69762">
        <ele>1939.97</ele>
        <time>2016-03-24T15:48:44Z</time>
      </trkpt>
      <trkpt lat="45.51057" lon="6.69757">
        <ele>1942.29</ele>
        <time>2016-03-24T15:48:47Z</time>
      </trkpt>
      <trkpt lat="45.51037" lon="6.69753">
        <ele>1945.85</ele>
        <time>2016-03-24T15:48:51Z</time>
      </trkpt>
      <trkpt lat="45.51016" lon="6.69745">
        <ele>1954.88</ele>
        <time>2016-03-24T15:48:55Z</time>
      </trkpt>
      <trkpt lat="45.50996" lon="6.69738">
        <ele>1962.22</ele>
        <time>2016-03-24T15:48:59Z</time>
      </trkpt>
      <trkpt lat="45.50978" lon="6.6973">
        <ele>1973.91</ele>
        <time>2016-03-24T15:49:04Z</time>
      </trkpt>
      <trkpt lat="45.50959" lon="6.69725">
        <ele>1979.23</ele>
        <time>2016-03-24T15:49:07Z</time>
      </trkpt>
      <trkpt lat="45.50941" lon="6.69716">
        <ele>1984.87</ele>
        <time>2016-03-24T15:49:10Z</time>
      </trkpt>
      <trkpt lat="45.50921" lon="6.6971">
        <ele>1993.03</ele>
        <time>2016-03-24T15:49:14Z</time>
      </trkpt>
      <trkpt lat="45.50899" lon="6.69705">
        <ele>1998.09</ele>
        <time>2016-03-24T15:49:18Z</time>
      </trkpt>
      <trkpt lat="45.50878" lon="6.69699">
        <ele>2006.83</ele>
        <time>2016-03-24T15:49:22Z</time>
      </trkpt>
      <trkpt lat="45.50859" lon="6.69694">
        <ele>2023.46</ele>
        <time>2016-03-24T15:49:27Z</time>
      </trkpt>
      <trkpt lat="45.5084" lon="6.69688">
        <ele>2037.83</ele>
        <time>2016-03-24T15:49:32Z</time>
      </trkpt>
      <trkpt lat="45.50822" lon="6.69686">
        <ele>2053.11</ele>
        <time>2016-03-24T15:49:38Z</time>
      </trkpt>
      <trkpt lat="45.508" lon="6.69676">
        <ele>2062.92</ele>
        <time>2016-03-24T15:49:42Z</time>
      </trkpt>
      <trkpt lat="45.50781" lon="6.69671">
        <ele>2069.24</ele>
        <time>2016-03-24T15:49:46Z</time>
      </trkpt>
      <trkpt lat="45.50758" lon="6.69663">
        <ele>2076.49</ele>
        <time>2016-03-24T15:49:50Z</time>
      </trkpt>
      <trkpt lat="45.50737" lon="6.69659">
        <ele>2081.44</ele>
        <time>2016-03-24T15:49:54Z</time>
      </trkpt>
      <trkpt lat="45.50717" lon="6.69655">
        <ele>2081.53</ele>
        <time>2016-03-24T15:49:58Z</time>
      </trkpt>
      <trkpt lat="45.50696" lon="6.69649">
        <ele>2085.92</ele>
        <time>2016-03-24T15:50:02Z</time>
      </trkpt>
      <trkpt lat="45.50679" lon="6.69643">
        <ele>2091.04</ele>
        <time>2016-03-24T15:50:05Z</time>
      </trkpt>
      <trkpt lat="45.50657" lon="6.69638">
        <ele>2095.88</ele>
        <time>2016-03-24T15:50:09Z</time>
      </trkpt>
      <trkpt lat="45.50639" lon="6.69631">
        <ele>2101.52</ele>
        <time>2016-03-24T15:50:12Z</time>
      </trkpt>
      <trkpt lat="45.50617" lon="6.69623">
        <ele>2103.45</ele>
        <time>2016-03-24T15:50:16Z</time>
      </trkpt>
      <trkpt lat="45.50596" lon="6.69617">
        <ele>2104.29</ele>
        <time>2016-03-24T15:50:20Z</time>
      </trkpt>
      <trkpt lat="45.50576" lon="6.69608">
        <ele>2104.56</ele>
        <time>2016-03-24T15:50:24Z</time>
      </trkpt>
      <trkpt lat="45.50555" lon="6.69604">
        <ele>2106.42</ele>
        <time>2016-03-24T15:50:28Z</time>
      </trkpt>
      <trkpt lat="45.50534" lon="6.69597">
        <ele>2108.32</ele>
        <time>2016-03-24T15:50:32Z</time>
      </trkpt>
      <trkpt lat="45.50512" lon="6.6959">
        <ele>2109.52</ele>
        <time>2016-03-24T15:50:36Z</time>
      </trkpt>
      <trkpt lat="45.50491" lon="6.69585">
        <ele>2111.52</ele>
        <time>2016-03-24T15:50:40Z</time>
      </trkpt>
      <trkpt lat="45.50471" lon="6.69581">
        <ele>2113.52</ele>
        <time>2016-03-24T15:50:44Z</time>
      </trkpt>
      <trkpt lat="45.50449" lon="6.69573">
        <ele>2116.28</ele>
        <time>2016-03-24T15:50:48Z</time>
      </trkpt>
      <trkpt lat="45.50429" lon="6.69567">
        <ele>2119.04</ele>
        <time>2016-03-24T15:50:52Z</time>
      </trkpt>
      <trkpt lat="45.50407" lon="6.69557">
        <ele>2122.51</ele>
        <time>2016-03-24T15:50:56Z</time>
      </trkpt>
      <trkpt lat="45.50387" lon="6.69549">
        <ele>2127.69</ele>
        <time>2016-03-24T15:51:00Z</time>
      </trkpt>
      <trkpt lat="45.50365" lon="6.69544">
        <ele>2129.49</ele>
        <time>2016-03-24T15:51:04Z</time>
      </trkpt>
      <trkpt lat="45.50344" lon="6.69534">
        <ele>2131.49</ele>
        <time>2016-03-24T15:51:08Z</time>
      </trkpt>
      <trkpt lat="45.50323" lon="6.69531">
        <ele>2131.62</ele>
        <time>2016-03-24T15:51:12Z</time>
      </trkpt>
      <trkpt lat="45.50303" lon="6.69523">
        <ele>2134.33</ele>
        <time>2016-03-24T15:51:16Z</time>
      </trkpt>
      <trkpt lat="45.50284" lon="6.69516">
        <ele>2134.36</ele>
        <time>2016-03-24T15:51:20Z</time>
      </trkpt>
      <trkpt lat="45.50263" lon="6.69506">
        <ele>2136.3</ele>
        <time>2016-03-24T15:51:24Z</time>
      </trkpt>
      <trkpt lat="45.50243" lon="6.69499">
        <ele>2139.28</ele>
        <time>2016-03-24T15:51:28Z</time>
      </trkpt>
      <trkpt lat="45.50221" lon="6.69494">
        <ele>2146.11</ele>
        <time>2016-03-24T15:51:32Z</time>
      </trkpt>
      <trkpt lat="45.502" lon="6.69487">
        <ele>2153.07</ele>
        <time>2016-03-24T15:51:36Z</time>
      </trkpt>
      <trkpt lat="45.50179" lon="6.69482">
        <ele>2157.28</ele>
        <time>2016-03-24T15:51:40Z</time>
      </trkpt>
      <trkpt lat="45.50157" lon="6.69475">
        <ele>2160.33</ele>
        <time>2016-03-24T15:51:44Z</time>
      </trkpt>
      <trkpt lat="45.50137" lon="6.69469">
        <ele>2167.26</ele>
        <time>2016-03-24T15:51:48Z</time>
      </trkpt>
      <trkpt lat="45.50117" lon="6.69462">
        <ele>2169.29</ele>
        <time>2016-03-24T15:51:52Z</time>
      </trkpt>
      <trkpt lat="45.50095" lon="6.69455">
        <ele>2178.07</ele>
        <time>2016-03-24T15:51:56Z</time>
      </trkpt>
      <trkpt lat="45.50075" lon="6.69449">
        <ele>2181.44</ele>
        <time>2016-03-24T15:52:00Z</time>
      </trkpt>
      <trkpt lat="45.50054" lon="6.69444">
        <ele>2184.9</ele>
        <time>2016-03-24T15:52:04Z</time>
      </trkpt>
      <trkpt lat="45.50034" lon="6.69441">
        <ele>2191.99</ele>
        <time>2016-03-24T15:52:08Z</time>
      </trkpt>
      <trkpt lat="45.50012" lon="6.69439">
        <ele>2198.3</ele>
        <time>2016-03-24T15:52:12Z</time>
      </trkpt>
      <trkpt lat="45.49992" lon="6.69426">
        <ele>2199.49</ele>
        <time>2016-03-24T15:52:16Z</time>
      </trkpt>
      <trkpt lat="45.49972" lon="6.69417">
        <ele>2204.32</ele>
        <time>2016-03-24T15:52:20Z</time>
      </trkpt>
      <trkpt lat="45.49951" lon="6.69412">
        <ele>2214.66</ele>
        <time>2016-03-24T15:52:24Z</time>
      </trkpt>
      <trkpt lat="45.4993" lon="6.69405">
        <ele>2216.52</ele>
        <time>2016-03-24T15:52:28Z</time>
      </trkpt>
      <trkpt lat="45.4991" lon="6.69401">
        <ele>2223.28</ele>
        <time>2016-03-24T15:52:32Z</time>
      </trkpt>
      <trkpt lat="45.49888" lon="6.69394">
        <ele>2228.31</ele>
        <time>2016-03-24T15:52:36Z</time>
      </trkpt>
      <trkpt lat="45.49868" lon="6.69386">
        <ele>2232.31</ele>
        <time>2016-03-24T15:52:40Z</time>
      </trkpt>
      <trkpt lat="45.49847" lon="6.6938">
        <ele>2234.51</ele>
        <time>2016-03-24T15:52:44Z</time>
      </trkpt>
      <trkpt lat="45.49827" lon="6.69372">
        <ele>2238.47</ele>
        <time>2016-03-24T15:52:48Z</time>
      </trkpt>
      <trkpt lat="45.49808" lon="6.69373">
        <ele>2237.68</ele>
        <time>2016-03-24T15:52:55Z</time>
      </trkpt>
      <trkpt lat="45.49792" lon="6.69359">
        <ele>2237.33</ele>
        <time>2016-03-24T15:53:03Z</time>
      </trkpt>
      <trkpt lat="45.49777" lon="6.69344">
        <ele>2238.37</ele>
        <time>2016-03-24T15:53:17Z</time>
      </trkpt>
      <trkpt lat="45.49765" lon="6.69323">
        <ele>2239.33</ele>
        <time>2016-03-24T15:53:23Z</time>
      </trkpt>
      <trkpt lat="45.49752" lon="6.69302">
        <ele>2235.62</ele>
        <time>2016-03-24T15:53:27Z</time>
      </trkpt>
      <trkpt lat="45.49753" lon="6.69269">
        <ele>2229.78</ele>
        <time>2016-03-24T15:53:31Z</time>
      </trkpt>
      <trkpt lat="45.4976" lon="6.69244">
        <ele>2229.54</ele>
        <time>2016-03-24T15:53:33Z</time>
      </trkpt>
      <trkpt lat="45.49773" lon="6.69225">
        <ele>2236.08</ele>
        <time>2016-03-24T15:53:37Z</time>
      </trkpt>
      <trkpt lat="45.49787" lon="6.69207">
        <ele>2236.72</ele>
        <time>2016-03-24T15:53:41Z</time>
      </trkpt>
      <trkpt lat="45.49806" lon="6.6919">
        <ele>2236.4</ele>
        <time>2016-03-24T15:53:45Z</time>
      </trkpt>
      <trkpt lat="45.49827" lon="6.69172">
        <ele>2233.77</ele>
        <time>2016-03-24T15:53:49Z</time>
      </trkpt>
      <trkpt lat="45.49844" lon="6.69159">
        <ele>2232.57</ele>
        <time>2016-03-24T15:53:52Z</time>
      </trkpt>
      <trkpt lat="45.49863" lon="6.69142">
        <ele>2230.51</ele>
        <time>2016-03-24T15:53:56Z</time>
      </trkpt>
      <trkpt lat="45.49881" lon="6.69129">
        <ele>2228.58</ele>
        <time>2016-03-24T15:53:59Z</time>
      </trkpt>
      <trkpt lat="45.49898" lon="6.69115">
        <ele>2227.54</ele>
        <time>2016-03-24T15:54:02Z</time>
      </trkpt>
      <trkpt lat="45.49917" lon="6.69098">
        <ele>2226.73</ele>
        <time>2016-03-24T15:54:05Z</time>
      </trkpt>
      <trkpt lat="45.49934" lon="6.69084">
        <ele>2223.78</ele>
        <time>2016-03-24T15:54:08Z</time>
      </trkpt>
      <trkpt lat="45.49954" lon="6.69076">
        <ele>2219.98</ele>
        <time>2016-03-24T15:54:11Z</time>
      </trkpt>
      <trkpt lat="45.49976" lon="6.69074">
        <ele>2215.98</ele>
        <time>2016-03-24T15:54:14Z</time>
      </trkpt>
      <trkpt lat="45.49999" lon="6.69068">
        <ele>2211.98</ele>
        <time>2016-03-24T15:54:17Z</time>
      </trkpt>
      <trkpt lat="45.50025" lon="6.69062">
        <ele>2207.18</ele>
        <time>2016-03-24T15:54:20Z</time>
      </trkpt>
      <trkpt lat="45.50045" lon="6.69059">
        <ele>2203.84</ele>
        <time>2016-03-24T15:54:22Z</time>
      </trkpt>
      <trkpt lat="45.50062" lon="6.69047">
        <ele>2201.78</ele>
        <time>2016-03-24T15:54:24Z</time>
      </trkpt>
      <trkpt lat="45.50081" lon="6.69043">
        <ele>2196.42</ele>
        <time>2016-03-24T15:54:26Z</time>
      </trkpt>
      <trkpt lat="45.50099" lon="6.69037">
        <ele>2193.81</ele>
        <time>2016-03-24T15:54:28Z</time>
      </trkpt>
      <trkpt lat="45.50123" lon="6.69021">
        <ele>2191.78</ele>
        <time>2016-03-24T15:54:30Z</time>
      </trkpt>
      <trkpt lat="45.50141" lon="6.69006">
        <ele>2188.02</ele>
        <time>2016-03-24T15:54:32Z</time>
      </trkpt>
      <trkpt lat="45.50153" lon="6.68985">
        <ele>2184.99</ele>
        <time>2016-03-24T15:54:34Z</time>
      </trkpt>
      <trkpt lat="45.50166" lon="6.68963">
        <ele>2183.59</ele>
        <time>2016-03-24T15:54:36Z</time>
      </trkpt>
      <trkpt lat="45.50173" lon="6.68927">
        <ele>2180.56</ele>
        <time>2016-03-24T15:54:39Z</time>
      </trkpt>
      <trkpt lat="45.50189" lon="6.68907">
        <ele>2175.22</ele>
        <time>2016-03-24T15:54:42Z</time>
      </trkpt>
      <trkpt lat="45.50205" lon="6.68891">
        <ele>2174.56</ele>
        <time>2016-03-24T15:54:44Z</time>
      </trkpt>
      <trkpt lat="45.50219" lon="6.68869">
        <ele>2173.73</ele>
        <time>2016-03-24T15:54:46Z</time>
      </trkpt>
      <trkpt lat="45.50227" lon="6.68845">
        <ele>2169.54</ele>
        <time>2016-03-24T15:54:48Z</time>
      </trkpt>
      <trkpt lat="45.50236" lon="6.68821">
        <ele>2165.05</ele>
        <time>2016-03-24T15:54:50Z</time>
      </trkpt>
      <trkpt lat="45.50253" lon="6.68792">
        <ele>2160.76</ele>
        <time>2016-03-24T15:54:53Z</time>
      </trkpt>
      <trkpt lat="45.50265" lon="6.68772">
        <ele>2159.58</ele>
        <time>2016-03-24T15:54:55Z</time>
      </trkpt>
      <trkpt lat="45.50285" lon="6.68749">
        <ele>2153.9</ele>
        <time>2016-03-24T15:54:58Z</time>
      </trkpt>
      <trkpt lat="45.50298" lon="6.68728">
        <ele>2147.79</ele>
        <time>2016-03-24T15:55:00Z</time>
      </trkpt>
      <trkpt lat="45.50312" lon="6.68705">
        <ele>2141.14</ele>
        <time>2016-03-24T15:55:02Z</time>
      </trkpt>
      <trkpt lat="45.50329" lon="6.68677">
        <ele>2137.04</ele>
        <time>2016-03-24T15:55:04Z</time>
      </trkpt>
      <trkpt lat="45.50344" lon="6.68648">
        <ele>2134.79</ele>
        <time>2016-03-24T15:55:06Z</time>
      </trkpt>
      <trkpt lat="45.50353" lon="6.68622">
        <ele>2131.18</ele>
        <time>2016-03-24T15:55:08Z</time>
      </trkpt>
      <trkpt lat="45.50362" lon="6.68597">
        <ele>2128.16</ele>
        <time>2016-03-24T15:55:10Z</time>
      </trkpt>
      <trkpt lat="45.50379" lon="6.6857">
        <ele>2125.74</ele>
        <time>2016-03-24T15:55:13Z</time>
      </trkpt>
      <trkpt lat="45.50392" lon="6.68539">
        <ele>2120.25</ele>
        <time>2016-03-24T15:55:16Z</time>
      </trkpt>
      <trkpt lat="45.50399" lon="6.68501">
        <ele>2114.03</ele>
        <time>2016-03-24T15:55:19Z</time>
      </trkpt>
      <trkpt lat="45.50407" lon="6.68466">
        <ele>2110.75</ele>
        <time>2016-03-24T15:55:22Z</time>
      </trkpt>
      <trkpt lat="45.50414" lon="6.68438">
        <ele>2109.73</ele>
        <time>2016-03-24T15:55:25Z</time>
      </trkpt>
      <trkpt lat="45.50415" lon="6.6841">
        <ele>2107.58</ele>
        <time>2016-03-24T15:55:28Z</time>
      </trkpt>
      <trkpt lat="45.50412" lon="6.68383">
        <ele>2104.78</ele>
        <time>2016-03-24T15:55:31Z</time>
      </trkpt>
      <trkpt lat="45.50399" lon="6.68361">
        <ele>2101.17</ele>
        <time>2016-03-24T15:55:34Z</time>
      </trkpt>
      <trkpt lat="45.50386" lon="6.68326">
        <ele>2097.02</ele>
        <time>2016-03-24T15:55:37Z</time>
      </trkpt>
      <trkpt lat="45.50378" lon="6.68298">
        <ele>2093.83</ele>
        <time>2016-03-24T15:55:39Z</time>
      </trkpt>
      <trkpt lat="45.50368" lon="6.68274">
        <ele>2091.78</ele>
        <time>2016-03-24T15:55:41Z</time>
      </trkpt>
      <trkpt lat="45.5036" lon="6.68242">
        <ele>2089.78</ele>
        <time>2016-03-24T15:55:43Z</time>
      </trkpt>
      <trkpt lat="45.50358" lon="6.68206">
        <ele>2088.58</ele>
        <time>2016-03-24T15:55:45Z</time>
      </trkpt>
      <trkpt lat="45.50357" lon="6.68168">
        <ele>2086.77</ele>
        <time>2016-03-24T15:55:47Z</time>
      </trkpt>
      <trkpt lat="45.50354" lon="6.68133">
        <ele>2086.54</ele>
        <time>2016-03-24T15:55:49Z</time>
      </trkpt>
      <trkpt lat="45.50342" lon="6.68102">
        <ele>2083.81</ele>
        <time>2016-03-24T15:55:51Z</time>
      </trkpt>
      <trkpt lat="45.50332" lon="6.68075">
        <ele>2074.73</ele>
        <time>2016-03-24T15:55:57Z</time>
      </trkpt>
      <trkpt lat="45.50342" lon="6.68045">
        <ele>2072.78</ele>
        <time>2016-03-24T15:55:59Z</time>
      </trkpt>
      <trkpt lat="45.50353" lon="6.68012">
        <ele>2071.57</ele>
        <time>2016-03-24T15:56:02Z</time>
      </trkpt>
      <trkpt lat="45.50364" lon="6.6799">
        <ele>2067.37</ele>
        <time>2016-03-24T15:56:04Z</time>
      </trkpt>
      <trkpt lat="45.50377" lon="6.6797">
        <ele>2064.16</ele>
        <time>2016-03-24T15:56:06Z</time>
      </trkpt>
      <trkpt lat="45.50384" lon="6.6794">
        <ele>2058.9</ele>
        <time>2016-03-24T15:56:09Z</time>
      </trkpt>
      <trkpt lat="45.50371" lon="6.67915">
        <ele>2044.15</ele>
        <time>2016-03-24T15:56:11Z</time>
      </trkpt>
      <trkpt lat="45.50372" lon="6.67883">
        <ele>2039.24</ele>
        <time>2016-03-24T15:56:13Z</time>
      </trkpt>
      <trkpt lat="45.50372" lon="6.67849">
        <ele>2031.36</ele>
        <time>2016-03-24T15:56:15Z</time>
      </trkpt>
      <trkpt lat="45.5038" lon="6.67822">
        <ele>2027.84</ele>
        <time>2016-03-24T15:56:17Z</time>
      </trkpt>
      <trkpt lat="45.50392" lon="6.67791">
        <ele>2025.74</ele>
        <time>2016-03-24T15:56:20Z</time>
      </trkpt>
      <trkpt lat="45.50405" lon="6.67759">
        <ele>2023.74</ele>
        <time>2016-03-24T15:56:23Z</time>
      </trkpt>
      <trkpt lat="45.50415" lon="6.67735">
        <ele>2022.54</ele>
        <time>2016-03-24T15:56:27Z</time>
      </trkpt>
      <trkpt lat="45.50423" lon="6.67712">
        <ele>2017.99</ele>
        <time>2016-03-24T15:56:31Z</time>
      </trkpt>
      <trkpt lat="45.50429" lon="6.67684">
        <ele>2016.54</ele>
        <time>2016-03-24T15:56:35Z</time>
      </trkpt>
      <trkpt lat="45.50439" lon="6.67661">
        <ele>2015.6</ele>
        <time>2016-03-24T15:56:38Z</time>
      </trkpt>
      <trkpt lat="45.50447" lon="6.67634">
        <ele>2012.97</ele>
        <time>2016-03-24T15:56:41Z</time>
      </trkpt>
      <trkpt lat="45.50455" lon="6.67607">
        <ele>2010.58</ele>
        <time>2016-03-24T15:56:44Z</time>
      </trkpt>
      <trkpt lat="45.50466" lon="6.67575">
        <ele>2009.73</ele>
        <time>2016-03-24T15:56:47Z</time>
      </trkpt>
      <trkpt lat="45.50475" lon="6.67546">
        <ele>2008.57</ele>
        <time>2016-03-24T15:56:50Z</time>
      </trkpt>
      <trkpt lat="45.50479" lon="6.67516">
        <ele>2007.53</ele>
        <time>2016-03-24T15:56:54Z</time>
      </trkpt>
      <trkpt lat="45.50478" lon="6.67487">
        <ele>2004.93</ele>
        <time>2016-03-24T15:56:58Z</time>
      </trkpt>
      <trkpt lat="45.50465" lon="6.6747">
        <ele>1991.78</ele>
        <time>2016-03-24T15:57:08Z</time>
      </trkpt>
      <trkpt lat="45.50463" lon="6.67444">
        <ele>1988.53</ele>
        <time>2016-03-24T15:58:34Z</time>
      </trkpt>
      <trkpt lat="45.50446" lon="6.6742">
        <ele>1980.86</ele>
        <time>2016-03-24T15:58:58Z</time>
      </trkpt>
      <trkpt lat="45.50438" lon="6.6739">
        <ele>1984.41</ele>
        <time>2016-03-24T15:59:01Z</time>
      </trkpt>
      <trkpt lat="45.50431" lon="6.67363">
        <ele>1985.45</ele>
        <time>2016-03-24T15:59:05Z</time>
      </trkpt>
      <trkpt lat="45.50424" lon="6.67336">
        <ele>1991.46</ele>
        <time>2016-03-24T15:59:09Z</time>
      </trkpt>
      <trkpt lat="45.50415" lon="6.67311">
        <ele>1990.73</ele>
        <time>2016-03-24T15:59:13Z</time>
      </trkpt>
      <trkpt lat="45.50407" lon="6.67288">
        <ele>1990.49</ele>
        <time>2016-03-24T15:59:17Z</time>
      </trkpt>
      <trkpt lat="45.50398" lon="6.67263">
        <ele>1988.73</ele>
        <time>2016-03-24T15:59:22Z</time>
      </trkpt>
      <trkpt lat="45.50397" lon="6.67232">
        <ele>1998.46</ele>
        <time>2016-03-24T15:59:26Z</time>
      </trkpt>
      <trkpt lat="45.50399" lon="6.67202">
        <ele>2015.71</ele>
        <time>2016-03-24T15:59:30Z</time>
      </trkpt>
      <trkpt lat="45.50396" lon="6.67173">
        <ele>2029.6</ele>
        <time>2016-03-24T15:59:35Z</time>
      </trkpt>
      <trkpt lat="45.5039" lon="6.67145">
        <ele>2042.02</ele>
        <time>2016-03-24T15:59:40Z</time>
      </trkpt>
      <trkpt lat="45.50383" lon="6.67116">
        <ele>2054.99</ele>
        <time>2016-03-24T15:59:45Z</time>
      </trkpt>
      <trkpt lat="45.50377" lon="6.67087">
        <ele>2066.22</ele>
        <time>2016-03-24T15:59:51Z</time>
      </trkpt>
      <trkpt lat="45.50373" lon="6.6706">
        <ele>2072.24</ele>
        <time>2016-03-24T15:59:55Z</time>
      </trkpt>
      <trkpt lat="45.50365" lon="6.6703">
        <ele>2076.92</ele>
        <time>2016-03-24T16:00:00Z</time>
      </trkpt>
      <trkpt lat="45.5036" lon="6.67004">
        <ele>2082.07</ele>
        <time>2016-03-24T16:00:04Z</time>
      </trkpt>
      <trkpt lat="45.50355" lon="6.66975">
        <ele>2091.79</ele>
        <time>2016-03-24T16:00:09Z</time>
      </trkpt>
      <trkpt lat="45.5035" lon="6.66948">
        <ele>2101.03</ele>
        <time>2016-03-24T16:00:14Z</time>
      </trkpt>
      <trkpt lat="45.50342" lon="6.6692">
        <ele>2110.16</ele>
        <time>2016-03-24T16:00:19Z</time>
      </trkpt>
      <trkpt lat="45.50333" lon="6.66889">
        <ele>2117.7</ele>
        <time>2016-03-24T16:00:25Z</time>
      </trkpt>
      <trkpt lat="45.50328" lon="6.66861">
        <ele>2124.03</ele>
        <time>2016-03-24T16:00:30Z</time>
      </trkpt>
      <trkpt lat="45.50321" lon="6.66833">
        <ele>2128.47</ele>
        <time>2016-03-24T16:00:35Z</time>
      </trkpt>
      <trkpt lat="45.50316" lon="6.66806">
        <ele>2136.83</ele>
        <time>2016-03-24T16:00:39Z</time>
      </trkpt>
      <trkpt lat="45.50312" lon="6.66777">
        <ele>2146.03</ele>
        <time>2016-03-24T16:00:44Z</time>
      </trkpt>
      <trkpt lat="45.50306" lon="6.66752">
        <ele>2153.21</ele>
        <time>2016-03-24T16:00:48Z</time>
      </trkpt>
      <trkpt lat="45.50297" lon="6.66719">
        <ele>2157.44</ele>
        <time>2016-03-24T16:00:53Z</time>
      </trkpt>
      <trkpt lat="45.50292" lon="6.66691">
        <ele>2162.93</ele>
        <time>2016-03-24T16:00:58Z</time>
      </trkpt>
      <trkpt lat="45.50287" lon="6.66662">
        <ele>2169.51</ele>
        <time>2016-03-24T16:01:03Z</time>
      </trkpt>
      <trkpt lat="45.5028" lon="6.66637">
        <ele>2174.47</ele>
        <time>2016-03-24T16:01:07Z</time>
      </trkpt>
      <trkpt lat="45.50273" lon="6.66608">
        <ele>2180.32</ele>
        <time>2016-03-24T16:01:12Z</time>
      </trkpt>
      <trkpt lat="45.50269" lon="6.66578">
        <ele>2186.28</ele>
        <time>2016-03-24T16:01:17Z</time>
      </trkpt>
      <trkpt lat="45.50265" lon="6.66551">
        <ele>2191.48</ele>
        <time>2016-03-24T16:01:22Z</time>
      </trkpt>
      <trkpt lat="45.50259" lon="6.66522">
        <ele>2200.24</ele>
        <time>2016-03-24T16:01:27Z</time>
      </trkpt>
      <trkpt lat="45.50254" lon="6.66496">
        <ele>2211</ele>
        <time>2016-03-24T16:01:32Z</time>
      </trkpt>
      <trkpt lat="45.50247" lon="6.66469">
        <ele>2217.28</ele>
        <time>2016-03-24T16:01:37Z</time>
      </trkpt>
      <trkpt lat="45.50241" lon="6.66438">
        <ele>2226.06</ele>
        <time>2016-03-24T16:01:42Z</time>
      </trkpt>
      <trkpt lat="45.50236" lon="6.66409">
        <ele>2235.03</ele>
        <time>2016-03-24T16:01:48Z</time>
      </trkpt>
      <trkpt lat="45.5023" lon="6.66382">
        <ele>2245.22</ele>
        <time>2016-03-24T16:01:53Z</time>
      </trkpt>
      <trkpt lat="45.50222" lon="6.66355">
        <ele>2253.2</ele>
        <time>2016-03-24T16:01:58Z</time>
      </trkpt>
      <trkpt lat="45.50215" lon="6.6633">
        <ele>2264.01</ele>
        <time>2016-03-24T16:02:02Z</time>
      </trkpt>
      <trkpt lat="45.5021" lon="6.66306">
        <ele>2276.41</ele>
        <time>2016-03-24T16:02:06Z</time>
      </trkpt>
      <trkpt lat="45.50203" lon="6.66277">
        <ele>2291.62</ele>
        <time>2016-03-24T16:02:11Z</time>
      </trkpt>
      <trkpt lat="45.50199" lon="6.6625">
        <ele>2306.81</ele>
        <time>2016-03-24T16:02:16Z</time>
      </trkpt>
      <trkpt lat="45.50195" lon="6.66222">
        <ele>2320.77</ele>
        <time>2016-03-24T16:02:21Z</time>
      </trkpt>
      <trkpt lat="45.50188" lon="6.66197">
        <ele>2331.06</ele>
        <time>2016-03-24T16:02:26Z</time>
      </trkpt>
      <trkpt lat="45.50182" lon="6.66167">
        <ele>2335.49</ele>
        <time>2016-03-24T16:02:31Z</time>
      </trkpt>
      <trkpt lat="45.50188" lon="6.66141">
        <ele>2337.29</ele>
        <time>2016-03-24T16:02:41Z</time>
      </trkpt>
      <trkpt lat="45.50206" lon="6.66125">
        <ele>2336.65</ele>
        <time>2016-03-24T16:02:48Z</time>
      </trkpt>
      <trkpt lat="45.50225" lon="6.66125">
        <ele>2336.53</ele>
        <time>2016-03-24T16:02:53Z</time>
      </trkpt>
      <trkpt lat="45.50246" lon="6.66123">
        <ele>2334.57</ele>
        <time>2016-03-24T16:02:57Z</time>
      </trkpt>
      <trkpt lat="45.50264" lon="6.66119">
        <ele>2333.54</ele>
        <time>2016-03-24T16:03:00Z</time>
      </trkpt>
      <trkpt lat="45.50282" lon="6.66111">
        <ele>2330.78</ele>
        <time>2016-03-24T16:03:03Z</time>
      </trkpt>
      <trkpt lat="45.50302" lon="6.66105">
        <ele>2327.75</ele>
        <time>2016-03-24T16:03:06Z</time>
      </trkpt>
      <trkpt lat="45.50324" lon="6.66101">
        <ele>2326.54</ele>
        <time>2016-03-24T16:03:09Z</time>
      </trkpt>
      <trkpt lat="45.50347" lon="6.66097">
        <ele>2325.73</ele>
        <time>2016-03-24T16:03:12Z</time>
      </trkpt>
      <trkpt lat="45.5037" lon="6.66092">
        <ele>2324.73</ele>
        <time>2016-03-24T16:03:15Z</time>
      </trkpt>
      <trkpt lat="45.50392" lon="6.66089">
        <ele>2323.57</ele>
        <time>2016-03-24T16:03:18Z</time>
      </trkpt>
      <trkpt lat="45.50409" lon="6.66085">
        <ele>2322.54</ele>
        <time>2016-03-24T16:03:21Z</time>
      </trkpt>
      <trkpt lat="45.50429" lon="6.66083">
        <ele>2322.53</ele>
        <time>2016-03-24T16:03:25Z</time>
      </trkpt>
      <trkpt lat="45.50448" lon="6.66081">
        <ele>2318.65</ele>
        <time>2016-03-24T16:03:30Z</time>
      </trkpt>
      <trkpt lat="45.50468" lon="6.66083">
        <ele>2317.54</ele>
        <time>2016-03-24T16:03:35Z</time>
      </trkpt>
      <trkpt lat="45.5049" lon="6.66086">
        <ele>2314.74</ele>
        <time>2016-03-24T16:03:41Z</time>
      </trkpt>
      <trkpt lat="45.50514" lon="6.66094">
        <ele>2313.72</ele>
        <time>2016-03-24T16:03:45Z</time>
      </trkpt>
      <trkpt lat="45.50538" lon="6.661">
        <ele>2309.82</ele>
        <time>2016-03-24T16:03:48Z</time>
      </trkpt>
      <trkpt lat="45.50555" lon="6.6611">
        <ele>2306.02</ele>
        <time>2016-03-24T16:03:50Z</time>
      </trkpt>
      <trkpt lat="45.50574" lon="6.66111">
        <ele>2303.95</ele>
        <time>2016-03-24T16:03:52Z</time>
      </trkpt>
      <trkpt lat="45.50594" lon="6.66116">
        <ele>2299.07</ele>
        <time>2016-03-24T16:03:54Z</time>
      </trkpt>
      <trkpt lat="45.50611" lon="6.66127">
        <ele>2295.03</ele>
        <time>2016-03-24T16:03:56Z</time>
      </trkpt>
      <trkpt lat="45.50629" lon="6.66131">
        <ele>2293.59</ele>
        <time>2016-03-24T16:03:58Z</time>
      </trkpt>
      <trkpt lat="45.50648" lon="6.66131">
        <ele>2292.57</ele>
        <time>2016-03-24T16:04:00Z</time>
      </trkpt>
      <trkpt lat="45.50673" lon="6.66136">
        <ele>2288.82</ele>
        <time>2016-03-24T16:04:03Z</time>
      </trkpt>
      <trkpt lat="45.50684" lon="6.66158">
        <ele>2283.8</ele>
        <time>2016-03-24T16:04:06Z</time>
      </trkpt>
      <trkpt lat="45.50694" lon="6.66183">
        <ele>2275.66</ele>
        <time>2016-03-24T16:04:09Z</time>
      </trkpt>
      <trkpt lat="45.50699" lon="6.66216">
        <ele>2269.64</ele>
        <time>2016-03-24T16:04:12Z</time>
      </trkpt>
      <trkpt lat="45.50704" lon="6.66256">
        <ele>2265.02</ele>
        <time>2016-03-24T16:04:15Z</time>
      </trkpt>
      <trkpt lat="45.50713" lon="6.66284">
        <ele>2262.79</ele>
        <time>2016-03-24T16:04:17Z</time>
      </trkpt>
      <trkpt lat="45.50714" lon="6.66311">
        <ele>2253.58</ele>
        <time>2016-03-24T16:04:19Z</time>
      </trkpt>
      <trkpt lat="45.50728" lon="6.66337">
        <ele>2247.13</ele>
        <time>2016-03-24T16:04:21Z</time>
      </trkpt>
      <trkpt lat="45.50746" lon="6.66357">
        <ele>2242.88</ele>
        <time>2016-03-24T16:04:23Z</time>
      </trkpt>
      <trkpt lat="45.50764" lon="6.66384">
        <ele>2235.85</ele>
        <time>2016-03-24T16:04:26Z</time>
      </trkpt>
      <trkpt lat="45.50782" lon="6.66393">
        <ele>2233.78</ele>
        <time>2016-03-24T16:04:28Z</time>
      </trkpt>
      <trkpt lat="45.50798" lon="6.66411">
        <ele>2230.98</ele>
        <time>2016-03-24T16:04:30Z</time>
      </trkpt>
      <trkpt lat="45.50822" lon="6.66409">
        <ele>2225.83</ele>
        <time>2016-03-24T16:04:33Z</time>
      </trkpt>
      <trkpt lat="45.50838" lon="6.66393">
        <ele>2218.5</ele>
        <time>2016-03-24T16:04:35Z</time>
      </trkpt>
      <trkpt lat="45.50855" lon="6.664">
        <ele>2207.97</ele>
        <time>2016-03-24T16:04:37Z</time>
      </trkpt>
      <trkpt lat="45.50889" lon="6.66401">
        <ele>2199.85</ele>
        <time>2016-03-24T16:04:40Z</time>
      </trkpt>
      <trkpt lat="45.50915" lon="6.66415">
        <ele>2187.22</ele>
        <time>2016-03-24T16:04:42Z</time>
      </trkpt>
      <trkpt lat="45.50944" lon="6.66412">
        <ele>2172.48</ele>
        <time>2016-03-24T16:04:44Z</time>
      </trkpt>
      <trkpt lat="45.50976" lon="6.66416">
        <ele>2159.89</ele>
        <time>2016-03-24T16:04:46Z</time>
      </trkpt>
      <trkpt lat="45.51002" lon="6.66433">
        <ele>2151.87</ele>
        <time>2016-03-24T16:04:48Z</time>
      </trkpt>
      <trkpt lat="45.51026" lon="6.66439">
        <ele>2148.82</ele>
        <time>2016-03-24T16:04:50Z</time>
      </trkpt>
      <trkpt lat="45.51048" lon="6.66438">
        <ele>2148.54</ele>
        <time>2016-03-24T16:04:52Z</time>
      </trkpt>
      <trkpt lat="45.51068" lon="6.66447">
        <ele>2144.37</ele>
        <time>2016-03-24T16:04:55Z</time>
      </trkpt>
      <trkpt lat="45.51088" lon="6.66462">
        <ele>2134.67</ele>
        <time>2016-03-24T16:04:58Z</time>
      </trkpt>
      <trkpt lat="45.51108" lon="6.66467">
        <ele>2127.54</ele>
        <time>2016-03-24T16:05:12Z</time>
      </trkpt>
      <trkpt lat="45.51127" lon="6.66478">
        <ele>2123.98</ele>
        <time>2016-03-24T16:05:15Z</time>
      </trkpt>
      <trkpt lat="45.51148" lon="6.66491">
        <ele>2116.27</ele>
        <time>2016-03-24T16:05:18Z</time>
      </trkpt>
      <trkpt lat="45.51171" lon="6.66511">
        <ele>2111.79</ele>
        <time>2016-03-24T16:05:21Z</time>
      </trkpt>
      <trkpt lat="45.51185" lon="6.66527">
        <ele>2111.54</ele>
        <time>2016-03-24T16:05:23Z</time>
      </trkpt>
      <trkpt lat="45.51203" lon="6.66544">
        <ele>2109.77</ele>
        <time>2016-03-24T16:05:25Z</time>
      </trkpt>
      <trkpt lat="45.51218" lon="6.66571">
        <ele>2109.5</ele>
        <time>2016-03-24T16:05:28Z</time>
      </trkpt>
      <trkpt lat="45.51229" lon="6.66594">
        <ele>2107.77</ele>
        <time>2016-03-24T16:05:30Z</time>
      </trkpt>
      <trkpt lat="45.51239" lon="6.66619">
        <ele>2087.63</ele>
        <time>2016-03-24T16:05:37Z</time>
      </trkpt>
      <trkpt lat="45.51235" lon="6.66645">
        <ele>2085.78</ele>
        <time>2016-03-24T16:05:39Z</time>
      </trkpt>
      <trkpt lat="45.51231" lon="6.66674">
        <ele>2085.38</ele>
        <time>2016-03-24T16:05:41Z</time>
      </trkpt>
      <trkpt lat="45.51226" lon="6.66704">
        <ele>2087.28</ele>
        <time>2016-03-24T16:05:43Z</time>
      </trkpt>
    </trkseg>
  </trk>
</gpx>